<?xml version="1.0" encoding="UTF-8" standalone="no" ?>
<gpx xmlns="http://www.topografix.com/GPX/1/1" xmlns:xsi="http://www.w3.org/2001/XMLSchema-instance" xsi:schemaLocation="http://www.topografix.com/GPX/1/1 http://www.topografix.com/GPX/1/1/gpx.xsd" version="1.1" creator="VisuGPX - https://www.visugpx.com">
  <metadata>
    <name>Pornichet 27/08/2020</name>
    <desc><![CDATA[Sortie VTT du jeudi 27 août 2020]]></desc>
  </metadata>
  <trk>
    <name><![CDATA[Pornichet Cyclisme]]></name>
    <trkseg>
      <trkpt lat="47.26411" lon="-2.31553">
        <ele>8.8000001907349</ele>
        <time>2020-08-27T07:00:18.000Z</time>
      </trkpt>
      <trkpt lat="47.26411" lon="-2.31553">
        <ele>8.8000001907349</ele>
        <time>2020-08-27T07:00:19.000Z</time>
      </trkpt>
      <trkpt lat="47.26409" lon="-2.31556">
        <ele>8.8000001907349</ele>
        <time>2020-08-27T07:01:21.000Z</time>
      </trkpt>
      <trkpt lat="47.26406" lon="-2.31561">
        <ele>8.8000001907349</ele>
        <time>2020-08-27T07:01:23.000Z</time>
      </trkpt>
      <trkpt lat="47.26404" lon="-2.31581">
        <ele>8.8000001907349</ele>
        <time>2020-08-27T07:01:29.000Z</time>
      </trkpt>
      <trkpt lat="47.26403" lon="-2.31616">
        <ele>8.8000001907349</ele>
        <time>2020-08-27T07:01:36.000Z</time>
      </trkpt>
      <trkpt lat="47.26407" lon="-2.31655">
        <ele>8.8000001907349</ele>
        <time>2020-08-27T07:01:43.000Z</time>
      </trkpt>
      <trkpt lat="47.26405" lon="-2.31662">
        <ele>8.8000001907349</ele>
        <time>2020-08-27T07:01:45.000Z</time>
      </trkpt>
      <trkpt lat="47.26402" lon="-2.31664">
        <ele>8.8000001907349</ele>
        <time>2020-08-27T07:01:46.000Z</time>
      </trkpt>
      <trkpt lat="47.26383" lon="-2.31675">
        <ele>8.8000001907349</ele>
        <time>2020-08-27T07:01:52.000Z</time>
      </trkpt>
      <trkpt lat="47.2635" lon="-2.31694">
        <ele>8.8000001907349</ele>
        <time>2020-08-27T07:01:59.000Z</time>
      </trkpt>
      <trkpt lat="47.2634" lon="-2.31699">
        <ele>8.3999996185303</ele>
        <time>2020-08-27T07:02:01.000Z</time>
      </trkpt>
      <trkpt lat="47.26335" lon="-2.31701">
        <ele>8</ele>
        <time>2020-08-27T07:02:02.000Z</time>
      </trkpt>
      <trkpt lat="47.26329" lon="-2.31704">
        <ele>7.5999999046326</ele>
        <time>2020-08-27T07:02:03.000Z</time>
      </trkpt>
      <trkpt lat="47.26324" lon="-2.31707">
        <ele>7.1999998092651</ele>
        <time>2020-08-27T07:02:04.000Z</time>
      </trkpt>
      <trkpt lat="47.26319" lon="-2.3171">
        <ele>6.8000001907349</ele>
        <time>2020-08-27T07:02:05.000Z</time>
      </trkpt>
      <trkpt lat="47.26309" lon="-2.31716">
        <ele>6.8000001907349</ele>
        <time>2020-08-27T07:02:07.000Z</time>
      </trkpt>
      <trkpt lat="47.26299" lon="-2.31713">
        <ele>6.8000001907349</ele>
        <time>2020-08-27T07:02:09.000Z</time>
      </trkpt>
      <trkpt lat="47.2629" lon="-2.31699">
        <ele>6.8000001907349</ele>
        <time>2020-08-27T07:02:12.000Z</time>
      </trkpt>
      <trkpt lat="47.26281" lon="-2.31683">
        <ele>6.8000001907349</ele>
        <time>2020-08-27T07:02:15.000Z</time>
      </trkpt>
      <trkpt lat="47.26274" lon="-2.31668">
        <ele>6.8000001907349</ele>
        <time>2020-08-27T07:02:18.000Z</time>
      </trkpt>
      <trkpt lat="47.26262" lon="-2.3164">
        <ele>6.8000001907349</ele>
        <time>2020-08-27T07:02:24.000Z</time>
      </trkpt>
      <trkpt lat="47.26246" lon="-2.31617">
        <ele>6.8000001907349</ele>
        <time>2020-08-27T07:02:29.000Z</time>
      </trkpt>
      <trkpt lat="47.26242" lon="-2.31614">
        <ele>6.8000001907349</ele>
        <time>2020-08-27T07:02:30.000Z</time>
      </trkpt>
      <trkpt lat="47.26222" lon="-2.316">
        <ele>6.8000001907349</ele>
        <time>2020-08-27T07:02:35.000Z</time>
      </trkpt>
      <trkpt lat="47.26217" lon="-2.31597">
        <ele>6.8000001907349</ele>
        <time>2020-08-27T07:02:36.000Z</time>
      </trkpt>
      <trkpt lat="47.26197" lon="-2.31599">
        <ele>6.8000001907349</ele>
        <time>2020-08-27T07:02:40.000Z</time>
      </trkpt>
      <trkpt lat="47.26158" lon="-2.31612">
        <ele>6.8000001907349</ele>
        <time>2020-08-27T07:02:48.000Z</time>
      </trkpt>
      <trkpt lat="47.26129" lon="-2.31617">
        <ele>6.8000001907349</ele>
        <time>2020-08-27T07:02:54.000Z</time>
      </trkpt>
      <trkpt lat="47.2611" lon="-2.31616">
        <ele>6.8000001907349</ele>
        <time>2020-08-27T07:02:58.000Z</time>
      </trkpt>
      <trkpt lat="47.26106" lon="-2.31615">
        <ele>6</ele>
        <time>2020-08-27T07:02:59.000Z</time>
      </trkpt>
      <trkpt lat="47.26103" lon="-2.31612">
        <ele>5.5999999046326</ele>
        <time>2020-08-27T07:03:00.000Z</time>
      </trkpt>
      <trkpt lat="47.261" lon="-2.31608">
        <ele>5.1999998092651</ele>
        <time>2020-08-27T07:03:01.000Z</time>
      </trkpt>
      <trkpt lat="47.26097" lon="-2.31604">
        <ele>4.8000001907349</ele>
        <time>2020-08-27T07:03:02.000Z</time>
      </trkpt>
      <trkpt lat="47.26095" lon="-2.31599">
        <ele>4.8000001907349</ele>
        <time>2020-08-27T07:03:03.000Z</time>
      </trkpt>
      <trkpt lat="47.26092" lon="-2.31594">
        <ele>4.8000001907349</ele>
        <time>2020-08-27T07:03:04.000Z</time>
      </trkpt>
      <trkpt lat="47.26081" lon="-2.31581">
        <ele>4.8000001907349</ele>
        <time>2020-08-27T07:03:09.000Z</time>
      </trkpt>
      <trkpt lat="47.2607" lon="-2.31561">
        <ele>4.8000001907349</ele>
        <time>2020-08-27T07:03:14.000Z</time>
      </trkpt>
      <trkpt lat="47.26058" lon="-2.31535">
        <ele>4.8000001907349</ele>
        <time>2020-08-27T07:03:19.000Z</time>
      </trkpt>
      <trkpt lat="47.26051" lon="-2.31526">
        <ele>4.8000001907349</ele>
        <time>2020-08-27T07:03:21.000Z</time>
      </trkpt>
      <trkpt lat="47.26039" lon="-2.31514">
        <ele>4.8000001907349</ele>
        <time>2020-08-27T07:03:25.000Z</time>
      </trkpt>
      <trkpt lat="47.26036" lon="-2.31516">
        <ele>5.1999998092651</ele>
        <time>2020-08-27T07:03:26.000Z</time>
      </trkpt>
      <trkpt lat="47.26033" lon="-2.3152">
        <ele>5.5999999046326</ele>
        <time>2020-08-27T07:03:27.000Z</time>
      </trkpt>
      <trkpt lat="47.26032" lon="-2.31525">
        <ele>6</ele>
        <time>2020-08-27T07:03:28.000Z</time>
      </trkpt>
      <trkpt lat="47.2603" lon="-2.31531">
        <ele>6.5999999046326</ele>
        <time>2020-08-27T07:03:29.000Z</time>
      </trkpt>
      <trkpt lat="47.26028" lon="-2.31537">
        <ele>7</ele>
        <time>2020-08-27T07:03:30.000Z</time>
      </trkpt>
      <trkpt lat="47.26024" lon="-2.31549">
        <ele>7</ele>
        <time>2020-08-27T07:03:32.000Z</time>
      </trkpt>
      <trkpt lat="47.26015" lon="-2.31562">
        <ele>7</ele>
        <time>2020-08-27T07:03:35.000Z</time>
      </trkpt>
      <trkpt lat="47.26004" lon="-2.31557">
        <ele>7</ele>
        <time>2020-08-27T07:03:38.000Z</time>
      </trkpt>
      <trkpt lat="47.25995" lon="-2.31543">
        <ele>7</ele>
        <time>2020-08-27T07:03:41.000Z</time>
      </trkpt>
      <trkpt lat="47.25989" lon="-2.31533">
        <ele>7</ele>
        <time>2020-08-27T07:03:43.000Z</time>
      </trkpt>
      <trkpt lat="47.25987" lon="-2.31528">
        <ele>7</ele>
        <time>2020-08-27T07:03:44.000Z</time>
      </trkpt>
      <trkpt lat="47.25974" lon="-2.31499">
        <ele>7</ele>
        <time>2020-08-27T07:03:49.000Z</time>
      </trkpt>
      <trkpt lat="47.2597" lon="-2.31488">
        <ele>7</ele>
        <time>2020-08-27T07:03:51.000Z</time>
      </trkpt>
      <trkpt lat="47.25959" lon="-2.31475">
        <ele>7</ele>
        <time>2020-08-27T07:03:54.000Z</time>
      </trkpt>
      <trkpt lat="47.25956" lon="-2.31471">
        <ele>7</ele>
        <time>2020-08-27T07:03:55.000Z</time>
      </trkpt>
      <trkpt lat="47.25935" lon="-2.31458">
        <ele>7</ele>
        <time>2020-08-27T07:04:01.000Z</time>
      </trkpt>
      <trkpt lat="47.25923" lon="-2.31471">
        <ele>7</ele>
        <time>2020-08-27T07:04:05.000Z</time>
      </trkpt>
      <trkpt lat="47.25915" lon="-2.31497">
        <ele>7</ele>
        <time>2020-08-27T07:04:10.000Z</time>
      </trkpt>
      <trkpt lat="47.25912" lon="-2.31508">
        <ele>7</ele>
        <time>2020-08-27T07:04:14.000Z</time>
      </trkpt>
      <trkpt lat="47.2591" lon="-2.31514">
        <ele>7</ele>
        <time>2020-08-27T07:04:18.000Z</time>
      </trkpt>
      <trkpt lat="47.25902" lon="-2.31528">
        <ele>7</ele>
        <time>2020-08-27T07:04:22.000Z</time>
      </trkpt>
      <trkpt lat="47.259" lon="-2.31532">
        <ele>7</ele>
        <time>2020-08-27T07:04:23.000Z</time>
      </trkpt>
      <trkpt lat="47.25898" lon="-2.31537">
        <ele>7.4000000953674</ele>
        <time>2020-08-27T07:04:24.000Z</time>
      </trkpt>
      <trkpt lat="47.25897" lon="-2.31543">
        <ele>7.8000001907349</ele>
        <time>2020-08-27T07:04:25.000Z</time>
      </trkpt>
      <trkpt lat="47.25895" lon="-2.31548">
        <ele>8.1999998092651</ele>
        <time>2020-08-27T07:04:26.000Z</time>
      </trkpt>
      <trkpt lat="47.25893" lon="-2.31553">
        <ele>8.6000003814697</ele>
        <time>2020-08-27T07:04:27.000Z</time>
      </trkpt>
      <trkpt lat="47.25891" lon="-2.31558">
        <ele>9</ele>
        <time>2020-08-27T07:04:28.000Z</time>
      </trkpt>
      <trkpt lat="47.25883" lon="-2.31573">
        <ele>9</ele>
        <time>2020-08-27T07:04:31.000Z</time>
      </trkpt>
      <trkpt lat="47.25874" lon="-2.31584">
        <ele>9</ele>
        <time>2020-08-27T07:04:34.000Z</time>
      </trkpt>
      <trkpt lat="47.25854" lon="-2.31604">
        <ele>9.3999996185303</ele>
        <time>2020-08-27T07:04:40.000Z</time>
      </trkpt>
      <trkpt lat="47.25851" lon="-2.31607">
        <ele>9.8000001907349</ele>
        <time>2020-08-27T07:04:41.000Z</time>
      </trkpt>
      <trkpt lat="47.25847" lon="-2.3161">
        <ele>10.39999961853</ele>
        <time>2020-08-27T07:04:42.000Z</time>
      </trkpt>
      <trkpt lat="47.25844" lon="-2.31613">
        <ele>10.800000190735</ele>
        <time>2020-08-27T07:04:43.000Z</time>
      </trkpt>
      <trkpt lat="47.25841" lon="-2.31616">
        <ele>11.199999809265</ele>
        <time>2020-08-27T07:04:44.000Z</time>
      </trkpt>
      <trkpt lat="47.25821" lon="-2.31634">
        <ele>11.199999809265</ele>
        <time>2020-08-27T07:04:50.000Z</time>
      </trkpt>
      <trkpt lat="47.25791" lon="-2.31656">
        <ele>11.199999809265</ele>
        <time>2020-08-27T07:04:57.000Z</time>
      </trkpt>
      <trkpt lat="47.2576" lon="-2.31681">
        <ele>11.199999809265</ele>
        <time>2020-08-27T07:05:04.000Z</time>
      </trkpt>
      <trkpt lat="47.25733" lon="-2.31703">
        <ele>11.199999809265</ele>
        <time>2020-08-27T07:05:10.000Z</time>
      </trkpt>
      <trkpt lat="47.25729" lon="-2.31704">
        <ele>11.199999809265</ele>
        <time>2020-08-27T07:05:11.000Z</time>
      </trkpt>
      <trkpt lat="47.25712" lon="-2.317">
        <ele>11.199999809265</ele>
        <time>2020-08-27T07:05:15.000Z</time>
      </trkpt>
      <trkpt lat="47.25704" lon="-2.31695">
        <ele>11.199999809265</ele>
        <time>2020-08-27T07:05:17.000Z</time>
      </trkpt>
      <trkpt lat="47.25695" lon="-2.31689">
        <ele>11.199999809265</ele>
        <time>2020-08-27T07:05:19.000Z</time>
      </trkpt>
      <trkpt lat="47.25688" lon="-2.31685">
        <ele>11.199999809265</ele>
        <time>2020-08-27T07:05:21.000Z</time>
      </trkpt>
      <trkpt lat="47.25675" lon="-2.3168">
        <ele>11.199999809265</ele>
        <time>2020-08-27T07:05:25.000Z</time>
      </trkpt>
      <trkpt lat="47.25672" lon="-2.31681">
        <ele>11.199999809265</ele>
        <time>2020-08-27T07:05:26.000Z</time>
      </trkpt>
      <trkpt lat="47.25654" lon="-2.31695">
        <ele>11.199999809265</ele>
        <time>2020-08-27T07:05:32.000Z</time>
      </trkpt>
      <trkpt lat="47.25647" lon="-2.31705">
        <ele>11.60000038147</ele>
        <time>2020-08-27T07:05:35.000Z</time>
      </trkpt>
      <trkpt lat="47.25644" lon="-2.31709">
        <ele>12</ele>
        <time>2020-08-27T07:05:36.000Z</time>
      </trkpt>
      <trkpt lat="47.25641" lon="-2.31713">
        <ele>12.39999961853</ele>
        <time>2020-08-27T07:05:37.000Z</time>
      </trkpt>
      <trkpt lat="47.25638" lon="-2.31716">
        <ele>12.800000190735</ele>
        <time>2020-08-27T07:05:38.000Z</time>
      </trkpt>
      <trkpt lat="47.25635" lon="-2.31719">
        <ele>13.199999809265</ele>
        <time>2020-08-27T07:05:39.000Z</time>
      </trkpt>
      <trkpt lat="47.2563" lon="-2.31731">
        <ele>13.199999809265</ele>
        <time>2020-08-27T07:05:43.000Z</time>
      </trkpt>
      <trkpt lat="47.25623" lon="-2.31756">
        <ele>13.199999809265</ele>
        <time>2020-08-27T07:05:48.000Z</time>
      </trkpt>
      <trkpt lat="47.25617" lon="-2.31763">
        <ele>13.60000038147</ele>
        <time>2020-08-27T07:05:50.000Z</time>
      </trkpt>
      <trkpt lat="47.25613" lon="-2.31765">
        <ele>14</ele>
        <time>2020-08-27T07:05:51.000Z</time>
      </trkpt>
      <trkpt lat="47.25609" lon="-2.31766">
        <ele>14.800000190735</ele>
        <time>2020-08-27T07:05:52.000Z</time>
      </trkpt>
      <trkpt lat="47.25605" lon="-2.31767">
        <ele>15.199999809265</ele>
        <time>2020-08-27T07:05:53.000Z</time>
      </trkpt>
      <trkpt lat="47.25595" lon="-2.31767">
        <ele>15.199999809265</ele>
        <time>2020-08-27T07:05:55.000Z</time>
      </trkpt>
      <trkpt lat="47.25586" lon="-2.3177">
        <ele>15.199999809265</ele>
        <time>2020-08-27T07:05:57.000Z</time>
      </trkpt>
      <trkpt lat="47.25582" lon="-2.31771">
        <ele>15.199999809265</ele>
        <time>2020-08-27T07:05:58.000Z</time>
      </trkpt>
      <trkpt lat="47.25567" lon="-2.31786">
        <ele>15.199999809265</ele>
        <time>2020-08-27T07:06:03.000Z</time>
      </trkpt>
      <trkpt lat="47.25552" lon="-2.31804">
        <ele>15.800000190735</ele>
        <time>2020-08-27T07:06:09.000Z</time>
      </trkpt>
      <trkpt lat="47.2555" lon="-2.31805">
        <ele>16.200000762939</ele>
        <time>2020-08-27T07:06:10.000Z</time>
      </trkpt>
      <trkpt lat="47.25546" lon="-2.31806">
        <ele>16.60000038147</ele>
        <time>2020-08-27T07:06:11.000Z</time>
      </trkpt>
      <trkpt lat="47.25543" lon="-2.31806">
        <ele>17</ele>
        <time>2020-08-27T07:06:12.000Z</time>
      </trkpt>
      <trkpt lat="47.2554" lon="-2.31808">
        <ele>17.39999961853</ele>
        <time>2020-08-27T07:06:13.000Z</time>
      </trkpt>
      <trkpt lat="47.25533" lon="-2.31809">
        <ele>17.39999961853</ele>
        <time>2020-08-27T07:06:15.000Z</time>
      </trkpt>
      <trkpt lat="47.2551" lon="-2.31819">
        <ele>17.39999961853</ele>
        <time>2020-08-27T07:06:23.000Z</time>
      </trkpt>
      <trkpt lat="47.25509" lon="-2.31822">
        <ele>17.39999961853</ele>
        <time>2020-08-27T07:06:24.000Z</time>
      </trkpt>
      <trkpt lat="47.2551" lon="-2.31827">
        <ele>17.39999961853</ele>
        <time>2020-08-27T07:06:26.000Z</time>
      </trkpt>
      <trkpt lat="47.25513" lon="-2.31829">
        <ele>17.39999961853</ele>
        <time>2020-08-27T07:06:29.000Z</time>
      </trkpt>
      <trkpt lat="47.25513" lon="-2.31828">
        <ele>17.39999961853</ele>
        <time>2020-08-27T07:06:30.000Z</time>
      </trkpt>
      <trkpt lat="47.25519" lon="-2.31828">
        <ele>19.39999961853</ele>
        <time>2020-08-27T07:13:26.000Z</time>
      </trkpt>
      <trkpt lat="47.25519" lon="-2.31835">
        <ele>19.39999961853</ele>
        <time>2020-08-27T07:13:28.000Z</time>
      </trkpt>
      <trkpt lat="47.25523" lon="-2.31864">
        <ele>19.39999961853</ele>
        <time>2020-08-27T07:13:36.000Z</time>
      </trkpt>
      <trkpt lat="47.25528" lon="-2.31894">
        <ele>19.39999961853</ele>
        <time>2020-08-27T07:13:46.000Z</time>
      </trkpt>
      <trkpt lat="47.25531" lon="-2.31915">
        <ele>19.39999961853</ele>
        <time>2020-08-27T07:13:55.000Z</time>
      </trkpt>
      <trkpt lat="47.25535" lon="-2.3192">
        <ele>19.39999961853</ele>
        <time>2020-08-27T07:13:58.000Z</time>
      </trkpt>
      <trkpt lat="47.2554" lon="-2.31918">
        <ele>19.39999961853</ele>
        <time>2020-08-27T07:14:00.000Z</time>
      </trkpt>
      <trkpt lat="47.25545" lon="-2.31916">
        <ele>19.39999961853</ele>
        <time>2020-08-27T07:14:02.000Z</time>
      </trkpt>
      <trkpt lat="47.25554" lon="-2.31915">
        <ele>19.39999961853</ele>
        <time>2020-08-27T07:14:06.000Z</time>
      </trkpt>
      <trkpt lat="47.25556" lon="-2.31927">
        <ele>19.39999961853</ele>
        <time>2020-08-27T07:14:10.000Z</time>
      </trkpt>
      <trkpt lat="47.25562" lon="-2.31951">
        <ele>19.39999961853</ele>
        <time>2020-08-27T07:14:16.000Z</time>
      </trkpt>
      <trkpt lat="47.25567" lon="-2.31967">
        <ele>19</ele>
        <time>2020-08-27T07:14:19.000Z</time>
      </trkpt>
      <trkpt lat="47.25569" lon="-2.31973">
        <ele>18.60000038147</ele>
        <time>2020-08-27T07:14:20.000Z</time>
      </trkpt>
      <trkpt lat="47.2557" lon="-2.31979">
        <ele>18.200000762939</ele>
        <time>2020-08-27T07:14:21.000Z</time>
      </trkpt>
      <trkpt lat="47.25572" lon="-2.31985">
        <ele>17.799999237061</ele>
        <time>2020-08-27T07:14:22.000Z</time>
      </trkpt>
      <trkpt lat="47.25573" lon="-2.31991">
        <ele>17.39999961853</ele>
        <time>2020-08-27T07:14:23.000Z</time>
      </trkpt>
      <trkpt lat="47.25582" lon="-2.32022">
        <ele>17.39999961853</ele>
        <time>2020-08-27T07:14:28.000Z</time>
      </trkpt>
      <trkpt lat="47.25601" lon="-2.32067">
        <ele>17.39999961853</ele>
        <time>2020-08-27T07:14:36.000Z</time>
      </trkpt>
      <trkpt lat="47.25607" lon="-2.32083">
        <ele>17.39999961853</ele>
        <time>2020-08-27T07:14:39.000Z</time>
      </trkpt>
      <trkpt lat="47.25615" lon="-2.32083">
        <ele>17.39999961853</ele>
        <time>2020-08-27T07:14:41.000Z</time>
      </trkpt>
      <trkpt lat="47.25639" lon="-2.32062">
        <ele>17.39999961853</ele>
        <time>2020-08-27T07:14:48.000Z</time>
      </trkpt>
      <trkpt lat="47.25666" lon="-2.32036">
        <ele>17.39999961853</ele>
        <time>2020-08-27T07:14:55.000Z</time>
      </trkpt>
      <trkpt lat="47.25688" lon="-2.32014">
        <ele>17.39999961853</ele>
        <time>2020-08-27T07:15:01.000Z</time>
      </trkpt>
      <trkpt lat="47.2569" lon="-2.32013">
        <ele>17</ele>
        <time>2020-08-27T07:15:03.000Z</time>
      </trkpt>
      <trkpt lat="47.2569" lon="-2.32013">
        <ele>16.60000038147</ele>
        <time>2020-08-27T07:15:04.000Z</time>
      </trkpt>
      <trkpt lat="47.2569" lon="-2.32011">
        <ele>15.800000190735</ele>
        <time>2020-08-27T07:15:06.000Z</time>
      </trkpt>
      <trkpt lat="47.2569" lon="-2.32009">
        <ele>15.199999809265</ele>
        <time>2020-08-27T07:15:07.000Z</time>
      </trkpt>
      <trkpt lat="47.25691" lon="-2.32006">
        <ele>15.199999809265</ele>
        <time>2020-08-27T07:15:08.000Z</time>
      </trkpt>
      <trkpt lat="47.25692" lon="-2.31999">
        <ele>15.199999809265</ele>
        <time>2020-08-27T07:15:10.000Z</time>
      </trkpt>
      <trkpt lat="47.25697" lon="-2.31996">
        <ele>15.199999809265</ele>
        <time>2020-08-27T07:15:12.000Z</time>
      </trkpt>
      <trkpt lat="47.25704" lon="-2.32005">
        <ele>15.199999809265</ele>
        <time>2020-08-27T07:15:15.000Z</time>
      </trkpt>
      <trkpt lat="47.25705" lon="-2.32009">
        <ele>15.199999809265</ele>
        <time>2020-08-27T07:15:16.000Z</time>
      </trkpt>
      <trkpt lat="47.25712" lon="-2.32043">
        <ele>15.199999809265</ele>
        <time>2020-08-27T07:15:23.000Z</time>
      </trkpt>
      <trkpt lat="47.25725" lon="-2.32088">
        <ele>15.199999809265</ele>
        <time>2020-08-27T07:15:32.000Z</time>
      </trkpt>
      <trkpt lat="47.25734" lon="-2.32131">
        <ele>15.199999809265</ele>
        <time>2020-08-27T07:15:39.000Z</time>
      </trkpt>
      <trkpt lat="47.25742" lon="-2.32165">
        <ele>15.199999809265</ele>
        <time>2020-08-27T07:15:45.000Z</time>
      </trkpt>
      <trkpt lat="47.25751" lon="-2.32216">
        <ele>15.199999809265</ele>
        <time>2020-08-27T07:15:52.000Z</time>
      </trkpt>
      <trkpt lat="47.25761" lon="-2.32267">
        <ele>14.800000190735</ele>
        <time>2020-08-27T07:15:58.000Z</time>
      </trkpt>
      <trkpt lat="47.25762" lon="-2.32277">
        <ele>14.39999961853</ele>
        <time>2020-08-27T07:15:59.000Z</time>
      </trkpt>
      <trkpt lat="47.25764" lon="-2.32286">
        <ele>14</ele>
        <time>2020-08-27T07:16:00.000Z</time>
      </trkpt>
      <trkpt lat="47.25765" lon="-2.32296">
        <ele>13.60000038147</ele>
        <time>2020-08-27T07:16:01.000Z</time>
      </trkpt>
      <trkpt lat="47.25767" lon="-2.32306">
        <ele>13.199999809265</ele>
        <time>2020-08-27T07:16:02.000Z</time>
      </trkpt>
      <trkpt lat="47.25771" lon="-2.32336">
        <ele>13.199999809265</ele>
        <time>2020-08-27T07:16:05.000Z</time>
      </trkpt>
      <trkpt lat="47.25776" lon="-2.32363">
        <ele>12.60000038147</ele>
        <time>2020-08-27T07:16:08.000Z</time>
      </trkpt>
      <trkpt lat="47.25778" lon="-2.32373">
        <ele>12.199999809265</ele>
        <time>2020-08-27T07:16:09.000Z</time>
      </trkpt>
      <trkpt lat="47.2578" lon="-2.32383">
        <ele>11.199999809265</ele>
        <time>2020-08-27T07:16:10.000Z</time>
      </trkpt>
      <trkpt lat="47.25782" lon="-2.32392">
        <ele>10.800000190735</ele>
        <time>2020-08-27T07:16:11.000Z</time>
      </trkpt>
      <trkpt lat="47.25783" lon="-2.32401">
        <ele>10.800000190735</ele>
        <time>2020-08-27T07:16:12.000Z</time>
      </trkpt>
      <trkpt lat="47.25785" lon="-2.32411">
        <ele>10.199999809265</ele>
        <time>2020-08-27T07:16:13.000Z</time>
      </trkpt>
      <trkpt lat="47.25787" lon="-2.32419">
        <ele>9.8000001907349</ele>
        <time>2020-08-27T07:16:14.000Z</time>
      </trkpt>
      <trkpt lat="47.2579" lon="-2.32427">
        <ele>9.3999996185303</ele>
        <time>2020-08-27T07:16:15.000Z</time>
      </trkpt>
      <trkpt lat="47.25793" lon="-2.32435">
        <ele>8.8000001907349</ele>
        <time>2020-08-27T07:16:16.000Z</time>
      </trkpt>
      <trkpt lat="47.25796" lon="-2.32441">
        <ele>8.3999996185303</ele>
        <time>2020-08-27T07:16:17.000Z</time>
      </trkpt>
      <trkpt lat="47.25806" lon="-2.3246">
        <ele>8.3999996185303</ele>
        <time>2020-08-27T07:16:21.000Z</time>
      </trkpt>
      <trkpt lat="47.25806" lon="-2.32464">
        <ele>8</ele>
        <time>2020-08-27T07:16:22.000Z</time>
      </trkpt>
      <trkpt lat="47.25806" lon="-2.32469">
        <ele>7.5999999046326</ele>
        <time>2020-08-27T07:16:23.000Z</time>
      </trkpt>
      <trkpt lat="47.25807" lon="-2.32473">
        <ele>7</ele>
        <time>2020-08-27T07:16:24.000Z</time>
      </trkpt>
      <trkpt lat="47.25809" lon="-2.32476">
        <ele>6.5999999046326</ele>
        <time>2020-08-27T07:16:25.000Z</time>
      </trkpt>
      <trkpt lat="47.25812" lon="-2.32479">
        <ele>6.1999998092651</ele>
        <time>2020-08-27T07:16:26.000Z</time>
      </trkpt>
      <trkpt lat="47.25831" lon="-2.32504">
        <ele>6.1999998092651</ele>
        <time>2020-08-27T07:16:32.000Z</time>
      </trkpt>
      <trkpt lat="47.25861" lon="-2.32546">
        <ele>6.1999998092651</ele>
        <time>2020-08-27T07:16:41.000Z</time>
      </trkpt>
      <trkpt lat="47.25876" lon="-2.32564">
        <ele>6.1999998092651</ele>
        <time>2020-08-27T07:16:45.000Z</time>
      </trkpt>
      <trkpt lat="47.25884" lon="-2.32573">
        <ele>6.1999998092651</ele>
        <time>2020-08-27T07:16:47.000Z</time>
      </trkpt>
      <trkpt lat="47.25888" lon="-2.32577">
        <ele>6.1999998092651</ele>
        <time>2020-08-27T07:16:48.000Z</time>
      </trkpt>
      <trkpt lat="47.25901" lon="-2.32587">
        <ele>6.1999998092651</ele>
        <time>2020-08-27T07:16:51.000Z</time>
      </trkpt>
      <trkpt lat="47.25913" lon="-2.32602">
        <ele>6.1999998092651</ele>
        <time>2020-08-27T07:16:54.000Z</time>
      </trkpt>
      <trkpt lat="47.2592" lon="-2.32612">
        <ele>6.1999998092651</ele>
        <time>2020-08-27T07:16:56.000Z</time>
      </trkpt>
      <trkpt lat="47.2595" lon="-2.32652">
        <ele>6.1999998092651</ele>
        <time>2020-08-27T07:17:04.000Z</time>
      </trkpt>
      <trkpt lat="47.25955" lon="-2.32655">
        <ele>6.1999998092651</ele>
        <time>2020-08-27T07:17:05.000Z</time>
      </trkpt>
      <trkpt lat="47.25964" lon="-2.32657">
        <ele>6.1999998092651</ele>
        <time>2020-08-27T07:17:07.000Z</time>
      </trkpt>
      <trkpt lat="47.25985" lon="-2.32658">
        <ele>6.1999998092651</ele>
        <time>2020-08-27T07:17:11.000Z</time>
      </trkpt>
      <trkpt lat="47.25994" lon="-2.32658">
        <ele>6.1999998092651</ele>
        <time>2020-08-27T07:17:13.000Z</time>
      </trkpt>
      <trkpt lat="47.25999" lon="-2.32658">
        <ele>6.1999998092651</ele>
        <time>2020-08-27T07:17:14.000Z</time>
      </trkpt>
      <trkpt lat="47.26013" lon="-2.32655">
        <ele>6.1999998092651</ele>
        <time>2020-08-27T07:17:17.000Z</time>
      </trkpt>
      <trkpt lat="47.26051" lon="-2.32648">
        <ele>6.1999998092651</ele>
        <time>2020-08-27T07:17:25.000Z</time>
      </trkpt>
      <trkpt lat="47.26098" lon="-2.32639">
        <ele>6.1999998092651</ele>
        <time>2020-08-27T07:17:35.000Z</time>
      </trkpt>
      <trkpt lat="47.26136" lon="-2.32637">
        <ele>6.1999998092651</ele>
        <time>2020-08-27T07:17:43.000Z</time>
      </trkpt>
      <trkpt lat="47.26168" lon="-2.3265">
        <ele>6.1999998092651</ele>
        <time>2020-08-27T07:17:50.000Z</time>
      </trkpt>
      <trkpt lat="47.26199" lon="-2.32674">
        <ele>6.1999998092651</ele>
        <time>2020-08-27T07:17:57.000Z</time>
      </trkpt>
      <trkpt lat="47.26226" lon="-2.32709">
        <ele>6.1999998092651</ele>
        <time>2020-08-27T07:18:04.000Z</time>
      </trkpt>
      <trkpt lat="47.26259" lon="-2.3276">
        <ele>6.1999998092651</ele>
        <time>2020-08-27T07:18:12.000Z</time>
      </trkpt>
      <trkpt lat="47.26279" lon="-2.32796">
        <ele>6.1999998092651</ele>
        <time>2020-08-27T07:18:17.000Z</time>
      </trkpt>
      <trkpt lat="47.26281" lon="-2.32804">
        <ele>6.1999998092651</ele>
        <time>2020-08-27T07:18:18.000Z</time>
      </trkpt>
      <trkpt lat="47.26287" lon="-2.3283">
        <ele>6.1999998092651</ele>
        <time>2020-08-27T07:18:21.000Z</time>
      </trkpt>
      <trkpt lat="47.2629" lon="-2.32847">
        <ele>6.1999998092651</ele>
        <time>2020-08-27T07:18:23.000Z</time>
      </trkpt>
      <trkpt lat="47.26302" lon="-2.32864">
        <ele>6.1999998092651</ele>
        <time>2020-08-27T07:18:26.000Z</time>
      </trkpt>
      <trkpt lat="47.26318" lon="-2.32874">
        <ele>6.1999998092651</ele>
        <time>2020-08-27T07:18:29.000Z</time>
      </trkpt>
      <trkpt lat="47.26326" lon="-2.32896">
        <ele>6.1999998092651</ele>
        <time>2020-08-27T07:18:32.000Z</time>
      </trkpt>
      <trkpt lat="47.26329" lon="-2.32904">
        <ele>6.1999998092651</ele>
        <time>2020-08-27T07:18:33.000Z</time>
      </trkpt>
      <trkpt lat="47.26349" lon="-2.32964">
        <ele>6.1999998092651</ele>
        <time>2020-08-27T07:18:41.000Z</time>
      </trkpt>
      <trkpt lat="47.26352" lon="-2.3297">
        <ele>6.1999998092651</ele>
        <time>2020-08-27T07:18:42.000Z</time>
      </trkpt>
      <trkpt lat="47.26363" lon="-2.32986">
        <ele>6.1999998092651</ele>
        <time>2020-08-27T07:18:45.000Z</time>
      </trkpt>
      <trkpt lat="47.26368" lon="-2.33005">
        <ele>6.1999998092651</ele>
        <time>2020-08-27T07:18:48.000Z</time>
      </trkpt>
      <trkpt lat="47.26369" lon="-2.33012">
        <ele>6.1999998092651</ele>
        <time>2020-08-27T07:18:49.000Z</time>
      </trkpt>
      <trkpt lat="47.26371" lon="-2.33078">
        <ele>6.1999998092651</ele>
        <time>2020-08-27T07:18:58.000Z</time>
      </trkpt>
      <trkpt lat="47.26375" lon="-2.33136">
        <ele>6.1999998092651</ele>
        <time>2020-08-27T07:19:06.000Z</time>
      </trkpt>
      <trkpt lat="47.26378" lon="-2.33209">
        <ele>6.1999998092651</ele>
        <time>2020-08-27T07:19:16.000Z</time>
      </trkpt>
      <trkpt lat="47.2638" lon="-2.33238">
        <ele>6.1999998092651</ele>
        <time>2020-08-27T07:19:20.000Z</time>
      </trkpt>
      <trkpt lat="47.26386" lon="-2.33258">
        <ele>6.1999998092651</ele>
        <time>2020-08-27T07:19:23.000Z</time>
      </trkpt>
      <trkpt lat="47.26399" lon="-2.33267">
        <ele>6.1999998092651</ele>
        <time>2020-08-27T07:19:26.000Z</time>
      </trkpt>
      <trkpt lat="47.26409" lon="-2.33268">
        <ele>6.1999998092651</ele>
        <time>2020-08-27T07:19:28.000Z</time>
      </trkpt>
      <trkpt lat="47.26434" lon="-2.33271">
        <ele>6.1999998092651</ele>
        <time>2020-08-27T07:19:33.000Z</time>
      </trkpt>
      <trkpt lat="47.2647" lon="-2.33274">
        <ele>6.1999998092651</ele>
        <time>2020-08-27T07:19:41.000Z</time>
      </trkpt>
      <trkpt lat="47.26481" lon="-2.33276">
        <ele>6.1999998092651</ele>
        <time>2020-08-27T07:19:45.000Z</time>
      </trkpt>
      <trkpt lat="47.26482" lon="-2.33276">
        <ele>6.1999998092651</ele>
        <time>2020-08-27T07:19:46.000Z</time>
      </trkpt>
      <trkpt lat="47.26482" lon="-2.33276">
        <ele>6.1999998092651</ele>
        <time>2020-08-27T07:20:37.000Z</time>
      </trkpt>
      <trkpt lat="47.26483" lon="-2.33277">
        <ele>6.1999998092651</ele>
        <time>2020-08-27T07:20:38.000Z</time>
      </trkpt>
      <trkpt lat="47.26495" lon="-2.33279">
        <ele>6.1999998092651</ele>
        <time>2020-08-27T07:20:44.000Z</time>
      </trkpt>
      <trkpt lat="47.26505" lon="-2.33285">
        <ele>6.1999998092651</ele>
        <time>2020-08-27T07:20:49.000Z</time>
      </trkpt>
      <trkpt lat="47.26506" lon="-2.33286">
        <ele>6.1999998092651</ele>
        <time>2020-08-27T07:20:50.000Z</time>
      </trkpt>
      <trkpt lat="47.26506" lon="-2.33286">
        <ele>6.1999998092651</ele>
        <time>2020-08-27T07:21:02.000Z</time>
      </trkpt>
      <trkpt lat="47.2651" lon="-2.33287">
        <ele>6.1999998092651</ele>
        <time>2020-08-27T07:21:04.000Z</time>
      </trkpt>
      <trkpt lat="47.26524" lon="-2.33288">
        <ele>6.1999998092651</ele>
        <time>2020-08-27T07:21:08.000Z</time>
      </trkpt>
      <trkpt lat="47.26528" lon="-2.33289">
        <ele>6.1999998092651</ele>
        <time>2020-08-27T07:21:09.000Z</time>
      </trkpt>
      <trkpt lat="47.26533" lon="-2.33296">
        <ele>6.1999998092651</ele>
        <time>2020-08-27T07:21:11.000Z</time>
      </trkpt>
      <trkpt lat="47.26542" lon="-2.33298">
        <ele>6.1999998092651</ele>
        <time>2020-08-27T07:21:14.000Z</time>
      </trkpt>
      <trkpt lat="47.26551" lon="-2.33287">
        <ele>6.1999998092651</ele>
        <time>2020-08-27T07:21:17.000Z</time>
      </trkpt>
      <trkpt lat="47.26554" lon="-2.33284">
        <ele>6.1999998092651</ele>
        <time>2020-08-27T07:21:18.000Z</time>
      </trkpt>
      <trkpt lat="47.26558" lon="-2.33281">
        <ele>6.1999998092651</ele>
        <time>2020-08-27T07:21:19.000Z</time>
      </trkpt>
      <trkpt lat="47.26583" lon="-2.33256">
        <ele>6.1999998092651</ele>
        <time>2020-08-27T07:21:26.000Z</time>
      </trkpt>
      <trkpt lat="47.26618" lon="-2.33221">
        <ele>6.1999998092651</ele>
        <time>2020-08-27T07:21:35.000Z</time>
      </trkpt>
      <trkpt lat="47.26621" lon="-2.33218">
        <ele>6.1999998092651</ele>
        <time>2020-08-27T07:21:36.000Z</time>
      </trkpt>
      <trkpt lat="47.26641" lon="-2.33197">
        <ele>6.1999998092651</ele>
        <time>2020-08-27T07:21:42.000Z</time>
      </trkpt>
      <trkpt lat="47.26665" lon="-2.33172">
        <ele>6.1999998092651</ele>
        <time>2020-08-27T07:21:50.000Z</time>
      </trkpt>
      <trkpt lat="47.26685" lon="-2.33153">
        <ele>6.1999998092651</ele>
        <time>2020-08-27T07:21:57.000Z</time>
      </trkpt>
      <trkpt lat="47.26703" lon="-2.33135">
        <ele>6.1999998092651</ele>
        <time>2020-08-27T07:22:03.000Z</time>
      </trkpt>
      <trkpt lat="47.26722" lon="-2.33116">
        <ele>6.1999998092651</ele>
        <time>2020-08-27T07:22:09.000Z</time>
      </trkpt>
      <trkpt lat="47.26738" lon="-2.331">
        <ele>6.1999998092651</ele>
        <time>2020-08-27T07:22:15.000Z</time>
      </trkpt>
      <trkpt lat="47.26751" lon="-2.3309">
        <ele>6.1999998092651</ele>
        <time>2020-08-27T07:22:20.000Z</time>
      </trkpt>
      <trkpt lat="47.2676" lon="-2.33099">
        <ele>6.1999998092651</ele>
        <time>2020-08-27T07:22:23.000Z</time>
      </trkpt>
      <trkpt lat="47.26765" lon="-2.33126">
        <ele>6.1999998092651</ele>
        <time>2020-08-27T07:22:27.000Z</time>
      </trkpt>
      <trkpt lat="47.26761" lon="-2.33147">
        <ele>6.1999998092651</ele>
        <time>2020-08-27T07:22:30.000Z</time>
      </trkpt>
      <trkpt lat="47.26758" lon="-2.33161">
        <ele>6.1999998092651</ele>
        <time>2020-08-27T07:22:32.000Z</time>
      </trkpt>
      <trkpt lat="47.26745" lon="-2.33204">
        <ele>6.1999998092651</ele>
        <time>2020-08-27T07:22:39.000Z</time>
      </trkpt>
      <trkpt lat="47.26732" lon="-2.33249">
        <ele>6.1999998092651</ele>
        <time>2020-08-27T07:22:46.000Z</time>
      </trkpt>
      <trkpt lat="47.26731" lon="-2.33256">
        <ele>6.1999998092651</ele>
        <time>2020-08-27T07:22:47.000Z</time>
      </trkpt>
      <trkpt lat="47.26731" lon="-2.33278">
        <ele>6.1999998092651</ele>
        <time>2020-08-27T07:22:50.000Z</time>
      </trkpt>
      <trkpt lat="47.26732" lon="-2.33286">
        <ele>6.1999998092651</ele>
        <time>2020-08-27T07:22:51.000Z</time>
      </trkpt>
      <trkpt lat="47.26737" lon="-2.33308">
        <ele>6.1999998092651</ele>
        <time>2020-08-27T07:22:54.000Z</time>
      </trkpt>
      <trkpt lat="47.26741" lon="-2.33323">
        <ele>6.1999998092651</ele>
        <time>2020-08-27T07:22:56.000Z</time>
      </trkpt>
      <trkpt lat="47.2675" lon="-2.33375">
        <ele>6.1999998092651</ele>
        <time>2020-08-27T07:23:03.000Z</time>
      </trkpt>
      <trkpt lat="47.26757" lon="-2.33433">
        <ele>6.1999998092651</ele>
        <time>2020-08-27T07:23:11.000Z</time>
      </trkpt>
      <trkpt lat="47.26765" lon="-2.33488">
        <ele>6.1999998092651</ele>
        <time>2020-08-27T07:23:19.000Z</time>
      </trkpt>
      <trkpt lat="47.26766" lon="-2.33494">
        <ele>6.1999998092651</ele>
        <time>2020-08-27T07:23:20.000Z</time>
      </trkpt>
      <trkpt lat="47.26768" lon="-2.33511">
        <ele>6.1999998092651</ele>
        <time>2020-08-27T07:23:23.000Z</time>
      </trkpt>
      <trkpt lat="47.26774" lon="-2.33544">
        <ele>6.1999998092651</ele>
        <time>2020-08-27T07:23:29.000Z</time>
      </trkpt>
      <trkpt lat="47.26778" lon="-2.33564">
        <ele>6.1999998092651</ele>
        <time>2020-08-27T07:23:34.000Z</time>
      </trkpt>
      <trkpt lat="47.26779" lon="-2.33567">
        <ele>6.1999998092651</ele>
        <time>2020-08-27T07:23:35.000Z</time>
      </trkpt>
      <trkpt lat="47.26783" lon="-2.33567">
        <ele>6.1999998092651</ele>
        <time>2020-08-27T07:23:37.000Z</time>
      </trkpt>
      <trkpt lat="47.26792" lon="-2.33565">
        <ele>6.1999998092651</ele>
        <time>2020-08-27T07:23:43.000Z</time>
      </trkpt>
      <trkpt lat="47.26801" lon="-2.33562">
        <ele>6.1999998092651</ele>
        <time>2020-08-27T07:23:47.000Z</time>
      </trkpt>
      <trkpt lat="47.26808" lon="-2.33559">
        <ele>6.1999998092651</ele>
        <time>2020-08-27T07:23:49.000Z</time>
      </trkpt>
      <trkpt lat="47.26827" lon="-2.3355">
        <ele>6.1999998092651</ele>
        <time>2020-08-27T07:23:54.000Z</time>
      </trkpt>
      <trkpt lat="47.2683" lon="-2.33547">
        <ele>6.1999998092651</ele>
        <time>2020-08-27T07:23:55.000Z</time>
      </trkpt>
      <trkpt lat="47.26853" lon="-2.33535">
        <ele>6.1999998092651</ele>
        <time>2020-08-27T07:24:01.000Z</time>
      </trkpt>
      <trkpt lat="47.26886" lon="-2.33529">
        <ele>6.1999998092651</ele>
        <time>2020-08-27T07:24:08.000Z</time>
      </trkpt>
      <trkpt lat="47.26889" lon="-2.33527">
        <ele>6.1999998092651</ele>
        <time>2020-08-27T07:24:09.000Z</time>
      </trkpt>
      <trkpt lat="47.2689" lon="-2.33517">
        <ele>6.1999998092651</ele>
        <time>2020-08-27T07:24:11.000Z</time>
      </trkpt>
      <trkpt lat="47.26889" lon="-2.33512">
        <ele>6.5999999046326</ele>
        <time>2020-08-27T07:24:12.000Z</time>
      </trkpt>
      <trkpt lat="47.26889" lon="-2.33508">
        <ele>7</ele>
        <time>2020-08-27T07:24:13.000Z</time>
      </trkpt>
      <trkpt lat="47.26888" lon="-2.33503">
        <ele>7.5999999046326</ele>
        <time>2020-08-27T07:24:14.000Z</time>
      </trkpt>
      <trkpt lat="47.26887" lon="-2.33499">
        <ele>8</ele>
        <time>2020-08-27T07:24:15.000Z</time>
      </trkpt>
      <trkpt lat="47.26886" lon="-2.33495">
        <ele>8.3999996185303</ele>
        <time>2020-08-27T07:24:16.000Z</time>
      </trkpt>
      <trkpt lat="47.26886" lon="-2.33491">
        <ele>8.3999996185303</ele>
        <time>2020-08-27T07:24:17.000Z</time>
      </trkpt>
      <trkpt lat="47.26883" lon="-2.33477">
        <ele>8.8000001907349</ele>
        <time>2020-08-27T07:24:21.000Z</time>
      </trkpt>
      <trkpt lat="47.26883" lon="-2.33475">
        <ele>9.3999996185303</ele>
        <time>2020-08-27T07:24:22.000Z</time>
      </trkpt>
      <trkpt lat="47.26882" lon="-2.33472">
        <ele>9.8000001907349</ele>
        <time>2020-08-27T07:24:23.000Z</time>
      </trkpt>
      <trkpt lat="47.26882" lon="-2.33468">
        <ele>10.199999809265</ele>
        <time>2020-08-27T07:24:24.000Z</time>
      </trkpt>
      <trkpt lat="47.26881" lon="-2.33465">
        <ele>10.60000038147</ele>
        <time>2020-08-27T07:24:25.000Z</time>
      </trkpt>
      <trkpt lat="47.26879" lon="-2.33455">
        <ele>11.199999809265</ele>
        <time>2020-08-27T07:24:28.000Z</time>
      </trkpt>
      <trkpt lat="47.26878" lon="-2.33452">
        <ele>11.60000038147</ele>
        <time>2020-08-27T07:24:29.000Z</time>
      </trkpt>
      <trkpt lat="47.26878" lon="-2.33449">
        <ele>12</ele>
        <time>2020-08-27T07:24:30.000Z</time>
      </trkpt>
      <trkpt lat="47.26878" lon="-2.33445">
        <ele>12.60000038147</ele>
        <time>2020-08-27T07:24:31.000Z</time>
      </trkpt>
      <trkpt lat="47.26878" lon="-2.33443">
        <ele>13</ele>
        <time>2020-08-27T07:24:32.000Z</time>
      </trkpt>
      <trkpt lat="47.26879" lon="-2.33438">
        <ele>13</ele>
        <time>2020-08-27T07:24:34.000Z</time>
      </trkpt>
      <trkpt lat="47.26882" lon="-2.33427">
        <ele>13.39999961853</ele>
        <time>2020-08-27T07:24:38.000Z</time>
      </trkpt>
      <trkpt lat="47.26883" lon="-2.33425">
        <ele>13.800000190735</ele>
        <time>2020-08-27T07:24:39.000Z</time>
      </trkpt>
      <trkpt lat="47.26884" lon="-2.33422">
        <ele>14.199999809265</ele>
        <time>2020-08-27T07:24:40.000Z</time>
      </trkpt>
      <trkpt lat="47.26886" lon="-2.3342">
        <ele>14.60000038147</ele>
        <time>2020-08-27T07:24:41.000Z</time>
      </trkpt>
      <trkpt lat="47.26889" lon="-2.33418">
        <ele>15</ele>
        <time>2020-08-27T07:24:42.000Z</time>
      </trkpt>
      <trkpt lat="47.269" lon="-2.33412">
        <ele>15.39999961853</ele>
        <time>2020-08-27T07:24:46.000Z</time>
      </trkpt>
      <trkpt lat="47.26903" lon="-2.3341">
        <ele>15.800000190735</ele>
        <time>2020-08-27T07:24:47.000Z</time>
      </trkpt>
      <trkpt lat="47.26907" lon="-2.33409">
        <ele>16.200000762939</ele>
        <time>2020-08-27T07:24:48.000Z</time>
      </trkpt>
      <trkpt lat="47.2691" lon="-2.33407">
        <ele>17</ele>
        <time>2020-08-27T07:24:49.000Z</time>
      </trkpt>
      <trkpt lat="47.26925" lon="-2.334">
        <ele>17</ele>
        <time>2020-08-27T07:24:54.000Z</time>
      </trkpt>
      <trkpt lat="47.26939" lon="-2.33392">
        <ele>17.39999961853</ele>
        <time>2020-08-27T07:24:59.000Z</time>
      </trkpt>
      <trkpt lat="47.26942" lon="-2.33391">
        <ele>17.799999237061</ele>
        <time>2020-08-27T07:25:00.000Z</time>
      </trkpt>
      <trkpt lat="47.26945" lon="-2.3339">
        <ele>18.200000762939</ele>
        <time>2020-08-27T07:25:01.000Z</time>
      </trkpt>
      <trkpt lat="47.26947" lon="-2.33389">
        <ele>18.60000038147</ele>
        <time>2020-08-27T07:25:02.000Z</time>
      </trkpt>
      <trkpt lat="47.2695" lon="-2.33388">
        <ele>19</ele>
        <time>2020-08-27T07:25:03.000Z</time>
      </trkpt>
      <trkpt lat="47.26962" lon="-2.33381">
        <ele>19</ele>
        <time>2020-08-27T07:25:08.000Z</time>
      </trkpt>
      <trkpt lat="47.26972" lon="-2.33372">
        <ele>19</ele>
        <time>2020-08-27T07:25:13.000Z</time>
      </trkpt>
      <trkpt lat="47.26971" lon="-2.33368">
        <ele>19.60000038147</ele>
        <time>2020-08-27T07:25:14.000Z</time>
      </trkpt>
      <trkpt lat="47.2697" lon="-2.33364">
        <ele>20</ele>
        <time>2020-08-27T07:25:15.000Z</time>
      </trkpt>
      <trkpt lat="47.26969" lon="-2.33359">
        <ele>20.39999961853</ele>
        <time>2020-08-27T07:25:16.000Z</time>
      </trkpt>
      <trkpt lat="47.26967" lon="-2.33355">
        <ele>20.799999237061</ele>
        <time>2020-08-27T07:25:17.000Z</time>
      </trkpt>
      <trkpt lat="47.26965" lon="-2.3335">
        <ele>21.200000762939</ele>
        <time>2020-08-27T07:25:18.000Z</time>
      </trkpt>
      <trkpt lat="47.26958" lon="-2.3333">
        <ele>21.200000762939</ele>
        <time>2020-08-27T07:25:22.000Z</time>
      </trkpt>
      <trkpt lat="47.26946" lon="-2.33292">
        <ele>21.200000762939</ele>
        <time>2020-08-27T07:25:29.000Z</time>
      </trkpt>
      <trkpt lat="47.26933" lon="-2.33252">
        <ele>21.200000762939</ele>
        <time>2020-08-27T07:25:36.000Z</time>
      </trkpt>
      <trkpt lat="47.2693" lon="-2.33229">
        <ele>21.200000762939</ele>
        <time>2020-08-27T07:25:40.000Z</time>
      </trkpt>
      <trkpt lat="47.26932" lon="-2.33224">
        <ele>21.200000762939</ele>
        <time>2020-08-27T07:25:41.000Z</time>
      </trkpt>
      <trkpt lat="47.26944" lon="-2.33215">
        <ele>21.200000762939</ele>
        <time>2020-08-27T07:25:44.000Z</time>
      </trkpt>
      <trkpt lat="47.26952" lon="-2.33209">
        <ele>21.200000762939</ele>
        <time>2020-08-27T07:25:46.000Z</time>
      </trkpt>
      <trkpt lat="47.26965" lon="-2.33203">
        <ele>21.200000762939</ele>
        <time>2020-08-27T07:25:49.000Z</time>
      </trkpt>
      <trkpt lat="47.2697" lon="-2.332">
        <ele>21.200000762939</ele>
        <time>2020-08-27T07:25:50.000Z</time>
      </trkpt>
      <trkpt lat="47.26977" lon="-2.33194">
        <ele>21.200000762939</ele>
        <time>2020-08-27T07:25:52.000Z</time>
      </trkpt>
      <trkpt lat="47.26986" lon="-2.33181">
        <ele>21.200000762939</ele>
        <time>2020-08-27T07:25:55.000Z</time>
      </trkpt>
      <trkpt lat="47.26989" lon="-2.33178">
        <ele>21.200000762939</ele>
        <time>2020-08-27T07:25:56.000Z</time>
      </trkpt>
      <trkpt lat="47.27007" lon="-2.33163">
        <ele>21.200000762939</ele>
        <time>2020-08-27T07:26:01.000Z</time>
      </trkpt>
      <trkpt lat="47.27014" lon="-2.33157">
        <ele>21.200000762939</ele>
        <time>2020-08-27T07:26:03.000Z</time>
      </trkpt>
      <trkpt lat="47.27031" lon="-2.3314">
        <ele>21.200000762939</ele>
        <time>2020-08-27T07:26:08.000Z</time>
      </trkpt>
      <trkpt lat="47.27057" lon="-2.33111">
        <ele>21.200000762939</ele>
        <time>2020-08-27T07:26:16.000Z</time>
      </trkpt>
      <trkpt lat="47.27077" lon="-2.33088">
        <ele>21.200000762939</ele>
        <time>2020-08-27T07:26:22.000Z</time>
      </trkpt>
      <trkpt lat="47.27102" lon="-2.33064">
        <ele>21.200000762939</ele>
        <time>2020-08-27T07:26:29.000Z</time>
      </trkpt>
      <trkpt lat="47.27141" lon="-2.33034">
        <ele>21.200000762939</ele>
        <time>2020-08-27T07:26:38.000Z</time>
      </trkpt>
      <trkpt lat="47.27175" lon="-2.3301">
        <ele>21.200000762939</ele>
        <time>2020-08-27T07:26:46.000Z</time>
      </trkpt>
      <trkpt lat="47.27207" lon="-2.32987">
        <ele>21.200000762939</ele>
        <time>2020-08-27T07:26:54.000Z</time>
      </trkpt>
      <trkpt lat="47.27221" lon="-2.32986">
        <ele>21.200000762939</ele>
        <time>2020-08-27T07:26:58.000Z</time>
      </trkpt>
      <trkpt lat="47.27234" lon="-2.33003">
        <ele>21.200000762939</ele>
        <time>2020-08-27T07:27:03.000Z</time>
      </trkpt>
      <trkpt lat="47.27252" lon="-2.33037">
        <ele>21.200000762939</ele>
        <time>2020-08-27T07:27:11.000Z</time>
      </trkpt>
      <trkpt lat="47.27271" lon="-2.3307">
        <ele>21.200000762939</ele>
        <time>2020-08-27T07:27:19.000Z</time>
      </trkpt>
      <trkpt lat="47.2729" lon="-2.33095">
        <ele>21.200000762939</ele>
        <time>2020-08-27T07:27:27.000Z</time>
      </trkpt>
      <trkpt lat="47.27305" lon="-2.33115">
        <ele>21.200000762939</ele>
        <time>2020-08-27T07:27:33.000Z</time>
      </trkpt>
      <trkpt lat="47.27308" lon="-2.33115">
        <ele>21.200000762939</ele>
        <time>2020-08-27T07:27:34.000Z</time>
      </trkpt>
      <trkpt lat="47.27318" lon="-2.33105">
        <ele>21.200000762939</ele>
        <time>2020-08-27T07:27:38.000Z</time>
      </trkpt>
      <trkpt lat="47.2732" lon="-2.331">
        <ele>21.200000762939</ele>
        <time>2020-08-27T07:27:39.000Z</time>
      </trkpt>
      <trkpt lat="47.27329" lon="-2.33077">
        <ele>21.200000762939</ele>
        <time>2020-08-27T07:27:43.000Z</time>
      </trkpt>
      <trkpt lat="47.27347" lon="-2.33024">
        <ele>21.200000762939</ele>
        <time>2020-08-27T07:27:51.000Z</time>
      </trkpt>
      <trkpt lat="47.2736" lon="-2.32987">
        <ele>21.200000762939</ele>
        <time>2020-08-27T07:27:58.000Z</time>
      </trkpt>
      <trkpt lat="47.27377" lon="-2.3295">
        <ele>21.200000762939</ele>
        <time>2020-08-27T07:28:06.000Z</time>
      </trkpt>
      <trkpt lat="47.2739" lon="-2.32928">
        <ele>21.200000762939</ele>
        <time>2020-08-27T07:28:12.000Z</time>
      </trkpt>
      <trkpt lat="47.27393" lon="-2.32916">
        <ele>20.799999237061</ele>
        <time>2020-08-27T07:28:15.000Z</time>
      </trkpt>
      <trkpt lat="47.27394" lon="-2.32913">
        <ele>20.39999961853</ele>
        <time>2020-08-27T07:28:16.000Z</time>
      </trkpt>
      <trkpt lat="47.27396" lon="-2.32909">
        <ele>20</ele>
        <time>2020-08-27T07:28:17.000Z</time>
      </trkpt>
      <trkpt lat="47.27397" lon="-2.32906">
        <ele>19.60000038147</ele>
        <time>2020-08-27T07:28:18.000Z</time>
      </trkpt>
      <trkpt lat="47.27399" lon="-2.32902">
        <ele>19.200000762939</ele>
        <time>2020-08-27T07:28:19.000Z</time>
      </trkpt>
      <trkpt lat="47.27407" lon="-2.32892">
        <ele>19.200000762939</ele>
        <time>2020-08-27T07:28:22.000Z</time>
      </trkpt>
      <trkpt lat="47.27414" lon="-2.3287">
        <ele>19.200000762939</ele>
        <time>2020-08-27T07:28:27.000Z</time>
      </trkpt>
      <trkpt lat="47.27424" lon="-2.3284">
        <ele>19.200000762939</ele>
        <time>2020-08-27T07:28:32.000Z</time>
      </trkpt>
      <trkpt lat="47.27432" lon="-2.32802">
        <ele>18.799999237061</ele>
        <time>2020-08-27T07:28:37.000Z</time>
      </trkpt>
      <trkpt lat="47.27433" lon="-2.32795">
        <ele>18.39999961853</ele>
        <time>2020-08-27T07:28:38.000Z</time>
      </trkpt>
      <trkpt lat="47.27434" lon="-2.32787">
        <ele>18</ele>
        <time>2020-08-27T07:28:39.000Z</time>
      </trkpt>
      <trkpt lat="47.27435" lon="-2.3278">
        <ele>17.39999961853</ele>
        <time>2020-08-27T07:28:40.000Z</time>
      </trkpt>
      <trkpt lat="47.27437" lon="-2.32773">
        <ele>17</ele>
        <time>2020-08-27T07:28:41.000Z</time>
      </trkpt>
      <trkpt lat="47.27439" lon="-2.32766">
        <ele>17</ele>
        <time>2020-08-27T07:28:42.000Z</time>
      </trkpt>
      <trkpt lat="47.27443" lon="-2.32752">
        <ele>17</ele>
        <time>2020-08-27T07:28:44.000Z</time>
      </trkpt>
      <trkpt lat="47.27449" lon="-2.32738">
        <ele>16.60000038147</ele>
        <time>2020-08-27T07:28:46.000Z</time>
      </trkpt>
      <trkpt lat="47.27452" lon="-2.3273">
        <ele>16.200000762939</ele>
        <time>2020-08-27T07:28:47.000Z</time>
      </trkpt>
      <trkpt lat="47.27454" lon="-2.32723">
        <ele>15.60000038147</ele>
        <time>2020-08-27T07:28:48.000Z</time>
      </trkpt>
      <trkpt lat="47.27457" lon="-2.32716">
        <ele>15.199999809265</ele>
        <time>2020-08-27T07:28:49.000Z</time>
      </trkpt>
      <trkpt lat="47.2746" lon="-2.32708">
        <ele>14.800000190735</ele>
        <time>2020-08-27T07:28:50.000Z</time>
      </trkpt>
      <trkpt lat="47.27468" lon="-2.32694">
        <ele>14.39999961853</ele>
        <time>2020-08-27T07:28:52.000Z</time>
      </trkpt>
      <trkpt lat="47.27473" lon="-2.3269">
        <ele>13.800000190735</ele>
        <time>2020-08-27T07:28:53.000Z</time>
      </trkpt>
      <trkpt lat="47.27479" lon="-2.32686">
        <ele>13.39999961853</ele>
        <time>2020-08-27T07:28:54.000Z</time>
      </trkpt>
      <trkpt lat="47.27485" lon="-2.32683">
        <ele>13</ele>
        <time>2020-08-27T07:28:55.000Z</time>
      </trkpt>
      <trkpt lat="47.27491" lon="-2.32679">
        <ele>12.60000038147</ele>
        <time>2020-08-27T07:28:56.000Z</time>
      </trkpt>
      <trkpt lat="47.27501" lon="-2.32667">
        <ele>12.60000038147</ele>
        <time>2020-08-27T07:28:58.000Z</time>
      </trkpt>
      <trkpt lat="47.27504" lon="-2.32661">
        <ele>12.199999809265</ele>
        <time>2020-08-27T07:28:59.000Z</time>
      </trkpt>
      <trkpt lat="47.27508" lon="-2.32653">
        <ele>11.800000190735</ele>
        <time>2020-08-27T07:29:00.000Z</time>
      </trkpt>
      <trkpt lat="47.2751" lon="-2.32645">
        <ele>11.39999961853</ele>
        <time>2020-08-27T07:29:01.000Z</time>
      </trkpt>
      <trkpt lat="47.27513" lon="-2.32638">
        <ele>11</ele>
        <time>2020-08-27T07:29:02.000Z</time>
      </trkpt>
      <trkpt lat="47.27516" lon="-2.32631">
        <ele>10.60000038147</ele>
        <time>2020-08-27T07:29:03.000Z</time>
      </trkpt>
      <trkpt lat="47.27524" lon="-2.32625">
        <ele>10.60000038147</ele>
        <time>2020-08-27T07:29:05.000Z</time>
      </trkpt>
      <trkpt lat="47.27535" lon="-2.32619">
        <ele>10.60000038147</ele>
        <time>2020-08-27T07:29:07.000Z</time>
      </trkpt>
      <trkpt lat="47.27539" lon="-2.32614">
        <ele>10.60000038147</ele>
        <time>2020-08-27T07:29:08.000Z</time>
      </trkpt>
      <trkpt lat="47.2755" lon="-2.32588">
        <ele>10.60000038147</ele>
        <time>2020-08-27T07:29:12.000Z</time>
      </trkpt>
      <trkpt lat="47.27552" lon="-2.32581">
        <ele>10.60000038147</ele>
        <time>2020-08-27T07:29:13.000Z</time>
      </trkpt>
      <trkpt lat="47.27552" lon="-2.32575">
        <ele>10.60000038147</ele>
        <time>2020-08-27T07:29:14.000Z</time>
      </trkpt>
      <trkpt lat="47.2755" lon="-2.32565">
        <ele>10.60000038147</ele>
        <time>2020-08-27T07:29:16.000Z</time>
      </trkpt>
      <trkpt lat="47.27546" lon="-2.32552">
        <ele>10.60000038147</ele>
        <time>2020-08-27T07:29:19.000Z</time>
      </trkpt>
      <trkpt lat="47.27543" lon="-2.32539">
        <ele>10.60000038147</ele>
        <time>2020-08-27T07:29:22.000Z</time>
      </trkpt>
      <trkpt lat="47.27544" lon="-2.32525">
        <ele>11</ele>
        <time>2020-08-27T07:29:25.000Z</time>
      </trkpt>
      <trkpt lat="47.27545" lon="-2.3252">
        <ele>11.39999961853</ele>
        <time>2020-08-27T07:29:26.000Z</time>
      </trkpt>
      <trkpt lat="47.27547" lon="-2.32516">
        <ele>11.800000190735</ele>
        <time>2020-08-27T07:29:27.000Z</time>
      </trkpt>
      <trkpt lat="47.27548" lon="-2.32512">
        <ele>12.199999809265</ele>
        <time>2020-08-27T07:29:28.000Z</time>
      </trkpt>
      <trkpt lat="47.27549" lon="-2.32509">
        <ele>12.60000038147</ele>
        <time>2020-08-27T07:29:29.000Z</time>
      </trkpt>
      <trkpt lat="47.2755" lon="-2.32505">
        <ele>13</ele>
        <time>2020-08-27T07:29:30.000Z</time>
      </trkpt>
      <trkpt lat="47.27551" lon="-2.32502">
        <ele>13.39999961853</ele>
        <time>2020-08-27T07:29:31.000Z</time>
      </trkpt>
      <trkpt lat="47.27552" lon="-2.32499">
        <ele>13.800000190735</ele>
        <time>2020-08-27T07:29:32.000Z</time>
      </trkpt>
      <trkpt lat="47.27553" lon="-2.32495">
        <ele>14.199999809265</ele>
        <time>2020-08-27T07:29:33.000Z</time>
      </trkpt>
      <trkpt lat="47.27554" lon="-2.32491">
        <ele>14.60000038147</ele>
        <time>2020-08-27T07:29:34.000Z</time>
      </trkpt>
      <trkpt lat="47.27555" lon="-2.32482">
        <ele>15.199999809265</ele>
        <time>2020-08-27T07:29:36.000Z</time>
      </trkpt>
      <trkpt lat="47.27556" lon="-2.32477">
        <ele>15.60000038147</ele>
        <time>2020-08-27T07:29:37.000Z</time>
      </trkpt>
      <trkpt lat="47.27557" lon="-2.32472">
        <ele>16</ele>
        <time>2020-08-27T07:29:38.000Z</time>
      </trkpt>
      <trkpt lat="47.27558" lon="-2.32465">
        <ele>16.39999961853</ele>
        <time>2020-08-27T07:29:39.000Z</time>
      </trkpt>
      <trkpt lat="47.27559" lon="-2.32459">
        <ele>16.799999237061</ele>
        <time>2020-08-27T07:29:40.000Z</time>
      </trkpt>
      <trkpt lat="47.2757" lon="-2.32435">
        <ele>17.39999961853</ele>
        <time>2020-08-27T07:29:45.000Z</time>
      </trkpt>
      <trkpt lat="47.27573" lon="-2.32433">
        <ele>18.200000762939</ele>
        <time>2020-08-27T07:29:46.000Z</time>
      </trkpt>
      <trkpt lat="47.27575" lon="-2.32432">
        <ele>18.60000038147</ele>
        <time>2020-08-27T07:29:47.000Z</time>
      </trkpt>
      <trkpt lat="47.27577" lon="-2.32431">
        <ele>19</ele>
        <time>2020-08-27T07:29:48.000Z</time>
      </trkpt>
      <trkpt lat="47.27583" lon="-2.32432">
        <ele>19</ele>
        <time>2020-08-27T07:29:50.000Z</time>
      </trkpt>
      <trkpt lat="47.27598" lon="-2.32444">
        <ele>19</ele>
        <time>2020-08-27T07:29:55.000Z</time>
      </trkpt>
      <trkpt lat="47.27618" lon="-2.3247">
        <ele>19</ele>
        <time>2020-08-27T07:30:03.000Z</time>
      </trkpt>
      <trkpt lat="47.27627" lon="-2.32494">
        <ele>19</ele>
        <time>2020-08-27T07:30:09.000Z</time>
      </trkpt>
      <trkpt lat="47.27637" lon="-2.3253">
        <ele>19</ele>
        <time>2020-08-27T07:30:15.000Z</time>
      </trkpt>
      <trkpt lat="47.27649" lon="-2.32579">
        <ele>18.60000038147</ele>
        <time>2020-08-27T07:30:21.000Z</time>
      </trkpt>
      <trkpt lat="47.27652" lon="-2.32589">
        <ele>18.200000762939</ele>
        <time>2020-08-27T07:30:22.000Z</time>
      </trkpt>
      <trkpt lat="47.27655" lon="-2.32598">
        <ele>17.799999237061</ele>
        <time>2020-08-27T07:30:23.000Z</time>
      </trkpt>
      <trkpt lat="47.27658" lon="-2.32609">
        <ele>17.39999961853</ele>
        <time>2020-08-27T07:30:24.000Z</time>
      </trkpt>
      <trkpt lat="47.27662" lon="-2.3262">
        <ele>17</ele>
        <time>2020-08-27T07:30:25.000Z</time>
      </trkpt>
      <trkpt lat="47.27666" lon="-2.3263">
        <ele>16.60000038147</ele>
        <time>2020-08-27T07:30:26.000Z</time>
      </trkpt>
      <trkpt lat="47.2767" lon="-2.32641">
        <ele>16</ele>
        <time>2020-08-27T07:30:27.000Z</time>
      </trkpt>
      <trkpt lat="47.27674" lon="-2.32651">
        <ele>15.60000038147</ele>
        <time>2020-08-27T07:30:28.000Z</time>
      </trkpt>
      <trkpt lat="47.27678" lon="-2.32661">
        <ele>15.199999809265</ele>
        <time>2020-08-27T07:30:29.000Z</time>
      </trkpt>
      <trkpt lat="47.27682" lon="-2.3267">
        <ele>14.800000190735</ele>
        <time>2020-08-27T07:30:30.000Z</time>
      </trkpt>
      <trkpt lat="47.27686" lon="-2.32678">
        <ele>14.39999961853</ele>
        <time>2020-08-27T07:30:31.000Z</time>
      </trkpt>
      <trkpt lat="47.2769" lon="-2.32685">
        <ele>13.800000190735</ele>
        <time>2020-08-27T07:30:32.000Z</time>
      </trkpt>
      <trkpt lat="47.27694" lon="-2.32692">
        <ele>13.199999809265</ele>
        <time>2020-08-27T07:30:33.000Z</time>
      </trkpt>
      <trkpt lat="47.27697" lon="-2.32698">
        <ele>12.800000190735</ele>
        <time>2020-08-27T07:30:34.000Z</time>
      </trkpt>
      <trkpt lat="47.277" lon="-2.32704">
        <ele>11.800000190735</ele>
        <time>2020-08-27T07:30:35.000Z</time>
      </trkpt>
      <trkpt lat="47.27703" lon="-2.32709">
        <ele>11.199999809265</ele>
        <time>2020-08-27T07:30:36.000Z</time>
      </trkpt>
      <trkpt lat="47.27705" lon="-2.32713">
        <ele>10.800000190735</ele>
        <time>2020-08-27T07:30:37.000Z</time>
      </trkpt>
      <trkpt lat="47.27708" lon="-2.32716">
        <ele>10.199999809265</ele>
        <time>2020-08-27T07:30:38.000Z</time>
      </trkpt>
      <trkpt lat="47.2771" lon="-2.32716">
        <ele>10.199999809265</ele>
        <time>2020-08-27T07:30:39.000Z</time>
      </trkpt>
      <trkpt lat="47.27712" lon="-2.32714">
        <ele>10.199999809265</ele>
        <time>2020-08-27T07:30:40.000Z</time>
      </trkpt>
      <trkpt lat="47.27717" lon="-2.32704">
        <ele>10.199999809265</ele>
        <time>2020-08-27T07:30:43.000Z</time>
      </trkpt>
      <trkpt lat="47.2772" lon="-2.32696">
        <ele>10.199999809265</ele>
        <time>2020-08-27T07:30:45.000Z</time>
      </trkpt>
      <trkpt lat="47.27732" lon="-2.32675">
        <ele>10.199999809265</ele>
        <time>2020-08-27T07:30:51.000Z</time>
      </trkpt>
      <trkpt lat="47.27735" lon="-2.32667">
        <ele>10.60000038147</ele>
        <time>2020-08-27T07:30:54.000Z</time>
      </trkpt>
      <trkpt lat="47.27736" lon="-2.32664">
        <ele>11.199999809265</ele>
        <time>2020-08-27T07:30:55.000Z</time>
      </trkpt>
      <trkpt lat="47.27736" lon="-2.32661">
        <ele>11.60000038147</ele>
        <time>2020-08-27T07:30:56.000Z</time>
      </trkpt>
      <trkpt lat="47.27737" lon="-2.32658">
        <ele>12</ele>
        <time>2020-08-27T07:30:57.000Z</time>
      </trkpt>
      <trkpt lat="47.27739" lon="-2.32656">
        <ele>12.39999961853</ele>
        <time>2020-08-27T07:30:58.000Z</time>
      </trkpt>
      <trkpt lat="47.27741" lon="-2.32648">
        <ele>13</ele>
        <time>2020-08-27T07:31:01.000Z</time>
      </trkpt>
      <trkpt lat="47.27742" lon="-2.32645">
        <ele>13.39999961853</ele>
        <time>2020-08-27T07:31:02.000Z</time>
      </trkpt>
      <trkpt lat="47.27743" lon="-2.32642">
        <ele>13.800000190735</ele>
        <time>2020-08-27T07:31:03.000Z</time>
      </trkpt>
      <trkpt lat="47.27744" lon="-2.3264">
        <ele>14.39999961853</ele>
        <time>2020-08-27T07:31:04.000Z</time>
      </trkpt>
      <trkpt lat="47.27745" lon="-2.32638">
        <ele>14.800000190735</ele>
        <time>2020-08-27T07:31:05.000Z</time>
      </trkpt>
      <trkpt lat="47.27754" lon="-2.32619">
        <ele>14.800000190735</ele>
        <time>2020-08-27T07:31:11.000Z</time>
      </trkpt>
      <trkpt lat="47.27756" lon="-2.32616">
        <ele>15.199999809265</ele>
        <time>2020-08-27T07:31:12.000Z</time>
      </trkpt>
      <trkpt lat="47.27758" lon="-2.32612">
        <ele>15.60000038147</ele>
        <time>2020-08-27T07:31:13.000Z</time>
      </trkpt>
      <trkpt lat="47.2776" lon="-2.32607">
        <ele>16</ele>
        <time>2020-08-27T07:31:14.000Z</time>
      </trkpt>
      <trkpt lat="47.27761" lon="-2.32604">
        <ele>16.39999961853</ele>
        <time>2020-08-27T07:31:15.000Z</time>
      </trkpt>
      <trkpt lat="47.27764" lon="-2.32599">
        <ele>17</ele>
        <time>2020-08-27T07:31:16.000Z</time>
      </trkpt>
      <trkpt lat="47.27768" lon="-2.32591">
        <ele>17</ele>
        <time>2020-08-27T07:31:18.000Z</time>
      </trkpt>
      <trkpt lat="47.27783" lon="-2.32572">
        <ele>17</ele>
        <time>2020-08-27T07:31:23.000Z</time>
      </trkpt>
      <trkpt lat="47.27798" lon="-2.32552">
        <ele>17</ele>
        <time>2020-08-27T07:31:29.000Z</time>
      </trkpt>
      <trkpt lat="47.27813" lon="-2.32524">
        <ele>17</ele>
        <time>2020-08-27T07:31:37.000Z</time>
      </trkpt>
      <trkpt lat="47.27834" lon="-2.32495">
        <ele>17</ele>
        <time>2020-08-27T07:31:43.000Z</time>
      </trkpt>
      <trkpt lat="47.27851" lon="-2.32467">
        <ele>17</ele>
        <time>2020-08-27T07:31:49.000Z</time>
      </trkpt>
      <trkpt lat="47.27869" lon="-2.32451">
        <ele>17</ele>
        <time>2020-08-27T07:31:54.000Z</time>
      </trkpt>
      <trkpt lat="47.2789" lon="-2.32419">
        <ele>17</ele>
        <time>2020-08-27T07:32:01.000Z</time>
      </trkpt>
      <trkpt lat="47.27901" lon="-2.32397">
        <ele>17</ele>
        <time>2020-08-27T07:32:06.000Z</time>
      </trkpt>
      <trkpt lat="47.27905" lon="-2.32392">
        <ele>17</ele>
        <time>2020-08-27T07:32:09.000Z</time>
      </trkpt>
      <trkpt lat="47.27907" lon="-2.32393">
        <ele>17</ele>
        <time>2020-08-27T07:32:10.000Z</time>
      </trkpt>
      <trkpt lat="47.27927" lon="-2.32403">
        <ele>17</ele>
        <time>2020-08-27T07:32:17.000Z</time>
      </trkpt>
      <trkpt lat="47.27954" lon="-2.32409">
        <ele>17</ele>
        <time>2020-08-27T07:32:22.000Z</time>
      </trkpt>
      <trkpt lat="47.27979" lon="-2.32418">
        <ele>17</ele>
        <time>2020-08-27T07:32:27.000Z</time>
      </trkpt>
      <trkpt lat="47.27997" lon="-2.32423">
        <ele>17</ele>
        <time>2020-08-27T07:32:32.000Z</time>
      </trkpt>
      <trkpt lat="47.28007" lon="-2.32422">
        <ele>17</ele>
        <time>2020-08-27T07:32:36.000Z</time>
      </trkpt>
      <trkpt lat="47.28011" lon="-2.32423">
        <ele>17</ele>
        <time>2020-08-27T07:32:38.000Z</time>
      </trkpt>
      <trkpt lat="47.2802" lon="-2.32425">
        <ele>17</ele>
        <time>2020-08-27T07:32:42.000Z</time>
      </trkpt>
      <trkpt lat="47.28026" lon="-2.32427">
        <ele>17</ele>
        <time>2020-08-27T07:32:45.000Z</time>
      </trkpt>
      <trkpt lat="47.28037" lon="-2.32428">
        <ele>17</ele>
        <time>2020-08-27T07:32:51.000Z</time>
      </trkpt>
      <trkpt lat="47.28048" lon="-2.32429">
        <ele>17</ele>
        <time>2020-08-27T07:32:58.000Z</time>
      </trkpt>
      <trkpt lat="47.2806" lon="-2.3243">
        <ele>17</ele>
        <time>2020-08-27T07:33:06.000Z</time>
      </trkpt>
      <trkpt lat="47.28077" lon="-2.3243">
        <ele>17</ele>
        <time>2020-08-27T07:33:14.000Z</time>
      </trkpt>
      <trkpt lat="47.28087" lon="-2.32429">
        <ele>17</ele>
        <time>2020-08-27T07:33:21.000Z</time>
      </trkpt>
      <trkpt lat="47.28097" lon="-2.32432">
        <ele>17</ele>
        <time>2020-08-27T07:33:27.000Z</time>
      </trkpt>
      <trkpt lat="47.28101" lon="-2.32436">
        <ele>17</ele>
        <time>2020-08-27T07:33:31.000Z</time>
      </trkpt>
      <trkpt lat="47.28105" lon="-2.32443">
        <ele>17</ele>
        <time>2020-08-27T07:35:04.000Z</time>
      </trkpt>
      <trkpt lat="47.28109" lon="-2.32448">
        <ele>17</ele>
        <time>2020-08-27T07:35:09.000Z</time>
      </trkpt>
      <trkpt lat="47.28121" lon="-2.32453">
        <ele>17</ele>
        <time>2020-08-27T07:35:15.000Z</time>
      </trkpt>
      <trkpt lat="47.28141" lon="-2.32451">
        <ele>17</ele>
        <time>2020-08-27T07:35:22.000Z</time>
      </trkpt>
      <trkpt lat="47.28159" lon="-2.32448">
        <ele>17</ele>
        <time>2020-08-27T07:35:28.000Z</time>
      </trkpt>
      <trkpt lat="47.28186" lon="-2.32453">
        <ele>17</ele>
        <time>2020-08-27T07:35:35.000Z</time>
      </trkpt>
      <trkpt lat="47.28213" lon="-2.3246">
        <ele>17</ele>
        <time>2020-08-27T07:35:41.000Z</time>
      </trkpt>
      <trkpt lat="47.2824" lon="-2.32482">
        <ele>17</ele>
        <time>2020-08-27T07:35:48.000Z</time>
      </trkpt>
      <trkpt lat="47.28256" lon="-2.32505">
        <ele>16.60000038147</ele>
        <time>2020-08-27T07:35:53.000Z</time>
      </trkpt>
      <trkpt lat="47.2826" lon="-2.32509">
        <ele>16.200000762939</ele>
        <time>2020-08-27T07:35:54.000Z</time>
      </trkpt>
      <trkpt lat="47.28264" lon="-2.32512">
        <ele>15.60000038147</ele>
        <time>2020-08-27T07:35:55.000Z</time>
      </trkpt>
      <trkpt lat="47.28268" lon="-2.32514">
        <ele>14.800000190735</ele>
        <time>2020-08-27T07:35:56.000Z</time>
      </trkpt>
      <trkpt lat="47.28282" lon="-2.32518">
        <ele>14.800000190735</ele>
        <time>2020-08-27T07:35:59.000Z</time>
      </trkpt>
      <trkpt lat="47.28286" lon="-2.32519">
        <ele>14.800000190735</ele>
        <time>2020-08-27T07:36:00.000Z</time>
      </trkpt>
      <trkpt lat="47.28313" lon="-2.3252">
        <ele>14.800000190735</ele>
        <time>2020-08-27T07:36:06.000Z</time>
      </trkpt>
      <trkpt lat="47.28336" lon="-2.32521">
        <ele>14.800000190735</ele>
        <time>2020-08-27T07:36:12.000Z</time>
      </trkpt>
      <trkpt lat="47.28357" lon="-2.32523">
        <ele>14.800000190735</ele>
        <time>2020-08-27T07:36:18.000Z</time>
      </trkpt>
      <trkpt lat="47.28359" lon="-2.32538">
        <ele>14.800000190735</ele>
        <time>2020-08-27T07:36:22.000Z</time>
      </trkpt>
      <trkpt lat="47.28359" lon="-2.32554">
        <ele>14.800000190735</ele>
        <time>2020-08-27T07:36:25.000Z</time>
      </trkpt>
      <trkpt lat="47.28362" lon="-2.32573">
        <ele>14.800000190735</ele>
        <time>2020-08-27T07:36:28.000Z</time>
      </trkpt>
      <trkpt lat="47.28366" lon="-2.32579">
        <ele>14.800000190735</ele>
        <time>2020-08-27T07:36:30.000Z</time>
      </trkpt>
      <trkpt lat="47.28369" lon="-2.32579">
        <ele>14.800000190735</ele>
        <time>2020-08-27T07:36:31.000Z</time>
      </trkpt>
      <trkpt lat="47.28388" lon="-2.32578">
        <ele>14.800000190735</ele>
        <time>2020-08-27T07:36:36.000Z</time>
      </trkpt>
      <trkpt lat="47.28397" lon="-2.32593">
        <ele>14.800000190735</ele>
        <time>2020-08-27T07:36:39.000Z</time>
      </trkpt>
      <trkpt lat="47.28399" lon="-2.32598">
        <ele>14.800000190735</ele>
        <time>2020-08-27T07:36:40.000Z</time>
      </trkpt>
      <trkpt lat="47.28403" lon="-2.32605">
        <ele>14.800000190735</ele>
        <time>2020-08-27T07:36:42.000Z</time>
      </trkpt>
      <trkpt lat="47.28405" lon="-2.32613">
        <ele>14.800000190735</ele>
        <time>2020-08-27T07:36:44.000Z</time>
      </trkpt>
      <trkpt lat="47.28404" lon="-2.32635">
        <ele>14.800000190735</ele>
        <time>2020-08-27T07:36:48.000Z</time>
      </trkpt>
      <trkpt lat="47.28403" lon="-2.3264">
        <ele>14.800000190735</ele>
        <time>2020-08-27T07:36:49.000Z</time>
      </trkpt>
      <trkpt lat="47.28394" lon="-2.32682">
        <ele>14.800000190735</ele>
        <time>2020-08-27T07:36:55.000Z</time>
      </trkpt>
      <trkpt lat="47.28381" lon="-2.32736">
        <ele>14.800000190735</ele>
        <time>2020-08-27T07:37:03.000Z</time>
      </trkpt>
      <trkpt lat="47.28368" lon="-2.32785">
        <ele>14.800000190735</ele>
        <time>2020-08-27T07:37:10.000Z</time>
      </trkpt>
      <trkpt lat="47.28362" lon="-2.32813">
        <ele>14.800000190735</ele>
        <time>2020-08-27T07:37:14.000Z</time>
      </trkpt>
      <trkpt lat="47.28361" lon="-2.32834">
        <ele>14.800000190735</ele>
        <time>2020-08-27T07:37:17.000Z</time>
      </trkpt>
      <trkpt lat="47.28364" lon="-2.32884">
        <ele>14.800000190735</ele>
        <time>2020-08-27T07:37:23.000Z</time>
      </trkpt>
      <trkpt lat="47.28365" lon="-2.329">
        <ele>14.800000190735</ele>
        <time>2020-08-27T07:37:25.000Z</time>
      </trkpt>
      <trkpt lat="47.28364" lon="-2.32908">
        <ele>14.39999961853</ele>
        <time>2020-08-27T07:37:26.000Z</time>
      </trkpt>
      <trkpt lat="47.28362" lon="-2.32916">
        <ele>14</ele>
        <time>2020-08-27T07:37:27.000Z</time>
      </trkpt>
      <trkpt lat="47.2836" lon="-2.32923">
        <ele>13.60000038147</ele>
        <time>2020-08-27T07:37:28.000Z</time>
      </trkpt>
      <trkpt lat="47.28357" lon="-2.32929">
        <ele>13.199999809265</ele>
        <time>2020-08-27T07:37:29.000Z</time>
      </trkpt>
      <trkpt lat="47.28353" lon="-2.32933">
        <ele>12.800000190735</ele>
        <time>2020-08-27T07:37:30.000Z</time>
      </trkpt>
      <trkpt lat="47.28345" lon="-2.32942">
        <ele>12.800000190735</ele>
        <time>2020-08-27T07:37:32.000Z</time>
      </trkpt>
      <trkpt lat="47.28341" lon="-2.32946">
        <ele>12.800000190735</ele>
        <time>2020-08-27T07:37:33.000Z</time>
      </trkpt>
      <trkpt lat="47.28313" lon="-2.32969">
        <ele>12.800000190735</ele>
        <time>2020-08-27T07:37:39.000Z</time>
      </trkpt>
      <trkpt lat="47.28273" lon="-2.33003">
        <ele>12.800000190735</ele>
        <time>2020-08-27T07:37:47.000Z</time>
      </trkpt>
      <trkpt lat="47.28235" lon="-2.33032">
        <ele>12.800000190735</ele>
        <time>2020-08-27T07:37:55.000Z</time>
      </trkpt>
      <trkpt lat="47.28215" lon="-2.33061">
        <ele>12.800000190735</ele>
        <time>2020-08-27T07:38:00.000Z</time>
      </trkpt>
      <trkpt lat="47.28197" lon="-2.33101">
        <ele>12.800000190735</ele>
        <time>2020-08-27T07:38:06.000Z</time>
      </trkpt>
      <trkpt lat="47.28195" lon="-2.33109">
        <ele>12.800000190735</ele>
        <time>2020-08-27T07:38:07.000Z</time>
      </trkpt>
      <trkpt lat="47.28193" lon="-2.33125">
        <ele>12.800000190735</ele>
        <time>2020-08-27T07:38:09.000Z</time>
      </trkpt>
      <trkpt lat="47.28193" lon="-2.3314">
        <ele>12.800000190735</ele>
        <time>2020-08-27T07:38:11.000Z</time>
      </trkpt>
      <trkpt lat="47.28192" lon="-2.33189">
        <ele>12.800000190735</ele>
        <time>2020-08-27T07:38:17.000Z</time>
      </trkpt>
      <trkpt lat="47.2819" lon="-2.33214">
        <ele>12.800000190735</ele>
        <time>2020-08-27T07:38:20.000Z</time>
      </trkpt>
      <trkpt lat="47.28186" lon="-2.33247">
        <ele>12.800000190735</ele>
        <time>2020-08-27T07:38:24.000Z</time>
      </trkpt>
      <trkpt lat="47.28177" lon="-2.33295">
        <ele>12.800000190735</ele>
        <time>2020-08-27T07:38:30.000Z</time>
      </trkpt>
      <trkpt lat="47.28162" lon="-2.33337">
        <ele>13.199999809265</ele>
        <time>2020-08-27T07:38:36.000Z</time>
      </trkpt>
      <trkpt lat="47.2816" lon="-2.33344">
        <ele>13.60000038147</ele>
        <time>2020-08-27T07:38:37.000Z</time>
      </trkpt>
      <trkpt lat="47.28157" lon="-2.3335">
        <ele>14</ele>
        <time>2020-08-27T07:38:38.000Z</time>
      </trkpt>
      <trkpt lat="47.28154" lon="-2.33356">
        <ele>14.39999961853</ele>
        <time>2020-08-27T07:38:39.000Z</time>
      </trkpt>
      <trkpt lat="47.28151" lon="-2.33363">
        <ele>15</ele>
        <time>2020-08-27T07:38:40.000Z</time>
      </trkpt>
      <trkpt lat="47.28143" lon="-2.33381">
        <ele>15</ele>
        <time>2020-08-27T07:38:43.000Z</time>
      </trkpt>
      <trkpt lat="47.28122" lon="-2.33426">
        <ele>15</ele>
        <time>2020-08-27T07:38:50.000Z</time>
      </trkpt>
      <trkpt lat="47.28104" lon="-2.33468">
        <ele>15</ele>
        <time>2020-08-27T07:38:57.000Z</time>
      </trkpt>
      <trkpt lat="47.28099" lon="-2.33479">
        <ele>15.39999961853</ele>
        <time>2020-08-27T07:38:59.000Z</time>
      </trkpt>
      <trkpt lat="47.28096" lon="-2.33484">
        <ele>15.800000190735</ele>
        <time>2020-08-27T07:39:00.000Z</time>
      </trkpt>
      <trkpt lat="47.28094" lon="-2.3349">
        <ele>16.200000762939</ele>
        <time>2020-08-27T07:39:01.000Z</time>
      </trkpt>
      <trkpt lat="47.28092" lon="-2.33494">
        <ele>16.60000038147</ele>
        <time>2020-08-27T07:39:02.000Z</time>
      </trkpt>
      <trkpt lat="47.28089" lon="-2.33499">
        <ele>17</ele>
        <time>2020-08-27T07:39:03.000Z</time>
      </trkpt>
      <trkpt lat="47.28087" lon="-2.33503">
        <ele>17</ele>
        <time>2020-08-27T07:39:04.000Z</time>
      </trkpt>
      <trkpt lat="47.28075" lon="-2.33519">
        <ele>17</ele>
        <time>2020-08-27T07:39:10.000Z</time>
      </trkpt>
      <trkpt lat="47.28075" lon="-2.3353">
        <ele>17</ele>
        <time>2020-08-27T07:39:14.000Z</time>
      </trkpt>
      <trkpt lat="47.28077" lon="-2.3355">
        <ele>17</ele>
        <time>2020-08-27T07:39:19.000Z</time>
      </trkpt>
      <trkpt lat="47.28083" lon="-2.33585">
        <ele>17</ele>
        <time>2020-08-27T07:39:26.000Z</time>
      </trkpt>
      <trkpt lat="47.28091" lon="-2.33627">
        <ele>17</ele>
        <time>2020-08-27T07:39:33.000Z</time>
      </trkpt>
      <trkpt lat="47.28093" lon="-2.33645">
        <ele>17</ele>
        <time>2020-08-27T07:39:38.000Z</time>
      </trkpt>
      <trkpt lat="47.28087" lon="-2.33662">
        <ele>17</ele>
        <time>2020-08-27T07:39:44.000Z</time>
      </trkpt>
      <trkpt lat="47.28084" lon="-2.33666">
        <ele>17</ele>
        <time>2020-08-27T07:39:47.000Z</time>
      </trkpt>
      <trkpt lat="47.2808" lon="-2.33668">
        <ele>17</ele>
        <time>2020-08-27T07:39:49.000Z</time>
      </trkpt>
      <trkpt lat="47.28062" lon="-2.33682">
        <ele>17</ele>
        <time>2020-08-27T07:39:56.000Z</time>
      </trkpt>
      <trkpt lat="47.28049" lon="-2.33691">
        <ele>17.39999961853</ele>
        <time>2020-08-27T07:40:00.000Z</time>
      </trkpt>
      <trkpt lat="47.28046" lon="-2.33694">
        <ele>17.799999237061</ele>
        <time>2020-08-27T07:40:01.000Z</time>
      </trkpt>
      <trkpt lat="47.28042" lon="-2.33697">
        <ele>18.200000762939</ele>
        <time>2020-08-27T07:40:02.000Z</time>
      </trkpt>
      <trkpt lat="47.28039" lon="-2.337">
        <ele>19</ele>
        <time>2020-08-27T07:40:03.000Z</time>
      </trkpt>
      <trkpt lat="47.28036" lon="-2.33703">
        <ele>19</ele>
        <time>2020-08-27T07:40:04.000Z</time>
      </trkpt>
      <trkpt lat="47.28033" lon="-2.33708">
        <ele>19</ele>
        <time>2020-08-27T07:40:05.000Z</time>
      </trkpt>
      <trkpt lat="47.28025" lon="-2.3373">
        <ele>19</ele>
        <time>2020-08-27T07:40:09.000Z</time>
      </trkpt>
      <trkpt lat="47.28023" lon="-2.33742">
        <ele>19</ele>
        <time>2020-08-27T07:40:11.000Z</time>
      </trkpt>
      <trkpt lat="47.28019" lon="-2.33768">
        <ele>19</ele>
        <time>2020-08-27T07:40:15.000Z</time>
      </trkpt>
      <trkpt lat="47.28014" lon="-2.33806">
        <ele>19</ele>
        <time>2020-08-27T07:40:21.000Z</time>
      </trkpt>
      <trkpt lat="47.28013" lon="-2.33813">
        <ele>19</ele>
        <time>2020-08-27T07:40:22.000Z</time>
      </trkpt>
      <trkpt lat="47.28008" lon="-2.3384">
        <ele>19.39999961853</ele>
        <time>2020-08-27T07:40:26.000Z</time>
      </trkpt>
      <trkpt lat="47.28007" lon="-2.33846">
        <ele>19.799999237061</ele>
        <time>2020-08-27T07:40:27.000Z</time>
      </trkpt>
      <trkpt lat="47.28005" lon="-2.33853">
        <ele>20.60000038147</ele>
        <time>2020-08-27T07:40:28.000Z</time>
      </trkpt>
      <trkpt lat="47.28005" lon="-2.3386">
        <ele>21</ele>
        <time>2020-08-27T07:40:29.000Z</time>
      </trkpt>
      <trkpt lat="47.28001" lon="-2.3392">
        <ele>21</ele>
        <time>2020-08-27T07:40:38.000Z</time>
      </trkpt>
      <trkpt lat="47.28001" lon="-2.33939">
        <ele>21</ele>
        <time>2020-08-27T07:40:41.000Z</time>
      </trkpt>
      <trkpt lat="47.28001" lon="-2.33958">
        <ele>21.39999961853</ele>
        <time>2020-08-27T07:40:44.000Z</time>
      </trkpt>
      <trkpt lat="47.28002" lon="-2.33965">
        <ele>21.799999237061</ele>
        <time>2020-08-27T07:40:45.000Z</time>
      </trkpt>
      <trkpt lat="47.28002" lon="-2.33971">
        <ele>22.200000762939</ele>
        <time>2020-08-27T07:40:46.000Z</time>
      </trkpt>
      <trkpt lat="47.28002" lon="-2.33978">
        <ele>22.60000038147</ele>
        <time>2020-08-27T07:40:47.000Z</time>
      </trkpt>
      <trkpt lat="47.28003" lon="-2.33984">
        <ele>23</ele>
        <time>2020-08-27T07:40:48.000Z</time>
      </trkpt>
      <trkpt lat="47.28007" lon="-2.3401">
        <ele>23</ele>
        <time>2020-08-27T07:40:52.000Z</time>
      </trkpt>
      <trkpt lat="47.28019" lon="-2.34055">
        <ele>23</ele>
        <time>2020-08-27T07:40:59.000Z</time>
      </trkpt>
      <trkpt lat="47.28033" lon="-2.34088">
        <ele>23</ele>
        <time>2020-08-27T07:41:05.000Z</time>
      </trkpt>
      <trkpt lat="47.28047" lon="-2.34113">
        <ele>23</ele>
        <time>2020-08-27T07:41:10.000Z</time>
      </trkpt>
      <trkpt lat="47.2805" lon="-2.34117">
        <ele>23.39999961853</ele>
        <time>2020-08-27T07:41:11.000Z</time>
      </trkpt>
      <trkpt lat="47.28053" lon="-2.3412">
        <ele>23.799999237061</ele>
        <time>2020-08-27T07:41:12.000Z</time>
      </trkpt>
      <trkpt lat="47.28057" lon="-2.34124">
        <ele>24.200000762939</ele>
        <time>2020-08-27T07:41:13.000Z</time>
      </trkpt>
      <trkpt lat="47.2806" lon="-2.34127">
        <ele>24.60000038147</ele>
        <time>2020-08-27T07:41:14.000Z</time>
      </trkpt>
      <trkpt lat="47.28064" lon="-2.3413">
        <ele>25.200000762939</ele>
        <time>2020-08-27T07:41:15.000Z</time>
      </trkpt>
      <trkpt lat="47.2807" lon="-2.34136">
        <ele>25.200000762939</ele>
        <time>2020-08-27T07:41:17.000Z</time>
      </trkpt>
      <trkpt lat="47.28089" lon="-2.3415">
        <ele>25.200000762939</ele>
        <time>2020-08-27T07:41:24.000Z</time>
      </trkpt>
      <trkpt lat="47.28094" lon="-2.34151">
        <ele>25.200000762939</ele>
        <time>2020-08-27T07:41:26.000Z</time>
      </trkpt>
      <trkpt lat="47.28097" lon="-2.34146">
        <ele>25.200000762939</ele>
        <time>2020-08-27T07:41:28.000Z</time>
      </trkpt>
      <trkpt lat="47.28105" lon="-2.34129">
        <ele>25.200000762939</ele>
        <time>2020-08-27T07:41:32.000Z</time>
      </trkpt>
      <trkpt lat="47.28108" lon="-2.34125">
        <ele>25.200000762939</ele>
        <time>2020-08-27T07:41:33.000Z</time>
      </trkpt>
      <trkpt lat="47.2812" lon="-2.34118">
        <ele>25.200000762939</ele>
        <time>2020-08-27T07:41:37.000Z</time>
      </trkpt>
      <trkpt lat="47.2813" lon="-2.34128">
        <ele>25.200000762939</ele>
        <time>2020-08-27T07:41:41.000Z</time>
      </trkpt>
      <trkpt lat="47.28145" lon="-2.34152">
        <ele>25.200000762939</ele>
        <time>2020-08-27T07:41:47.000Z</time>
      </trkpt>
      <trkpt lat="47.2816" lon="-2.34176">
        <ele>25.200000762939</ele>
        <time>2020-08-27T07:41:53.000Z</time>
      </trkpt>
      <trkpt lat="47.28178" lon="-2.34206">
        <ele>25.200000762939</ele>
        <time>2020-08-27T07:42:00.000Z</time>
      </trkpt>
      <trkpt lat="47.28202" lon="-2.34235">
        <ele>25.200000762939</ele>
        <time>2020-08-27T07:42:07.000Z</time>
      </trkpt>
      <trkpt lat="47.2823" lon="-2.34267">
        <ele>25.200000762939</ele>
        <time>2020-08-27T07:42:16.000Z</time>
      </trkpt>
      <trkpt lat="47.28246" lon="-2.34283">
        <ele>25.200000762939</ele>
        <time>2020-08-27T07:42:21.000Z</time>
      </trkpt>
      <trkpt lat="47.28254" lon="-2.34285">
        <ele>25.200000762939</ele>
        <time>2020-08-27T07:42:23.000Z</time>
      </trkpt>
      <trkpt lat="47.28273" lon="-2.34276">
        <ele>25.200000762939</ele>
        <time>2020-08-27T07:42:27.000Z</time>
      </trkpt>
      <trkpt lat="47.28277" lon="-2.34274">
        <ele>25.200000762939</ele>
        <time>2020-08-27T07:42:28.000Z</time>
      </trkpt>
      <trkpt lat="47.28302" lon="-2.3426">
        <ele>25.200000762939</ele>
        <time>2020-08-27T07:42:34.000Z</time>
      </trkpt>
      <trkpt lat="47.28346" lon="-2.34233">
        <ele>25.200000762939</ele>
        <time>2020-08-27T07:42:45.000Z</time>
      </trkpt>
      <trkpt lat="47.28388" lon="-2.34207">
        <ele>25.200000762939</ele>
        <time>2020-08-27T07:42:55.000Z</time>
      </trkpt>
      <trkpt lat="47.28422" lon="-2.34191">
        <ele>25.200000762939</ele>
        <time>2020-08-27T07:43:03.000Z</time>
      </trkpt>
      <trkpt lat="47.28427" lon="-2.34191">
        <ele>25.200000762939</ele>
        <time>2020-08-27T07:43:04.000Z</time>
      </trkpt>
      <trkpt lat="47.28438" lon="-2.34191">
        <ele>25.200000762939</ele>
        <time>2020-08-27T07:43:06.000Z</time>
      </trkpt>
      <trkpt lat="47.28448" lon="-2.34193">
        <ele>25.200000762939</ele>
        <time>2020-08-27T07:43:08.000Z</time>
      </trkpt>
      <trkpt lat="47.28461" lon="-2.34197">
        <ele>25.200000762939</ele>
        <time>2020-08-27T07:43:11.000Z</time>
      </trkpt>
      <trkpt lat="47.2847" lon="-2.342">
        <ele>25.200000762939</ele>
        <time>2020-08-27T07:43:13.000Z</time>
      </trkpt>
      <trkpt lat="47.28506" lon="-2.34212">
        <ele>25.200000762939</ele>
        <time>2020-08-27T07:43:21.000Z</time>
      </trkpt>
      <trkpt lat="47.28531" lon="-2.34217">
        <ele>25.200000762939</ele>
        <time>2020-08-27T07:43:27.000Z</time>
      </trkpt>
      <trkpt lat="47.28558" lon="-2.34225">
        <ele>25.200000762939</ele>
        <time>2020-08-27T07:43:34.000Z</time>
      </trkpt>
      <trkpt lat="47.2859" lon="-2.3424">
        <ele>25.200000762939</ele>
        <time>2020-08-27T07:43:42.000Z</time>
      </trkpt>
      <trkpt lat="47.28618" lon="-2.34248">
        <ele>25.200000762939</ele>
        <time>2020-08-27T07:43:49.000Z</time>
      </trkpt>
      <trkpt lat="47.28622" lon="-2.3425">
        <ele>25.200000762939</ele>
        <time>2020-08-27T07:43:50.000Z</time>
      </trkpt>
      <trkpt lat="47.28624" lon="-2.34255">
        <ele>25.60000038147</ele>
        <time>2020-08-27T07:43:51.000Z</time>
      </trkpt>
      <trkpt lat="47.28625" lon="-2.34262">
        <ele>26</ele>
        <time>2020-08-27T07:43:52.000Z</time>
      </trkpt>
      <trkpt lat="47.28626" lon="-2.34269">
        <ele>26.39999961853</ele>
        <time>2020-08-27T07:43:53.000Z</time>
      </trkpt>
      <trkpt lat="47.28626" lon="-2.34276">
        <ele>26.799999237061</ele>
        <time>2020-08-27T07:43:54.000Z</time>
      </trkpt>
      <trkpt lat="47.28624" lon="-2.34283">
        <ele>27.39999961853</ele>
        <time>2020-08-27T07:43:55.000Z</time>
      </trkpt>
      <trkpt lat="47.28623" lon="-2.3429">
        <ele>27.39999961853</ele>
        <time>2020-08-27T07:43:56.000Z</time>
      </trkpt>
      <trkpt lat="47.28618" lon="-2.34304">
        <ele>27.39999961853</ele>
        <time>2020-08-27T07:43:58.000Z</time>
      </trkpt>
      <trkpt lat="47.2861" lon="-2.34333">
        <ele>27.39999961853</ele>
        <time>2020-08-27T07:44:02.000Z</time>
      </trkpt>
      <trkpt lat="47.28597" lon="-2.34372">
        <ele>27.39999961853</ele>
        <time>2020-08-27T07:44:08.000Z</time>
      </trkpt>
      <trkpt lat="47.28594" lon="-2.34379">
        <ele>27.39999961853</ele>
        <time>2020-08-27T07:44:09.000Z</time>
      </trkpt>
      <trkpt lat="47.28572" lon="-2.34404">
        <ele>27.39999961853</ele>
        <time>2020-08-27T07:44:14.000Z</time>
      </trkpt>
      <trkpt lat="47.28539" lon="-2.34421">
        <ele>27.39999961853</ele>
        <time>2020-08-27T07:44:20.000Z</time>
      </trkpt>
      <trkpt lat="47.28494" lon="-2.34432">
        <ele>27.39999961853</ele>
        <time>2020-08-27T07:44:28.000Z</time>
      </trkpt>
      <trkpt lat="47.28445" lon="-2.34445">
        <ele>27.39999961853</ele>
        <time>2020-08-27T07:44:37.000Z</time>
      </trkpt>
      <trkpt lat="47.28404" lon="-2.34465">
        <ele>27.39999961853</ele>
        <time>2020-08-27T07:44:45.000Z</time>
      </trkpt>
      <trkpt lat="47.28381" lon="-2.34483">
        <ele>27.39999961853</ele>
        <time>2020-08-27T07:44:50.000Z</time>
      </trkpt>
      <trkpt lat="47.28369" lon="-2.34496">
        <ele>27.39999961853</ele>
        <time>2020-08-27T07:44:53.000Z</time>
      </trkpt>
      <trkpt lat="47.28365" lon="-2.34501">
        <ele>27.39999961853</ele>
        <time>2020-08-27T07:44:54.000Z</time>
      </trkpt>
      <trkpt lat="47.28343" lon="-2.34534">
        <ele>28.200000762939</ele>
        <time>2020-08-27T07:45:00.000Z</time>
      </trkpt>
      <trkpt lat="47.28339" lon="-2.3454">
        <ele>28.60000038147</ele>
        <time>2020-08-27T07:45:01.000Z</time>
      </trkpt>
      <trkpt lat="47.28336" lon="-2.34545">
        <ele>29</ele>
        <time>2020-08-27T07:45:02.000Z</time>
      </trkpt>
      <trkpt lat="47.28332" lon="-2.34551">
        <ele>29.39999961853</ele>
        <time>2020-08-27T07:45:03.000Z</time>
      </trkpt>
      <trkpt lat="47.28306" lon="-2.3459">
        <ele>29.39999961853</ele>
        <time>2020-08-27T07:45:10.000Z</time>
      </trkpt>
      <trkpt lat="47.28274" lon="-2.34637">
        <ele>29.39999961853</ele>
        <time>2020-08-27T07:45:18.000Z</time>
      </trkpt>
      <trkpt lat="47.28254" lon="-2.34667">
        <ele>29</ele>
        <time>2020-08-27T07:45:23.000Z</time>
      </trkpt>
      <trkpt lat="47.2825" lon="-2.34673">
        <ele>28.200000762939</ele>
        <time>2020-08-27T07:45:24.000Z</time>
      </trkpt>
      <trkpt lat="47.28246" lon="-2.34679">
        <ele>27.60000038147</ele>
        <time>2020-08-27T07:45:25.000Z</time>
      </trkpt>
      <trkpt lat="47.28242" lon="-2.34685">
        <ele>27.200000762939</ele>
        <time>2020-08-27T07:45:26.000Z</time>
      </trkpt>
      <trkpt lat="47.28238" lon="-2.34691">
        <ele>27.200000762939</ele>
        <time>2020-08-27T07:45:27.000Z</time>
      </trkpt>
      <trkpt lat="47.28201" lon="-2.34745">
        <ele>27.200000762939</ele>
        <time>2020-08-27T07:45:36.000Z</time>
      </trkpt>
      <trkpt lat="47.2819" lon="-2.34765">
        <ele>26.799999237061</ele>
        <time>2020-08-27T07:45:39.000Z</time>
      </trkpt>
      <trkpt lat="47.28187" lon="-2.34772">
        <ele>26.39999961853</ele>
        <time>2020-08-27T07:45:40.000Z</time>
      </trkpt>
      <trkpt lat="47.28185" lon="-2.3478">
        <ele>26</ele>
        <time>2020-08-27T07:45:41.000Z</time>
      </trkpt>
      <trkpt lat="47.28183" lon="-2.34789">
        <ele>25.60000038147</ele>
        <time>2020-08-27T07:45:42.000Z</time>
      </trkpt>
      <trkpt lat="47.28181" lon="-2.34798">
        <ele>25.200000762939</ele>
        <time>2020-08-27T07:45:43.000Z</time>
      </trkpt>
      <trkpt lat="47.2818" lon="-2.34816">
        <ele>25.200000762939</ele>
        <time>2020-08-27T07:45:45.000Z</time>
      </trkpt>
      <trkpt lat="47.2818" lon="-2.34834">
        <ele>25.200000762939</ele>
        <time>2020-08-27T07:45:47.000Z</time>
      </trkpt>
      <trkpt lat="47.28182" lon="-2.3485">
        <ele>25.200000762939</ele>
        <time>2020-08-27T07:45:49.000Z</time>
      </trkpt>
      <trkpt lat="47.28188" lon="-2.34873">
        <ele>25.200000762939</ele>
        <time>2020-08-27T07:45:52.000Z</time>
      </trkpt>
      <trkpt lat="47.28202" lon="-2.34921">
        <ele>25.200000762939</ele>
        <time>2020-08-27T07:45:59.000Z</time>
      </trkpt>
      <trkpt lat="47.28221" lon="-2.34976">
        <ele>25.200000762939</ele>
        <time>2020-08-27T07:46:07.000Z</time>
      </trkpt>
      <trkpt lat="47.28242" lon="-2.35016">
        <ele>25.200000762939</ele>
        <time>2020-08-27T07:46:14.000Z</time>
      </trkpt>
      <trkpt lat="47.28272" lon="-2.35056">
        <ele>25.200000762939</ele>
        <time>2020-08-27T07:46:23.000Z</time>
      </trkpt>
      <trkpt lat="47.28292" lon="-2.35076">
        <ele>25.200000762939</ele>
        <time>2020-08-27T07:46:28.000Z</time>
      </trkpt>
      <trkpt lat="47.28297" lon="-2.35077">
        <ele>25.200000762939</ele>
        <time>2020-08-27T07:46:29.000Z</time>
      </trkpt>
      <trkpt lat="47.28325" lon="-2.35082">
        <ele>25.200000762939</ele>
        <time>2020-08-27T07:46:35.000Z</time>
      </trkpt>
      <trkpt lat="47.28345" lon="-2.351">
        <ele>25.200000762939</ele>
        <time>2020-08-27T07:46:40.000Z</time>
      </trkpt>
      <trkpt lat="47.28349" lon="-2.35106">
        <ele>25.200000762939</ele>
        <time>2020-08-27T07:46:41.000Z</time>
      </trkpt>
      <trkpt lat="47.28356" lon="-2.35125">
        <ele>25.200000762939</ele>
        <time>2020-08-27T07:46:44.000Z</time>
      </trkpt>
      <trkpt lat="47.28373" lon="-2.35176">
        <ele>25.200000762939</ele>
        <time>2020-08-27T07:46:52.000Z</time>
      </trkpt>
      <trkpt lat="47.28387" lon="-2.35227">
        <ele>25.200000762939</ele>
        <time>2020-08-27T07:47:00.000Z</time>
      </trkpt>
      <trkpt lat="47.28387" lon="-2.35234">
        <ele>25.200000762939</ele>
        <time>2020-08-27T07:47:01.000Z</time>
      </trkpt>
      <trkpt lat="47.28381" lon="-2.35246">
        <ele>25.200000762939</ele>
        <time>2020-08-27T07:47:03.000Z</time>
      </trkpt>
      <trkpt lat="47.28375" lon="-2.35256">
        <ele>25.200000762939</ele>
        <time>2020-08-27T07:47:05.000Z</time>
      </trkpt>
      <trkpt lat="47.28366" lon="-2.3527">
        <ele>25.200000762939</ele>
        <time>2020-08-27T07:47:08.000Z</time>
      </trkpt>
      <trkpt lat="47.28361" lon="-2.3528">
        <ele>25.200000762939</ele>
        <time>2020-08-27T07:47:10.000Z</time>
      </trkpt>
      <trkpt lat="47.28352" lon="-2.35291">
        <ele>24.799999237061</ele>
        <time>2020-08-27T07:47:13.000Z</time>
      </trkpt>
      <trkpt lat="47.28349" lon="-2.35294">
        <ele>24.39999961853</ele>
        <time>2020-08-27T07:47:14.000Z</time>
      </trkpt>
      <trkpt lat="47.28345" lon="-2.35297">
        <ele>24</ele>
        <time>2020-08-27T07:47:15.000Z</time>
      </trkpt>
      <trkpt lat="47.28343" lon="-2.35303">
        <ele>23.60000038147</ele>
        <time>2020-08-27T07:47:16.000Z</time>
      </trkpt>
      <trkpt lat="47.28343" lon="-2.35309">
        <ele>23.200000762939</ele>
        <time>2020-08-27T07:47:17.000Z</time>
      </trkpt>
      <trkpt lat="47.28344" lon="-2.35314">
        <ele>23.200000762939</ele>
        <time>2020-08-27T07:47:18.000Z</time>
      </trkpt>
      <trkpt lat="47.28349" lon="-2.35326">
        <ele>23.200000762939</ele>
        <time>2020-08-27T07:47:22.000Z</time>
      </trkpt>
      <trkpt lat="47.28357" lon="-2.3535">
        <ele>23.200000762939</ele>
        <time>2020-08-27T07:47:27.000Z</time>
      </trkpt>
      <trkpt lat="47.28361" lon="-2.35363">
        <ele>23.200000762939</ele>
        <time>2020-08-27T07:47:32.000Z</time>
      </trkpt>
      <trkpt lat="47.28366" lon="-2.35373">
        <ele>23.200000762939</ele>
        <time>2020-08-27T07:47:38.000Z</time>
      </trkpt>
      <trkpt lat="47.28368" lon="-2.35379">
        <ele>23.60000038147</ele>
        <time>2020-08-27T07:47:41.000Z</time>
      </trkpt>
      <trkpt lat="47.28369" lon="-2.3538">
        <ele>24</ele>
        <time>2020-08-27T07:47:42.000Z</time>
      </trkpt>
      <trkpt lat="47.2837" lon="-2.35381">
        <ele>24.60000038147</ele>
        <time>2020-08-27T07:47:43.000Z</time>
      </trkpt>
      <trkpt lat="47.2837" lon="-2.35383">
        <ele>25</ele>
        <time>2020-08-27T07:47:44.000Z</time>
      </trkpt>
      <trkpt lat="47.28371" lon="-2.35385">
        <ele>25.39999961853</ele>
        <time>2020-08-27T07:47:45.000Z</time>
      </trkpt>
      <trkpt lat="47.28372" lon="-2.35388">
        <ele>25.799999237061</ele>
        <time>2020-08-27T07:47:46.000Z</time>
      </trkpt>
      <trkpt lat="47.28373" lon="-2.3539">
        <ele>26.200000762939</ele>
        <time>2020-08-27T07:47:47.000Z</time>
      </trkpt>
      <trkpt lat="47.28374" lon="-2.35393">
        <ele>26.60000038147</ele>
        <time>2020-08-27T07:47:48.000Z</time>
      </trkpt>
      <trkpt lat="47.28376" lon="-2.35397">
        <ele>27</ele>
        <time>2020-08-27T07:47:49.000Z</time>
      </trkpt>
      <trkpt lat="47.28378" lon="-2.354">
        <ele>27.39999961853</ele>
        <time>2020-08-27T07:47:50.000Z</time>
      </trkpt>
      <trkpt lat="47.28379" lon="-2.35401">
        <ele>28.200000762939</ele>
        <time>2020-08-27T07:47:51.000Z</time>
      </trkpt>
      <trkpt lat="47.2838" lon="-2.35405">
        <ele>28.60000038147</ele>
        <time>2020-08-27T07:47:52.000Z</time>
      </trkpt>
      <trkpt lat="47.28382" lon="-2.35407">
        <ele>29</ele>
        <time>2020-08-27T07:47:53.000Z</time>
      </trkpt>
      <trkpt lat="47.28383" lon="-2.3541">
        <ele>29.39999961853</ele>
        <time>2020-08-27T07:47:54.000Z</time>
      </trkpt>
      <trkpt lat="47.28387" lon="-2.35415">
        <ele>29.39999961853</ele>
        <time>2020-08-27T07:47:57.000Z</time>
      </trkpt>
      <trkpt lat="47.28392" lon="-2.35423">
        <ele>29.39999961853</ele>
        <time>2020-08-27T07:48:03.000Z</time>
      </trkpt>
      <trkpt lat="47.28398" lon="-2.35429">
        <ele>29.39999961853</ele>
        <time>2020-08-27T07:48:31.000Z</time>
      </trkpt>
      <trkpt lat="47.28403" lon="-2.35432">
        <ele>29.39999961853</ele>
        <time>2020-08-27T07:48:34.000Z</time>
      </trkpt>
      <trkpt lat="47.28408" lon="-2.35433">
        <ele>29.39999961853</ele>
        <time>2020-08-27T07:48:36.000Z</time>
      </trkpt>
      <trkpt lat="47.28411" lon="-2.35429">
        <ele>29.39999961853</ele>
        <time>2020-08-27T07:48:38.000Z</time>
      </trkpt>
      <trkpt lat="47.28419" lon="-2.35422">
        <ele>30</ele>
        <time>2020-08-27T07:48:42.000Z</time>
      </trkpt>
      <trkpt lat="47.28421" lon="-2.3542">
        <ele>30.39999961853</ele>
        <time>2020-08-27T07:48:43.000Z</time>
      </trkpt>
      <trkpt lat="47.28423" lon="-2.35419">
        <ele>30.799999237061</ele>
        <time>2020-08-27T07:48:44.000Z</time>
      </trkpt>
      <trkpt lat="47.28425" lon="-2.35418">
        <ele>31.200000762939</ele>
        <time>2020-08-27T07:48:45.000Z</time>
      </trkpt>
      <trkpt lat="47.28426" lon="-2.35417">
        <ele>31.60000038147</ele>
        <time>2020-08-27T07:48:46.000Z</time>
      </trkpt>
      <trkpt lat="47.2843" lon="-2.35416">
        <ele>31.60000038147</ele>
        <time>2020-08-27T07:48:49.000Z</time>
      </trkpt>
      <trkpt lat="47.28432" lon="-2.35416">
        <ele>31.60000038147</ele>
        <time>2020-08-27T07:48:50.000Z</time>
      </trkpt>
      <trkpt lat="47.28443" lon="-2.35409">
        <ele>31.60000038147</ele>
        <time>2020-08-27T07:48:55.000Z</time>
      </trkpt>
      <trkpt lat="47.28445" lon="-2.35391">
        <ele>31.60000038147</ele>
        <time>2020-08-27T07:48:58.000Z</time>
      </trkpt>
      <trkpt lat="47.28445" lon="-2.35385">
        <ele>31.200000762939</ele>
        <time>2020-08-27T07:48:59.000Z</time>
      </trkpt>
      <trkpt lat="47.28446" lon="-2.35379">
        <ele>30.799999237061</ele>
        <time>2020-08-27T07:49:00.000Z</time>
      </trkpt>
      <trkpt lat="47.28448" lon="-2.35374">
        <ele>30.39999961853</ele>
        <time>2020-08-27T07:49:01.000Z</time>
      </trkpt>
      <trkpt lat="47.28451" lon="-2.35369">
        <ele>30</ele>
        <time>2020-08-27T07:49:02.000Z</time>
      </trkpt>
      <trkpt lat="47.28451" lon="-2.35364">
        <ele>29.39999961853</ele>
        <time>2020-08-27T07:49:03.000Z</time>
      </trkpt>
      <trkpt lat="47.28451" lon="-2.3536">
        <ele>28.799999237061</ele>
        <time>2020-08-27T07:49:04.000Z</time>
      </trkpt>
      <trkpt lat="47.28452" lon="-2.35356">
        <ele>27.799999237061</ele>
        <time>2020-08-27T07:49:05.000Z</time>
      </trkpt>
      <trkpt lat="47.28453" lon="-2.35352">
        <ele>27.39999961853</ele>
        <time>2020-08-27T07:49:06.000Z</time>
      </trkpt>
      <trkpt lat="47.28454" lon="-2.35349">
        <ele>26.799999237061</ele>
        <time>2020-08-27T07:49:07.000Z</time>
      </trkpt>
      <trkpt lat="47.28456" lon="-2.35346">
        <ele>26.200000762939</ele>
        <time>2020-08-27T07:49:08.000Z</time>
      </trkpt>
      <trkpt lat="47.28458" lon="-2.35344">
        <ele>25.60000038147</ele>
        <time>2020-08-27T07:49:09.000Z</time>
      </trkpt>
      <trkpt lat="47.2846" lon="-2.35344">
        <ele>25</ele>
        <time>2020-08-27T07:49:10.000Z</time>
      </trkpt>
      <trkpt lat="47.28466" lon="-2.35349">
        <ele>25</ele>
        <time>2020-08-27T07:49:13.000Z</time>
      </trkpt>
      <trkpt lat="47.28467" lon="-2.35351">
        <ele>24.60000038147</ele>
        <time>2020-08-27T07:49:14.000Z</time>
      </trkpt>
      <trkpt lat="47.28469" lon="-2.35356">
        <ele>24.200000762939</ele>
        <time>2020-08-27T07:49:15.000Z</time>
      </trkpt>
      <trkpt lat="47.28472" lon="-2.35363">
        <ele>23.799999237061</ele>
        <time>2020-08-27T07:49:16.000Z</time>
      </trkpt>
      <trkpt lat="47.28475" lon="-2.35369">
        <ele>23.39999961853</ele>
        <time>2020-08-27T07:49:17.000Z</time>
      </trkpt>
      <trkpt lat="47.28477" lon="-2.35374">
        <ele>23</ele>
        <time>2020-08-27T07:49:18.000Z</time>
      </trkpt>
      <trkpt lat="47.28482" lon="-2.35402">
        <ele>23</ele>
        <time>2020-08-27T07:49:22.000Z</time>
      </trkpt>
      <trkpt lat="47.28486" lon="-2.35418">
        <ele>23</ele>
        <time>2020-08-27T07:49:26.000Z</time>
      </trkpt>
      <trkpt lat="47.28487" lon="-2.35426">
        <ele>23.39999961853</ele>
        <time>2020-08-27T07:49:29.000Z</time>
      </trkpt>
      <trkpt lat="47.28487" lon="-2.35428">
        <ele>24.200000762939</ele>
        <time>2020-08-27T07:49:30.000Z</time>
      </trkpt>
      <trkpt lat="47.28486" lon="-2.3543">
        <ele>24.60000038147</ele>
        <time>2020-08-27T07:49:31.000Z</time>
      </trkpt>
      <trkpt lat="47.28485" lon="-2.35432">
        <ele>25</ele>
        <time>2020-08-27T07:49:32.000Z</time>
      </trkpt>
      <trkpt lat="47.28481" lon="-2.35438">
        <ele>25</ele>
        <time>2020-08-27T07:49:36.000Z</time>
      </trkpt>
      <trkpt lat="47.2848" lon="-2.3544">
        <ele>25.39999961853</ele>
        <time>2020-08-27T07:49:37.000Z</time>
      </trkpt>
      <trkpt lat="47.2848" lon="-2.35441">
        <ele>25.799999237061</ele>
        <time>2020-08-27T07:49:38.000Z</time>
      </trkpt>
      <trkpt lat="47.28479" lon="-2.35443">
        <ele>26.39999961853</ele>
        <time>2020-08-27T07:49:39.000Z</time>
      </trkpt>
      <trkpt lat="47.28477" lon="-2.35444">
        <ele>26.799999237061</ele>
        <time>2020-08-27T07:49:40.000Z</time>
      </trkpt>
      <trkpt lat="47.28476" lon="-2.35445">
        <ele>27.200000762939</ele>
        <time>2020-08-27T07:49:41.000Z</time>
      </trkpt>
      <trkpt lat="47.28474" lon="-2.35444">
        <ele>27.200000762939</ele>
        <time>2020-08-27T07:49:43.000Z</time>
      </trkpt>
      <trkpt lat="47.28472" lon="-2.35445">
        <ele>27.60000038147</ele>
        <time>2020-08-27T07:49:44.000Z</time>
      </trkpt>
      <trkpt lat="47.28471" lon="-2.35445">
        <ele>28</ele>
        <time>2020-08-27T07:49:45.000Z</time>
      </trkpt>
      <trkpt lat="47.2847" lon="-2.35444">
        <ele>28.39999961853</ele>
        <time>2020-08-27T07:49:46.000Z</time>
      </trkpt>
      <trkpt lat="47.28469" lon="-2.35443">
        <ele>28.799999237061</ele>
        <time>2020-08-27T07:49:47.000Z</time>
      </trkpt>
      <trkpt lat="47.28467" lon="-2.35443">
        <ele>29.200000762939</ele>
        <time>2020-08-27T07:49:48.000Z</time>
      </trkpt>
      <trkpt lat="47.28463" lon="-2.3544">
        <ele>29.200000762939</ele>
        <time>2020-08-27T07:49:50.000Z</time>
      </trkpt>
      <trkpt lat="47.28457" lon="-2.35435">
        <ele>29.200000762939</ele>
        <time>2020-08-27T07:49:53.000Z</time>
      </trkpt>
      <trkpt lat="47.28452" lon="-2.35433">
        <ele>29.60000038147</ele>
        <time>2020-08-27T07:49:55.000Z</time>
      </trkpt>
      <trkpt lat="47.28451" lon="-2.35434">
        <ele>30</ele>
        <time>2020-08-27T07:49:56.000Z</time>
      </trkpt>
      <trkpt lat="47.28451" lon="-2.35433">
        <ele>30.39999961853</ele>
        <time>2020-08-27T07:49:57.000Z</time>
      </trkpt>
      <trkpt lat="47.2845" lon="-2.35433">
        <ele>30.799999237061</ele>
        <time>2020-08-27T07:49:58.000Z</time>
      </trkpt>
      <trkpt lat="47.28448" lon="-2.35434">
        <ele>31.200000762939</ele>
        <time>2020-08-27T07:49:59.000Z</time>
      </trkpt>
      <trkpt lat="47.28447" lon="-2.35436">
        <ele>31.200000762939</ele>
        <time>2020-08-27T07:50:00.000Z</time>
      </trkpt>
      <trkpt lat="47.28447" lon="-2.3544">
        <ele>31.200000762939</ele>
        <time>2020-08-27T07:50:02.000Z</time>
      </trkpt>
      <trkpt lat="47.28451" lon="-2.35452">
        <ele>31.799999237061</ele>
        <time>2020-08-27T07:50:09.000Z</time>
      </trkpt>
      <trkpt lat="47.28452" lon="-2.35454">
        <ele>32.200000762939</ele>
        <time>2020-08-27T07:50:10.000Z</time>
      </trkpt>
      <trkpt lat="47.28452" lon="-2.35458">
        <ele>32.599998474121</ele>
        <time>2020-08-27T07:50:11.000Z</time>
      </trkpt>
      <trkpt lat="47.28452" lon="-2.3546">
        <ele>33</ele>
        <time>2020-08-27T07:50:12.000Z</time>
      </trkpt>
      <trkpt lat="47.28453" lon="-2.35462">
        <ele>33.400001525879</ele>
        <time>2020-08-27T07:50:13.000Z</time>
      </trkpt>
      <trkpt lat="47.28456" lon="-2.3547">
        <ele>33.799999237061</ele>
        <time>2020-08-27T07:50:16.000Z</time>
      </trkpt>
      <trkpt lat="47.28457" lon="-2.35471">
        <ele>34.200000762939</ele>
        <time>2020-08-27T07:50:17.000Z</time>
      </trkpt>
      <trkpt lat="47.28457" lon="-2.35473">
        <ele>34.599998474121</ele>
        <time>2020-08-27T07:50:18.000Z</time>
      </trkpt>
      <trkpt lat="47.28458" lon="-2.35475">
        <ele>35.400001525879</ele>
        <time>2020-08-27T07:50:19.000Z</time>
      </trkpt>
      <trkpt lat="47.28464" lon="-2.35486">
        <ele>35.400001525879</ele>
        <time>2020-08-27T07:50:24.000Z</time>
      </trkpt>
      <trkpt lat="47.28466" lon="-2.35495">
        <ele>36</ele>
        <time>2020-08-27T07:50:26.000Z</time>
      </trkpt>
      <trkpt lat="47.28468" lon="-2.35499">
        <ele>36.400001525879</ele>
        <time>2020-08-27T07:50:27.000Z</time>
      </trkpt>
      <trkpt lat="47.28469" lon="-2.35501">
        <ele>36.799999237061</ele>
        <time>2020-08-27T07:50:28.000Z</time>
      </trkpt>
      <trkpt lat="47.2847" lon="-2.35505">
        <ele>37.200000762939</ele>
        <time>2020-08-27T07:50:29.000Z</time>
      </trkpt>
      <trkpt lat="47.28471" lon="-2.35508">
        <ele>37.599998474121</ele>
        <time>2020-08-27T07:50:30.000Z</time>
      </trkpt>
      <trkpt lat="47.28472" lon="-2.3551">
        <ele>37.599998474121</ele>
        <time>2020-08-27T07:50:31.000Z</time>
      </trkpt>
      <trkpt lat="47.28478" lon="-2.35535">
        <ele>37.599998474121</ele>
        <time>2020-08-27T07:50:37.000Z</time>
      </trkpt>
      <trkpt lat="47.28487" lon="-2.35559">
        <ele>37.599998474121</ele>
        <time>2020-08-27T07:50:42.000Z</time>
      </trkpt>
      <trkpt lat="47.28497" lon="-2.35588">
        <ele>37.599998474121</ele>
        <time>2020-08-27T07:50:48.000Z</time>
      </trkpt>
      <trkpt lat="47.28504" lon="-2.35607">
        <ele>37.200000762939</ele>
        <time>2020-08-27T07:50:53.000Z</time>
      </trkpt>
      <trkpt lat="47.28507" lon="-2.35608">
        <ele>36.799999237061</ele>
        <time>2020-08-27T07:50:54.000Z</time>
      </trkpt>
      <trkpt lat="47.28509" lon="-2.35608">
        <ele>36.400001525879</ele>
        <time>2020-08-27T07:50:55.000Z</time>
      </trkpt>
      <trkpt lat="47.28512" lon="-2.35608">
        <ele>36</ele>
        <time>2020-08-27T07:50:56.000Z</time>
      </trkpt>
      <trkpt lat="47.28514" lon="-2.35607">
        <ele>35.599998474121</ele>
        <time>2020-08-27T07:50:57.000Z</time>
      </trkpt>
      <trkpt lat="47.28516" lon="-2.35607">
        <ele>35.599998474121</ele>
        <time>2020-08-27T07:50:59.000Z</time>
      </trkpt>
      <trkpt lat="47.28532" lon="-2.3561">
        <ele>33.599998474121</ele>
        <time>2020-08-27T07:51:12.000Z</time>
      </trkpt>
      <trkpt lat="47.28535" lon="-2.35611">
        <ele>33.599998474121</ele>
        <time>2020-08-27T07:51:13.000Z</time>
      </trkpt>
      <trkpt lat="47.28537" lon="-2.35611">
        <ele>33.599998474121</ele>
        <time>2020-08-27T07:51:14.000Z</time>
      </trkpt>
      <trkpt lat="47.28541" lon="-2.35614">
        <ele>33.599998474121</ele>
        <time>2020-08-27T07:51:16.000Z</time>
      </trkpt>
      <trkpt lat="47.28541" lon="-2.35617">
        <ele>33.599998474121</ele>
        <time>2020-08-27T07:51:18.000Z</time>
      </trkpt>
      <trkpt lat="47.28541" lon="-2.3562">
        <ele>33.599998474121</ele>
        <time>2020-08-27T07:51:19.000Z</time>
      </trkpt>
      <trkpt lat="47.2854" lon="-2.3563">
        <ele>33</ele>
        <time>2020-08-27T07:51:22.000Z</time>
      </trkpt>
      <trkpt lat="47.2854" lon="-2.35635">
        <ele>32.599998474121</ele>
        <time>2020-08-27T07:51:23.000Z</time>
      </trkpt>
      <trkpt lat="47.28541" lon="-2.35642">
        <ele>32.200000762939</ele>
        <time>2020-08-27T07:51:24.000Z</time>
      </trkpt>
      <trkpt lat="47.28542" lon="-2.3565">
        <ele>31.60000038147</ele>
        <time>2020-08-27T07:51:25.000Z</time>
      </trkpt>
      <trkpt lat="47.28543" lon="-2.35659">
        <ele>31.200000762939</ele>
        <time>2020-08-27T07:51:26.000Z</time>
      </trkpt>
      <trkpt lat="47.28543" lon="-2.35669">
        <ele>30.799999237061</ele>
        <time>2020-08-27T07:51:27.000Z</time>
      </trkpt>
      <trkpt lat="47.28543" lon="-2.35676">
        <ele>30.200000762939</ele>
        <time>2020-08-27T07:51:28.000Z</time>
      </trkpt>
      <trkpt lat="47.28541" lon="-2.35684">
        <ele>29.799999237061</ele>
        <time>2020-08-27T07:51:29.000Z</time>
      </trkpt>
      <trkpt lat="47.2854" lon="-2.3569">
        <ele>29.200000762939</ele>
        <time>2020-08-27T07:51:30.000Z</time>
      </trkpt>
      <trkpt lat="47.28538" lon="-2.35697">
        <ele>28.799999237061</ele>
        <time>2020-08-27T07:51:31.000Z</time>
      </trkpt>
      <trkpt lat="47.28537" lon="-2.35703">
        <ele>28.799999237061</ele>
        <time>2020-08-27T07:51:33.000Z</time>
      </trkpt>
      <trkpt lat="47.28536" lon="-2.35706">
        <ele>28.799999237061</ele>
        <time>2020-08-27T07:51:35.000Z</time>
      </trkpt>
      <trkpt lat="47.28535" lon="-2.35723">
        <ele>28.799999237061</ele>
        <time>2020-08-27T07:52:24.000Z</time>
      </trkpt>
      <trkpt lat="47.28536" lon="-2.35726">
        <ele>28.799999237061</ele>
        <time>2020-08-27T07:52:25.000Z</time>
      </trkpt>
      <trkpt lat="47.28544" lon="-2.35751">
        <ele>28.799999237061</ele>
        <time>2020-08-27T07:52:31.000Z</time>
      </trkpt>
      <trkpt lat="47.28547" lon="-2.35773">
        <ele>28.799999237061</ele>
        <time>2020-08-27T07:52:37.000Z</time>
      </trkpt>
      <trkpt lat="47.28551" lon="-2.35798">
        <ele>28.799999237061</ele>
        <time>2020-08-27T07:52:44.000Z</time>
      </trkpt>
      <trkpt lat="47.28555" lon="-2.35812">
        <ele>28.799999237061</ele>
        <time>2020-08-27T07:52:49.000Z</time>
      </trkpt>
      <trkpt lat="47.28556" lon="-2.35814">
        <ele>28.799999237061</ele>
        <time>2020-08-27T07:52:50.000Z</time>
      </trkpt>
      <trkpt lat="47.28557" lon="-2.35822">
        <ele>28.799999237061</ele>
        <time>2020-08-27T07:52:53.000Z</time>
      </trkpt>
      <trkpt lat="47.28558" lon="-2.35831">
        <ele>28.799999237061</ele>
        <time>2020-08-27T07:52:55.000Z</time>
      </trkpt>
      <trkpt lat="47.28559" lon="-2.35836">
        <ele>28.799999237061</ele>
        <time>2020-08-27T07:52:57.000Z</time>
      </trkpt>
      <trkpt lat="47.28563" lon="-2.35857">
        <ele>28.799999237061</ele>
        <time>2020-08-27T07:53:03.000Z</time>
      </trkpt>
      <trkpt lat="47.28572" lon="-2.35883">
        <ele>28.799999237061</ele>
        <time>2020-08-27T07:53:11.000Z</time>
      </trkpt>
      <trkpt lat="47.28582" lon="-2.35907">
        <ele>28.799999237061</ele>
        <time>2020-08-27T07:53:18.000Z</time>
      </trkpt>
      <trkpt lat="47.28588" lon="-2.35925">
        <ele>28.799999237061</ele>
        <time>2020-08-27T07:53:25.000Z</time>
      </trkpt>
      <trkpt lat="47.28594" lon="-2.35938">
        <ele>29.200000762939</ele>
        <time>2020-08-27T07:53:30.000Z</time>
      </trkpt>
      <trkpt lat="47.28595" lon="-2.35941">
        <ele>29.60000038147</ele>
        <time>2020-08-27T07:53:31.000Z</time>
      </trkpt>
      <trkpt lat="47.28596" lon="-2.35944">
        <ele>30</ele>
        <time>2020-08-27T07:53:32.000Z</time>
      </trkpt>
      <trkpt lat="47.28597" lon="-2.35947">
        <ele>30.39999961853</ele>
        <time>2020-08-27T07:53:33.000Z</time>
      </trkpt>
      <trkpt lat="47.28599" lon="-2.3595">
        <ele>30.799999237061</ele>
        <time>2020-08-27T07:53:34.000Z</time>
      </trkpt>
      <trkpt lat="47.28606" lon="-2.35962">
        <ele>30.799999237061</ele>
        <time>2020-08-27T07:53:38.000Z</time>
      </trkpt>
      <trkpt lat="47.28615" lon="-2.35987">
        <ele>30.799999237061</ele>
        <time>2020-08-27T07:53:44.000Z</time>
      </trkpt>
      <trkpt lat="47.28626" lon="-2.36016">
        <ele>30.799999237061</ele>
        <time>2020-08-27T07:53:51.000Z</time>
      </trkpt>
      <trkpt lat="47.28637" lon="-2.36041">
        <ele>30.799999237061</ele>
        <time>2020-08-27T07:53:58.000Z</time>
      </trkpt>
      <trkpt lat="47.28642" lon="-2.36063">
        <ele>31.200000762939</ele>
        <time>2020-08-27T07:54:04.000Z</time>
      </trkpt>
      <trkpt lat="47.28642" lon="-2.36066">
        <ele>31.60000038147</ele>
        <time>2020-08-27T07:54:05.000Z</time>
      </trkpt>
      <trkpt lat="47.28643" lon="-2.36069">
        <ele>32</ele>
        <time>2020-08-27T07:54:06.000Z</time>
      </trkpt>
      <trkpt lat="47.28644" lon="-2.36072">
        <ele>32.599998474121</ele>
        <time>2020-08-27T07:54:07.000Z</time>
      </trkpt>
      <trkpt lat="47.28645" lon="-2.36076">
        <ele>33</ele>
        <time>2020-08-27T07:54:08.000Z</time>
      </trkpt>
      <trkpt lat="47.28648" lon="-2.36086">
        <ele>33</ele>
        <time>2020-08-27T07:54:11.000Z</time>
      </trkpt>
      <trkpt lat="47.28649" lon="-2.36097">
        <ele>33.400001525879</ele>
        <time>2020-08-27T07:54:14.000Z</time>
      </trkpt>
      <trkpt lat="47.2865" lon="-2.361">
        <ele>33.799999237061</ele>
        <time>2020-08-27T07:54:15.000Z</time>
      </trkpt>
      <trkpt lat="47.28649" lon="-2.36102">
        <ele>34.200000762939</ele>
        <time>2020-08-27T07:54:16.000Z</time>
      </trkpt>
      <trkpt lat="47.28648" lon="-2.36104">
        <ele>34.599998474121</ele>
        <time>2020-08-27T07:54:17.000Z</time>
      </trkpt>
      <trkpt lat="47.28647" lon="-2.36106">
        <ele>35.200000762939</ele>
        <time>2020-08-27T07:54:18.000Z</time>
      </trkpt>
      <trkpt lat="47.28647" lon="-2.36108">
        <ele>35.799999237061</ele>
        <time>2020-08-27T07:54:19.000Z</time>
      </trkpt>
      <trkpt lat="47.28646" lon="-2.36111">
        <ele>36.200000762939</ele>
        <time>2020-08-27T07:54:20.000Z</time>
      </trkpt>
      <trkpt lat="47.28645" lon="-2.36113">
        <ele>36.799999237061</ele>
        <time>2020-08-27T07:54:21.000Z</time>
      </trkpt>
      <trkpt lat="47.28644" lon="-2.36116">
        <ele>37.400001525879</ele>
        <time>2020-08-27T07:54:22.000Z</time>
      </trkpt>
      <trkpt lat="47.28643" lon="-2.36118">
        <ele>37.799999237061</ele>
        <time>2020-08-27T07:54:23.000Z</time>
      </trkpt>
      <trkpt lat="47.28642" lon="-2.36121">
        <ele>38.200000762939</ele>
        <time>2020-08-27T07:54:24.000Z</time>
      </trkpt>
      <trkpt lat="47.28641" lon="-2.36123">
        <ele>38.599998474121</ele>
        <time>2020-08-27T07:54:25.000Z</time>
      </trkpt>
      <trkpt lat="47.2864" lon="-2.36124">
        <ele>39</ele>
        <time>2020-08-27T07:54:26.000Z</time>
      </trkpt>
      <trkpt lat="47.28639" lon="-2.36126">
        <ele>39.400001525879</ele>
        <time>2020-08-27T07:54:27.000Z</time>
      </trkpt>
      <trkpt lat="47.28638" lon="-2.36129">
        <ele>39.400001525879</ele>
        <time>2020-08-27T07:54:29.000Z</time>
      </trkpt>
      <trkpt lat="47.28637" lon="-2.36129">
        <ele>39.799999237061</ele>
        <time>2020-08-27T07:54:30.000Z</time>
      </trkpt>
      <trkpt lat="47.28636" lon="-2.36129">
        <ele>40.400001525879</ele>
        <time>2020-08-27T07:54:31.000Z</time>
      </trkpt>
      <trkpt lat="47.28635" lon="-2.3613">
        <ele>40.799999237061</ele>
        <time>2020-08-27T07:54:32.000Z</time>
      </trkpt>
      <trkpt lat="47.28634" lon="-2.36131">
        <ele>41.200000762939</ele>
        <time>2020-08-27T07:54:33.000Z</time>
      </trkpt>
      <trkpt lat="47.28634" lon="-2.36132">
        <ele>41.599998474121</ele>
        <time>2020-08-27T07:54:34.000Z</time>
      </trkpt>
      <trkpt lat="47.28635" lon="-2.36139">
        <ele>41.599998474121</ele>
        <time>2020-08-27T07:54:39.000Z</time>
      </trkpt>
      <trkpt lat="47.28636" lon="-2.36141">
        <ele>41.599998474121</ele>
        <time>2020-08-27T07:54:40.000Z</time>
      </trkpt>
      <trkpt lat="47.28646" lon="-2.36156">
        <ele>41.599998474121</ele>
        <time>2020-08-27T07:54:46.000Z</time>
      </trkpt>
      <trkpt lat="47.28649" lon="-2.36161">
        <ele>41.599998474121</ele>
        <time>2020-08-27T07:54:47.000Z</time>
      </trkpt>
      <trkpt lat="47.28661" lon="-2.36183">
        <ele>41.599998474121</ele>
        <time>2020-08-27T07:54:51.000Z</time>
      </trkpt>
      <trkpt lat="47.28664" lon="-2.36188">
        <ele>41.200000762939</ele>
        <time>2020-08-27T07:54:52.000Z</time>
      </trkpt>
      <trkpt lat="47.28666" lon="-2.36193">
        <ele>40.799999237061</ele>
        <time>2020-08-27T07:54:53.000Z</time>
      </trkpt>
      <trkpt lat="47.28667" lon="-2.36198">
        <ele>40.400001525879</ele>
        <time>2020-08-27T07:54:54.000Z</time>
      </trkpt>
      <trkpt lat="47.28668" lon="-2.36203">
        <ele>40</ele>
        <time>2020-08-27T07:54:55.000Z</time>
      </trkpt>
      <trkpt lat="47.28669" lon="-2.36209">
        <ele>39.400001525879</ele>
        <time>2020-08-27T07:54:56.000Z</time>
      </trkpt>
      <trkpt lat="47.28673" lon="-2.36235">
        <ele>39</ele>
        <time>2020-08-27T07:55:01.000Z</time>
      </trkpt>
      <trkpt lat="47.28675" lon="-2.36241">
        <ele>38.599998474121</ele>
        <time>2020-08-27T07:55:02.000Z</time>
      </trkpt>
      <trkpt lat="47.28677" lon="-2.36245">
        <ele>38.200000762939</ele>
        <time>2020-08-27T07:55:03.000Z</time>
      </trkpt>
      <trkpt lat="47.28679" lon="-2.36248">
        <ele>37.599998474121</ele>
        <time>2020-08-27T07:55:04.000Z</time>
      </trkpt>
      <trkpt lat="47.28682" lon="-2.36252">
        <ele>37.200000762939</ele>
        <time>2020-08-27T07:55:05.000Z</time>
      </trkpt>
      <trkpt lat="47.28684" lon="-2.36255">
        <ele>37.200000762939</ele>
        <time>2020-08-27T07:55:06.000Z</time>
      </trkpt>
      <trkpt lat="47.28695" lon="-2.36264">
        <ele>37.200000762939</ele>
        <time>2020-08-27T07:55:10.000Z</time>
      </trkpt>
      <trkpt lat="47.28697" lon="-2.36266">
        <ele>37.200000762939</ele>
        <time>2020-08-27T07:55:11.000Z</time>
      </trkpt>
      <trkpt lat="47.287" lon="-2.36271">
        <ele>36.799999237061</ele>
        <time>2020-08-27T07:55:13.000Z</time>
      </trkpt>
      <trkpt lat="47.28701" lon="-2.36273">
        <ele>36.400001525879</ele>
        <time>2020-08-27T07:55:14.000Z</time>
      </trkpt>
      <trkpt lat="47.28702" lon="-2.36274">
        <ele>36</ele>
        <time>2020-08-27T07:55:15.000Z</time>
      </trkpt>
      <trkpt lat="47.28703" lon="-2.36275">
        <ele>35</ele>
        <time>2020-08-27T07:55:16.000Z</time>
      </trkpt>
      <trkpt lat="47.28707" lon="-2.36274">
        <ele>35</ele>
        <time>2020-08-27T07:55:19.000Z</time>
      </trkpt>
      <trkpt lat="47.28712" lon="-2.36267">
        <ele>35</ele>
        <time>2020-08-27T07:55:22.000Z</time>
      </trkpt>
      <trkpt lat="47.28722" lon="-2.36252">
        <ele>34.599998474121</ele>
        <time>2020-08-27T07:55:30.000Z</time>
      </trkpt>
      <trkpt lat="47.28724" lon="-2.36249">
        <ele>34.200000762939</ele>
        <time>2020-08-27T07:55:31.000Z</time>
      </trkpt>
      <trkpt lat="47.28725" lon="-2.36246">
        <ele>33.799999237061</ele>
        <time>2020-08-27T07:55:32.000Z</time>
      </trkpt>
      <trkpt lat="47.28725" lon="-2.36243">
        <ele>33.400001525879</ele>
        <time>2020-08-27T07:55:33.000Z</time>
      </trkpt>
      <trkpt lat="47.28726" lon="-2.36239">
        <ele>33</ele>
        <time>2020-08-27T07:55:34.000Z</time>
      </trkpt>
      <trkpt lat="47.28726" lon="-2.3623">
        <ele>33</ele>
        <time>2020-08-27T07:55:37.000Z</time>
      </trkpt>
      <trkpt lat="47.28728" lon="-2.36226">
        <ele>33</ele>
        <time>2020-08-27T07:55:39.000Z</time>
      </trkpt>
      <trkpt lat="47.28731" lon="-2.36223">
        <ele>33</ele>
        <time>2020-08-27T07:55:41.000Z</time>
      </trkpt>
      <trkpt lat="47.28733" lon="-2.36222">
        <ele>33</ele>
        <time>2020-08-27T07:55:43.000Z</time>
      </trkpt>
      <trkpt lat="47.2873" lon="-2.36226">
        <ele>33</ele>
        <time>2020-08-27T07:56:22.000Z</time>
      </trkpt>
      <trkpt lat="47.28728" lon="-2.36232">
        <ele>33</ele>
        <time>2020-08-27T07:56:26.000Z</time>
      </trkpt>
      <trkpt lat="47.28728" lon="-2.36237">
        <ele>33</ele>
        <time>2020-08-27T07:56:28.000Z</time>
      </trkpt>
      <trkpt lat="47.28725" lon="-2.36247">
        <ele>33</ele>
        <time>2020-08-27T07:56:32.000Z</time>
      </trkpt>
      <trkpt lat="47.28725" lon="-2.36249">
        <ele>33</ele>
        <time>2020-08-27T07:56:33.000Z</time>
      </trkpt>
      <trkpt lat="47.28716" lon="-2.36266">
        <ele>33</ele>
        <time>2020-08-27T07:56:39.000Z</time>
      </trkpt>
      <trkpt lat="47.28711" lon="-2.36277">
        <ele>33</ele>
        <time>2020-08-27T07:56:44.000Z</time>
      </trkpt>
      <trkpt lat="47.28709" lon="-2.36281">
        <ele>33</ele>
        <time>2020-08-27T07:56:47.000Z</time>
      </trkpt>
      <trkpt lat="47.2871" lon="-2.36288">
        <ele>33.400001525879</ele>
        <time>2020-08-27T07:57:16.000Z</time>
      </trkpt>
      <trkpt lat="47.2871" lon="-2.3629">
        <ele>33.799999237061</ele>
        <time>2020-08-27T07:57:17.000Z</time>
      </trkpt>
      <trkpt lat="47.28711" lon="-2.36292">
        <ele>34.200000762939</ele>
        <time>2020-08-27T07:57:18.000Z</time>
      </trkpt>
      <trkpt lat="47.28711" lon="-2.36294">
        <ele>34.599998474121</ele>
        <time>2020-08-27T07:57:19.000Z</time>
      </trkpt>
      <trkpt lat="47.28711" lon="-2.36297">
        <ele>35</ele>
        <time>2020-08-27T07:57:20.000Z</time>
      </trkpt>
      <trkpt lat="47.2871" lon="-2.36307">
        <ele>35</ele>
        <time>2020-08-27T07:57:23.000Z</time>
      </trkpt>
      <trkpt lat="47.28708" lon="-2.36315">
        <ele>35.400001525879</ele>
        <time>2020-08-27T07:57:25.000Z</time>
      </trkpt>
      <trkpt lat="47.28708" lon="-2.36318">
        <ele>36</ele>
        <time>2020-08-27T07:57:26.000Z</time>
      </trkpt>
      <trkpt lat="47.28707" lon="-2.36321">
        <ele>36.400001525879</ele>
        <time>2020-08-27T07:57:27.000Z</time>
      </trkpt>
      <trkpt lat="47.28707" lon="-2.36324">
        <ele>36.799999237061</ele>
        <time>2020-08-27T07:57:28.000Z</time>
      </trkpt>
      <trkpt lat="47.28706" lon="-2.36325">
        <ele>37.200000762939</ele>
        <time>2020-08-27T07:57:29.000Z</time>
      </trkpt>
      <trkpt lat="47.28706" lon="-2.36328">
        <ele>37.200000762939</ele>
        <time>2020-08-27T07:57:30.000Z</time>
      </trkpt>
      <trkpt lat="47.28701" lon="-2.36346">
        <ele>37.200000762939</ele>
        <time>2020-08-27T07:57:35.000Z</time>
      </trkpt>
      <trkpt lat="47.287" lon="-2.3635">
        <ele>37.799999237061</ele>
        <time>2020-08-27T07:57:36.000Z</time>
      </trkpt>
      <trkpt lat="47.28699" lon="-2.36354">
        <ele>38.200000762939</ele>
        <time>2020-08-27T07:57:37.000Z</time>
      </trkpt>
      <trkpt lat="47.28699" lon="-2.36358">
        <ele>38.599998474121</ele>
        <time>2020-08-27T07:57:38.000Z</time>
      </trkpt>
      <trkpt lat="47.28698" lon="-2.36363">
        <ele>39</ele>
        <time>2020-08-27T07:57:39.000Z</time>
      </trkpt>
      <trkpt lat="47.28697" lon="-2.36369">
        <ele>39.400001525879</ele>
        <time>2020-08-27T07:57:40.000Z</time>
      </trkpt>
      <trkpt lat="47.28696" lon="-2.36379">
        <ele>39.400001525879</ele>
        <time>2020-08-27T07:57:42.000Z</time>
      </trkpt>
      <trkpt lat="47.28691" lon="-2.36404">
        <ele>39.799999237061</ele>
        <time>2020-08-27T07:57:47.000Z</time>
      </trkpt>
      <trkpt lat="47.28691" lon="-2.36409">
        <ele>40.200000762939</ele>
        <time>2020-08-27T07:57:48.000Z</time>
      </trkpt>
      <trkpt lat="47.28691" lon="-2.36415">
        <ele>40.799999237061</ele>
        <time>2020-08-27T07:57:49.000Z</time>
      </trkpt>
      <trkpt lat="47.28691" lon="-2.3642">
        <ele>41.200000762939</ele>
        <time>2020-08-27T07:57:50.000Z</time>
      </trkpt>
      <trkpt lat="47.28692" lon="-2.36425">
        <ele>41.599998474121</ele>
        <time>2020-08-27T07:57:51.000Z</time>
      </trkpt>
      <trkpt lat="47.2869" lon="-2.36446">
        <ele>41.599998474121</ele>
        <time>2020-08-27T07:57:55.000Z</time>
      </trkpt>
      <trkpt lat="47.28689" lon="-2.36475">
        <ele>41.599998474121</ele>
        <time>2020-08-27T07:58:01.000Z</time>
      </trkpt>
      <trkpt lat="47.2869" lon="-2.36501">
        <ele>41.599998474121</ele>
        <time>2020-08-27T07:58:06.000Z</time>
      </trkpt>
      <trkpt lat="47.28695" lon="-2.36538">
        <ele>41.599998474121</ele>
        <time>2020-08-27T07:58:11.000Z</time>
      </trkpt>
      <trkpt lat="47.28697" lon="-2.36545">
        <ele>41.599998474121</ele>
        <time>2020-08-27T07:58:12.000Z</time>
      </trkpt>
      <trkpt lat="47.28699" lon="-2.36552">
        <ele>41.200000762939</ele>
        <time>2020-08-27T07:58:13.000Z</time>
      </trkpt>
      <trkpt lat="47.28699" lon="-2.36559">
        <ele>40.799999237061</ele>
        <time>2020-08-27T07:58:14.000Z</time>
      </trkpt>
      <trkpt lat="47.28698" lon="-2.36564">
        <ele>40.200000762939</ele>
        <time>2020-08-27T07:58:15.000Z</time>
      </trkpt>
      <trkpt lat="47.28697" lon="-2.3657">
        <ele>39.799999237061</ele>
        <time>2020-08-27T07:58:16.000Z</time>
      </trkpt>
      <trkpt lat="47.28695" lon="-2.36575">
        <ele>39.400001525879</ele>
        <time>2020-08-27T07:58:17.000Z</time>
      </trkpt>
      <trkpt lat="47.28693" lon="-2.3658">
        <ele>38.799999237061</ele>
        <time>2020-08-27T07:58:18.000Z</time>
      </trkpt>
      <trkpt lat="47.28691" lon="-2.36584">
        <ele>38.200000762939</ele>
        <time>2020-08-27T07:58:19.000Z</time>
      </trkpt>
      <trkpt lat="47.28688" lon="-2.36589">
        <ele>37.799999237061</ele>
        <time>2020-08-27T07:58:20.000Z</time>
      </trkpt>
      <trkpt lat="47.28684" lon="-2.36594">
        <ele>37.200000762939</ele>
        <time>2020-08-27T07:58:21.000Z</time>
      </trkpt>
      <trkpt lat="47.2868" lon="-2.36597">
        <ele>36.599998474121</ele>
        <time>2020-08-27T07:58:22.000Z</time>
      </trkpt>
      <trkpt lat="47.28675" lon="-2.366">
        <ele>36</ele>
        <time>2020-08-27T07:58:23.000Z</time>
      </trkpt>
      <trkpt lat="47.2867" lon="-2.36602">
        <ele>35.400001525879</ele>
        <time>2020-08-27T07:58:24.000Z</time>
      </trkpt>
      <trkpt lat="47.28665" lon="-2.36603">
        <ele>34.799999237061</ele>
        <time>2020-08-27T07:58:25.000Z</time>
      </trkpt>
      <trkpt lat="47.2865" lon="-2.36611">
        <ele>34.400001525879</ele>
        <time>2020-08-27T07:58:28.000Z</time>
      </trkpt>
      <trkpt lat="47.28645" lon="-2.36614">
        <ele>34</ele>
        <time>2020-08-27T07:58:29.000Z</time>
      </trkpt>
      <trkpt lat="47.28641" lon="-2.36616">
        <ele>33.599998474121</ele>
        <time>2020-08-27T07:58:30.000Z</time>
      </trkpt>
      <trkpt lat="47.28637" lon="-2.36618">
        <ele>33.200000762939</ele>
        <time>2020-08-27T07:58:31.000Z</time>
      </trkpt>
      <trkpt lat="47.28632" lon="-2.3662">
        <ele>32.799999237061</ele>
        <time>2020-08-27T07:58:32.000Z</time>
      </trkpt>
      <trkpt lat="47.28622" lon="-2.36624">
        <ele>32.200000762939</ele>
        <time>2020-08-27T07:58:34.000Z</time>
      </trkpt>
      <trkpt lat="47.28618" lon="-2.36625">
        <ele>31.799999237061</ele>
        <time>2020-08-27T07:58:35.000Z</time>
      </trkpt>
      <trkpt lat="47.28615" lon="-2.36627">
        <ele>31.200000762939</ele>
        <time>2020-08-27T07:58:36.000Z</time>
      </trkpt>
      <trkpt lat="47.28612" lon="-2.36629">
        <ele>30.799999237061</ele>
        <time>2020-08-27T07:58:37.000Z</time>
      </trkpt>
      <trkpt lat="47.28609" lon="-2.3663">
        <ele>30</ele>
        <time>2020-08-27T07:58:38.000Z</time>
      </trkpt>
      <trkpt lat="47.28608" lon="-2.36631">
        <ele>29.39999961853</ele>
        <time>2020-08-27T07:58:39.000Z</time>
      </trkpt>
      <trkpt lat="47.28606" lon="-2.36632">
        <ele>28.799999237061</ele>
        <time>2020-08-27T07:58:40.000Z</time>
      </trkpt>
      <trkpt lat="47.28605" lon="-2.36633">
        <ele>28.200000762939</ele>
        <time>2020-08-27T07:58:41.000Z</time>
      </trkpt>
      <trkpt lat="47.28603" lon="-2.36633">
        <ele>27.60000038147</ele>
        <time>2020-08-27T07:58:42.000Z</time>
      </trkpt>
      <trkpt lat="47.28598" lon="-2.36637">
        <ele>27.200000762939</ele>
        <time>2020-08-27T07:58:45.000Z</time>
      </trkpt>
      <trkpt lat="47.28597" lon="-2.36642">
        <ele>26.799999237061</ele>
        <time>2020-08-27T07:58:46.000Z</time>
      </trkpt>
      <trkpt lat="47.28594" lon="-2.36646">
        <ele>26.200000762939</ele>
        <time>2020-08-27T07:58:47.000Z</time>
      </trkpt>
      <trkpt lat="47.28591" lon="-2.36649">
        <ele>25.799999237061</ele>
        <time>2020-08-27T07:58:48.000Z</time>
      </trkpt>
      <trkpt lat="47.28588" lon="-2.36652">
        <ele>25.39999961853</ele>
        <time>2020-08-27T07:58:49.000Z</time>
      </trkpt>
      <trkpt lat="47.28584" lon="-2.36654">
        <ele>25.39999961853</ele>
        <time>2020-08-27T07:58:50.000Z</time>
      </trkpt>
      <trkpt lat="47.28575" lon="-2.36658">
        <ele>25.39999961853</ele>
        <time>2020-08-27T07:58:52.000Z</time>
      </trkpt>
      <trkpt lat="47.28566" lon="-2.3666">
        <ele>25.39999961853</ele>
        <time>2020-08-27T07:58:54.000Z</time>
      </trkpt>
      <trkpt lat="47.28553" lon="-2.3666">
        <ele>25</ele>
        <time>2020-08-27T07:58:57.000Z</time>
      </trkpt>
      <trkpt lat="47.28549" lon="-2.3666">
        <ele>24.200000762939</ele>
        <time>2020-08-27T07:58:58.000Z</time>
      </trkpt>
      <trkpt lat="47.28546" lon="-2.36661">
        <ele>23.799999237061</ele>
        <time>2020-08-27T07:58:59.000Z</time>
      </trkpt>
      <trkpt lat="47.28542" lon="-2.36661">
        <ele>23.39999961853</ele>
        <time>2020-08-27T07:59:00.000Z</time>
      </trkpt>
      <trkpt lat="47.2853" lon="-2.36673">
        <ele>23.39999961853</ele>
        <time>2020-08-27T07:59:04.000Z</time>
      </trkpt>
      <trkpt lat="47.28528" lon="-2.36678">
        <ele>23.39999961853</ele>
        <time>2020-08-27T07:59:05.000Z</time>
      </trkpt>
      <trkpt lat="47.2853" lon="-2.36689">
        <ele>23.39999961853</ele>
        <time>2020-08-27T07:59:07.000Z</time>
      </trkpt>
      <trkpt lat="47.28535" lon="-2.36702">
        <ele>23.39999961853</ele>
        <time>2020-08-27T07:59:09.000Z</time>
      </trkpt>
      <trkpt lat="47.28538" lon="-2.3671">
        <ele>23.39999961853</ele>
        <time>2020-08-27T07:59:10.000Z</time>
      </trkpt>
      <trkpt lat="47.28546" lon="-2.36727">
        <ele>23</ele>
        <time>2020-08-27T07:59:12.000Z</time>
      </trkpt>
      <trkpt lat="47.2855" lon="-2.36735">
        <ele>22.60000038147</ele>
        <time>2020-08-27T07:59:13.000Z</time>
      </trkpt>
      <trkpt lat="47.28554" lon="-2.36745">
        <ele>22.200000762939</ele>
        <time>2020-08-27T07:59:14.000Z</time>
      </trkpt>
      <trkpt lat="47.28558" lon="-2.36753">
        <ele>21.799999237061</ele>
        <time>2020-08-27T07:59:15.000Z</time>
      </trkpt>
      <trkpt lat="47.28562" lon="-2.36762">
        <ele>21.39999961853</ele>
        <time>2020-08-27T07:59:16.000Z</time>
      </trkpt>
      <trkpt lat="47.2857" lon="-2.36777">
        <ele>20.799999237061</ele>
        <time>2020-08-27T07:59:18.000Z</time>
      </trkpt>
      <trkpt lat="47.28574" lon="-2.36784">
        <ele>20.39999961853</ele>
        <time>2020-08-27T07:59:19.000Z</time>
      </trkpt>
      <trkpt lat="47.28577" lon="-2.36791">
        <ele>20</ele>
        <time>2020-08-27T07:59:20.000Z</time>
      </trkpt>
      <trkpt lat="47.28581" lon="-2.36798">
        <ele>19.39999961853</ele>
        <time>2020-08-27T07:59:21.000Z</time>
      </trkpt>
      <trkpt lat="47.28584" lon="-2.36805">
        <ele>19</ele>
        <time>2020-08-27T07:59:22.000Z</time>
      </trkpt>
      <trkpt lat="47.28597" lon="-2.36834">
        <ele>19</ele>
        <time>2020-08-27T07:59:26.000Z</time>
      </trkpt>
      <trkpt lat="47.28601" lon="-2.3684">
        <ele>19</ele>
        <time>2020-08-27T07:59:27.000Z</time>
      </trkpt>
      <trkpt lat="47.28605" lon="-2.36843">
        <ele>18.60000038147</ele>
        <time>2020-08-27T07:59:28.000Z</time>
      </trkpt>
      <trkpt lat="47.2861" lon="-2.36843">
        <ele>18.200000762939</ele>
        <time>2020-08-27T07:59:29.000Z</time>
      </trkpt>
      <trkpt lat="47.28616" lon="-2.3684">
        <ele>17.799999237061</ele>
        <time>2020-08-27T07:59:30.000Z</time>
      </trkpt>
      <trkpt lat="47.2862" lon="-2.36836">
        <ele>17.39999961853</ele>
        <time>2020-08-27T07:59:31.000Z</time>
      </trkpt>
      <trkpt lat="47.28623" lon="-2.36832">
        <ele>17</ele>
        <time>2020-08-27T07:59:32.000Z</time>
      </trkpt>
      <trkpt lat="47.28627" lon="-2.36828">
        <ele>17</ele>
        <time>2020-08-27T07:59:33.000Z</time>
      </trkpt>
      <trkpt lat="47.2863" lon="-2.36825">
        <ele>17</ele>
        <time>2020-08-27T07:59:34.000Z</time>
      </trkpt>
      <trkpt lat="47.28646" lon="-2.36804">
        <ele>17</ele>
        <time>2020-08-27T07:59:40.000Z</time>
      </trkpt>
      <trkpt lat="47.28655" lon="-2.36796">
        <ele>17.39999961853</ele>
        <time>2020-08-27T07:59:43.000Z</time>
      </trkpt>
      <trkpt lat="47.28658" lon="-2.36793">
        <ele>17.799999237061</ele>
        <time>2020-08-27T07:59:44.000Z</time>
      </trkpt>
      <trkpt lat="47.28661" lon="-2.36791">
        <ele>18.200000762939</ele>
        <time>2020-08-27T07:59:45.000Z</time>
      </trkpt>
      <trkpt lat="47.28664" lon="-2.36791">
        <ele>18.60000038147</ele>
        <time>2020-08-27T07:59:46.000Z</time>
      </trkpt>
      <trkpt lat="47.28666" lon="-2.36791">
        <ele>19</ele>
        <time>2020-08-27T07:59:47.000Z</time>
      </trkpt>
      <trkpt lat="47.28677" lon="-2.36802">
        <ele>19</ele>
        <time>2020-08-27T07:59:51.000Z</time>
      </trkpt>
      <trkpt lat="47.28683" lon="-2.36809">
        <ele>19</ele>
        <time>2020-08-27T07:59:53.000Z</time>
      </trkpt>
      <trkpt lat="47.28692" lon="-2.36827">
        <ele>19</ele>
        <time>2020-08-27T07:59:56.000Z</time>
      </trkpt>
      <trkpt lat="47.28694" lon="-2.36835">
        <ele>19</ele>
        <time>2020-08-27T07:59:57.000Z</time>
      </trkpt>
      <trkpt lat="47.28708" lon="-2.36868">
        <ele>19</ele>
        <time>2020-08-27T08:00:02.000Z</time>
      </trkpt>
      <trkpt lat="47.28721" lon="-2.36895">
        <ele>19</ele>
        <time>2020-08-27T08:00:07.000Z</time>
      </trkpt>
      <trkpt lat="47.28725" lon="-2.36898">
        <ele>18.39999961853</ele>
        <time>2020-08-27T08:00:08.000Z</time>
      </trkpt>
      <trkpt lat="47.28728" lon="-2.36901">
        <ele>18</ele>
        <time>2020-08-27T08:00:09.000Z</time>
      </trkpt>
      <trkpt lat="47.28731" lon="-2.36904">
        <ele>17.39999961853</ele>
        <time>2020-08-27T08:00:10.000Z</time>
      </trkpt>
      <trkpt lat="47.28735" lon="-2.36908">
        <ele>17</ele>
        <time>2020-08-27T08:00:11.000Z</time>
      </trkpt>
      <trkpt lat="47.28737" lon="-2.36911">
        <ele>16</ele>
        <time>2020-08-27T08:00:12.000Z</time>
      </trkpt>
      <trkpt lat="47.28739" lon="-2.36914">
        <ele>15.39999961853</ele>
        <time>2020-08-27T08:00:13.000Z</time>
      </trkpt>
      <trkpt lat="47.28741" lon="-2.36916">
        <ele>14.800000190735</ele>
        <time>2020-08-27T08:00:14.000Z</time>
      </trkpt>
      <trkpt lat="47.28742" lon="-2.36918">
        <ele>14.39999961853</ele>
        <time>2020-08-27T08:00:15.000Z</time>
      </trkpt>
      <trkpt lat="47.28745" lon="-2.36922">
        <ele>14.39999961853</ele>
        <time>2020-08-27T08:00:17.000Z</time>
      </trkpt>
      <trkpt lat="47.28749" lon="-2.36934">
        <ele>14.800000190735</ele>
        <time>2020-08-27T08:00:21.000Z</time>
      </trkpt>
      <trkpt lat="47.2875" lon="-2.36935">
        <ele>15.199999809265</ele>
        <time>2020-08-27T08:00:22.000Z</time>
      </trkpt>
      <trkpt lat="47.28751" lon="-2.36938">
        <ele>15.60000038147</ele>
        <time>2020-08-27T08:00:23.000Z</time>
      </trkpt>
      <trkpt lat="47.28751" lon="-2.36941">
        <ele>16</ele>
        <time>2020-08-27T08:00:24.000Z</time>
      </trkpt>
      <trkpt lat="47.28751" lon="-2.36944">
        <ele>16.39999961853</ele>
        <time>2020-08-27T08:00:25.000Z</time>
      </trkpt>
      <trkpt lat="47.28752" lon="-2.36949">
        <ele>17</ele>
        <time>2020-08-27T08:00:27.000Z</time>
      </trkpt>
      <trkpt lat="47.28753" lon="-2.36952">
        <ele>17.39999961853</ele>
        <time>2020-08-27T08:00:28.000Z</time>
      </trkpt>
      <trkpt lat="47.28753" lon="-2.36955">
        <ele>18</ele>
        <time>2020-08-27T08:00:29.000Z</time>
      </trkpt>
      <trkpt lat="47.28754" lon="-2.36959">
        <ele>18.39999961853</ele>
        <time>2020-08-27T08:00:30.000Z</time>
      </trkpt>
      <trkpt lat="47.28755" lon="-2.36962">
        <ele>19</ele>
        <time>2020-08-27T08:00:31.000Z</time>
      </trkpt>
      <trkpt lat="47.28761" lon="-2.36975">
        <ele>19</ele>
        <time>2020-08-27T08:00:34.000Z</time>
      </trkpt>
      <trkpt lat="47.28771" lon="-2.36993">
        <ele>19</ele>
        <time>2020-08-27T08:00:39.000Z</time>
      </trkpt>
      <trkpt lat="47.28782" lon="-2.37018">
        <ele>19</ele>
        <time>2020-08-27T08:00:44.000Z</time>
      </trkpt>
      <trkpt lat="47.28791" lon="-2.3705">
        <ele>19</ele>
        <time>2020-08-27T08:00:49.000Z</time>
      </trkpt>
      <trkpt lat="47.28794" lon="-2.37066">
        <ele>18.60000038147</ele>
        <time>2020-08-27T08:00:51.000Z</time>
      </trkpt>
      <trkpt lat="47.28796" lon="-2.37074">
        <ele>18</ele>
        <time>2020-08-27T08:00:52.000Z</time>
      </trkpt>
      <trkpt lat="47.28797" lon="-2.37082">
        <ele>17.60000038147</ele>
        <time>2020-08-27T08:00:53.000Z</time>
      </trkpt>
      <trkpt lat="47.28799" lon="-2.37088">
        <ele>17.200000762939</ele>
        <time>2020-08-27T08:00:54.000Z</time>
      </trkpt>
      <trkpt lat="47.28802" lon="-2.37093">
        <ele>16.799999237061</ele>
        <time>2020-08-27T08:00:55.000Z</time>
      </trkpt>
      <trkpt lat="47.28804" lon="-2.37097">
        <ele>16.200000762939</ele>
        <time>2020-08-27T08:00:56.000Z</time>
      </trkpt>
      <trkpt lat="47.28806" lon="-2.371">
        <ele>15.800000190735</ele>
        <time>2020-08-27T08:00:57.000Z</time>
      </trkpt>
      <trkpt lat="47.28809" lon="-2.37102">
        <ele>15.199999809265</ele>
        <time>2020-08-27T08:00:58.000Z</time>
      </trkpt>
      <trkpt lat="47.28812" lon="-2.37104">
        <ele>14.800000190735</ele>
        <time>2020-08-27T08:00:59.000Z</time>
      </trkpt>
      <trkpt lat="47.28814" lon="-2.37105">
        <ele>14.800000190735</ele>
        <time>2020-08-27T08:01:00.000Z</time>
      </trkpt>
      <trkpt lat="47.28816" lon="-2.37106">
        <ele>14.39999961853</ele>
        <time>2020-08-27T08:01:01.000Z</time>
      </trkpt>
      <trkpt lat="47.28818" lon="-2.37105">
        <ele>13.39999961853</ele>
        <time>2020-08-27T08:01:02.000Z</time>
      </trkpt>
      <trkpt lat="47.2882" lon="-2.37104">
        <ele>12.800000190735</ele>
        <time>2020-08-27T08:01:03.000Z</time>
      </trkpt>
      <trkpt lat="47.28822" lon="-2.37103">
        <ele>12.39999961853</ele>
        <time>2020-08-27T08:01:04.000Z</time>
      </trkpt>
      <trkpt lat="47.28824" lon="-2.37102">
        <ele>12</ele>
        <time>2020-08-27T08:01:05.000Z</time>
      </trkpt>
      <trkpt lat="47.28825" lon="-2.37102">
        <ele>11.60000038147</ele>
        <time>2020-08-27T08:01:06.000Z</time>
      </trkpt>
      <trkpt lat="47.28827" lon="-2.37103">
        <ele>11</ele>
        <time>2020-08-27T08:01:07.000Z</time>
      </trkpt>
      <trkpt lat="47.28829" lon="-2.37104">
        <ele>10.60000038147</ele>
        <time>2020-08-27T08:01:08.000Z</time>
      </trkpt>
      <trkpt lat="47.28829" lon="-2.37107">
        <ele>10.199999809265</ele>
        <time>2020-08-27T08:01:09.000Z</time>
      </trkpt>
      <trkpt lat="47.28829" lon="-2.37114">
        <ele>10.199999809265</ele>
        <time>2020-08-27T08:01:11.000Z</time>
      </trkpt>
      <trkpt lat="47.28829" lon="-2.37118">
        <ele>10.199999809265</ele>
        <time>2020-08-27T08:01:12.000Z</time>
      </trkpt>
      <trkpt lat="47.28829" lon="-2.37139">
        <ele>10.199999809265</ele>
        <time>2020-08-27T08:01:19.000Z</time>
      </trkpt>
      <trkpt lat="47.2883" lon="-2.37156">
        <ele>10.199999809265</ele>
        <time>2020-08-27T08:01:25.000Z</time>
      </trkpt>
      <trkpt lat="47.28832" lon="-2.37163">
        <ele>9.8000001907349</ele>
        <time>2020-08-27T08:01:28.000Z</time>
      </trkpt>
      <trkpt lat="47.28833" lon="-2.37166">
        <ele>9.3999996185303</ele>
        <time>2020-08-27T08:01:29.000Z</time>
      </trkpt>
      <trkpt lat="47.28833" lon="-2.37169">
        <ele>9</ele>
        <time>2020-08-27T08:01:30.000Z</time>
      </trkpt>
      <trkpt lat="47.28833" lon="-2.37172">
        <ele>8.6000003814697</ele>
        <time>2020-08-27T08:01:31.000Z</time>
      </trkpt>
      <trkpt lat="47.28833" lon="-2.37175">
        <ele>8.1999998092651</ele>
        <time>2020-08-27T08:01:32.000Z</time>
      </trkpt>
      <trkpt lat="47.28837" lon="-2.37199">
        <ele>8.1999998092651</ele>
        <time>2020-08-27T08:01:39.000Z</time>
      </trkpt>
      <trkpt lat="47.28845" lon="-2.37228">
        <ele>8.1999998092651</ele>
        <time>2020-08-27T08:01:46.000Z</time>
      </trkpt>
      <trkpt lat="47.28852" lon="-2.37251">
        <ele>8.1999998092651</ele>
        <time>2020-08-27T08:01:52.000Z</time>
      </trkpt>
      <trkpt lat="47.28853" lon="-2.37265">
        <ele>8.1999998092651</ele>
        <time>2020-08-27T08:01:57.000Z</time>
      </trkpt>
      <trkpt lat="47.28854" lon="-2.37273">
        <ele>8.1999998092651</ele>
        <time>2020-08-27T08:03:21.000Z</time>
      </trkpt>
      <trkpt lat="47.28856" lon="-2.37282">
        <ele>8.1999998092651</ele>
        <time>2020-08-27T08:03:24.000Z</time>
      </trkpt>
      <trkpt lat="47.2886" lon="-2.37312">
        <ele>8.1999998092651</ele>
        <time>2020-08-27T08:03:30.000Z</time>
      </trkpt>
      <trkpt lat="47.28863" lon="-2.37344">
        <ele>8.1999998092651</ele>
        <time>2020-08-27T08:03:35.000Z</time>
      </trkpt>
      <trkpt lat="47.28868" lon="-2.37392">
        <ele>8.1999998092651</ele>
        <time>2020-08-27T08:03:42.000Z</time>
      </trkpt>
      <trkpt lat="47.28875" lon="-2.37444">
        <ele>8.1999998092651</ele>
        <time>2020-08-27T08:03:50.000Z</time>
      </trkpt>
      <trkpt lat="47.2888" lon="-2.37477">
        <ele>8.1999998092651</ele>
        <time>2020-08-27T08:03:56.000Z</time>
      </trkpt>
      <trkpt lat="47.28884" lon="-2.37511">
        <ele>8.1999998092651</ele>
        <time>2020-08-27T08:04:02.000Z</time>
      </trkpt>
      <trkpt lat="47.28888" lon="-2.37526">
        <ele>8.1999998092651</ele>
        <time>2020-08-27T08:04:07.000Z</time>
      </trkpt>
      <trkpt lat="47.28893" lon="-2.37538">
        <ele>8.1999998092651</ele>
        <time>2020-08-27T08:04:12.000Z</time>
      </trkpt>
      <trkpt lat="47.28893" lon="-2.37542">
        <ele>8.1999998092651</ele>
        <time>2020-08-27T08:04:13.000Z</time>
      </trkpt>
      <trkpt lat="47.28898" lon="-2.37564">
        <ele>8.1999998092651</ele>
        <time>2020-08-27T08:04:17.000Z</time>
      </trkpt>
      <trkpt lat="47.28906" lon="-2.37605">
        <ele>8.1999998092651</ele>
        <time>2020-08-27T08:04:24.000Z</time>
      </trkpt>
      <trkpt lat="47.28911" lon="-2.37644">
        <ele>8.1999998092651</ele>
        <time>2020-08-27T08:04:31.000Z</time>
      </trkpt>
      <trkpt lat="47.28919" lon="-2.37647">
        <ele>8.1999998092651</ele>
        <time>2020-08-27T08:04:34.000Z</time>
      </trkpt>
      <trkpt lat="47.28925" lon="-2.37645">
        <ele>8.1999998092651</ele>
        <time>2020-08-27T08:04:36.000Z</time>
      </trkpt>
      <trkpt lat="47.28931" lon="-2.37645">
        <ele>7.8000001907349</ele>
        <time>2020-08-27T08:04:38.000Z</time>
      </trkpt>
      <trkpt lat="47.28934" lon="-2.37647">
        <ele>7.4000000953674</ele>
        <time>2020-08-27T08:04:39.000Z</time>
      </trkpt>
      <trkpt lat="47.28936" lon="-2.37649">
        <ele>6.8000001907349</ele>
        <time>2020-08-27T08:04:40.000Z</time>
      </trkpt>
      <trkpt lat="47.28938" lon="-2.37654">
        <ele>6.4000000953674</ele>
        <time>2020-08-27T08:04:41.000Z</time>
      </trkpt>
      <trkpt lat="47.28939" lon="-2.37659">
        <ele>6</ele>
        <time>2020-08-27T08:04:42.000Z</time>
      </trkpt>
      <trkpt lat="47.28939" lon="-2.37665">
        <ele>6</ele>
        <time>2020-08-27T08:04:43.000Z</time>
      </trkpt>
      <trkpt lat="47.28939" lon="-2.37681">
        <ele>6</ele>
        <time>2020-08-27T08:04:46.000Z</time>
      </trkpt>
      <trkpt lat="47.28938" lon="-2.37697">
        <ele>6</ele>
        <time>2020-08-27T08:04:49.000Z</time>
      </trkpt>
      <trkpt lat="47.28935" lon="-2.37747">
        <ele>6</ele>
        <time>2020-08-27T08:04:58.000Z</time>
      </trkpt>
      <trkpt lat="47.2893" lon="-2.378">
        <ele>6</ele>
        <time>2020-08-27T08:05:07.000Z</time>
      </trkpt>
      <trkpt lat="47.28927" lon="-2.37841">
        <ele>6</ele>
        <time>2020-08-27T08:05:13.000Z</time>
      </trkpt>
      <trkpt lat="47.28924" lon="-2.37872">
        <ele>6</ele>
        <time>2020-08-27T08:05:17.000Z</time>
      </trkpt>
      <trkpt lat="47.28923" lon="-2.37889">
        <ele>6</ele>
        <time>2020-08-27T08:05:19.000Z</time>
      </trkpt>
      <trkpt lat="47.28917" lon="-2.37965">
        <ele>6</ele>
        <time>2020-08-27T08:05:28.000Z</time>
      </trkpt>
      <trkpt lat="47.28914" lon="-2.38008">
        <ele>6</ele>
        <time>2020-08-27T08:05:34.000Z</time>
      </trkpt>
      <trkpt lat="47.28912" lon="-2.38041">
        <ele>6</ele>
        <time>2020-08-27T08:05:39.000Z</time>
      </trkpt>
      <trkpt lat="47.28913" lon="-2.38048">
        <ele>6</ele>
        <time>2020-08-27T08:05:40.000Z</time>
      </trkpt>
      <trkpt lat="47.28924" lon="-2.38085">
        <ele>6</ele>
        <time>2020-08-27T08:05:45.000Z</time>
      </trkpt>
      <trkpt lat="47.28926" lon="-2.38093">
        <ele>6</ele>
        <time>2020-08-27T08:05:46.000Z</time>
      </trkpt>
      <trkpt lat="47.28933" lon="-2.38134">
        <ele>6</ele>
        <time>2020-08-27T08:05:51.000Z</time>
      </trkpt>
      <trkpt lat="47.2894" lon="-2.38202">
        <ele>6</ele>
        <time>2020-08-27T08:05:59.000Z</time>
      </trkpt>
      <trkpt lat="47.2894" lon="-2.38267">
        <ele>6</ele>
        <time>2020-08-27T08:06:07.000Z</time>
      </trkpt>
      <trkpt lat="47.28937" lon="-2.3833">
        <ele>6</ele>
        <time>2020-08-27T08:06:15.000Z</time>
      </trkpt>
      <trkpt lat="47.28941" lon="-2.38402">
        <ele>6</ele>
        <time>2020-08-27T08:06:24.000Z</time>
      </trkpt>
      <trkpt lat="47.28946" lon="-2.38469">
        <ele>6</ele>
        <time>2020-08-27T08:06:32.000Z</time>
      </trkpt>
      <trkpt lat="47.28953" lon="-2.38534">
        <ele>6</ele>
        <time>2020-08-27T08:06:40.000Z</time>
      </trkpt>
      <trkpt lat="47.2896" lon="-2.38609">
        <ele>6</ele>
        <time>2020-08-27T08:06:49.000Z</time>
      </trkpt>
      <trkpt lat="47.28962" lon="-2.38692">
        <ele>6</ele>
        <time>2020-08-27T08:06:59.000Z</time>
      </trkpt>
      <trkpt lat="47.28962" lon="-2.38767">
        <ele>6</ele>
        <time>2020-08-27T08:07:08.000Z</time>
      </trkpt>
      <trkpt lat="47.28963" lon="-2.38855">
        <ele>6</ele>
        <time>2020-08-27T08:07:18.000Z</time>
      </trkpt>
      <trkpt lat="47.28959" lon="-2.38922">
        <ele>6</ele>
        <time>2020-08-27T08:07:26.000Z</time>
      </trkpt>
      <trkpt lat="47.28956" lon="-2.38978">
        <ele>6</ele>
        <time>2020-08-27T08:07:33.000Z</time>
      </trkpt>
      <trkpt lat="47.28952" lon="-2.39035">
        <ele>6</ele>
        <time>2020-08-27T08:07:41.000Z</time>
      </trkpt>
      <trkpt lat="47.28953" lon="-2.39047">
        <ele>6</ele>
        <time>2020-08-27T08:07:43.000Z</time>
      </trkpt>
      <trkpt lat="47.28958" lon="-2.39051">
        <ele>6</ele>
        <time>2020-08-27T08:07:45.000Z</time>
      </trkpt>
      <trkpt lat="47.28965" lon="-2.39051">
        <ele>6</ele>
        <time>2020-08-27T08:07:47.000Z</time>
      </trkpt>
      <trkpt lat="47.28974" lon="-2.3905">
        <ele>6</ele>
        <time>2020-08-27T08:07:49.000Z</time>
      </trkpt>
      <trkpt lat="47.28979" lon="-2.39047">
        <ele>6</ele>
        <time>2020-08-27T08:07:50.000Z</time>
      </trkpt>
      <trkpt lat="47.29004" lon="-2.39035">
        <ele>6</ele>
        <time>2020-08-27T08:07:54.000Z</time>
      </trkpt>
      <trkpt lat="47.29038" lon="-2.39026">
        <ele>5.5999999046326</ele>
        <time>2020-08-27T08:07:59.000Z</time>
      </trkpt>
      <trkpt lat="47.29044" lon="-2.39026">
        <ele>5.1999998092651</ele>
        <time>2020-08-27T08:08:00.000Z</time>
      </trkpt>
      <trkpt lat="47.2905" lon="-2.39025">
        <ele>4.8000001907349</ele>
        <time>2020-08-27T08:08:01.000Z</time>
      </trkpt>
      <trkpt lat="47.29056" lon="-2.39024">
        <ele>4</ele>
        <time>2020-08-27T08:08:02.000Z</time>
      </trkpt>
      <trkpt lat="47.29073" lon="-2.39021">
        <ele>4</ele>
        <time>2020-08-27T08:08:05.000Z</time>
      </trkpt>
      <trkpt lat="47.29101" lon="-2.39018">
        <ele>4</ele>
        <time>2020-08-27T08:08:10.000Z</time>
      </trkpt>
      <trkpt lat="47.29107" lon="-2.39019">
        <ele>4</ele>
        <time>2020-08-27T08:08:11.000Z</time>
      </trkpt>
      <trkpt lat="47.29135" lon="-2.39019">
        <ele>4</ele>
        <time>2020-08-27T08:08:16.000Z</time>
      </trkpt>
      <trkpt lat="47.29141" lon="-2.3902">
        <ele>4</ele>
        <time>2020-08-27T08:08:17.000Z</time>
      </trkpt>
      <trkpt lat="47.29152" lon="-2.39019">
        <ele>4</ele>
        <time>2020-08-27T08:08:19.000Z</time>
      </trkpt>
      <trkpt lat="47.29174" lon="-2.39016">
        <ele>4</ele>
        <time>2020-08-27T08:08:23.000Z</time>
      </trkpt>
      <trkpt lat="47.29218" lon="-2.39015">
        <ele>4</ele>
        <time>2020-08-27T08:08:31.000Z</time>
      </trkpt>
      <trkpt lat="47.29244" lon="-2.39013">
        <ele>4</ele>
        <time>2020-08-27T08:08:37.000Z</time>
      </trkpt>
      <trkpt lat="47.2926" lon="-2.39004">
        <ele>4</ele>
        <time>2020-08-27T08:08:42.000Z</time>
      </trkpt>
      <trkpt lat="47.29266" lon="-2.39004">
        <ele>4</ele>
        <time>2020-08-27T08:08:44.000Z</time>
      </trkpt>
      <trkpt lat="47.29271" lon="-2.39013">
        <ele>4</ele>
        <time>2020-08-27T08:08:46.000Z</time>
      </trkpt>
      <trkpt lat="47.29271" lon="-2.39038">
        <ele>4</ele>
        <time>2020-08-27T08:08:50.000Z</time>
      </trkpt>
      <trkpt lat="47.29266" lon="-2.39096">
        <ele>4</ele>
        <time>2020-08-27T08:08:58.000Z</time>
      </trkpt>
      <trkpt lat="47.29257" lon="-2.39158">
        <ele>4</ele>
        <time>2020-08-27T08:09:06.000Z</time>
      </trkpt>
      <trkpt lat="47.29252" lon="-2.39222">
        <ele>4</ele>
        <time>2020-08-27T08:09:14.000Z</time>
      </trkpt>
      <trkpt lat="47.29252" lon="-2.3923">
        <ele>4</ele>
        <time>2020-08-27T08:09:15.000Z</time>
      </trkpt>
      <trkpt lat="47.2926" lon="-2.39257">
        <ele>4</ele>
        <time>2020-08-27T08:09:19.000Z</time>
      </trkpt>
      <trkpt lat="47.29262" lon="-2.39263">
        <ele>4</ele>
        <time>2020-08-27T08:09:20.000Z</time>
      </trkpt>
      <trkpt lat="47.29273" lon="-2.39286">
        <ele>4</ele>
        <time>2020-08-27T08:09:25.000Z</time>
      </trkpt>
      <trkpt lat="47.29289" lon="-2.39296">
        <ele>4</ele>
        <time>2020-08-27T08:09:30.000Z</time>
      </trkpt>
      <trkpt lat="47.29321" lon="-2.39318">
        <ele>4</ele>
        <time>2020-08-27T08:09:38.000Z</time>
      </trkpt>
      <trkpt lat="47.29341" lon="-2.39326">
        <ele>4</ele>
        <time>2020-08-27T08:09:43.000Z</time>
      </trkpt>
      <trkpt lat="47.29344" lon="-2.39329">
        <ele>4</ele>
        <time>2020-08-27T08:09:44.000Z</time>
      </trkpt>
      <trkpt lat="47.2935" lon="-2.39346">
        <ele>4</ele>
        <time>2020-08-27T08:09:47.000Z</time>
      </trkpt>
      <trkpt lat="47.2935" lon="-2.39359">
        <ele>4</ele>
        <time>2020-08-27T08:09:49.000Z</time>
      </trkpt>
      <trkpt lat="47.29351" lon="-2.3938">
        <ele>4</ele>
        <time>2020-08-27T08:09:52.000Z</time>
      </trkpt>
      <trkpt lat="47.29353" lon="-2.39407">
        <ele>4.4000000953674</ele>
        <time>2020-08-27T08:09:56.000Z</time>
      </trkpt>
      <trkpt lat="47.29353" lon="-2.39413">
        <ele>4.8000001907349</ele>
        <time>2020-08-27T08:09:57.000Z</time>
      </trkpt>
      <trkpt lat="47.29353" lon="-2.3942">
        <ele>5.1999998092651</ele>
        <time>2020-08-27T08:09:58.000Z</time>
      </trkpt>
      <trkpt lat="47.29354" lon="-2.39426">
        <ele>5.5999999046326</ele>
        <time>2020-08-27T08:09:59.000Z</time>
      </trkpt>
      <trkpt lat="47.29355" lon="-2.39433">
        <ele>6.1999998092651</ele>
        <time>2020-08-27T08:10:00.000Z</time>
      </trkpt>
      <trkpt lat="47.29359" lon="-2.39452">
        <ele>6.1999998092651</ele>
        <time>2020-08-27T08:10:03.000Z</time>
      </trkpt>
      <trkpt lat="47.29367" lon="-2.39462">
        <ele>6.1999998092651</ele>
        <time>2020-08-27T08:10:05.000Z</time>
      </trkpt>
      <trkpt lat="47.29381" lon="-2.39466">
        <ele>6.1999998092651</ele>
        <time>2020-08-27T08:10:08.000Z</time>
      </trkpt>
      <trkpt lat="47.29392" lon="-2.39465">
        <ele>6.1999998092651</ele>
        <time>2020-08-27T08:10:10.000Z</time>
      </trkpt>
      <trkpt lat="47.29417" lon="-2.39466">
        <ele>6.1999998092651</ele>
        <time>2020-08-27T08:10:15.000Z</time>
      </trkpt>
      <trkpt lat="47.29427" lon="-2.39469">
        <ele>6.1999998092651</ele>
        <time>2020-08-27T08:10:17.000Z</time>
      </trkpt>
      <trkpt lat="47.29442" lon="-2.39471">
        <ele>6.1999998092651</ele>
        <time>2020-08-27T08:10:20.000Z</time>
      </trkpt>
      <trkpt lat="47.29457" lon="-2.39471">
        <ele>6.1999998092651</ele>
        <time>2020-08-27T08:10:23.000Z</time>
      </trkpt>
      <trkpt lat="47.29472" lon="-2.39472">
        <ele>6.1999998092651</ele>
        <time>2020-08-27T08:10:26.000Z</time>
      </trkpt>
      <trkpt lat="47.29508" lon="-2.39469">
        <ele>6.1999998092651</ele>
        <time>2020-08-27T08:10:33.000Z</time>
      </trkpt>
      <trkpt lat="47.29518" lon="-2.39471">
        <ele>6.1999998092651</ele>
        <time>2020-08-27T08:10:35.000Z</time>
      </trkpt>
      <trkpt lat="47.29529" lon="-2.39473">
        <ele>5.5999999046326</ele>
        <time>2020-08-27T08:10:37.000Z</time>
      </trkpt>
      <trkpt lat="47.29534" lon="-2.39475">
        <ele>5.1999998092651</ele>
        <time>2020-08-27T08:10:38.000Z</time>
      </trkpt>
      <trkpt lat="47.2954" lon="-2.39476">
        <ele>4.8000001907349</ele>
        <time>2020-08-27T08:10:39.000Z</time>
      </trkpt>
      <trkpt lat="47.29545" lon="-2.39478">
        <ele>4.4000000953674</ele>
        <time>2020-08-27T08:10:40.000Z</time>
      </trkpt>
      <trkpt lat="47.29549" lon="-2.39478">
        <ele>4</ele>
        <time>2020-08-27T08:10:41.000Z</time>
      </trkpt>
      <trkpt lat="47.29555" lon="-2.39481">
        <ele>4</ele>
        <time>2020-08-27T08:10:43.000Z</time>
      </trkpt>
      <trkpt lat="47.2956" lon="-2.39489">
        <ele>4</ele>
        <time>2020-08-27T08:10:47.000Z</time>
      </trkpt>
      <trkpt lat="47.29561" lon="-2.39492">
        <ele>4</ele>
        <time>2020-08-27T08:10:48.000Z</time>
      </trkpt>
      <trkpt lat="47.29559" lon="-2.395">
        <ele>4</ele>
        <time>2020-08-27T08:10:50.000Z</time>
      </trkpt>
      <trkpt lat="47.29557" lon="-2.39519">
        <ele>4</ele>
        <time>2020-08-27T08:10:55.000Z</time>
      </trkpt>
      <trkpt lat="47.29557" lon="-2.39529">
        <ele>4.4000000953674</ele>
        <time>2020-08-27T08:10:58.000Z</time>
      </trkpt>
      <trkpt lat="47.29558" lon="-2.39531">
        <ele>4.8000001907349</ele>
        <time>2020-08-27T08:10:59.000Z</time>
      </trkpt>
      <trkpt lat="47.29558" lon="-2.39535">
        <ele>5.4000000953674</ele>
        <time>2020-08-27T08:11:00.000Z</time>
      </trkpt>
      <trkpt lat="47.29558" lon="-2.39539">
        <ele>5.8000001907349</ele>
        <time>2020-08-27T08:11:01.000Z</time>
      </trkpt>
      <trkpt lat="47.29559" lon="-2.39542">
        <ele>6.1999998092651</ele>
        <time>2020-08-27T08:11:02.000Z</time>
      </trkpt>
      <trkpt lat="47.2956" lon="-2.39544">
        <ele>6.1999998092651</ele>
        <time>2020-08-27T08:11:03.000Z</time>
      </trkpt>
      <trkpt lat="47.29562" lon="-2.39546">
        <ele>6.1999998092651</ele>
        <time>2020-08-27T08:11:04.000Z</time>
      </trkpt>
      <trkpt lat="47.2957" lon="-2.39545">
        <ele>6.1999998092651</ele>
        <time>2020-08-27T08:11:08.000Z</time>
      </trkpt>
      <trkpt lat="47.29572" lon="-2.39546">
        <ele>6.1999998092651</ele>
        <time>2020-08-27T08:11:09.000Z</time>
      </trkpt>
      <trkpt lat="47.29575" lon="-2.39546">
        <ele>6.5999999046326</ele>
        <time>2020-08-27T08:11:10.000Z</time>
      </trkpt>
      <trkpt lat="47.29577" lon="-2.39546">
        <ele>7</ele>
        <time>2020-08-27T08:11:11.000Z</time>
      </trkpt>
      <trkpt lat="47.29579" lon="-2.39547">
        <ele>7.4000000953674</ele>
        <time>2020-08-27T08:11:12.000Z</time>
      </trkpt>
      <trkpt lat="47.29581" lon="-2.39547">
        <ele>7.8000001907349</ele>
        <time>2020-08-27T08:11:13.000Z</time>
      </trkpt>
      <trkpt lat="47.29584" lon="-2.39548">
        <ele>8.1999998092651</ele>
        <time>2020-08-27T08:11:14.000Z</time>
      </trkpt>
      <trkpt lat="47.29601" lon="-2.39552">
        <ele>8.1999998092651</ele>
        <time>2020-08-27T08:11:21.000Z</time>
      </trkpt>
      <trkpt lat="47.29621" lon="-2.39556">
        <ele>8.1999998092651</ele>
        <time>2020-08-27T08:11:26.000Z</time>
      </trkpt>
      <trkpt lat="47.29625" lon="-2.39559">
        <ele>8.1999998092651</ele>
        <time>2020-08-27T08:11:28.000Z</time>
      </trkpt>
      <trkpt lat="47.29625" lon="-2.39561">
        <ele>8.1999998092651</ele>
        <time>2020-08-27T08:11:29.000Z</time>
      </trkpt>
      <trkpt lat="47.29619" lon="-2.39565">
        <ele>8.1999998092651</ele>
        <time>2020-08-27T08:11:32.000Z</time>
      </trkpt>
      <trkpt lat="47.29615" lon="-2.39565">
        <ele>8.1999998092651</ele>
        <time>2020-08-27T08:11:33.000Z</time>
      </trkpt>
      <trkpt lat="47.29611" lon="-2.3957">
        <ele>8.1999998092651</ele>
        <time>2020-08-27T08:11:35.000Z</time>
      </trkpt>
      <trkpt lat="47.29612" lon="-2.39573">
        <ele>8.1999998092651</ele>
        <time>2020-08-27T08:11:36.000Z</time>
      </trkpt>
      <trkpt lat="47.29614" lon="-2.39576">
        <ele>7.8000001907349</ele>
        <time>2020-08-27T08:11:37.000Z</time>
      </trkpt>
      <trkpt lat="47.29618" lon="-2.39577">
        <ele>7.4000000953674</ele>
        <time>2020-08-27T08:11:38.000Z</time>
      </trkpt>
      <trkpt lat="47.29622" lon="-2.39576">
        <ele>7</ele>
        <time>2020-08-27T08:11:39.000Z</time>
      </trkpt>
      <trkpt lat="47.29626" lon="-2.39576">
        <ele>6.5999999046326</ele>
        <time>2020-08-27T08:11:40.000Z</time>
      </trkpt>
      <trkpt lat="47.2963" lon="-2.39579">
        <ele>6.1999998092651</ele>
        <time>2020-08-27T08:11:41.000Z</time>
      </trkpt>
      <trkpt lat="47.29632" lon="-2.39583">
        <ele>5.8000001907349</ele>
        <time>2020-08-27T08:11:42.000Z</time>
      </trkpt>
      <trkpt lat="47.29633" lon="-2.39587">
        <ele>5.4000000953674</ele>
        <time>2020-08-27T08:11:43.000Z</time>
      </trkpt>
      <trkpt lat="47.29633" lon="-2.39592">
        <ele>5</ele>
        <time>2020-08-27T08:11:44.000Z</time>
      </trkpt>
      <trkpt lat="47.29632" lon="-2.39598">
        <ele>4.1999998092651</ele>
        <time>2020-08-27T08:11:45.000Z</time>
      </trkpt>
      <trkpt lat="47.2963" lon="-2.39633">
        <ele>4.1999998092651</ele>
        <time>2020-08-27T08:11:50.000Z</time>
      </trkpt>
      <trkpt lat="47.29629" lon="-2.39641">
        <ele>4.1999998092651</ele>
        <time>2020-08-27T08:11:51.000Z</time>
      </trkpt>
      <trkpt lat="47.29623" lon="-2.39662">
        <ele>4.1999998092651</ele>
        <time>2020-08-27T08:11:54.000Z</time>
      </trkpt>
      <trkpt lat="47.29609" lon="-2.39688">
        <ele>4.1999998092651</ele>
        <time>2020-08-27T08:11:59.000Z</time>
      </trkpt>
      <trkpt lat="47.29607" lon="-2.39692">
        <ele>4.1999998092651</ele>
        <time>2020-08-27T08:12:00.000Z</time>
      </trkpt>
      <trkpt lat="47.29585" lon="-2.39731">
        <ele>4.1999998092651</ele>
        <time>2020-08-27T08:12:07.000Z</time>
      </trkpt>
      <trkpt lat="47.2956" lon="-2.39782">
        <ele>4.1999998092651</ele>
        <time>2020-08-27T08:12:16.000Z</time>
      </trkpt>
      <trkpt lat="47.29539" lon="-2.39826">
        <ele>4.1999998092651</ele>
        <time>2020-08-27T08:12:24.000Z</time>
      </trkpt>
      <trkpt lat="47.29516" lon="-2.39875">
        <ele>4.1999998092651</ele>
        <time>2020-08-27T08:12:33.000Z</time>
      </trkpt>
      <trkpt lat="47.29503" lon="-2.39899">
        <ele>4.1999998092651</ele>
        <time>2020-08-27T08:12:39.000Z</time>
      </trkpt>
      <trkpt lat="47.29493" lon="-2.39907">
        <ele>4.1999998092651</ele>
        <time>2020-08-27T08:12:44.000Z</time>
      </trkpt>
      <trkpt lat="47.29489" lon="-2.39912">
        <ele>4.1999998092651</ele>
        <time>2020-08-27T08:12:46.000Z</time>
      </trkpt>
      <trkpt lat="47.29487" lon="-2.3992">
        <ele>4.1999998092651</ele>
        <time>2020-08-27T08:12:48.000Z</time>
      </trkpt>
      <trkpt lat="47.29481" lon="-2.39943">
        <ele>4.1999998092651</ele>
        <time>2020-08-27T08:12:55.000Z</time>
      </trkpt>
      <trkpt lat="47.29474" lon="-2.39959">
        <ele>4.1999998092651</ele>
        <time>2020-08-27T08:13:01.000Z</time>
      </trkpt>
      <trkpt lat="47.29466" lon="-2.39976">
        <ele>4.1999998092651</ele>
        <time>2020-08-27T08:13:07.000Z</time>
      </trkpt>
      <trkpt lat="47.29463" lon="-2.4">
        <ele>4.1999998092651</ele>
        <time>2020-08-27T08:13:11.000Z</time>
      </trkpt>
      <trkpt lat="47.29462" lon="-2.40013">
        <ele>4.1999998092651</ele>
        <time>2020-08-27T08:13:13.000Z</time>
      </trkpt>
      <trkpt lat="47.29463" lon="-2.40024">
        <ele>4.1999998092651</ele>
        <time>2020-08-27T08:13:15.000Z</time>
      </trkpt>
      <trkpt lat="47.29463" lon="-2.40055">
        <ele>4.1999998092651</ele>
        <time>2020-08-27T08:13:20.000Z</time>
      </trkpt>
      <trkpt lat="47.29463" lon="-2.40083">
        <ele>4.1999998092651</ele>
        <time>2020-08-27T08:13:24.000Z</time>
      </trkpt>
      <trkpt lat="47.2946" lon="-2.40103">
        <ele>4.1999998092651</ele>
        <time>2020-08-27T08:13:27.000Z</time>
      </trkpt>
      <trkpt lat="47.29456" lon="-2.40152">
        <ele>4.1999998092651</ele>
        <time>2020-08-27T08:13:34.000Z</time>
      </trkpt>
      <trkpt lat="47.29454" lon="-2.40172">
        <ele>4.1999998092651</ele>
        <time>2020-08-27T08:13:37.000Z</time>
      </trkpt>
      <trkpt lat="47.29451" lon="-2.40194">
        <ele>4.1999998092651</ele>
        <time>2020-08-27T08:13:40.000Z</time>
      </trkpt>
      <trkpt lat="47.29445" lon="-2.40218">
        <ele>4.1999998092651</ele>
        <time>2020-08-27T08:13:44.000Z</time>
      </trkpt>
      <trkpt lat="47.29441" lon="-2.40221">
        <ele>4.1999998092651</ele>
        <time>2020-08-27T08:13:45.000Z</time>
      </trkpt>
      <trkpt lat="47.29429" lon="-2.40219">
        <ele>4.1999998092651</ele>
        <time>2020-08-27T08:13:48.000Z</time>
      </trkpt>
      <trkpt lat="47.29425" lon="-2.40219">
        <ele>4.1999998092651</ele>
        <time>2020-08-27T08:13:49.000Z</time>
      </trkpt>
      <trkpt lat="47.29412" lon="-2.40225">
        <ele>4.1999998092651</ele>
        <time>2020-08-27T08:13:52.000Z</time>
      </trkpt>
      <trkpt lat="47.29391" lon="-2.40238">
        <ele>4.1999998092651</ele>
        <time>2020-08-27T08:13:57.000Z</time>
      </trkpt>
      <trkpt lat="47.29382" lon="-2.40243">
        <ele>4.1999998092651</ele>
        <time>2020-08-27T08:13:59.000Z</time>
      </trkpt>
      <trkpt lat="47.29369" lon="-2.40253">
        <ele>4.1999998092651</ele>
        <time>2020-08-27T08:14:02.000Z</time>
      </trkpt>
      <trkpt lat="47.29357" lon="-2.40267">
        <ele>4.1999998092651</ele>
        <time>2020-08-27T08:14:05.000Z</time>
      </trkpt>
      <trkpt lat="47.29352" lon="-2.40271">
        <ele>4.1999998092651</ele>
        <time>2020-08-27T08:14:06.000Z</time>
      </trkpt>
      <trkpt lat="47.29332" lon="-2.40288">
        <ele>4.1999998092651</ele>
        <time>2020-08-27T08:14:11.000Z</time>
      </trkpt>
      <trkpt lat="47.29312" lon="-2.40314">
        <ele>4.1999998092651</ele>
        <time>2020-08-27T08:14:17.000Z</time>
      </trkpt>
      <trkpt lat="47.29308" lon="-2.40319">
        <ele>4.1999998092651</ele>
        <time>2020-08-27T08:14:18.000Z</time>
      </trkpt>
      <trkpt lat="47.2929" lon="-2.40337">
        <ele>4.1999998092651</ele>
        <time>2020-08-27T08:14:23.000Z</time>
      </trkpt>
      <trkpt lat="47.29287" lon="-2.40342">
        <ele>4.1999998092651</ele>
        <time>2020-08-27T08:14:24.000Z</time>
      </trkpt>
      <trkpt lat="47.29285" lon="-2.40362">
        <ele>4.1999998092651</ele>
        <time>2020-08-27T08:14:27.000Z</time>
      </trkpt>
      <trkpt lat="47.29291" lon="-2.40379">
        <ele>4.1999998092651</ele>
        <time>2020-08-27T08:14:30.000Z</time>
      </trkpt>
      <trkpt lat="47.29294" lon="-2.40385">
        <ele>3.7999999523163</ele>
        <time>2020-08-27T08:14:31.000Z</time>
      </trkpt>
      <trkpt lat="47.29297" lon="-2.4039">
        <ele>3.4000000953674</ele>
        <time>2020-08-27T08:14:32.000Z</time>
      </trkpt>
      <trkpt lat="47.293" lon="-2.40394">
        <ele>3</ele>
        <time>2020-08-27T08:14:33.000Z</time>
      </trkpt>
      <trkpt lat="47.29302" lon="-2.40399">
        <ele>2.5999999046326</ele>
        <time>2020-08-27T08:14:34.000Z</time>
      </trkpt>
      <trkpt lat="47.29304" lon="-2.40404">
        <ele>2.2000000476837</ele>
        <time>2020-08-27T08:14:35.000Z</time>
      </trkpt>
      <trkpt lat="47.29306" lon="-2.40409">
        <ele>2.2000000476837</ele>
        <time>2020-08-27T08:14:36.000Z</time>
      </trkpt>
      <trkpt lat="47.29305" lon="-2.40414">
        <ele>2.2000000476837</ele>
        <time>2020-08-27T08:14:37.000Z</time>
      </trkpt>
      <trkpt lat="47.29302" lon="-2.40425">
        <ele>2.2000000476837</ele>
        <time>2020-08-27T08:14:39.000Z</time>
      </trkpt>
      <trkpt lat="47.29298" lon="-2.40437">
        <ele>2.2000000476837</ele>
        <time>2020-08-27T08:14:41.000Z</time>
      </trkpt>
      <trkpt lat="47.2929" lon="-2.4046">
        <ele>2.2000000476837</ele>
        <time>2020-08-27T08:14:45.000Z</time>
      </trkpt>
      <trkpt lat="47.29287" lon="-2.40464">
        <ele>2.2000000476837</ele>
        <time>2020-08-27T08:14:46.000Z</time>
      </trkpt>
      <trkpt lat="47.2927" lon="-2.40474">
        <ele>2.2000000476837</ele>
        <time>2020-08-27T08:14:50.000Z</time>
      </trkpt>
      <trkpt lat="47.29265" lon="-2.40475">
        <ele>2.2000000476837</ele>
        <time>2020-08-27T08:14:51.000Z</time>
      </trkpt>
      <trkpt lat="47.29244" lon="-2.40485">
        <ele>2.2000000476837</ele>
        <time>2020-08-27T08:14:56.000Z</time>
      </trkpt>
      <trkpt lat="47.29209" lon="-2.40506">
        <ele>2.2000000476837</ele>
        <time>2020-08-27T08:15:04.000Z</time>
      </trkpt>
      <trkpt lat="47.29192" lon="-2.40515">
        <ele>2.2000000476837</ele>
        <time>2020-08-27T08:15:08.000Z</time>
      </trkpt>
      <trkpt lat="47.29184" lon="-2.40518">
        <ele>2.2000000476837</ele>
        <time>2020-08-27T08:15:10.000Z</time>
      </trkpt>
      <trkpt lat="47.29173" lon="-2.40519">
        <ele>2.2000000476837</ele>
        <time>2020-08-27T08:15:13.000Z</time>
      </trkpt>
      <trkpt lat="47.29169" lon="-2.40515">
        <ele>2.2000000476837</ele>
        <time>2020-08-27T08:15:14.000Z</time>
      </trkpt>
      <trkpt lat="47.29163" lon="-2.40498">
        <ele>2.2000000476837</ele>
        <time>2020-08-27T08:15:17.000Z</time>
      </trkpt>
      <trkpt lat="47.29149" lon="-2.40485">
        <ele>2.2000000476837</ele>
        <time>2020-08-27T08:15:21.000Z</time>
      </trkpt>
      <trkpt lat="47.29131" lon="-2.40492">
        <ele>2.2000000476837</ele>
        <time>2020-08-27T08:15:25.000Z</time>
      </trkpt>
      <trkpt lat="47.29127" lon="-2.40494">
        <ele>2.2000000476837</ele>
        <time>2020-08-27T08:15:26.000Z</time>
      </trkpt>
      <trkpt lat="47.29102" lon="-2.40517">
        <ele>2.2000000476837</ele>
        <time>2020-08-27T08:15:33.000Z</time>
      </trkpt>
      <trkpt lat="47.29098" lon="-2.40544">
        <ele>2.2000000476837</ele>
        <time>2020-08-27T08:15:37.000Z</time>
      </trkpt>
      <trkpt lat="47.29109" lon="-2.40559">
        <ele>2.2000000476837</ele>
        <time>2020-08-27T08:15:40.000Z</time>
      </trkpt>
      <trkpt lat="47.29113" lon="-2.40563">
        <ele>2.2000000476837</ele>
        <time>2020-08-27T08:15:41.000Z</time>
      </trkpt>
      <trkpt lat="47.29121" lon="-2.40573">
        <ele>2.2000000476837</ele>
        <time>2020-08-27T08:15:43.000Z</time>
      </trkpt>
      <trkpt lat="47.29128" lon="-2.40583">
        <ele>2.2000000476837</ele>
        <time>2020-08-27T08:15:45.000Z</time>
      </trkpt>
      <trkpt lat="47.29132" lon="-2.40589">
        <ele>2.2000000476837</ele>
        <time>2020-08-27T08:15:46.000Z</time>
      </trkpt>
      <trkpt lat="47.29141" lon="-2.40619">
        <ele>2.2000000476837</ele>
        <time>2020-08-27T08:15:51.000Z</time>
      </trkpt>
      <trkpt lat="47.29141" lon="-2.40631">
        <ele>2.2000000476837</ele>
        <time>2020-08-27T08:15:53.000Z</time>
      </trkpt>
      <trkpt lat="47.29145" lon="-2.40647">
        <ele>2.2000000476837</ele>
        <time>2020-08-27T08:15:56.000Z</time>
      </trkpt>
      <trkpt lat="47.29152" lon="-2.4065">
        <ele>2.2000000476837</ele>
        <time>2020-08-27T08:15:58.000Z</time>
      </trkpt>
      <trkpt lat="47.29156" lon="-2.40647">
        <ele>2.2000000476837</ele>
        <time>2020-08-27T08:15:59.000Z</time>
      </trkpt>
      <trkpt lat="47.29172" lon="-2.40633">
        <ele>2.2000000476837</ele>
        <time>2020-08-27T08:16:03.000Z</time>
      </trkpt>
      <trkpt lat="47.29176" lon="-2.4063">
        <ele>2.2000000476837</ele>
        <time>2020-08-27T08:16:04.000Z</time>
      </trkpt>
      <trkpt lat="47.2918" lon="-2.40628">
        <ele>2.2000000476837</ele>
        <time>2020-08-27T08:16:05.000Z</time>
      </trkpt>
      <trkpt lat="47.29187" lon="-2.40622">
        <ele>2.2000000476837</ele>
        <time>2020-08-27T08:16:07.000Z</time>
      </trkpt>
      <trkpt lat="47.29194" lon="-2.40614">
        <ele>2.2000000476837</ele>
        <time>2020-08-27T08:16:10.000Z</time>
      </trkpt>
      <trkpt lat="47.29207" lon="-2.40613">
        <ele>2.2000000476837</ele>
        <time>2020-08-27T08:16:14.000Z</time>
      </trkpt>
      <trkpt lat="47.29214" lon="-2.40621">
        <ele>2.2000000476837</ele>
        <time>2020-08-27T08:16:16.000Z</time>
      </trkpt>
      <trkpt lat="47.2922" lon="-2.40631">
        <ele>2.2000000476837</ele>
        <time>2020-08-27T08:16:18.000Z</time>
      </trkpt>
      <trkpt lat="47.29234" lon="-2.40669">
        <ele>2.2000000476837</ele>
        <time>2020-08-27T08:16:24.000Z</time>
      </trkpt>
      <trkpt lat="47.29231" lon="-2.40689">
        <ele>2.2000000476837</ele>
        <time>2020-08-27T08:16:27.000Z</time>
      </trkpt>
      <trkpt lat="47.29224" lon="-2.40707">
        <ele>2.2000000476837</ele>
        <time>2020-08-27T08:16:30.000Z</time>
      </trkpt>
      <trkpt lat="47.29218" lon="-2.40718">
        <ele>2.2000000476837</ele>
        <time>2020-08-27T08:16:32.000Z</time>
      </trkpt>
      <trkpt lat="47.29195" lon="-2.40752">
        <ele>2.2000000476837</ele>
        <time>2020-08-27T08:16:38.000Z</time>
      </trkpt>
      <trkpt lat="47.29189" lon="-2.40766">
        <ele>2.2000000476837</ele>
        <time>2020-08-27T08:16:40.000Z</time>
      </trkpt>
      <trkpt lat="47.29184" lon="-2.40781">
        <ele>2.2000000476837</ele>
        <time>2020-08-27T08:16:42.000Z</time>
      </trkpt>
      <trkpt lat="47.29171" lon="-2.40817">
        <ele>2.2000000476837</ele>
        <time>2020-08-27T08:16:47.000Z</time>
      </trkpt>
      <trkpt lat="47.2917" lon="-2.40825">
        <ele>2.2000000476837</ele>
        <time>2020-08-27T08:16:48.000Z</time>
      </trkpt>
      <trkpt lat="47.29173" lon="-2.40856">
        <ele>2.2000000476837</ele>
        <time>2020-08-27T08:16:52.000Z</time>
      </trkpt>
      <trkpt lat="47.29173" lon="-2.40864">
        <ele>2.2000000476837</ele>
        <time>2020-08-27T08:16:53.000Z</time>
      </trkpt>
      <trkpt lat="47.29168" lon="-2.40887">
        <ele>2.2000000476837</ele>
        <time>2020-08-27T08:16:56.000Z</time>
      </trkpt>
      <trkpt lat="47.29166" lon="-2.40894">
        <ele>2.2000000476837</ele>
        <time>2020-08-27T08:16:57.000Z</time>
      </trkpt>
      <trkpt lat="47.29163" lon="-2.40908">
        <ele>2.2000000476837</ele>
        <time>2020-08-27T08:16:59.000Z</time>
      </trkpt>
      <trkpt lat="47.29163" lon="-2.4093">
        <ele>2.2000000476837</ele>
        <time>2020-08-27T08:17:02.000Z</time>
      </trkpt>
      <trkpt lat="47.29173" lon="-2.40948">
        <ele>2.2000000476837</ele>
        <time>2020-08-27T08:17:05.000Z</time>
      </trkpt>
      <trkpt lat="47.2919" lon="-2.40952">
        <ele>2.2000000476837</ele>
        <time>2020-08-27T08:17:08.000Z</time>
      </trkpt>
      <trkpt lat="47.29195" lon="-2.40953">
        <ele>2.2000000476837</ele>
        <time>2020-08-27T08:17:09.000Z</time>
      </trkpt>
      <trkpt lat="47.29209" lon="-2.40958">
        <ele>2.2000000476837</ele>
        <time>2020-08-27T08:17:12.000Z</time>
      </trkpt>
      <trkpt lat="47.29216" lon="-2.40969">
        <ele>2.2000000476837</ele>
        <time>2020-08-27T08:17:14.000Z</time>
      </trkpt>
      <trkpt lat="47.29223" lon="-2.40989">
        <ele>2.2000000476837</ele>
        <time>2020-08-27T08:17:17.000Z</time>
      </trkpt>
      <trkpt lat="47.29229" lon="-2.41003">
        <ele>2.2000000476837</ele>
        <time>2020-08-27T08:17:19.000Z</time>
      </trkpt>
      <trkpt lat="47.29246" lon="-2.41032">
        <ele>2.2000000476837</ele>
        <time>2020-08-27T08:17:24.000Z</time>
      </trkpt>
      <trkpt lat="47.2925" lon="-2.41036">
        <ele>2.2000000476837</ele>
        <time>2020-08-27T08:17:25.000Z</time>
      </trkpt>
      <trkpt lat="47.29257" lon="-2.41047">
        <ele>2.2000000476837</ele>
        <time>2020-08-27T08:17:27.000Z</time>
      </trkpt>
      <trkpt lat="47.29255" lon="-2.41062">
        <ele>2.2000000476837</ele>
        <time>2020-08-27T08:17:29.000Z</time>
      </trkpt>
      <trkpt lat="47.29246" lon="-2.41077">
        <ele>2.2000000476837</ele>
        <time>2020-08-27T08:17:32.000Z</time>
      </trkpt>
      <trkpt lat="47.2925" lon="-2.41096">
        <ele>2.2000000476837</ele>
        <time>2020-08-27T08:17:35.000Z</time>
      </trkpt>
      <trkpt lat="47.2926" lon="-2.41111">
        <ele>2.2000000476837</ele>
        <time>2020-08-27T08:17:38.000Z</time>
      </trkpt>
      <trkpt lat="47.29268" lon="-2.4112">
        <ele>2.2000000476837</ele>
        <time>2020-08-27T08:17:40.000Z</time>
      </trkpt>
      <trkpt lat="47.29292" lon="-2.41157">
        <ele>2.2000000476837</ele>
        <time>2020-08-27T08:17:47.000Z</time>
      </trkpt>
      <trkpt lat="47.29297" lon="-2.41169">
        <ele>2.2000000476837</ele>
        <time>2020-08-27T08:17:49.000Z</time>
      </trkpt>
      <trkpt lat="47.29302" lon="-2.41185">
        <ele>2.2000000476837</ele>
        <time>2020-08-27T08:17:52.000Z</time>
      </trkpt>
      <trkpt lat="47.29314" lon="-2.41201">
        <ele>2.2000000476837</ele>
        <time>2020-08-27T08:17:55.000Z</time>
      </trkpt>
      <trkpt lat="47.29319" lon="-2.41206">
        <ele>2.2000000476837</ele>
        <time>2020-08-27T08:17:56.000Z</time>
      </trkpt>
      <trkpt lat="47.29347" lon="-2.4124">
        <ele>2.2000000476837</ele>
        <time>2020-08-27T08:18:03.000Z</time>
      </trkpt>
      <trkpt lat="47.29353" lon="-2.4125">
        <ele>2.2000000476837</ele>
        <time>2020-08-27T08:18:05.000Z</time>
      </trkpt>
      <trkpt lat="47.29358" lon="-2.41271">
        <ele>2.2000000476837</ele>
        <time>2020-08-27T08:18:08.000Z</time>
      </trkpt>
      <trkpt lat="47.29359" lon="-2.41285">
        <ele>2.2000000476837</ele>
        <time>2020-08-27T08:18:10.000Z</time>
      </trkpt>
      <trkpt lat="47.29361" lon="-2.41308">
        <ele>2.2000000476837</ele>
        <time>2020-08-27T08:18:14.000Z</time>
      </trkpt>
      <trkpt lat="47.29353" lon="-2.41326">
        <ele>2.2000000476837</ele>
        <time>2020-08-27T08:18:18.000Z</time>
      </trkpt>
      <trkpt lat="47.29349" lon="-2.41336">
        <ele>2.2000000476837</ele>
        <time>2020-08-27T08:18:22.000Z</time>
      </trkpt>
      <trkpt lat="47.29349" lon="-2.41341">
        <ele>2.2000000476837</ele>
        <time>2020-08-27T08:18:23.000Z</time>
      </trkpt>
      <trkpt lat="47.29352" lon="-2.41352">
        <ele>2.2000000476837</ele>
        <time>2020-08-27T08:18:25.000Z</time>
      </trkpt>
      <trkpt lat="47.29363" lon="-2.41372">
        <ele>2.2000000476837</ele>
        <time>2020-08-27T08:18:29.000Z</time>
      </trkpt>
      <trkpt lat="47.29367" lon="-2.41376">
        <ele>2.2000000476837</ele>
        <time>2020-08-27T08:18:30.000Z</time>
      </trkpt>
      <trkpt lat="47.29383" lon="-2.41402">
        <ele>2.2000000476837</ele>
        <time>2020-08-27T08:18:35.000Z</time>
      </trkpt>
      <trkpt lat="47.29402" lon="-2.41448">
        <ele>2.2000000476837</ele>
        <time>2020-08-27T08:18:42.000Z</time>
      </trkpt>
      <trkpt lat="47.29405" lon="-2.41454">
        <ele>2.2000000476837</ele>
        <time>2020-08-27T08:18:43.000Z</time>
      </trkpt>
      <trkpt lat="47.29417" lon="-2.4147">
        <ele>2.2000000476837</ele>
        <time>2020-08-27T08:18:46.000Z</time>
      </trkpt>
      <trkpt lat="47.29421" lon="-2.41475">
        <ele>2.2000000476837</ele>
        <time>2020-08-27T08:18:47.000Z</time>
      </trkpt>
      <trkpt lat="47.29434" lon="-2.41487">
        <ele>2.2000000476837</ele>
        <time>2020-08-27T08:18:50.000Z</time>
      </trkpt>
      <trkpt lat="47.29444" lon="-2.41491">
        <ele>2.2000000476837</ele>
        <time>2020-08-27T08:18:52.000Z</time>
      </trkpt>
      <trkpt lat="47.2946" lon="-2.41487">
        <ele>2.2000000476837</ele>
        <time>2020-08-27T08:18:55.000Z</time>
      </trkpt>
      <trkpt lat="47.29465" lon="-2.41486">
        <ele>2.2000000476837</ele>
        <time>2020-08-27T08:18:56.000Z</time>
      </trkpt>
      <trkpt lat="47.29475" lon="-2.41486">
        <ele>2.2000000476837</ele>
        <time>2020-08-27T08:18:58.000Z</time>
      </trkpt>
      <trkpt lat="47.29492" lon="-2.41488">
        <ele>2.2000000476837</ele>
        <time>2020-08-27T08:19:01.000Z</time>
      </trkpt>
      <trkpt lat="47.29513" lon="-2.4148">
        <ele>2.2000000476837</ele>
        <time>2020-08-27T08:19:05.000Z</time>
      </trkpt>
      <trkpt lat="47.29527" lon="-2.41491">
        <ele>2.2000000476837</ele>
        <time>2020-08-27T08:19:08.000Z</time>
      </trkpt>
      <trkpt lat="47.29537" lon="-2.41509">
        <ele>2.2000000476837</ele>
        <time>2020-08-27T08:19:11.000Z</time>
      </trkpt>
      <trkpt lat="47.29539" lon="-2.41515">
        <ele>2.2000000476837</ele>
        <time>2020-08-27T08:19:12.000Z</time>
      </trkpt>
      <trkpt lat="47.29542" lon="-2.41527">
        <ele>2.2000000476837</ele>
        <time>2020-08-27T08:19:14.000Z</time>
      </trkpt>
      <trkpt lat="47.29543" lon="-2.41548">
        <ele>2.2000000476837</ele>
        <time>2020-08-27T08:19:17.000Z</time>
      </trkpt>
      <trkpt lat="47.29535" lon="-2.41568">
        <ele>2.2000000476837</ele>
        <time>2020-08-27T08:19:20.000Z</time>
      </trkpt>
      <trkpt lat="47.29534" lon="-2.41575">
        <ele>2.2000000476837</ele>
        <time>2020-08-27T08:19:21.000Z</time>
      </trkpt>
      <trkpt lat="47.29529" lon="-2.41595">
        <ele>2.2000000476837</ele>
        <time>2020-08-27T08:19:24.000Z</time>
      </trkpt>
      <trkpt lat="47.29528" lon="-2.41615">
        <ele>2.2000000476837</ele>
        <time>2020-08-27T08:19:27.000Z</time>
      </trkpt>
      <trkpt lat="47.2953" lon="-2.41635">
        <ele>2.2000000476837</ele>
        <time>2020-08-27T08:19:30.000Z</time>
      </trkpt>
      <trkpt lat="47.29531" lon="-2.41641">
        <ele>2.2000000476837</ele>
        <time>2020-08-27T08:19:31.000Z</time>
      </trkpt>
      <trkpt lat="47.29534" lon="-2.41654">
        <ele>2.2000000476837</ele>
        <time>2020-08-27T08:19:33.000Z</time>
      </trkpt>
      <trkpt lat="47.29551" lon="-2.41698">
        <ele>2.2000000476837</ele>
        <time>2020-08-27T08:19:41.000Z</time>
      </trkpt>
      <trkpt lat="47.29559" lon="-2.41712">
        <ele>2.2000000476837</ele>
        <time>2020-08-27T08:19:44.000Z</time>
      </trkpt>
      <trkpt lat="47.29567" lon="-2.41716">
        <ele>2.2000000476837</ele>
        <time>2020-08-27T08:19:46.000Z</time>
      </trkpt>
      <trkpt lat="47.29582" lon="-2.41722">
        <ele>2.2000000476837</ele>
        <time>2020-08-27T08:19:49.000Z</time>
      </trkpt>
      <trkpt lat="47.29591" lon="-2.41728">
        <ele>2.2000000476837</ele>
        <time>2020-08-27T08:19:51.000Z</time>
      </trkpt>
      <trkpt lat="47.29626" lon="-2.41764">
        <ele>2.2000000476837</ele>
        <time>2020-08-27T08:19:59.000Z</time>
      </trkpt>
      <trkpt lat="47.29632" lon="-2.41776">
        <ele>2.2000000476837</ele>
        <time>2020-08-27T08:20:01.000Z</time>
      </trkpt>
      <trkpt lat="47.29636" lon="-2.41788">
        <ele>2.2000000476837</ele>
        <time>2020-08-27T08:20:03.000Z</time>
      </trkpt>
      <trkpt lat="47.29637" lon="-2.41795">
        <ele>2.2000000476837</ele>
        <time>2020-08-27T08:20:04.000Z</time>
      </trkpt>
      <trkpt lat="47.29645" lon="-2.41821">
        <ele>2.2000000476837</ele>
        <time>2020-08-27T08:20:08.000Z</time>
      </trkpt>
      <trkpt lat="47.29663" lon="-2.41832">
        <ele>2.2000000476837</ele>
        <time>2020-08-27T08:20:12.000Z</time>
      </trkpt>
      <trkpt lat="47.29677" lon="-2.41825">
        <ele>2.2000000476837</ele>
        <time>2020-08-27T08:20:15.000Z</time>
      </trkpt>
      <trkpt lat="47.29701" lon="-2.41818">
        <ele>2.2000000476837</ele>
        <time>2020-08-27T08:20:20.000Z</time>
      </trkpt>
      <trkpt lat="47.29713" lon="-2.41797">
        <ele>2.2000000476837</ele>
        <time>2020-08-27T08:20:24.000Z</time>
      </trkpt>
      <trkpt lat="47.29729" lon="-2.41774">
        <ele>2.2000000476837</ele>
        <time>2020-08-27T08:20:30.000Z</time>
      </trkpt>
      <trkpt lat="47.29749" lon="-2.41756">
        <ele>2.2000000476837</ele>
        <time>2020-08-27T08:20:36.000Z</time>
      </trkpt>
      <trkpt lat="47.29764" lon="-2.4175">
        <ele>2.2000000476837</ele>
        <time>2020-08-27T08:20:41.000Z</time>
      </trkpt>
      <trkpt lat="47.29764" lon="-2.4175">
        <ele>2.2000000476837</ele>
        <time>2020-08-27T08:20:43.000Z</time>
      </trkpt>
      <trkpt lat="47.29767" lon="-2.41754">
        <ele>2.2000000476837</ele>
        <time>2020-08-27T08:21:17.000Z</time>
      </trkpt>
      <trkpt lat="47.29771" lon="-2.4177">
        <ele>2.2000000476837</ele>
        <time>2020-08-27T08:21:22.000Z</time>
      </trkpt>
      <trkpt lat="47.29774" lon="-2.41796">
        <ele>2.2000000476837</ele>
        <time>2020-08-27T08:21:27.000Z</time>
      </trkpt>
      <trkpt lat="47.29773" lon="-2.41822">
        <ele>2.2000000476837</ele>
        <time>2020-08-27T08:21:34.000Z</time>
      </trkpt>
      <trkpt lat="47.29774" lon="-2.41827">
        <ele>2.2000000476837</ele>
        <time>2020-08-27T08:21:36.000Z</time>
      </trkpt>
      <trkpt lat="47.29778" lon="-2.4183">
        <ele>2.2000000476837</ele>
        <time>2020-08-27T08:21:38.000Z</time>
      </trkpt>
      <trkpt lat="47.29787" lon="-2.41824">
        <ele>2.2000000476837</ele>
        <time>2020-08-27T08:21:42.000Z</time>
      </trkpt>
      <trkpt lat="47.29789" lon="-2.41822">
        <ele>2.2000000476837</ele>
        <time>2020-08-27T08:21:43.000Z</time>
      </trkpt>
      <trkpt lat="47.29807" lon="-2.41806">
        <ele>2.2000000476837</ele>
        <time>2020-08-27T08:21:49.000Z</time>
      </trkpt>
      <trkpt lat="47.29825" lon="-2.41791">
        <ele>2.2000000476837</ele>
        <time>2020-08-27T08:21:54.000Z</time>
      </trkpt>
      <trkpt lat="47.29828" lon="-2.41787">
        <ele>2.2000000476837</ele>
        <time>2020-08-27T08:21:55.000Z</time>
      </trkpt>
      <trkpt lat="47.29836" lon="-2.41773">
        <ele>2.2000000476837</ele>
        <time>2020-08-27T08:21:58.000Z</time>
      </trkpt>
      <trkpt lat="47.29841" lon="-2.41766">
        <ele>2.2000000476837</ele>
        <time>2020-08-27T08:22:00.000Z</time>
      </trkpt>
      <trkpt lat="47.29859" lon="-2.41758">
        <ele>2.2000000476837</ele>
        <time>2020-08-27T08:22:05.000Z</time>
      </trkpt>
      <trkpt lat="47.2987" lon="-2.41762">
        <ele>2.2000000476837</ele>
        <time>2020-08-27T08:22:08.000Z</time>
      </trkpt>
      <trkpt lat="47.29878" lon="-2.41767">
        <ele>2.2000000476837</ele>
        <time>2020-08-27T08:22:10.000Z</time>
      </trkpt>
      <trkpt lat="47.29893" lon="-2.41766">
        <ele>2.2000000476837</ele>
        <time>2020-08-27T08:22:14.000Z</time>
      </trkpt>
      <trkpt lat="47.29907" lon="-2.41753">
        <ele>2.2000000476837</ele>
        <time>2020-08-27T08:22:18.000Z</time>
      </trkpt>
      <trkpt lat="47.29929" lon="-2.41733">
        <ele>2.2000000476837</ele>
        <time>2020-08-27T08:22:25.000Z</time>
      </trkpt>
      <trkpt lat="47.2994" lon="-2.41712">
        <ele>2.2000000476837</ele>
        <time>2020-08-27T08:22:30.000Z</time>
      </trkpt>
      <trkpt lat="47.29937" lon="-2.41691">
        <ele>2.2000000476837</ele>
        <time>2020-08-27T08:22:34.000Z</time>
      </trkpt>
      <trkpt lat="47.2993" lon="-2.41652">
        <ele>2.2000000476837</ele>
        <time>2020-08-27T08:22:42.000Z</time>
      </trkpt>
      <trkpt lat="47.29928" lon="-2.4163">
        <ele>2.2000000476837</ele>
        <time>2020-08-27T08:22:46.000Z</time>
      </trkpt>
      <trkpt lat="47.2993" lon="-2.4161">
        <ele>2.2000000476837</ele>
        <time>2020-08-27T08:22:49.000Z</time>
      </trkpt>
      <trkpt lat="47.29929" lon="-2.41596">
        <ele>2.2000000476837</ele>
        <time>2020-08-27T08:22:51.000Z</time>
      </trkpt>
      <trkpt lat="47.29926" lon="-2.41576">
        <ele>2.2000000476837</ele>
        <time>2020-08-27T08:22:54.000Z</time>
      </trkpt>
      <trkpt lat="47.29924" lon="-2.41564">
        <ele>2.2000000476837</ele>
        <time>2020-08-27T08:22:56.000Z</time>
      </trkpt>
      <trkpt lat="47.29926" lon="-2.41543">
        <ele>2.2000000476837</ele>
        <time>2020-08-27T08:23:00.000Z</time>
      </trkpt>
      <trkpt lat="47.29933" lon="-2.41524">
        <ele>2.2000000476837</ele>
        <time>2020-08-27T08:23:05.000Z</time>
      </trkpt>
      <trkpt lat="47.29935" lon="-2.41524">
        <ele>2.2000000476837</ele>
        <time>2020-08-27T08:23:06.000Z</time>
      </trkpt>
      <trkpt lat="47.29942" lon="-2.41523">
        <ele>2.2000000476837</ele>
        <time>2020-08-27T08:23:09.000Z</time>
      </trkpt>
      <trkpt lat="47.29964" lon="-2.41523">
        <ele>2.2000000476837</ele>
        <time>2020-08-27T08:23:15.000Z</time>
      </trkpt>
      <trkpt lat="47.29997" lon="-2.4152">
        <ele>2.2000000476837</ele>
        <time>2020-08-27T08:23:22.000Z</time>
      </trkpt>
      <trkpt lat="47.30034" lon="-2.41505">
        <ele>2.2000000476837</ele>
        <time>2020-08-27T08:23:30.000Z</time>
      </trkpt>
      <trkpt lat="47.30067" lon="-2.41486">
        <ele>2.2000000476837</ele>
        <time>2020-08-27T08:23:38.000Z</time>
      </trkpt>
      <trkpt lat="47.3011" lon="-2.4146">
        <ele>2.2000000476837</ele>
        <time>2020-08-27T08:23:48.000Z</time>
      </trkpt>
      <trkpt lat="47.30131" lon="-2.41447">
        <ele>2.2000000476837</ele>
        <time>2020-08-27T08:23:53.000Z</time>
      </trkpt>
      <trkpt lat="47.30138" lon="-2.41438">
        <ele>2.2000000476837</ele>
        <time>2020-08-27T08:23:55.000Z</time>
      </trkpt>
      <trkpt lat="47.30147" lon="-2.41419">
        <ele>2.2000000476837</ele>
        <time>2020-08-27T08:23:58.000Z</time>
      </trkpt>
      <trkpt lat="47.30152" lon="-2.41406">
        <ele>2.2000000476837</ele>
        <time>2020-08-27T08:24:00.000Z</time>
      </trkpt>
      <trkpt lat="47.30172" lon="-2.41359">
        <ele>2.2000000476837</ele>
        <time>2020-08-27T08:24:07.000Z</time>
      </trkpt>
      <trkpt lat="47.30192" lon="-2.41314">
        <ele>2.2000000476837</ele>
        <time>2020-08-27T08:24:14.000Z</time>
      </trkpt>
      <trkpt lat="47.30202" lon="-2.41296">
        <ele>2.2000000476837</ele>
        <time>2020-08-27T08:24:17.000Z</time>
      </trkpt>
      <trkpt lat="47.30212" lon="-2.41282">
        <ele>2.2000000476837</ele>
        <time>2020-08-27T08:24:20.000Z</time>
      </trkpt>
      <trkpt lat="47.30241" lon="-2.41245">
        <ele>2.2000000476837</ele>
        <time>2020-08-27T08:24:28.000Z</time>
      </trkpt>
      <trkpt lat="47.30264" lon="-2.41204">
        <ele>2.2000000476837</ele>
        <time>2020-08-27T08:24:35.000Z</time>
      </trkpt>
      <trkpt lat="47.30287" lon="-2.41154">
        <ele>2.2000000476837</ele>
        <time>2020-08-27T08:24:43.000Z</time>
      </trkpt>
      <trkpt lat="47.30303" lon="-2.4113">
        <ele>2.2000000476837</ele>
        <time>2020-08-27T08:24:48.000Z</time>
      </trkpt>
      <trkpt lat="47.30307" lon="-2.41129">
        <ele>2.2000000476837</ele>
        <time>2020-08-27T08:24:49.000Z</time>
      </trkpt>
      <trkpt lat="47.30326" lon="-2.41134">
        <ele>2.2000000476837</ele>
        <time>2020-08-27T08:24:53.000Z</time>
      </trkpt>
      <trkpt lat="47.30359" lon="-2.41151">
        <ele>2.2000000476837</ele>
        <time>2020-08-27T08:24:59.000Z</time>
      </trkpt>
      <trkpt lat="47.30376" lon="-2.41157">
        <ele>2.2000000476837</ele>
        <time>2020-08-27T08:25:02.000Z</time>
      </trkpt>
      <trkpt lat="47.30393" lon="-2.41158">
        <ele>2.2000000476837</ele>
        <time>2020-08-27T08:25:05.000Z</time>
      </trkpt>
      <trkpt lat="47.30426" lon="-2.41156">
        <ele>2.2000000476837</ele>
        <time>2020-08-27T08:25:11.000Z</time>
      </trkpt>
      <trkpt lat="47.30432" lon="-2.41157">
        <ele>2.2000000476837</ele>
        <time>2020-08-27T08:25:12.000Z</time>
      </trkpt>
      <trkpt lat="47.3045" lon="-2.41171">
        <ele>2.2000000476837</ele>
        <time>2020-08-27T08:25:16.000Z</time>
      </trkpt>
      <trkpt lat="47.30454" lon="-2.41194">
        <ele>2.2000000476837</ele>
        <time>2020-08-27T08:25:19.000Z</time>
      </trkpt>
      <trkpt lat="47.30455" lon="-2.41203">
        <ele>2.2000000476837</ele>
        <time>2020-08-27T08:25:20.000Z</time>
      </trkpt>
      <trkpt lat="47.30461" lon="-2.41255">
        <ele>2.2000000476837</ele>
        <time>2020-08-27T08:25:26.000Z</time>
      </trkpt>
      <trkpt lat="47.30475" lon="-2.41314">
        <ele>2.2000000476837</ele>
        <time>2020-08-27T08:25:33.000Z</time>
      </trkpt>
      <trkpt lat="47.30476" lon="-2.41322">
        <ele>2.2000000476837</ele>
        <time>2020-08-27T08:25:34.000Z</time>
      </trkpt>
      <trkpt lat="47.30485" lon="-2.41363">
        <ele>2.2000000476837</ele>
        <time>2020-08-27T08:25:39.000Z</time>
      </trkpt>
      <trkpt lat="47.30501" lon="-2.41434">
        <ele>2.2000000476837</ele>
        <time>2020-08-27T08:25:48.000Z</time>
      </trkpt>
      <trkpt lat="47.30504" lon="-2.4145">
        <ele>2.2000000476837</ele>
        <time>2020-08-27T08:25:50.000Z</time>
      </trkpt>
      <trkpt lat="47.30501" lon="-2.41466">
        <ele>2.2000000476837</ele>
        <time>2020-08-27T08:25:52.000Z</time>
      </trkpt>
      <trkpt lat="47.30489" lon="-2.41494">
        <ele>2.2000000476837</ele>
        <time>2020-08-27T08:25:56.000Z</time>
      </trkpt>
      <trkpt lat="47.30485" lon="-2.41509">
        <ele>2.2000000476837</ele>
        <time>2020-08-27T08:25:58.000Z</time>
      </trkpt>
      <trkpt lat="47.30484" lon="-2.41526">
        <ele>2.2000000476837</ele>
        <time>2020-08-27T08:26:00.000Z</time>
      </trkpt>
      <trkpt lat="47.30491" lon="-2.41551">
        <ele>2.2000000476837</ele>
        <time>2020-08-27T08:26:03.000Z</time>
      </trkpt>
      <trkpt lat="47.30494" lon="-2.41558">
        <ele>2.2000000476837</ele>
        <time>2020-08-27T08:26:04.000Z</time>
      </trkpt>
      <trkpt lat="47.30497" lon="-2.41565">
        <ele>2.2000000476837</ele>
        <time>2020-08-27T08:26:05.000Z</time>
      </trkpt>
      <trkpt lat="47.30501" lon="-2.41588">
        <ele>2.2000000476837</ele>
        <time>2020-08-27T08:26:08.000Z</time>
      </trkpt>
      <trkpt lat="47.30506" lon="-2.41631">
        <ele>2.2000000476837</ele>
        <time>2020-08-27T08:26:13.000Z</time>
      </trkpt>
      <trkpt lat="47.3051" lon="-2.41647">
        <ele>2.2000000476837</ele>
        <time>2020-08-27T08:26:15.000Z</time>
      </trkpt>
      <trkpt lat="47.30515" lon="-2.41663">
        <ele>2.2000000476837</ele>
        <time>2020-08-27T08:26:17.000Z</time>
      </trkpt>
      <trkpt lat="47.30527" lon="-2.41683">
        <ele>2.2000000476837</ele>
        <time>2020-08-27T08:26:20.000Z</time>
      </trkpt>
      <trkpt lat="47.30531" lon="-2.41689">
        <ele>2.2000000476837</ele>
        <time>2020-08-27T08:26:21.000Z</time>
      </trkpt>
      <trkpt lat="47.30565" lon="-2.41738">
        <ele>2.2000000476837</ele>
        <time>2020-08-27T08:26:29.000Z</time>
      </trkpt>
      <trkpt lat="47.30582" lon="-2.41773">
        <ele>2.2000000476837</ele>
        <time>2020-08-27T08:26:34.000Z</time>
      </trkpt>
      <trkpt lat="47.30588" lon="-2.41788">
        <ele>2.2000000476837</ele>
        <time>2020-08-27T08:26:36.000Z</time>
      </trkpt>
      <trkpt lat="47.30608" lon="-2.4184">
        <ele>2.2000000476837</ele>
        <time>2020-08-27T08:26:43.000Z</time>
      </trkpt>
      <trkpt lat="47.30637" lon="-2.41906">
        <ele>2.2000000476837</ele>
        <time>2020-08-27T08:26:52.000Z</time>
      </trkpt>
      <trkpt lat="47.30646" lon="-2.41947">
        <ele>2.2000000476837</ele>
        <time>2020-08-27T08:26:57.000Z</time>
      </trkpt>
      <trkpt lat="47.30652" lon="-2.41963">
        <ele>2.2000000476837</ele>
        <time>2020-08-27T08:26:59.000Z</time>
      </trkpt>
      <trkpt lat="47.30659" lon="-2.41978">
        <ele>2.2000000476837</ele>
        <time>2020-08-27T08:27:01.000Z</time>
      </trkpt>
      <trkpt lat="47.30668" lon="-2.41991">
        <ele>2.2000000476837</ele>
        <time>2020-08-27T08:27:03.000Z</time>
      </trkpt>
      <trkpt lat="47.30686" lon="-2.42015">
        <ele>2.2000000476837</ele>
        <time>2020-08-27T08:27:07.000Z</time>
      </trkpt>
      <trkpt lat="47.3069" lon="-2.4202">
        <ele>2.2000000476837</ele>
        <time>2020-08-27T08:27:08.000Z</time>
      </trkpt>
      <trkpt lat="47.30707" lon="-2.42038">
        <ele>2.2000000476837</ele>
        <time>2020-08-27T08:27:12.000Z</time>
      </trkpt>
      <trkpt lat="47.30735" lon="-2.42061">
        <ele>2.2000000476837</ele>
        <time>2020-08-27T08:27:18.000Z</time>
      </trkpt>
      <trkpt lat="47.3074" lon="-2.42066">
        <ele>2.2000000476837</ele>
        <time>2020-08-27T08:27:19.000Z</time>
      </trkpt>
      <trkpt lat="47.30747" lon="-2.42078">
        <ele>2.2000000476837</ele>
        <time>2020-08-27T08:27:21.000Z</time>
      </trkpt>
      <trkpt lat="47.30761" lon="-2.42104">
        <ele>2.2000000476837</ele>
        <time>2020-08-27T08:27:25.000Z</time>
      </trkpt>
      <trkpt lat="47.30792" lon="-2.42164">
        <ele>2.2000000476837</ele>
        <time>2020-08-27T08:27:34.000Z</time>
      </trkpt>
      <trkpt lat="47.30807" lon="-2.42189">
        <ele>2.2000000476837</ele>
        <time>2020-08-27T08:27:38.000Z</time>
      </trkpt>
      <trkpt lat="47.30817" lon="-2.422">
        <ele>2.2000000476837</ele>
        <time>2020-08-27T08:27:40.000Z</time>
      </trkpt>
      <trkpt lat="47.30838" lon="-2.42207">
        <ele>2.2000000476837</ele>
        <time>2020-08-27T08:27:44.000Z</time>
      </trkpt>
      <trkpt lat="47.30847" lon="-2.42207">
        <ele>2.2000000476837</ele>
        <time>2020-08-27T08:27:46.000Z</time>
      </trkpt>
      <trkpt lat="47.30858" lon="-2.42207">
        <ele>2.2000000476837</ele>
        <time>2020-08-27T08:27:49.000Z</time>
      </trkpt>
      <trkpt lat="47.30867" lon="-2.42201">
        <ele>2.2000000476837</ele>
        <time>2020-08-27T08:27:52.000Z</time>
      </trkpt>
      <trkpt lat="47.30873" lon="-2.42203">
        <ele>2.2000000476837</ele>
        <time>2020-08-27T08:27:54.000Z</time>
      </trkpt>
      <trkpt lat="47.30883" lon="-2.42216">
        <ele>2.2000000476837</ele>
        <time>2020-08-27T08:27:57.000Z</time>
      </trkpt>
      <trkpt lat="47.30886" lon="-2.42222">
        <ele>2.2000000476837</ele>
        <time>2020-08-27T08:27:58.000Z</time>
      </trkpt>
      <trkpt lat="47.30906" lon="-2.42247">
        <ele>2.2000000476837</ele>
        <time>2020-08-27T08:28:03.000Z</time>
      </trkpt>
      <trkpt lat="47.30916" lon="-2.42254">
        <ele>2.2000000476837</ele>
        <time>2020-08-27T08:28:05.000Z</time>
      </trkpt>
      <trkpt lat="47.30932" lon="-2.42265">
        <ele>2.2000000476837</ele>
        <time>2020-08-27T08:28:08.000Z</time>
      </trkpt>
      <trkpt lat="47.30941" lon="-2.42277">
        <ele>2.2000000476837</ele>
        <time>2020-08-27T08:28:10.000Z</time>
      </trkpt>
      <trkpt lat="47.30952" lon="-2.42308">
        <ele>2.2000000476837</ele>
        <time>2020-08-27T08:28:14.000Z</time>
      </trkpt>
      <trkpt lat="47.30965" lon="-2.42377">
        <ele>2.2000000476837</ele>
        <time>2020-08-27T08:28:22.000Z</time>
      </trkpt>
      <trkpt lat="47.30978" lon="-2.42434">
        <ele>2.2000000476837</ele>
        <time>2020-08-27T08:28:29.000Z</time>
      </trkpt>
      <trkpt lat="47.30993" lon="-2.42488">
        <ele>2.2000000476837</ele>
        <time>2020-08-27T08:28:36.000Z</time>
      </trkpt>
      <trkpt lat="47.31009" lon="-2.42561">
        <ele>2.2000000476837</ele>
        <time>2020-08-27T08:28:45.000Z</time>
      </trkpt>
      <trkpt lat="47.31024" lon="-2.42627">
        <ele>2.2000000476837</ele>
        <time>2020-08-27T08:28:53.000Z</time>
      </trkpt>
      <trkpt lat="47.3104" lon="-2.42691">
        <ele>2.2000000476837</ele>
        <time>2020-08-27T08:29:01.000Z</time>
      </trkpt>
      <trkpt lat="47.31047" lon="-2.42721">
        <ele>2.2000000476837</ele>
        <time>2020-08-27T08:29:05.000Z</time>
      </trkpt>
      <trkpt lat="47.31045" lon="-2.42737">
        <ele>2.2000000476837</ele>
        <time>2020-08-27T08:29:07.000Z</time>
      </trkpt>
      <trkpt lat="47.31032" lon="-2.42753">
        <ele>2.2000000476837</ele>
        <time>2020-08-27T08:29:10.000Z</time>
      </trkpt>
      <trkpt lat="47.31008" lon="-2.42757">
        <ele>2.5999999046326</ele>
        <time>2020-08-27T08:29:14.000Z</time>
      </trkpt>
      <trkpt lat="47.31002" lon="-2.42758">
        <ele>3</ele>
        <time>2020-08-27T08:29:15.000Z</time>
      </trkpt>
      <trkpt lat="47.30996" lon="-2.42758">
        <ele>3.4000000953674</ele>
        <time>2020-08-27T08:29:16.000Z</time>
      </trkpt>
      <trkpt lat="47.30991" lon="-2.42759">
        <ele>3.7999999523163</ele>
        <time>2020-08-27T08:29:17.000Z</time>
      </trkpt>
      <trkpt lat="47.30985" lon="-2.4276">
        <ele>4.1999998092651</ele>
        <time>2020-08-27T08:29:18.000Z</time>
      </trkpt>
      <trkpt lat="47.30961" lon="-2.42762">
        <ele>4.1999998092651</ele>
        <time>2020-08-27T08:29:22.000Z</time>
      </trkpt>
      <trkpt lat="47.3091" lon="-2.4277">
        <ele>4.1999998092651</ele>
        <time>2020-08-27T08:29:31.000Z</time>
      </trkpt>
      <trkpt lat="47.30904" lon="-2.4277">
        <ele>4.1999998092651</ele>
        <time>2020-08-27T08:29:32.000Z</time>
      </trkpt>
      <trkpt lat="47.30876" lon="-2.42774">
        <ele>4.1999998092651</ele>
        <time>2020-08-27T08:29:37.000Z</time>
      </trkpt>
      <trkpt lat="47.30824" lon="-2.42781">
        <ele>4.1999998092651</ele>
        <time>2020-08-27T08:29:46.000Z</time>
      </trkpt>
      <trkpt lat="47.30795" lon="-2.42785">
        <ele>3.7999999523163</ele>
        <time>2020-08-27T08:29:51.000Z</time>
      </trkpt>
      <trkpt lat="47.30789" lon="-2.42786">
        <ele>3.4000000953674</ele>
        <time>2020-08-27T08:29:52.000Z</time>
      </trkpt>
      <trkpt lat="47.30784" lon="-2.42787">
        <ele>3</ele>
        <time>2020-08-27T08:29:53.000Z</time>
      </trkpt>
      <trkpt lat="47.30778" lon="-2.42788">
        <ele>2.5999999046326</ele>
        <time>2020-08-27T08:29:54.000Z</time>
      </trkpt>
      <trkpt lat="47.30773" lon="-2.42789">
        <ele>2.2000000476837</ele>
        <time>2020-08-27T08:29:55.000Z</time>
      </trkpt>
      <trkpt lat="47.30738" lon="-2.42796">
        <ele>2.2000000476837</ele>
        <time>2020-08-27T08:30:01.000Z</time>
      </trkpt>
      <trkpt lat="47.30711" lon="-2.42815">
        <ele>2.2000000476837</ele>
        <time>2020-08-27T08:30:06.000Z</time>
      </trkpt>
      <trkpt lat="47.30669" lon="-2.42849">
        <ele>2.2000000476837</ele>
        <time>2020-08-27T08:30:14.000Z</time>
      </trkpt>
      <trkpt lat="47.30617" lon="-2.42893">
        <ele>2.2000000476837</ele>
        <time>2020-08-27T08:30:24.000Z</time>
      </trkpt>
      <trkpt lat="47.30582" lon="-2.42922">
        <ele>2.2000000476837</ele>
        <time>2020-08-27T08:30:31.000Z</time>
      </trkpt>
      <trkpt lat="47.30541" lon="-2.42955">
        <ele>2.2000000476837</ele>
        <time>2020-08-27T08:30:39.000Z</time>
      </trkpt>
      <trkpt lat="47.30504" lon="-2.42985">
        <ele>2.2000000476837</ele>
        <time>2020-08-27T08:30:46.000Z</time>
      </trkpt>
      <trkpt lat="47.3047" lon="-2.43015">
        <ele>2.2000000476837</ele>
        <time>2020-08-27T08:30:53.000Z</time>
      </trkpt>
      <trkpt lat="47.30435" lon="-2.43044">
        <ele>2.2000000476837</ele>
        <time>2020-08-27T08:31:00.000Z</time>
      </trkpt>
      <trkpt lat="47.30403" lon="-2.43058">
        <ele>2.2000000476837</ele>
        <time>2020-08-27T08:31:06.000Z</time>
      </trkpt>
      <trkpt lat="47.30371" lon="-2.43064">
        <ele>2.2000000476837</ele>
        <time>2020-08-27T08:31:12.000Z</time>
      </trkpt>
      <trkpt lat="47.30335" lon="-2.43069">
        <ele>2.2000000476837</ele>
        <time>2020-08-27T08:31:19.000Z</time>
      </trkpt>
      <trkpt lat="47.30311" lon="-2.43074">
        <ele>2.2000000476837</ele>
        <time>2020-08-27T08:31:25.000Z</time>
      </trkpt>
      <trkpt lat="47.30297" lon="-2.43077">
        <ele>1.7999999523163</ele>
        <time>2020-08-27T08:31:29.000Z</time>
      </trkpt>
      <trkpt lat="47.30294" lon="-2.43077">
        <ele>1.3999999761581</ele>
        <time>2020-08-27T08:31:30.000Z</time>
      </trkpt>
      <trkpt lat="47.30291" lon="-2.43077">
        <ele>0.80000001192093</ele>
        <time>2020-08-27T08:31:31.000Z</time>
      </trkpt>
      <trkpt lat="47.30289" lon="-2.43076">
        <ele>0.40000000596046</ele>
        <time>2020-08-27T08:31:32.000Z</time>
      </trkpt>
      <trkpt lat="47.30286" lon="-2.43075">
        <ele>3</ele>
        <time>2020-08-27T08:31:33.000Z</time>
      </trkpt>
      <trkpt lat="47.30274" lon="-2.43068">
        <ele>3</ele>
        <time>2020-08-27T08:31:40.000Z</time>
      </trkpt>
      <trkpt lat="47.30271" lon="-2.43068">
        <ele>3</ele>
        <time>2020-08-27T08:31:42.000Z</time>
      </trkpt>
      <trkpt lat="47.30267" lon="-2.43069">
        <ele>3</ele>
        <time>2020-08-27T08:31:45.000Z</time>
      </trkpt>
      <trkpt lat="47.30266" lon="-2.4307">
        <ele>3</ele>
        <time>2020-08-27T08:31:47.000Z</time>
      </trkpt>
      <trkpt lat="47.30263" lon="-2.43071">
        <ele>3</ele>
        <time>2020-08-27T08:37:14.000Z</time>
      </trkpt>
      <trkpt lat="47.3026" lon="-2.43073">
        <ele>3</ele>
        <time>2020-08-27T08:37:16.000Z</time>
      </trkpt>
      <trkpt lat="47.3025" lon="-2.43071">
        <ele>3</ele>
        <time>2020-08-27T08:37:23.000Z</time>
      </trkpt>
      <trkpt lat="47.30234" lon="-2.43071">
        <ele>3</ele>
        <time>2020-08-27T08:37:28.000Z</time>
      </trkpt>
      <trkpt lat="47.30212" lon="-2.43066">
        <ele>3</ele>
        <time>2020-08-27T08:37:34.000Z</time>
      </trkpt>
      <trkpt lat="47.30201" lon="-2.43057">
        <ele>3</ele>
        <time>2020-08-27T08:37:37.000Z</time>
      </trkpt>
      <trkpt lat="47.30192" lon="-2.43045">
        <ele>3</ele>
        <time>2020-08-27T08:37:40.000Z</time>
      </trkpt>
      <trkpt lat="47.30174" lon="-2.43016">
        <ele>3</ele>
        <time>2020-08-27T08:37:47.000Z</time>
      </trkpt>
      <trkpt lat="47.30161" lon="-2.42995">
        <ele>3</ele>
        <time>2020-08-27T08:37:52.000Z</time>
      </trkpt>
      <trkpt lat="47.30157" lon="-2.42994">
        <ele>3</ele>
        <time>2020-08-27T08:37:53.000Z</time>
      </trkpt>
      <trkpt lat="47.30145" lon="-2.42997">
        <ele>3</ele>
        <time>2020-08-27T08:37:56.000Z</time>
      </trkpt>
      <trkpt lat="47.30142" lon="-2.42999">
        <ele>3</ele>
        <time>2020-08-27T08:37:57.000Z</time>
      </trkpt>
      <trkpt lat="47.30106" lon="-2.43017">
        <ele>3</ele>
        <time>2020-08-27T08:38:06.000Z</time>
      </trkpt>
      <trkpt lat="47.30063" lon="-2.43033">
        <ele>3.1</ele>
        <time>2020-08-27T08:38:17.000Z</time>
      </trkpt>
      <trkpt lat="47.3004" lon="-2.43042">
        <ele>3.2</ele>
        <time>2020-08-27T08:38:23.000Z</time>
      </trkpt>
      <trkpt lat="47.30032" lon="-2.43044">
        <ele>3.1</ele>
        <time>2020-08-27T08:38:25.000Z</time>
      </trkpt>
      <trkpt lat="47.29995" lon="-2.43051">
        <ele>3</ele>
        <time>2020-08-27T08:38:34.000Z</time>
      </trkpt>
      <trkpt lat="47.29975" lon="-2.43061">
        <ele>3.2</ele>
        <time>2020-08-27T08:38:40.000Z</time>
      </trkpt>
      <trkpt lat="47.29955" lon="-2.43069">
        <ele>2.9</ele>
        <time>2020-08-27T08:38:45.000Z</time>
      </trkpt>
      <trkpt lat="47.29948" lon="-2.4307">
        <ele>2.6</ele>
        <time>2020-08-27T08:38:47.000Z</time>
      </trkpt>
      <trkpt lat="47.29935" lon="-2.43072">
        <ele>2.6</ele>
        <time>2020-08-27T08:38:50.000Z</time>
      </trkpt>
      <trkpt lat="47.29924" lon="-2.43078">
        <ele>2.8</ele>
        <time>2020-08-27T08:38:53.000Z</time>
      </trkpt>
      <trkpt lat="47.29891" lon="-2.43098">
        <ele>2.6</ele>
        <time>2020-08-27T08:39:02.000Z</time>
      </trkpt>
      <trkpt lat="47.29887" lon="-2.431">
        <ele>2.6</ele>
        <time>2020-08-27T08:39:03.000Z</time>
      </trkpt>
      <trkpt lat="47.29872" lon="-2.43106">
        <ele>2.8</ele>
        <time>2020-08-27T08:39:07.000Z</time>
      </trkpt>
      <trkpt lat="47.29857" lon="-2.43119">
        <ele>2.9</ele>
        <time>2020-08-27T08:39:12.000Z</time>
      </trkpt>
      <trkpt lat="47.29857" lon="-2.43124">
        <ele>2.8</ele>
        <time>2020-08-27T08:39:13.000Z</time>
      </trkpt>
      <trkpt lat="47.29855" lon="-2.43141">
        <ele>2.8</ele>
        <time>2020-08-27T08:39:16.000Z</time>
      </trkpt>
      <trkpt lat="47.29848" lon="-2.43156">
        <ele>2.8</ele>
        <time>2020-08-27T08:39:19.000Z</time>
      </trkpt>
      <trkpt lat="47.2983" lon="-2.43166">
        <ele>3</ele>
        <time>2020-08-27T08:39:24.000Z</time>
      </trkpt>
      <trkpt lat="47.29811" lon="-2.43175">
        <ele>3</ele>
        <time>2020-08-27T08:39:30.000Z</time>
      </trkpt>
      <trkpt lat="47.29796" lon="-2.43191">
        <ele>3</ele>
        <time>2020-08-27T08:39:35.000Z</time>
      </trkpt>
      <trkpt lat="47.29779" lon="-2.43194">
        <ele>3</ele>
        <time>2020-08-27T08:39:39.000Z</time>
      </trkpt>
      <trkpt lat="47.2974" lon="-2.43203">
        <ele>2.7</ele>
        <time>2020-08-27T08:39:48.000Z</time>
      </trkpt>
      <trkpt lat="47.29701" lon="-2.43214">
        <ele>2.8</ele>
        <time>2020-08-27T08:39:57.000Z</time>
      </trkpt>
      <trkpt lat="47.29693" lon="-2.43216">
        <ele>3</ele>
        <time>2020-08-27T08:39:59.000Z</time>
      </trkpt>
      <trkpt lat="47.29672" lon="-2.43221">
        <ele>3</ele>
        <time>2020-08-27T08:40:04.000Z</time>
      </trkpt>
      <trkpt lat="47.29645" lon="-2.4323">
        <ele>3.8</ele>
        <time>2020-08-27T08:40:11.000Z</time>
      </trkpt>
      <trkpt lat="47.29618" lon="-2.4324">
        <ele>4.5</ele>
        <time>2020-08-27T08:40:18.000Z</time>
      </trkpt>
      <trkpt lat="47.29597" lon="-2.43251">
        <ele>5</ele>
        <time>2020-08-27T08:40:24.000Z</time>
      </trkpt>
      <trkpt lat="47.29576" lon="-2.43264">
        <ele>5.6</ele>
        <time>2020-08-27T08:40:31.000Z</time>
      </trkpt>
      <trkpt lat="47.29575" lon="-2.43267">
        <ele>0.80000001192093</ele>
        <time>2020-08-27T08:40:32.000Z</time>
      </trkpt>
      <trkpt lat="47.29575" lon="-2.43271">
        <ele>1.2000000476837</ele>
        <time>2020-08-27T08:40:33.000Z</time>
      </trkpt>
      <trkpt lat="47.29575" lon="-2.43277">
        <ele>1.7999999523163</ele>
        <time>2020-08-27T08:40:34.000Z</time>
      </trkpt>
      <trkpt lat="47.29575" lon="-2.43282">
        <ele>2.2000000476837</ele>
        <time>2020-08-27T08:40:35.000Z</time>
      </trkpt>
      <trkpt lat="47.29577" lon="-2.43303">
        <ele>2.2000000476837</ele>
        <time>2020-08-27T08:40:39.000Z</time>
      </trkpt>
      <trkpt lat="47.29581" lon="-2.43339">
        <ele>2.2000000476837</ele>
        <time>2020-08-27T08:40:46.000Z</time>
      </trkpt>
      <trkpt lat="47.29593" lon="-2.43369">
        <ele>2.2000000476837</ele>
        <time>2020-08-27T08:40:52.000Z</time>
      </trkpt>
      <trkpt lat="47.29608" lon="-2.43409">
        <ele>2.2000000476837</ele>
        <time>2020-08-27T08:40:59.000Z</time>
      </trkpt>
      <trkpt lat="47.29619" lon="-2.43445">
        <ele>2.2000000476837</ele>
        <time>2020-08-27T08:41:05.000Z</time>
      </trkpt>
      <trkpt lat="47.2962" lon="-2.43451">
        <ele>2.2000000476837</ele>
        <time>2020-08-27T08:41:06.000Z</time>
      </trkpt>
      <trkpt lat="47.29625" lon="-2.43485">
        <ele>2.2000000476837</ele>
        <time>2020-08-27T08:41:12.000Z</time>
      </trkpt>
      <trkpt lat="47.29628" lon="-2.43507">
        <ele>2.2000000476837</ele>
        <time>2020-08-27T08:41:17.000Z</time>
      </trkpt>
      <trkpt lat="47.29628" lon="-2.43509">
        <ele>2.2000000476837</ele>
        <time>2020-08-27T08:41:20.000Z</time>
      </trkpt>
      <trkpt lat="47.29628" lon="-2.43511">
        <ele>2.2000000476837</ele>
        <time>2020-08-27T08:41:32.000Z</time>
      </trkpt>
      <trkpt lat="47.29631" lon="-2.43524">
        <ele>2.2000000476837</ele>
        <time>2020-08-27T08:41:40.000Z</time>
      </trkpt>
      <trkpt lat="47.29631" lon="-2.43525">
        <ele>2.2000000476837</ele>
        <time>2020-08-27T08:41:41.000Z</time>
      </trkpt>
      <trkpt lat="47.29632" lon="-2.43528">
        <ele>2.2000000476837</ele>
        <time>2020-08-27T08:41:47.000Z</time>
      </trkpt>
      <trkpt lat="47.29636" lon="-2.43535">
        <ele>2.2000000476837</ele>
        <time>2020-08-27T08:41:49.000Z</time>
      </trkpt>
      <trkpt lat="47.2964" lon="-2.43544">
        <ele>2.2000000476837</ele>
        <time>2020-08-27T08:41:51.000Z</time>
      </trkpt>
      <trkpt lat="47.29637" lon="-2.43555">
        <ele>2.2000000476837</ele>
        <time>2020-08-27T08:41:53.000Z</time>
      </trkpt>
      <trkpt lat="47.29624" lon="-2.43559">
        <ele>2.2000000476837</ele>
        <time>2020-08-27T08:41:56.000Z</time>
      </trkpt>
      <trkpt lat="47.29614" lon="-2.4356">
        <ele>2.2000000476837</ele>
        <time>2020-08-27T08:41:58.000Z</time>
      </trkpt>
      <trkpt lat="47.29604" lon="-2.43561">
        <ele>2.2000000476837</ele>
        <time>2020-08-27T08:42:00.000Z</time>
      </trkpt>
      <trkpt lat="47.29595" lon="-2.43563">
        <ele>2.2000000476837</ele>
        <time>2020-08-27T08:42:02.000Z</time>
      </trkpt>
      <trkpt lat="47.29551" lon="-2.43568">
        <ele>2.2000000476837</ele>
        <time>2020-08-27T08:42:11.000Z</time>
      </trkpt>
      <trkpt lat="47.29513" lon="-2.43571">
        <ele>2.2000000476837</ele>
        <time>2020-08-27T08:42:19.000Z</time>
      </trkpt>
      <trkpt lat="47.29508" lon="-2.43572">
        <ele>2.2000000476837</ele>
        <time>2020-08-27T08:42:20.000Z</time>
      </trkpt>
      <trkpt lat="47.29484" lon="-2.43578">
        <ele>2.2000000476837</ele>
        <time>2020-08-27T08:42:25.000Z</time>
      </trkpt>
      <trkpt lat="47.29441" lon="-2.43592">
        <ele>2.2000000476837</ele>
        <time>2020-08-27T08:42:34.000Z</time>
      </trkpt>
      <trkpt lat="47.29407" lon="-2.4361">
        <ele>2.2000000476837</ele>
        <time>2020-08-27T08:42:41.000Z</time>
      </trkpt>
      <trkpt lat="47.29364" lon="-2.43642">
        <ele>2.2000000476837</ele>
        <time>2020-08-27T08:42:50.000Z</time>
      </trkpt>
      <trkpt lat="47.29318" lon="-2.43681">
        <ele>2.2000000476837</ele>
        <time>2020-08-27T08:43:00.000Z</time>
      </trkpt>
      <trkpt lat="47.29278" lon="-2.43715">
        <ele>2.2000000476837</ele>
        <time>2020-08-27T08:43:09.000Z</time>
      </trkpt>
      <trkpt lat="47.29233" lon="-2.43754">
        <ele>2.2000000476837</ele>
        <time>2020-08-27T08:43:19.000Z</time>
      </trkpt>
      <trkpt lat="47.29196" lon="-2.43786">
        <ele>2.2000000476837</ele>
        <time>2020-08-27T08:43:27.000Z</time>
      </trkpt>
      <trkpt lat="47.29156" lon="-2.43823">
        <ele>2.2000000476837</ele>
        <time>2020-08-27T08:43:36.000Z</time>
      </trkpt>
      <trkpt lat="47.29112" lon="-2.43857">
        <ele>2.2000000476837</ele>
        <time>2020-08-27T08:43:46.000Z</time>
      </trkpt>
      <trkpt lat="47.29085" lon="-2.43869">
        <ele>2.2000000476837</ele>
        <time>2020-08-27T08:43:51.000Z</time>
      </trkpt>
      <trkpt lat="47.29081" lon="-2.43874">
        <ele>2.2000000476837</ele>
        <time>2020-08-27T08:43:52.000Z</time>
      </trkpt>
      <trkpt lat="47.29063" lon="-2.43889">
        <ele>2.2000000476837</ele>
        <time>2020-08-27T08:43:56.000Z</time>
      </trkpt>
      <trkpt lat="47.29049" lon="-2.43875">
        <ele>2.2000000476837</ele>
        <time>2020-08-27T08:43:59.000Z</time>
      </trkpt>
      <trkpt lat="47.29034" lon="-2.4385">
        <ele>2.2000000476837</ele>
        <time>2020-08-27T08:44:03.000Z</time>
      </trkpt>
      <trkpt lat="47.29029" lon="-2.43845">
        <ele>2.2000000476837</ele>
        <time>2020-08-27T08:44:04.000Z</time>
      </trkpt>
      <trkpt lat="47.29005" lon="-2.43827">
        <ele>2.2000000476837</ele>
        <time>2020-08-27T08:44:09.000Z</time>
      </trkpt>
      <trkpt lat="47.28968" lon="-2.43808">
        <ele>2.2000000476837</ele>
        <time>2020-08-27T08:44:17.000Z</time>
      </trkpt>
      <trkpt lat="47.28945" lon="-2.43805">
        <ele>2.2000000476837</ele>
        <time>2020-08-27T08:44:22.000Z</time>
      </trkpt>
      <trkpt lat="47.2894" lon="-2.43805">
        <ele>2.2000000476837</ele>
        <time>2020-08-27T08:44:23.000Z</time>
      </trkpt>
      <trkpt lat="47.28911" lon="-2.43809">
        <ele>2.2000000476837</ele>
        <time>2020-08-27T08:44:29.000Z</time>
      </trkpt>
      <trkpt lat="47.28906" lon="-2.43811">
        <ele>2.2000000476837</ele>
        <time>2020-08-27T08:44:30.000Z</time>
      </trkpt>
      <trkpt lat="47.28873" lon="-2.43826">
        <ele>2.2000000476837</ele>
        <time>2020-08-27T08:44:37.000Z</time>
      </trkpt>
      <trkpt lat="47.28838" lon="-2.43836">
        <ele>2.2000000476837</ele>
        <time>2020-08-27T08:44:44.000Z</time>
      </trkpt>
      <trkpt lat="47.28817" lon="-2.43831">
        <ele>2.2000000476837</ele>
        <time>2020-08-27T08:44:48.000Z</time>
      </trkpt>
      <trkpt lat="47.28812" lon="-2.43828">
        <ele>2.2000000476837</ele>
        <time>2020-08-27T08:44:49.000Z</time>
      </trkpt>
      <trkpt lat="47.28781" lon="-2.43805">
        <ele>2.2000000476837</ele>
        <time>2020-08-27T08:44:55.000Z</time>
      </trkpt>
      <trkpt lat="47.28736" lon="-2.4377">
        <ele>2.2000000476837</ele>
        <time>2020-08-27T08:45:04.000Z</time>
      </trkpt>
      <trkpt lat="47.28696" lon="-2.4374">
        <ele>2.2000000476837</ele>
        <time>2020-08-27T08:45:12.000Z</time>
      </trkpt>
      <trkpt lat="47.28663" lon="-2.43713">
        <ele>2.2000000476837</ele>
        <time>2020-08-27T08:45:19.000Z</time>
      </trkpt>
      <trkpt lat="47.28632" lon="-2.43689">
        <ele>2.2000000476837</ele>
        <time>2020-08-27T08:45:25.000Z</time>
      </trkpt>
      <trkpt lat="47.28589" lon="-2.43655">
        <ele>2.2000000476837</ele>
        <time>2020-08-27T08:45:33.000Z</time>
      </trkpt>
      <trkpt lat="47.28538" lon="-2.43616">
        <ele>2.2000000476837</ele>
        <time>2020-08-27T08:45:42.000Z</time>
      </trkpt>
      <trkpt lat="47.28516" lon="-2.43599">
        <ele>2.2000000476837</ele>
        <time>2020-08-27T08:45:46.000Z</time>
      </trkpt>
      <trkpt lat="47.2849" lon="-2.43578">
        <ele>2.2000000476837</ele>
        <time>2020-08-27T08:45:51.000Z</time>
      </trkpt>
      <trkpt lat="47.28453" lon="-2.43549">
        <ele>2.2000000476837</ele>
        <time>2020-08-27T08:45:58.000Z</time>
      </trkpt>
      <trkpt lat="47.28409" lon="-2.43513">
        <ele>1.7999999523163</ele>
        <time>2020-08-27T08:46:07.000Z</time>
      </trkpt>
      <trkpt lat="47.28404" lon="-2.43509">
        <ele>1.3999999761581</ele>
        <time>2020-08-27T08:46:08.000Z</time>
      </trkpt>
      <trkpt lat="47.28399" lon="-2.43506">
        <ele>1</ele>
        <time>2020-08-27T08:46:09.000Z</time>
      </trkpt>
      <trkpt lat="47.28394" lon="-2.43502">
        <ele>0.60000002384186</ele>
        <time>2020-08-27T08:46:10.000Z</time>
      </trkpt>
      <trkpt lat="47.28389" lon="-2.43498">
        <ele>0.20000000298023</ele>
        <time>2020-08-27T08:46:11.000Z</time>
      </trkpt>
      <trkpt lat="47.28379" lon="-2.43489">
        <ele>0.20000000298023</ele>
        <time>2020-08-27T08:46:13.000Z</time>
      </trkpt>
      <trkpt lat="47.28374" lon="-2.43486">
        <ele>0.20000000298023</ele>
        <time>2020-08-27T08:46:14.000Z</time>
      </trkpt>
      <trkpt lat="47.28344" lon="-2.43461">
        <ele>0.20000000298023</ele>
        <time>2020-08-27T08:46:20.000Z</time>
      </trkpt>
      <trkpt lat="47.28319" lon="-2.4344">
        <ele>0.20000000298023</ele>
        <time>2020-08-27T08:46:26.000Z</time>
      </trkpt>
      <trkpt lat="47.28308" lon="-2.43433">
        <ele>0.20000000298023</ele>
        <time>2020-08-27T08:46:30.000Z</time>
      </trkpt>
      <trkpt lat="47.28294" lon="-2.43423">
        <ele>0.20000000298023</ele>
        <time>2020-08-27T08:46:37.000Z</time>
      </trkpt>
      <trkpt lat="47.28288" lon="-2.43416">
        <ele>0.20000000298023</ele>
        <time>2020-08-27T08:46:44.000Z</time>
      </trkpt>
      <trkpt lat="47.28281" lon="-2.43411">
        <ele>0.20000000298023</ele>
        <time>2020-08-27T08:46:50.000Z</time>
      </trkpt>
      <trkpt lat="47.28281" lon="-2.43411">
        <ele>0.20000000298023</ele>
        <time>2020-08-27T08:46:51.000Z</time>
      </trkpt>
      <trkpt lat="47.28277" lon="-2.43406">
        <ele>0.20000000298023</ele>
        <time>2020-08-27T08:48:05.000Z</time>
      </trkpt>
      <trkpt lat="47.28275" lon="-2.43404">
        <ele>0.20000000298023</ele>
        <time>2020-08-27T08:48:06.000Z</time>
      </trkpt>
      <trkpt lat="47.28263" lon="-2.43387">
        <ele>0.20000000298023</ele>
        <time>2020-08-27T08:48:12.000Z</time>
      </trkpt>
      <trkpt lat="47.28268" lon="-2.4337">
        <ele>0.20000000298023</ele>
        <time>2020-08-27T08:48:15.000Z</time>
      </trkpt>
      <trkpt lat="47.2827" lon="-2.43364">
        <ele>0.20000000298023</ele>
        <time>2020-08-27T08:48:16.000Z</time>
      </trkpt>
      <trkpt lat="47.28274" lon="-2.43337">
        <ele>0.20000000298023</ele>
        <time>2020-08-27T08:48:21.000Z</time>
      </trkpt>
      <trkpt lat="47.28282" lon="-2.43304">
        <ele>0.20000000298023</ele>
        <time>2020-08-27T08:48:28.000Z</time>
      </trkpt>
      <trkpt lat="47.28293" lon="-2.43278">
        <ele>0.20000000298023</ele>
        <time>2020-08-27T08:48:35.000Z</time>
      </trkpt>
      <trkpt lat="47.28306" lon="-2.43264">
        <ele>0.20000000298023</ele>
        <time>2020-08-27T08:48:39.000Z</time>
      </trkpt>
      <trkpt lat="47.28312" lon="-2.43256">
        <ele>0.20000000298023</ele>
        <time>2020-08-27T08:48:41.000Z</time>
      </trkpt>
      <trkpt lat="47.28325" lon="-2.43239">
        <ele>0.20000000298023</ele>
        <time>2020-08-27T08:48:45.000Z</time>
      </trkpt>
      <trkpt lat="47.28334" lon="-2.43224">
        <ele>0.20000000298023</ele>
        <time>2020-08-27T08:48:48.000Z</time>
      </trkpt>
      <trkpt lat="47.28348" lon="-2.43207">
        <ele>0.20000000298023</ele>
        <time>2020-08-27T08:48:52.000Z</time>
      </trkpt>
      <trkpt lat="47.28373" lon="-2.43181">
        <ele>0.20000000298023</ele>
        <time>2020-08-27T08:48:59.000Z</time>
      </trkpt>
      <trkpt lat="47.28397" lon="-2.43154">
        <ele>0.20000000298023</ele>
        <time>2020-08-27T08:49:06.000Z</time>
      </trkpt>
      <trkpt lat="47.28404" lon="-2.43145">
        <ele>0.20000000298023</ele>
        <time>2020-08-27T08:49:08.000Z</time>
      </trkpt>
      <trkpt lat="47.2842" lon="-2.4312">
        <ele>0.20000000298023</ele>
        <time>2020-08-27T08:49:13.000Z</time>
      </trkpt>
      <trkpt lat="47.28439" lon="-2.43093">
        <ele>0.20000000298023</ele>
        <time>2020-08-27T08:49:19.000Z</time>
      </trkpt>
      <trkpt lat="47.28449" lon="-2.4308">
        <ele>0.20000000298023</ele>
        <time>2020-08-27T08:49:22.000Z</time>
      </trkpt>
      <trkpt lat="47.28455" lon="-2.43072">
        <ele>0.20000000298023</ele>
        <time>2020-08-27T08:49:24.000Z</time>
      </trkpt>
      <trkpt lat="47.28458" lon="-2.43067">
        <ele>0.20000000298023</ele>
        <time>2020-08-27T08:49:25.000Z</time>
      </trkpt>
      <trkpt lat="47.28469" lon="-2.43049">
        <ele>0.20000000298023</ele>
        <time>2020-08-27T08:49:29.000Z</time>
      </trkpt>
      <trkpt lat="47.28477" lon="-2.43035">
        <ele>0.20000000298023</ele>
        <time>2020-08-27T08:49:32.000Z</time>
      </trkpt>
      <trkpt lat="47.28481" lon="-2.43032">
        <ele>0.20000000298023</ele>
        <time>2020-08-27T08:49:33.000Z</time>
      </trkpt>
      <trkpt lat="47.28493" lon="-2.43028">
        <ele>0.20000000298023</ele>
        <time>2020-08-27T08:49:36.000Z</time>
      </trkpt>
      <trkpt lat="47.28502" lon="-2.43028">
        <ele>0.20000000298023</ele>
        <time>2020-08-27T08:49:38.000Z</time>
      </trkpt>
      <trkpt lat="47.28525" lon="-2.43036">
        <ele>0.20000000298023</ele>
        <time>2020-08-27T08:49:43.000Z</time>
      </trkpt>
      <trkpt lat="47.28533" lon="-2.4304">
        <ele>0.20000000298023</ele>
        <time>2020-08-27T08:49:45.000Z</time>
      </trkpt>
      <trkpt lat="47.28548" lon="-2.43055">
        <ele>0.20000000298023</ele>
        <time>2020-08-27T08:49:49.000Z</time>
      </trkpt>
      <trkpt lat="47.28554" lon="-2.43065">
        <ele>0.20000000298023</ele>
        <time>2020-08-27T08:49:51.000Z</time>
      </trkpt>
      <trkpt lat="47.28566" lon="-2.43084">
        <ele>0.20000000298023</ele>
        <time>2020-08-27T08:49:55.000Z</time>
      </trkpt>
      <trkpt lat="47.28575" lon="-2.43098">
        <ele>0.20000000298023</ele>
        <time>2020-08-27T08:49:58.000Z</time>
      </trkpt>
      <trkpt lat="47.28583" lon="-2.43114">
        <ele>0.20000000298023</ele>
        <time>2020-08-27T08:50:01.000Z</time>
      </trkpt>
      <trkpt lat="47.28584" lon="-2.43119">
        <ele>0.20000000298023</ele>
        <time>2020-08-27T08:50:02.000Z</time>
      </trkpt>
      <trkpt lat="47.28589" lon="-2.43136">
        <ele>0.20000000298023</ele>
        <time>2020-08-27T08:50:05.000Z</time>
      </trkpt>
      <trkpt lat="47.28591" lon="-2.43148">
        <ele>0.20000000298023</ele>
        <time>2020-08-27T08:50:07.000Z</time>
      </trkpt>
      <trkpt lat="47.28597" lon="-2.43189">
        <ele>0.20000000298023</ele>
        <time>2020-08-27T08:50:14.000Z</time>
      </trkpt>
      <trkpt lat="47.28599" lon="-2.43228">
        <ele>0.20000000298023</ele>
        <time>2020-08-27T08:50:21.000Z</time>
      </trkpt>
      <trkpt lat="47.286" lon="-2.43246">
        <ele>0.20000000298023</ele>
        <time>2020-08-27T08:50:24.000Z</time>
      </trkpt>
      <trkpt lat="47.28604" lon="-2.43257">
        <ele>0.20000000298023</ele>
        <time>2020-08-27T08:50:26.000Z</time>
      </trkpt>
      <trkpt lat="47.28615" lon="-2.43262">
        <ele>0.20000000298023</ele>
        <time>2020-08-27T08:50:29.000Z</time>
      </trkpt>
      <trkpt lat="47.28636" lon="-2.43255">
        <ele>0.20000000298023</ele>
        <time>2020-08-27T08:50:34.000Z</time>
      </trkpt>
      <trkpt lat="47.28652" lon="-2.43245">
        <ele>0.20000000298023</ele>
        <time>2020-08-27T08:50:38.000Z</time>
      </trkpt>
      <trkpt lat="47.28656" lon="-2.43236">
        <ele>0.20000000298023</ele>
        <time>2020-08-27T08:50:40.000Z</time>
      </trkpt>
      <trkpt lat="47.28649" lon="-2.43224">
        <ele>0.20000000298023</ele>
        <time>2020-08-27T08:50:43.000Z</time>
      </trkpt>
      <trkpt lat="47.28641" lon="-2.43209">
        <ele>0.20000000298023</ele>
        <time>2020-08-27T08:50:46.000Z</time>
      </trkpt>
      <trkpt lat="47.28636" lon="-2.43198">
        <ele>0.20000000298023</ele>
        <time>2020-08-27T08:50:48.000Z</time>
      </trkpt>
      <trkpt lat="47.28634" lon="-2.43192">
        <ele>0.20000000298023</ele>
        <time>2020-08-27T08:50:49.000Z</time>
      </trkpt>
      <trkpt lat="47.28629" lon="-2.43171">
        <ele>0.20000000298023</ele>
        <time>2020-08-27T08:50:52.000Z</time>
      </trkpt>
      <trkpt lat="47.28627" lon="-2.43148">
        <ele>0.20000000298023</ele>
        <time>2020-08-27T08:50:55.000Z</time>
      </trkpt>
      <trkpt lat="47.28627" lon="-2.4314">
        <ele>0.20000000298023</ele>
        <time>2020-08-27T08:50:56.000Z</time>
      </trkpt>
      <trkpt lat="47.28631" lon="-2.43113">
        <ele>0.20000000298023</ele>
        <time>2020-08-27T08:51:00.000Z</time>
      </trkpt>
      <trkpt lat="47.28637" lon="-2.43086">
        <ele>0.20000000298023</ele>
        <time>2020-08-27T08:51:04.000Z</time>
      </trkpt>
      <trkpt lat="47.28641" lon="-2.43076">
        <ele>0.20000000298023</ele>
        <time>2020-08-27T08:51:06.000Z</time>
      </trkpt>
      <trkpt lat="47.28644" lon="-2.43067">
        <ele>0.20000000298023</ele>
        <time>2020-08-27T08:51:08.000Z</time>
      </trkpt>
      <trkpt lat="47.28646" lon="-2.43052">
        <ele>0.20000000298023</ele>
        <time>2020-08-27T08:51:11.000Z</time>
      </trkpt>
      <trkpt lat="47.28652" lon="-2.4302">
        <ele>0.20000000298023</ele>
        <time>2020-08-27T08:51:17.000Z</time>
      </trkpt>
      <trkpt lat="47.28657" lon="-2.42992">
        <ele>0.20000000298023</ele>
        <time>2020-08-27T08:51:22.000Z</time>
      </trkpt>
      <trkpt lat="47.28663" lon="-2.42945">
        <ele>0.20000000298023</ele>
        <time>2020-08-27T08:51:30.000Z</time>
      </trkpt>
      <trkpt lat="47.28669" lon="-2.42896">
        <ele>0.20000000298023</ele>
        <time>2020-08-27T08:51:38.000Z</time>
      </trkpt>
      <trkpt lat="47.28674" lon="-2.42854">
        <ele>0.20000000298023</ele>
        <time>2020-08-27T08:51:45.000Z</time>
      </trkpt>
      <trkpt lat="47.28682" lon="-2.42824">
        <ele>0.20000000298023</ele>
        <time>2020-08-27T08:51:50.000Z</time>
      </trkpt>
      <trkpt lat="47.28685" lon="-2.42818">
        <ele>0.20000000298023</ele>
        <time>2020-08-27T08:51:51.000Z</time>
      </trkpt>
      <trkpt lat="47.28697" lon="-2.42797">
        <ele>0.20000000298023</ele>
        <time>2020-08-27T08:51:55.000Z</time>
      </trkpt>
      <trkpt lat="47.28702" lon="-2.42785">
        <ele>0.20000000298023</ele>
        <time>2020-08-27T08:51:57.000Z</time>
      </trkpt>
      <trkpt lat="47.28713" lon="-2.42762">
        <ele>0.20000000298023</ele>
        <time>2020-08-27T08:52:01.000Z</time>
      </trkpt>
      <trkpt lat="47.28717" lon="-2.42742">
        <ele>0.20000000298023</ele>
        <time>2020-08-27T08:52:04.000Z</time>
      </trkpt>
      <trkpt lat="47.28719" lon="-2.42728">
        <ele>0.20000000298023</ele>
        <time>2020-08-27T08:52:06.000Z</time>
      </trkpt>
      <trkpt lat="47.2872" lon="-2.42715">
        <ele>0.20000000298023</ele>
        <time>2020-08-27T08:52:08.000Z</time>
      </trkpt>
      <trkpt lat="47.28721" lon="-2.42695">
        <ele>0.20000000298023</ele>
        <time>2020-08-27T08:52:11.000Z</time>
      </trkpt>
      <trkpt lat="47.28719" lon="-2.42675">
        <ele>0.20000000298023</ele>
        <time>2020-08-27T08:52:14.000Z</time>
      </trkpt>
      <trkpt lat="47.28713" lon="-2.42666">
        <ele>0.20000000298023</ele>
        <time>2020-08-27T08:52:16.000Z</time>
      </trkpt>
      <trkpt lat="47.28709" lon="-2.42664">
        <ele>0.60000002384186</ele>
        <time>2020-08-27T08:52:17.000Z</time>
      </trkpt>
      <trkpt lat="47.28704" lon="-2.42662">
        <ele>1</ele>
        <time>2020-08-27T08:52:18.000Z</time>
      </trkpt>
      <trkpt lat="47.287" lon="-2.4266">
        <ele>1.3999999761581</ele>
        <time>2020-08-27T08:52:19.000Z</time>
      </trkpt>
      <trkpt lat="47.28696" lon="-2.42659">
        <ele>1.7999999523163</ele>
        <time>2020-08-27T08:52:20.000Z</time>
      </trkpt>
      <trkpt lat="47.28691" lon="-2.42658">
        <ele>2.4000000953674</ele>
        <time>2020-08-27T08:52:21.000Z</time>
      </trkpt>
      <trkpt lat="47.28674" lon="-2.42655">
        <ele>2.4000000953674</ele>
        <time>2020-08-27T08:52:25.000Z</time>
      </trkpt>
      <trkpt lat="47.28661" lon="-2.42653">
        <ele>2.4000000953674</ele>
        <time>2020-08-27T08:52:28.000Z</time>
      </trkpt>
      <trkpt lat="47.28657" lon="-2.42652">
        <ele>2.4000000953674</ele>
        <time>2020-08-27T08:52:29.000Z</time>
      </trkpt>
      <trkpt lat="47.2864" lon="-2.42646">
        <ele>2.4000000953674</ele>
        <time>2020-08-27T08:52:33.000Z</time>
      </trkpt>
      <trkpt lat="47.2862" lon="-2.42632">
        <ele>2.4000000953674</ele>
        <time>2020-08-27T08:52:38.000Z</time>
      </trkpt>
      <trkpt lat="47.28597" lon="-2.42612">
        <ele>2.4000000953674</ele>
        <time>2020-08-27T08:52:44.000Z</time>
      </trkpt>
      <trkpt lat="47.28574" lon="-2.4258">
        <ele>2.4000000953674</ele>
        <time>2020-08-27T08:52:51.000Z</time>
      </trkpt>
      <trkpt lat="47.28567" lon="-2.42561">
        <ele>2.4000000953674</ele>
        <time>2020-08-27T08:52:54.000Z</time>
      </trkpt>
      <trkpt lat="47.28565" lon="-2.42539">
        <ele>2.4000000953674</ele>
        <time>2020-08-27T08:52:57.000Z</time>
      </trkpt>
      <trkpt lat="47.28568" lon="-2.42518">
        <ele>2.4000000953674</ele>
        <time>2020-08-27T08:53:00.000Z</time>
      </trkpt>
      <trkpt lat="47.28569" lon="-2.4251">
        <ele>2.4000000953674</ele>
        <time>2020-08-27T08:53:01.000Z</time>
      </trkpt>
      <trkpt lat="47.28582" lon="-2.4248">
        <ele>2.4000000953674</ele>
        <time>2020-08-27T08:53:06.000Z</time>
      </trkpt>
      <trkpt lat="47.28586" lon="-2.42475">
        <ele>2.4000000953674</ele>
        <time>2020-08-27T08:53:07.000Z</time>
      </trkpt>
      <trkpt lat="47.28606" lon="-2.42452">
        <ele>2.4000000953674</ele>
        <time>2020-08-27T08:53:12.000Z</time>
      </trkpt>
      <trkpt lat="47.2863" lon="-2.42432">
        <ele>2.4000000953674</ele>
        <time>2020-08-27T08:53:18.000Z</time>
      </trkpt>
      <trkpt lat="47.28634" lon="-2.42428">
        <ele>2.4000000953674</ele>
        <time>2020-08-27T08:53:19.000Z</time>
      </trkpt>
      <trkpt lat="47.28652" lon="-2.42409">
        <ele>2.4000000953674</ele>
        <time>2020-08-27T08:53:24.000Z</time>
      </trkpt>
      <trkpt lat="47.28658" lon="-2.42401">
        <ele>2.4000000953674</ele>
        <time>2020-08-27T08:53:26.000Z</time>
      </trkpt>
      <trkpt lat="47.28669" lon="-2.42382">
        <ele>2.4000000953674</ele>
        <time>2020-08-27T08:53:30.000Z</time>
      </trkpt>
      <trkpt lat="47.2867" lon="-2.42375">
        <ele>2.4000000953674</ele>
        <time>2020-08-27T08:53:31.000Z</time>
      </trkpt>
      <trkpt lat="47.28672" lon="-2.42348">
        <ele>2.4000000953674</ele>
        <time>2020-08-27T08:53:35.000Z</time>
      </trkpt>
      <trkpt lat="47.28678" lon="-2.42305">
        <ele>2.4000000953674</ele>
        <time>2020-08-27T08:53:41.000Z</time>
      </trkpt>
      <trkpt lat="47.28693" lon="-2.42238">
        <ele>2.4000000953674</ele>
        <time>2020-08-27T08:53:50.000Z</time>
      </trkpt>
      <trkpt lat="47.28698" lon="-2.42224">
        <ele>2.4000000953674</ele>
        <time>2020-08-27T08:53:52.000Z</time>
      </trkpt>
      <trkpt lat="47.28708" lon="-2.42201">
        <ele>2.4000000953674</ele>
        <time>2020-08-27T08:53:56.000Z</time>
      </trkpt>
      <trkpt lat="47.28722" lon="-2.42183">
        <ele>2.4000000953674</ele>
        <time>2020-08-27T08:54:00.000Z</time>
      </trkpt>
      <trkpt lat="47.28754" lon="-2.42155">
        <ele>2.4000000953674</ele>
        <time>2020-08-27T08:54:07.000Z</time>
      </trkpt>
      <trkpt lat="47.28786" lon="-2.42136">
        <ele>2.4000000953674</ele>
        <time>2020-08-27T08:54:14.000Z</time>
      </trkpt>
      <trkpt lat="47.28794" lon="-2.42129">
        <ele>2.4000000953674</ele>
        <time>2020-08-27T08:54:16.000Z</time>
      </trkpt>
      <trkpt lat="47.28803" lon="-2.42111">
        <ele>2.4000000953674</ele>
        <time>2020-08-27T08:54:19.000Z</time>
      </trkpt>
      <trkpt lat="47.2881" lon="-2.42073">
        <ele>2.4000000953674</ele>
        <time>2020-08-27T08:54:24.000Z</time>
      </trkpt>
      <trkpt lat="47.28807" lon="-2.42043">
        <ele>2.4000000953674</ele>
        <time>2020-08-27T08:54:28.000Z</time>
      </trkpt>
      <trkpt lat="47.28805" lon="-2.42035">
        <ele>2.4000000953674</ele>
        <time>2020-08-27T08:54:29.000Z</time>
      </trkpt>
      <trkpt lat="47.28795" lon="-2.41986">
        <ele>2.4000000953674</ele>
        <time>2020-08-27T08:54:36.000Z</time>
      </trkpt>
      <trkpt lat="47.28792" lon="-2.41941">
        <ele>2.4000000953674</ele>
        <time>2020-08-27T08:54:42.000Z</time>
      </trkpt>
      <trkpt lat="47.28791" lon="-2.41926">
        <ele>2.4000000953674</ele>
        <time>2020-08-27T08:54:44.000Z</time>
      </trkpt>
      <trkpt lat="47.28785" lon="-2.41905">
        <ele>2.4000000953674</ele>
        <time>2020-08-27T08:54:47.000Z</time>
      </trkpt>
      <trkpt lat="47.28769" lon="-2.41886">
        <ele>2.4000000953674</ele>
        <time>2020-08-27T08:54:51.000Z</time>
      </trkpt>
      <trkpt lat="47.28764" lon="-2.41882">
        <ele>2.4000000953674</ele>
        <time>2020-08-27T08:54:52.000Z</time>
      </trkpt>
      <trkpt lat="47.28759" lon="-2.4188">
        <ele>2.4000000953674</ele>
        <time>2020-08-27T08:54:53.000Z</time>
      </trkpt>
      <trkpt lat="47.28745" lon="-2.41874">
        <ele>2.4000000953674</ele>
        <time>2020-08-27T08:54:56.000Z</time>
      </trkpt>
      <trkpt lat="47.28713" lon="-2.41854">
        <ele>2.4000000953674</ele>
        <time>2020-08-27T08:55:03.000Z</time>
      </trkpt>
      <trkpt lat="47.28681" lon="-2.41826">
        <ele>2.4000000953674</ele>
        <time>2020-08-27T08:55:11.000Z</time>
      </trkpt>
      <trkpt lat="47.28648" lon="-2.418">
        <ele>2.4000000953674</ele>
        <time>2020-08-27T08:55:19.000Z</time>
      </trkpt>
      <trkpt lat="47.28621" lon="-2.41772">
        <ele>2.4000000953674</ele>
        <time>2020-08-27T08:55:26.000Z</time>
      </trkpt>
      <trkpt lat="47.28591" lon="-2.41743">
        <ele>2.4000000953674</ele>
        <time>2020-08-27T08:55:33.000Z</time>
      </trkpt>
      <trkpt lat="47.28581" lon="-2.41738">
        <ele>2.4000000953674</ele>
        <time>2020-08-27T08:55:35.000Z</time>
      </trkpt>
      <trkpt lat="47.28569" lon="-2.41733">
        <ele>2.4000000953674</ele>
        <time>2020-08-27T08:55:38.000Z</time>
      </trkpt>
      <trkpt lat="47.28564" lon="-2.41731">
        <ele>2.4000000953674</ele>
        <time>2020-08-27T08:55:39.000Z</time>
      </trkpt>
      <trkpt lat="47.28542" lon="-2.41733">
        <ele>2.4000000953674</ele>
        <time>2020-08-27T08:55:44.000Z</time>
      </trkpt>
      <trkpt lat="47.28526" lon="-2.41749">
        <ele>2.4000000953674</ele>
        <time>2020-08-27T08:55:48.000Z</time>
      </trkpt>
      <trkpt lat="47.28522" lon="-2.41768">
        <ele>2.4000000953674</ele>
        <time>2020-08-27T08:55:51.000Z</time>
      </trkpt>
      <trkpt lat="47.28521" lon="-2.41775">
        <ele>2.4000000953674</ele>
        <time>2020-08-27T08:55:52.000Z</time>
      </trkpt>
      <trkpt lat="47.28514" lon="-2.41818">
        <ele>2.4000000953674</ele>
        <time>2020-08-27T08:55:59.000Z</time>
      </trkpt>
      <trkpt lat="47.28507" lon="-2.41866">
        <ele>2.4000000953674</ele>
        <time>2020-08-27T08:56:07.000Z</time>
      </trkpt>
      <trkpt lat="47.28499" lon="-2.41912">
        <ele>2.4000000953674</ele>
        <time>2020-08-27T08:56:15.000Z</time>
      </trkpt>
      <trkpt lat="47.28497" lon="-2.41934">
        <ele>2.4000000953674</ele>
        <time>2020-08-27T08:56:20.000Z</time>
      </trkpt>
      <trkpt lat="47.28498" lon="-2.41935">
        <ele>2.4000000953674</ele>
        <time>2020-08-27T08:56:22.000Z</time>
      </trkpt>
      <trkpt lat="47.28502" lon="-2.41939">
        <ele>2.4000000953674</ele>
        <time>2020-08-27T08:57:10.000Z</time>
      </trkpt>
      <trkpt lat="47.285" lon="-2.4194">
        <ele>2.4000000953674</ele>
        <time>2020-08-27T08:57:11.000Z</time>
      </trkpt>
      <trkpt lat="47.28494" lon="-2.41942">
        <ele>2.4000000953674</ele>
        <time>2020-08-27T08:57:14.000Z</time>
      </trkpt>
      <trkpt lat="47.28492" lon="-2.41944">
        <ele>1.7999999523163</ele>
        <time>2020-08-27T08:57:15.000Z</time>
      </trkpt>
      <trkpt lat="47.28491" lon="-2.41949">
        <ele>1.3999999761581</ele>
        <time>2020-08-27T08:57:16.000Z</time>
      </trkpt>
      <trkpt lat="47.28491" lon="-2.41954">
        <ele>1</ele>
        <time>2020-08-27T08:57:17.000Z</time>
      </trkpt>
      <trkpt lat="47.28491" lon="-2.41958">
        <ele>0.60000002384186</ele>
        <time>2020-08-27T08:57:18.000Z</time>
      </trkpt>
      <trkpt lat="47.2849" lon="-2.41963">
        <ele>0.20000000298023</ele>
        <time>2020-08-27T08:57:19.000Z</time>
      </trkpt>
      <trkpt lat="47.28488" lon="-2.4197">
        <ele>0.20000000298023</ele>
        <time>2020-08-27T08:57:21.000Z</time>
      </trkpt>
      <trkpt lat="47.28487" lon="-2.41975">
        <ele>0.20000000298023</ele>
        <time>2020-08-27T08:57:22.000Z</time>
      </trkpt>
      <trkpt lat="47.28482" lon="-2.42004">
        <ele>0.20000000298023</ele>
        <time>2020-08-27T08:57:28.000Z</time>
      </trkpt>
      <trkpt lat="47.28476" lon="-2.42053">
        <ele>0.20000000298023</ele>
        <time>2020-08-27T08:57:37.000Z</time>
      </trkpt>
      <trkpt lat="47.2847" lon="-2.42093">
        <ele>0.20000000298023</ele>
        <time>2020-08-27T08:57:44.000Z</time>
      </trkpt>
      <trkpt lat="47.28462" lon="-2.42142">
        <ele>0.20000000298023</ele>
        <time>2020-08-27T08:57:53.000Z</time>
      </trkpt>
      <trkpt lat="47.28461" lon="-2.42172">
        <ele>0.20000000298023</ele>
        <time>2020-08-27T08:57:58.000Z</time>
      </trkpt>
      <trkpt lat="47.28459" lon="-2.42177">
        <ele>0.20000000298023</ele>
        <time>2020-08-27T08:57:59.000Z</time>
      </trkpt>
      <trkpt lat="47.28452" lon="-2.42193">
        <ele>0.20000000298023</ele>
        <time>2020-08-27T08:58:02.000Z</time>
      </trkpt>
      <trkpt lat="47.28451" lon="-2.422">
        <ele>0.20000000298023</ele>
        <time>2020-08-27T08:58:03.000Z</time>
      </trkpt>
      <trkpt lat="47.28448" lon="-2.42216">
        <ele>0.20000000298023</ele>
        <time>2020-08-27T08:58:06.000Z</time>
      </trkpt>
      <trkpt lat="47.28452" lon="-2.42233">
        <ele>0.20000000298023</ele>
        <time>2020-08-27T08:58:09.000Z</time>
      </trkpt>
      <trkpt lat="47.28447" lon="-2.42256">
        <ele>0.20000000298023</ele>
        <time>2020-08-27T08:58:13.000Z</time>
      </trkpt>
      <trkpt lat="47.28434" lon="-2.42282">
        <ele>0.20000000298023</ele>
        <time>2020-08-27T08:58:19.000Z</time>
      </trkpt>
      <trkpt lat="47.28421" lon="-2.42287">
        <ele>0.20000000298023</ele>
        <time>2020-08-27T08:58:23.000Z</time>
      </trkpt>
      <trkpt lat="47.28419" lon="-2.42292">
        <ele>0.20000000298023</ele>
        <time>2020-08-27T08:58:24.000Z</time>
      </trkpt>
      <trkpt lat="47.28417" lon="-2.42303">
        <ele>0.20000000298023</ele>
        <time>2020-08-27T08:58:26.000Z</time>
      </trkpt>
      <trkpt lat="47.28411" lon="-2.4235">
        <ele>0.20000000298023</ele>
        <time>2020-08-27T08:58:33.000Z</time>
      </trkpt>
      <trkpt lat="47.28404" lon="-2.42394">
        <ele>0.20000000298023</ele>
        <time>2020-08-27T08:58:39.000Z</time>
      </trkpt>
      <trkpt lat="47.28395" lon="-2.42453">
        <ele>0.20000000298023</ele>
        <time>2020-08-27T08:58:47.000Z</time>
      </trkpt>
      <trkpt lat="47.28387" lon="-2.42513">
        <ele>0.20000000298023</ele>
        <time>2020-08-27T08:58:56.000Z</time>
      </trkpt>
      <trkpt lat="47.28378" lon="-2.42545">
        <ele>0.20000000298023</ele>
        <time>2020-08-27T08:59:01.000Z</time>
      </trkpt>
      <trkpt lat="47.28375" lon="-2.4255">
        <ele>0.20000000298023</ele>
        <time>2020-08-27T08:59:02.000Z</time>
      </trkpt>
      <trkpt lat="47.28357" lon="-2.42557">
        <ele>0.20000000298023</ele>
        <time>2020-08-27T08:59:06.000Z</time>
      </trkpt>
      <trkpt lat="47.28348" lon="-2.42557">
        <ele>0.20000000298023</ele>
        <time>2020-08-27T08:59:08.000Z</time>
      </trkpt>
      <trkpt lat="47.28344" lon="-2.42559">
        <ele>0.20000000298023</ele>
        <time>2020-08-27T08:59:09.000Z</time>
      </trkpt>
      <trkpt lat="47.28336" lon="-2.42565">
        <ele>0.20000000298023</ele>
        <time>2020-08-27T08:59:11.000Z</time>
      </trkpt>
      <trkpt lat="47.2833" lon="-2.42572">
        <ele>0.20000000298023</ele>
        <time>2020-08-27T08:59:13.000Z</time>
      </trkpt>
      <trkpt lat="47.28326" lon="-2.42575">
        <ele>0.20000000298023</ele>
        <time>2020-08-27T08:59:15.000Z</time>
      </trkpt>
      <trkpt lat="47.28323" lon="-2.42577">
        <ele>0.60000002384186</ele>
        <time>2020-08-27T08:59:16.000Z</time>
      </trkpt>
      <trkpt lat="47.2832" lon="-2.42578">
        <ele>1</ele>
        <time>2020-08-27T08:59:17.000Z</time>
      </trkpt>
      <trkpt lat="47.28317" lon="-2.42579">
        <ele>1.3999999761581</ele>
        <time>2020-08-27T08:59:18.000Z</time>
      </trkpt>
      <trkpt lat="47.28314" lon="-2.42581">
        <ele>1.7999999523163</ele>
        <time>2020-08-27T08:59:19.000Z</time>
      </trkpt>
      <trkpt lat="47.2831" lon="-2.42582">
        <ele>2.2000000476837</ele>
        <time>2020-08-27T08:59:20.000Z</time>
      </trkpt>
      <trkpt lat="47.28292" lon="-2.42587">
        <ele>2.2000000476837</ele>
        <time>2020-08-27T08:59:25.000Z</time>
      </trkpt>
      <trkpt lat="47.28278" lon="-2.42598">
        <ele>2.2000000476837</ele>
        <time>2020-08-27T08:59:29.000Z</time>
      </trkpt>
      <trkpt lat="47.28275" lon="-2.42602">
        <ele>2.2000000476837</ele>
        <time>2020-08-27T08:59:30.000Z</time>
      </trkpt>
      <trkpt lat="47.28259" lon="-2.42621">
        <ele>2.2000000476837</ele>
        <time>2020-08-27T08:59:37.000Z</time>
      </trkpt>
      <trkpt lat="47.28243" lon="-2.42637">
        <ele>2.2000000476837</ele>
        <time>2020-08-27T08:59:44.000Z</time>
      </trkpt>
      <trkpt lat="47.28225" lon="-2.42656">
        <ele>2.2000000476837</ele>
        <time>2020-08-27T08:59:52.000Z</time>
      </trkpt>
      <trkpt lat="47.2821" lon="-2.42677">
        <ele>2.2000000476837</ele>
        <time>2020-08-27T09:00:00.000Z</time>
      </trkpt>
      <trkpt lat="47.28203" lon="-2.42693">
        <ele>2.2000000476837</ele>
        <time>2020-08-27T09:00:05.000Z</time>
      </trkpt>
      <trkpt lat="47.28193" lon="-2.42704">
        <ele>2.2000000476837</ele>
        <time>2020-08-27T09:00:08.000Z</time>
      </trkpt>
      <trkpt lat="47.28189" lon="-2.42708">
        <ele>2.2000000476837</ele>
        <time>2020-08-27T09:00:10.000Z</time>
      </trkpt>
      <trkpt lat="47.28187" lon="-2.42705">
        <ele>2.2000000476837</ele>
        <time>2020-08-27T09:00:11.000Z</time>
      </trkpt>
      <trkpt lat="47.28175" lon="-2.42688">
        <ele>2.2000000476837</ele>
        <time>2020-08-27T09:00:17.000Z</time>
      </trkpt>
      <trkpt lat="47.2816" lon="-2.42665">
        <ele>2.2000000476837</ele>
        <time>2020-08-27T09:00:23.000Z</time>
      </trkpt>
      <trkpt lat="47.28148" lon="-2.42642">
        <ele>2.2000000476837</ele>
        <time>2020-08-27T09:00:29.000Z</time>
      </trkpt>
      <trkpt lat="47.28134" lon="-2.42616">
        <ele>2.2000000476837</ele>
        <time>2020-08-27T09:00:35.000Z</time>
      </trkpt>
      <trkpt lat="47.28117" lon="-2.42585">
        <ele>2.2000000476837</ele>
        <time>2020-08-27T09:00:42.000Z</time>
      </trkpt>
      <trkpt lat="47.28101" lon="-2.4256">
        <ele>2.2000000476837</ele>
        <time>2020-08-27T09:00:49.000Z</time>
      </trkpt>
      <trkpt lat="47.28102" lon="-2.42547">
        <ele>2.2000000476837</ele>
        <time>2020-08-27T09:00:53.000Z</time>
      </trkpt>
      <trkpt lat="47.28114" lon="-2.42544">
        <ele>2.2000000476837</ele>
        <time>2020-08-27T09:00:57.000Z</time>
      </trkpt>
      <trkpt lat="47.28138" lon="-2.42541">
        <ele>2.2000000476837</ele>
        <time>2020-08-27T09:01:04.000Z</time>
      </trkpt>
      <trkpt lat="47.28164" lon="-2.42534">
        <ele>2.2000000476837</ele>
        <time>2020-08-27T09:01:12.000Z</time>
      </trkpt>
      <trkpt lat="47.28184" lon="-2.42533">
        <ele>2.2000000476837</ele>
        <time>2020-08-27T09:01:19.000Z</time>
      </trkpt>
      <trkpt lat="47.28196" lon="-2.42531">
        <ele>2.2000000476837</ele>
        <time>2020-08-27T09:01:23.000Z</time>
      </trkpt>
      <trkpt lat="47.28198" lon="-2.42529">
        <ele>2.2000000476837</ele>
        <time>2020-08-27T09:01:24.000Z</time>
      </trkpt>
      <trkpt lat="47.28206" lon="-2.42516">
        <ele>2.2000000476837</ele>
        <time>2020-08-27T09:01:27.000Z</time>
      </trkpt>
      <trkpt lat="47.28209" lon="-2.42512">
        <ele>2.2000000476837</ele>
        <time>2020-08-27T09:01:28.000Z</time>
      </trkpt>
      <trkpt lat="47.2823" lon="-2.4248">
        <ele>2.2000000476837</ele>
        <time>2020-08-27T09:01:35.000Z</time>
      </trkpt>
      <trkpt lat="47.28233" lon="-2.42475">
        <ele>2.2000000476837</ele>
        <time>2020-08-27T09:01:36.000Z</time>
      </trkpt>
      <trkpt lat="47.28252" lon="-2.42432">
        <ele>2.2000000476837</ele>
        <time>2020-08-27T09:01:44.000Z</time>
      </trkpt>
      <trkpt lat="47.28263" lon="-2.42385">
        <ele>2.2000000476837</ele>
        <time>2020-08-27T09:01:52.000Z</time>
      </trkpt>
      <trkpt lat="47.28268" lon="-2.42345">
        <ele>2.2000000476837</ele>
        <time>2020-08-27T09:02:00.000Z</time>
      </trkpt>
      <trkpt lat="47.28271" lon="-2.42327">
        <ele>2.2000000476837</ele>
        <time>2020-08-27T09:02:04.000Z</time>
      </trkpt>
      <trkpt lat="47.28269" lon="-2.423">
        <ele>2.2000000476837</ele>
        <time>2020-08-27T09:02:10.000Z</time>
      </trkpt>
      <trkpt lat="47.28276" lon="-2.42259">
        <ele>2.2000000476837</ele>
        <time>2020-08-27T09:02:18.000Z</time>
      </trkpt>
      <trkpt lat="47.28284" lon="-2.42219">
        <ele>2.2000000476837</ele>
        <time>2020-08-27T09:02:25.000Z</time>
      </trkpt>
      <trkpt lat="47.2829" lon="-2.42184">
        <ele>2.2000000476837</ele>
        <time>2020-08-27T09:02:33.000Z</time>
      </trkpt>
      <trkpt lat="47.28294" lon="-2.42172">
        <ele>2.2000000476837</ele>
        <time>2020-08-27T09:02:38.000Z</time>
      </trkpt>
      <trkpt lat="47.28293" lon="-2.42168">
        <ele>2.2000000476837</ele>
        <time>2020-08-27T09:16:18.000Z</time>
      </trkpt>
      <trkpt lat="47.28292" lon="-2.42161">
        <ele>2.2000000476837</ele>
        <time>2020-08-27T09:16:21.000Z</time>
      </trkpt>
      <trkpt lat="47.28293" lon="-2.42158">
        <ele>2.2000000476837</ele>
        <time>2020-08-27T09:16:22.000Z</time>
      </trkpt>
      <trkpt lat="47.28296" lon="-2.42137">
        <ele>2.2000000476837</ele>
        <time>2020-08-27T09:16:29.000Z</time>
      </trkpt>
      <trkpt lat="47.283" lon="-2.42106">
        <ele>2.2000000476837</ele>
        <time>2020-08-27T09:16:37.000Z</time>
      </trkpt>
      <trkpt lat="47.28304" lon="-2.42079">
        <ele>2.2000000476837</ele>
        <time>2020-08-27T09:16:44.000Z</time>
      </trkpt>
      <trkpt lat="47.28306" lon="-2.4205">
        <ele>2.2000000476837</ele>
        <time>2020-08-27T09:16:49.000Z</time>
      </trkpt>
      <trkpt lat="47.28317" lon="-2.41998">
        <ele>2.2000000476837</ele>
        <time>2020-08-27T09:16:58.000Z</time>
      </trkpt>
      <trkpt lat="47.28331" lon="-2.41941">
        <ele>2.2000000476837</ele>
        <time>2020-08-27T09:17:08.000Z</time>
      </trkpt>
      <trkpt lat="47.28339" lon="-2.41913">
        <ele>2.2000000476837</ele>
        <time>2020-08-27T09:17:13.000Z</time>
      </trkpt>
      <trkpt lat="47.2834" lon="-2.41907">
        <ele>2.2000000476837</ele>
        <time>2020-08-27T09:17:14.000Z</time>
      </trkpt>
      <trkpt lat="47.28346" lon="-2.41884">
        <ele>2.2000000476837</ele>
        <time>2020-08-27T09:17:18.000Z</time>
      </trkpt>
      <trkpt lat="47.28351" lon="-2.41867">
        <ele>2.2000000476837</ele>
        <time>2020-08-27T09:17:21.000Z</time>
      </trkpt>
      <trkpt lat="47.28362" lon="-2.4182">
        <ele>2.2000000476837</ele>
        <time>2020-08-27T09:17:29.000Z</time>
      </trkpt>
      <trkpt lat="47.28376" lon="-2.4176">
        <ele>2.2000000476837</ele>
        <time>2020-08-27T09:17:39.000Z</time>
      </trkpt>
      <trkpt lat="47.28388" lon="-2.41713">
        <ele>2.2000000476837</ele>
        <time>2020-08-27T09:17:47.000Z</time>
      </trkpt>
      <trkpt lat="47.28398" lon="-2.41666">
        <ele>2.2000000476837</ele>
        <time>2020-08-27T09:17:55.000Z</time>
      </trkpt>
      <trkpt lat="47.28404" lon="-2.41615">
        <ele>2.2000000476837</ele>
        <time>2020-08-27T09:18:03.000Z</time>
      </trkpt>
      <trkpt lat="47.2841" lon="-2.41561">
        <ele>2.2000000476837</ele>
        <time>2020-08-27T09:18:12.000Z</time>
      </trkpt>
      <trkpt lat="47.28414" lon="-2.41522">
        <ele>2.2000000476837</ele>
        <time>2020-08-27T09:18:19.000Z</time>
      </trkpt>
      <trkpt lat="47.28418" lon="-2.41469">
        <ele>2.2000000476837</ele>
        <time>2020-08-27T09:18:28.000Z</time>
      </trkpt>
      <trkpt lat="47.28426" lon="-2.41418">
        <ele>2.2000000476837</ele>
        <time>2020-08-27T09:18:37.000Z</time>
      </trkpt>
      <trkpt lat="47.2844" lon="-2.41369">
        <ele>2.2000000476837</ele>
        <time>2020-08-27T09:18:46.000Z</time>
      </trkpt>
      <trkpt lat="47.28451" lon="-2.41331">
        <ele>2.2000000476837</ele>
        <time>2020-08-27T09:18:53.000Z</time>
      </trkpt>
      <trkpt lat="47.28457" lon="-2.41298">
        <ele>2.2000000476837</ele>
        <time>2020-08-27T09:18:59.000Z</time>
      </trkpt>
      <trkpt lat="47.28455" lon="-2.41269">
        <ele>2.2000000476837</ele>
        <time>2020-08-27T09:19:04.000Z</time>
      </trkpt>
      <trkpt lat="47.28449" lon="-2.41261">
        <ele>2.2000000476837</ele>
        <time>2020-08-27T09:19:06.000Z</time>
      </trkpt>
      <trkpt lat="47.2844" lon="-2.41257">
        <ele>2.2000000476837</ele>
        <time>2020-08-27T09:19:08.000Z</time>
      </trkpt>
      <trkpt lat="47.28431" lon="-2.41254">
        <ele>2.2000000476837</ele>
        <time>2020-08-27T09:19:10.000Z</time>
      </trkpt>
      <trkpt lat="47.28413" lon="-2.41245">
        <ele>2.2000000476837</ele>
        <time>2020-08-27T09:19:14.000Z</time>
      </trkpt>
      <trkpt lat="47.28404" lon="-2.41238">
        <ele>2.2000000476837</ele>
        <time>2020-08-27T09:19:18.000Z</time>
      </trkpt>
      <trkpt lat="47.28387" lon="-2.41233">
        <ele>2.2000000476837</ele>
        <time>2020-08-27T09:19:24.000Z</time>
      </trkpt>
      <trkpt lat="47.28367" lon="-2.41223">
        <ele>2.2000000476837</ele>
        <time>2020-08-27T09:19:30.000Z</time>
      </trkpt>
      <trkpt lat="47.28364" lon="-2.41211">
        <ele>2.2000000476837</ele>
        <time>2020-08-27T09:19:33.000Z</time>
      </trkpt>
      <trkpt lat="47.28364" lon="-2.41207">
        <ele>2.2000000476837</ele>
        <time>2020-08-27T09:19:34.000Z</time>
      </trkpt>
      <trkpt lat="47.2837" lon="-2.41188">
        <ele>2.2000000476837</ele>
        <time>2020-08-27T09:19:38.000Z</time>
      </trkpt>
      <trkpt lat="47.28373" lon="-2.41179">
        <ele>2.2000000476837</ele>
        <time>2020-08-27T09:19:40.000Z</time>
      </trkpt>
      <trkpt lat="47.28373" lon="-2.41174">
        <ele>2.2000000476837</ele>
        <time>2020-08-27T09:19:42.000Z</time>
      </trkpt>
      <trkpt lat="47.28372" lon="-2.41174">
        <ele>2.2000000476837</ele>
        <time>2020-08-27T09:19:43.000Z</time>
      </trkpt>
      <trkpt lat="47.28368" lon="-2.41163">
        <ele>2.2000000476837</ele>
        <time>2020-08-27T09:19:48.000Z</time>
      </trkpt>
      <trkpt lat="47.2837" lon="-2.41136">
        <ele>2.2000000476837</ele>
        <time>2020-08-27T09:19:54.000Z</time>
      </trkpt>
      <trkpt lat="47.28382" lon="-2.41102">
        <ele>2.2000000476837</ele>
        <time>2020-08-27T09:20:01.000Z</time>
      </trkpt>
      <trkpt lat="47.28382" lon="-2.41094">
        <ele>2.2000000476837</ele>
        <time>2020-08-27T09:20:03.000Z</time>
      </trkpt>
      <trkpt lat="47.28379" lon="-2.41089">
        <ele>2.2000000476837</ele>
        <time>2020-08-27T09:20:05.000Z</time>
      </trkpt>
      <trkpt lat="47.28366" lon="-2.41081">
        <ele>2.2000000476837</ele>
        <time>2020-08-27T09:20:09.000Z</time>
      </trkpt>
      <trkpt lat="47.28362" lon="-2.41079">
        <ele>2.2000000476837</ele>
        <time>2020-08-27T09:20:10.000Z</time>
      </trkpt>
      <trkpt lat="47.28359" lon="-2.41077">
        <ele>2.2000000476837</ele>
        <time>2020-08-27T09:20:11.000Z</time>
      </trkpt>
      <trkpt lat="47.28334" lon="-2.41063">
        <ele>2.2000000476837</ele>
        <time>2020-08-27T09:20:19.000Z</time>
      </trkpt>
      <trkpt lat="47.28309" lon="-2.41052">
        <ele>2.2000000476837</ele>
        <time>2020-08-27T09:20:26.000Z</time>
      </trkpt>
      <trkpt lat="47.2829" lon="-2.41042">
        <ele>2.2000000476837</ele>
        <time>2020-08-27T09:20:32.000Z</time>
      </trkpt>
      <trkpt lat="47.28265" lon="-2.41026">
        <ele>2.2000000476837</ele>
        <time>2020-08-27T09:20:40.000Z</time>
      </trkpt>
      <trkpt lat="47.28256" lon="-2.41016">
        <ele>2.2000000476837</ele>
        <time>2020-08-27T09:20:44.000Z</time>
      </trkpt>
      <trkpt lat="47.28256" lon="-2.41011">
        <ele>2.2000000476837</ele>
        <time>2020-08-27T09:20:45.000Z</time>
      </trkpt>
      <trkpt lat="47.28254" lon="-2.40996">
        <ele>2.2000000476837</ele>
        <time>2020-08-27T09:20:49.000Z</time>
      </trkpt>
      <trkpt lat="47.28248" lon="-2.40991">
        <ele>2.2000000476837</ele>
        <time>2020-08-27T09:20:53.000Z</time>
      </trkpt>
      <trkpt lat="47.28239" lon="-2.40978">
        <ele>2.2000000476837</ele>
        <time>2020-08-27T09:20:57.000Z</time>
      </trkpt>
      <trkpt lat="47.2824" lon="-2.40957">
        <ele>2.2000000476837</ele>
        <time>2020-08-27T09:21:01.000Z</time>
      </trkpt>
      <trkpt lat="47.28241" lon="-2.40953">
        <ele>2.2000000476837</ele>
        <time>2020-08-27T09:21:02.000Z</time>
      </trkpt>
      <trkpt lat="47.28253" lon="-2.40922">
        <ele>2.2000000476837</ele>
        <time>2020-08-27T09:21:09.000Z</time>
      </trkpt>
      <trkpt lat="47.28261" lon="-2.409">
        <ele>2.2000000476837</ele>
        <time>2020-08-27T09:21:15.000Z</time>
      </trkpt>
      <trkpt lat="47.28262" lon="-2.40893">
        <ele>2.2000000476837</ele>
        <time>2020-08-27T09:21:17.000Z</time>
      </trkpt>
      <trkpt lat="47.28259" lon="-2.40889">
        <ele>2.2000000476837</ele>
        <time>2020-08-27T09:21:19.000Z</time>
      </trkpt>
      <trkpt lat="47.28254" lon="-2.40881">
        <ele>2.2000000476837</ele>
        <time>2020-08-27T09:21:22.000Z</time>
      </trkpt>
      <trkpt lat="47.28251" lon="-2.40873">
        <ele>2.2000000476837</ele>
        <time>2020-08-27T09:21:24.000Z</time>
      </trkpt>
      <trkpt lat="47.28239" lon="-2.4086">
        <ele>2.2000000476837</ele>
        <time>2020-08-27T09:21:28.000Z</time>
      </trkpt>
      <trkpt lat="47.28233" lon="-2.40856">
        <ele>2.2000000476837</ele>
        <time>2020-08-27T09:21:29.000Z</time>
      </trkpt>
      <trkpt lat="47.28224" lon="-2.40848">
        <ele>2.2000000476837</ele>
        <time>2020-08-27T09:21:31.000Z</time>
      </trkpt>
      <trkpt lat="47.28215" lon="-2.4084">
        <ele>2.2000000476837</ele>
        <time>2020-08-27T09:21:33.000Z</time>
      </trkpt>
      <trkpt lat="47.28211" lon="-2.40836">
        <ele>2.2000000476837</ele>
        <time>2020-08-27T09:21:34.000Z</time>
      </trkpt>
      <trkpt lat="47.28199" lon="-2.40826">
        <ele>2.2000000476837</ele>
        <time>2020-08-27T09:21:37.000Z</time>
      </trkpt>
      <trkpt lat="47.28191" lon="-2.40818">
        <ele>2.2000000476837</ele>
        <time>2020-08-27T09:21:39.000Z</time>
      </trkpt>
      <trkpt lat="47.28188" lon="-2.40815">
        <ele>2.2000000476837</ele>
        <time>2020-08-27T09:21:40.000Z</time>
      </trkpt>
      <trkpt lat="47.28166" lon="-2.40797">
        <ele>2.2000000476837</ele>
        <time>2020-08-27T09:21:46.000Z</time>
      </trkpt>
      <trkpt lat="47.2814" lon="-2.40781">
        <ele>2.2000000476837</ele>
        <time>2020-08-27T09:21:53.000Z</time>
      </trkpt>
      <trkpt lat="47.28135" lon="-2.4077">
        <ele>2.2000000476837</ele>
        <time>2020-08-27T09:21:56.000Z</time>
      </trkpt>
      <trkpt lat="47.28135" lon="-2.40766">
        <ele>2.2000000476837</ele>
        <time>2020-08-27T09:21:57.000Z</time>
      </trkpt>
      <trkpt lat="47.28138" lon="-2.40746">
        <ele>2.2000000476837</ele>
        <time>2020-08-27T09:22:02.000Z</time>
      </trkpt>
      <trkpt lat="47.28138" lon="-2.40741">
        <ele>2.2000000476837</ele>
        <time>2020-08-27T09:22:04.000Z</time>
      </trkpt>
      <trkpt lat="47.28137" lon="-2.40738">
        <ele>2.2000000476837</ele>
        <time>2020-08-27T09:22:06.000Z</time>
      </trkpt>
      <trkpt lat="47.28133" lon="-2.40736">
        <ele>2.2000000476837</ele>
        <time>2020-08-27T09:22:09.000Z</time>
      </trkpt>
      <trkpt lat="47.28131" lon="-2.40736">
        <ele>2.2000000476837</ele>
        <time>2020-08-27T09:22:10.000Z</time>
      </trkpt>
      <trkpt lat="47.28126" lon="-2.40733">
        <ele>2.2000000476837</ele>
        <time>2020-08-27T09:22:12.000Z</time>
      </trkpt>
      <trkpt lat="47.28119" lon="-2.40727">
        <ele>2.2000000476837</ele>
        <time>2020-08-27T09:22:15.000Z</time>
      </trkpt>
      <trkpt lat="47.28112" lon="-2.40724">
        <ele>2.2000000476837</ele>
        <time>2020-08-27T09:22:18.000Z</time>
      </trkpt>
      <trkpt lat="47.281" lon="-2.40717">
        <ele>2.5999999046326</ele>
        <time>2020-08-27T09:22:23.000Z</time>
      </trkpt>
      <trkpt lat="47.28097" lon="-2.40716">
        <ele>3</ele>
        <time>2020-08-27T09:22:24.000Z</time>
      </trkpt>
      <trkpt lat="47.28094" lon="-2.40714">
        <ele>3.4000000953674</ele>
        <time>2020-08-27T09:22:25.000Z</time>
      </trkpt>
      <trkpt lat="47.28091" lon="-2.40713">
        <ele>3.7999999523163</ele>
        <time>2020-08-27T09:22:26.000Z</time>
      </trkpt>
      <trkpt lat="47.28088" lon="-2.40712">
        <ele>4.1999998092651</ele>
        <time>2020-08-27T09:22:27.000Z</time>
      </trkpt>
      <trkpt lat="47.2808" lon="-2.40709">
        <ele>4.1999998092651</ele>
        <time>2020-08-27T09:22:31.000Z</time>
      </trkpt>
      <trkpt lat="47.28077" lon="-2.40707">
        <ele>4.1999998092651</ele>
        <time>2020-08-27T09:22:36.000Z</time>
      </trkpt>
      <trkpt lat="47.28076" lon="-2.40705">
        <ele>4.1999998092651</ele>
        <time>2020-08-27T09:22:37.000Z</time>
      </trkpt>
      <trkpt lat="47.28069" lon="-2.40697">
        <ele>4.1999998092651</ele>
        <time>2020-08-27T09:22:41.000Z</time>
      </trkpt>
      <trkpt lat="47.28061" lon="-2.40681">
        <ele>4.1999998092651</ele>
        <time>2020-08-27T09:22:46.000Z</time>
      </trkpt>
      <trkpt lat="47.28057" lon="-2.40653">
        <ele>4.1999998092651</ele>
        <time>2020-08-27T09:22:52.000Z</time>
      </trkpt>
      <trkpt lat="47.2805" lon="-2.40624">
        <ele>4.1999998092651</ele>
        <time>2020-08-27T09:22:58.000Z</time>
      </trkpt>
      <trkpt lat="47.28052" lon="-2.40603">
        <ele>4.1999998092651</ele>
        <time>2020-08-27T09:23:03.000Z</time>
      </trkpt>
      <trkpt lat="47.28055" lon="-2.40584">
        <ele>4.1999998092651</ele>
        <time>2020-08-27T09:23:08.000Z</time>
      </trkpt>
      <trkpt lat="47.28066" lon="-2.40531">
        <ele>4.1999998092651</ele>
        <time>2020-08-27T09:23:17.000Z</time>
      </trkpt>
      <trkpt lat="47.28075" lon="-2.40486">
        <ele>4.1999998092651</ele>
        <time>2020-08-27T09:23:24.000Z</time>
      </trkpt>
      <trkpt lat="47.28088" lon="-2.40463">
        <ele>4.1999998092651</ele>
        <time>2020-08-27T09:23:28.000Z</time>
      </trkpt>
      <trkpt lat="47.28092" lon="-2.40458">
        <ele>4.1999998092651</ele>
        <time>2020-08-27T09:23:29.000Z</time>
      </trkpt>
      <trkpt lat="47.28108" lon="-2.40424">
        <ele>4.1999998092651</ele>
        <time>2020-08-27T09:23:34.000Z</time>
      </trkpt>
      <trkpt lat="47.28109" lon="-2.40417">
        <ele>4.1999998092651</ele>
        <time>2020-08-27T09:23:35.000Z</time>
      </trkpt>
      <trkpt lat="47.28118" lon="-2.40363">
        <ele>4.1999998092651</ele>
        <time>2020-08-27T09:23:42.000Z</time>
      </trkpt>
      <trkpt lat="47.28126" lon="-2.40297">
        <ele>4.1999998092651</ele>
        <time>2020-08-27T09:23:50.000Z</time>
      </trkpt>
      <trkpt lat="47.2813" lon="-2.40259">
        <ele>4.1999998092651</ele>
        <time>2020-08-27T09:23:56.000Z</time>
      </trkpt>
      <trkpt lat="47.28131" lon="-2.40253">
        <ele>4.1999998092651</ele>
        <time>2020-08-27T09:24:00.000Z</time>
      </trkpt>
      <trkpt lat="47.28131" lon="-2.40254">
        <ele>4.1999998092651</ele>
        <time>2020-08-27T09:24:01.000Z</time>
      </trkpt>
      <trkpt lat="47.28132" lon="-2.4025">
        <ele>4.1999998092651</ele>
        <time>2020-08-27T09:24:30.000Z</time>
      </trkpt>
      <trkpt lat="47.28132" lon="-2.40244">
        <ele>4.1999998092651</ele>
        <time>2020-08-27T09:24:32.000Z</time>
      </trkpt>
      <trkpt lat="47.28135" lon="-2.40216">
        <ele>4.1999998092651</ele>
        <time>2020-08-27T09:24:37.000Z</time>
      </trkpt>
      <trkpt lat="47.28141" lon="-2.40157">
        <ele>4.1999998092651</ele>
        <time>2020-08-27T09:24:45.000Z</time>
      </trkpt>
      <trkpt lat="47.28146" lon="-2.40102">
        <ele>4.1999998092651</ele>
        <time>2020-08-27T09:24:52.000Z</time>
      </trkpt>
      <trkpt lat="47.28153" lon="-2.40032">
        <ele>4.1999998092651</ele>
        <time>2020-08-27T09:25:01.000Z</time>
      </trkpt>
      <trkpt lat="47.28154" lon="-2.4001">
        <ele>4.1999998092651</ele>
        <time>2020-08-27T09:25:04.000Z</time>
      </trkpt>
      <trkpt lat="47.28156" lon="-2.39986">
        <ele>4.1999998092651</ele>
        <time>2020-08-27T09:25:07.000Z</time>
      </trkpt>
      <trkpt lat="47.28159" lon="-2.39953">
        <ele>4.1999998092651</ele>
        <time>2020-08-27T09:25:11.000Z</time>
      </trkpt>
      <trkpt lat="47.28159" lon="-2.39944">
        <ele>4.1999998092651</ele>
        <time>2020-08-27T09:25:12.000Z</time>
      </trkpt>
      <trkpt lat="47.28164" lon="-2.39885">
        <ele>4.1999998092651</ele>
        <time>2020-08-27T09:25:18.000Z</time>
      </trkpt>
      <trkpt lat="47.2817" lon="-2.39805">
        <ele>4.1999998092651</ele>
        <time>2020-08-27T09:25:26.000Z</time>
      </trkpt>
      <trkpt lat="47.2817" lon="-2.39795">
        <ele>4.1999998092651</ele>
        <time>2020-08-27T09:25:27.000Z</time>
      </trkpt>
      <trkpt lat="47.28175" lon="-2.39718">
        <ele>4.1999998092651</ele>
        <time>2020-08-27T09:25:35.000Z</time>
      </trkpt>
      <trkpt lat="47.28176" lon="-2.39641">
        <ele>4.1999998092651</ele>
        <time>2020-08-27T09:25:43.000Z</time>
      </trkpt>
      <trkpt lat="47.2818" lon="-2.39555">
        <ele>4.1999998092651</ele>
        <time>2020-08-27T09:25:52.000Z</time>
      </trkpt>
      <trkpt lat="47.28181" lon="-2.39475">
        <ele>4.1999998092651</ele>
        <time>2020-08-27T09:26:00.000Z</time>
      </trkpt>
      <trkpt lat="47.28179" lon="-2.39407">
        <ele>4.1999998092651</ele>
        <time>2020-08-27T09:26:07.000Z</time>
      </trkpt>
      <trkpt lat="47.28178" lon="-2.39336">
        <ele>4.1999998092651</ele>
        <time>2020-08-27T09:26:15.000Z</time>
      </trkpt>
      <trkpt lat="47.28177" lon="-2.3927">
        <ele>4.1999998092651</ele>
        <time>2020-08-27T09:26:23.000Z</time>
      </trkpt>
      <trkpt lat="47.28175" lon="-2.39203">
        <ele>4.1999998092651</ele>
        <time>2020-08-27T09:26:32.000Z</time>
      </trkpt>
      <trkpt lat="47.28171" lon="-2.39139">
        <ele>4.1999998092651</ele>
        <time>2020-08-27T09:26:40.000Z</time>
      </trkpt>
      <trkpt lat="47.28164" lon="-2.39062">
        <ele>4.1999998092651</ele>
        <time>2020-08-27T09:26:49.000Z</time>
      </trkpt>
      <trkpt lat="47.28157" lon="-2.38983">
        <ele>4.1999998092651</ele>
        <time>2020-08-27T09:26:58.000Z</time>
      </trkpt>
      <trkpt lat="47.28152" lon="-2.38956">
        <ele>4.1999998092651</ele>
        <time>2020-08-27T09:27:01.000Z</time>
      </trkpt>
      <trkpt lat="47.28145" lon="-2.3893">
        <ele>4.1999998092651</ele>
        <time>2020-08-27T09:27:04.000Z</time>
      </trkpt>
      <trkpt lat="47.28133" lon="-2.38866">
        <ele>4.1999998092651</ele>
        <time>2020-08-27T09:27:11.000Z</time>
      </trkpt>
      <trkpt lat="47.28127" lon="-2.38792">
        <ele>4.1999998092651</ele>
        <time>2020-08-27T09:27:19.000Z</time>
      </trkpt>
      <trkpt lat="47.28119" lon="-2.3872">
        <ele>4.1999998092651</ele>
        <time>2020-08-27T09:27:27.000Z</time>
      </trkpt>
      <trkpt lat="47.28114" lon="-2.38662">
        <ele>4.1999998092651</ele>
        <time>2020-08-27T09:27:34.000Z</time>
      </trkpt>
      <trkpt lat="47.28112" lon="-2.38649">
        <ele>4.1999998092651</ele>
        <time>2020-08-27T09:27:36.000Z</time>
      </trkpt>
      <trkpt lat="47.28111" lon="-2.38634">
        <ele>4.1999998092651</ele>
        <time>2020-08-27T09:27:39.000Z</time>
      </trkpt>
      <trkpt lat="47.28109" lon="-2.38611">
        <ele>4.1999998092651</ele>
        <time>2020-08-27T09:27:45.000Z</time>
      </trkpt>
      <trkpt lat="47.28107" lon="-2.38578">
        <ele>4.1999998092651</ele>
        <time>2020-08-27T09:27:51.000Z</time>
      </trkpt>
      <trkpt lat="47.281" lon="-2.38532">
        <ele>4.1999998092651</ele>
        <time>2020-08-27T09:27:57.000Z</time>
      </trkpt>
      <trkpt lat="47.28088" lon="-2.38457">
        <ele>4.1999998092651</ele>
        <time>2020-08-27T09:28:06.000Z</time>
      </trkpt>
      <trkpt lat="47.28074" lon="-2.38383">
        <ele>4.1999998092651</ele>
        <time>2020-08-27T09:28:15.000Z</time>
      </trkpt>
      <trkpt lat="47.28061" lon="-2.38311">
        <ele>4.1999998092651</ele>
        <time>2020-08-27T09:28:24.000Z</time>
      </trkpt>
      <trkpt lat="47.28048" lon="-2.3824">
        <ele>4.1999998092651</ele>
        <time>2020-08-27T09:28:33.000Z</time>
      </trkpt>
      <trkpt lat="47.28036" lon="-2.38175">
        <ele>4.1999998092651</ele>
        <time>2020-08-27T09:28:41.000Z</time>
      </trkpt>
      <trkpt lat="47.28022" lon="-2.38101">
        <ele>4.1999998092651</ele>
        <time>2020-08-27T09:28:50.000Z</time>
      </trkpt>
      <trkpt lat="47.28011" lon="-2.38042">
        <ele>4.1999998092651</ele>
        <time>2020-08-27T09:28:57.000Z</time>
      </trkpt>
      <trkpt lat="47.27999" lon="-2.37979">
        <ele>4.1999998092651</ele>
        <time>2020-08-27T09:29:05.000Z</time>
      </trkpt>
      <trkpt lat="47.27986" lon="-2.37905">
        <ele>4.1999998092651</ele>
        <time>2020-08-27T09:29:15.000Z</time>
      </trkpt>
      <trkpt lat="47.27983" lon="-2.3789">
        <ele>4.1999998092651</ele>
        <time>2020-08-27T09:29:17.000Z</time>
      </trkpt>
      <trkpt lat="47.27978" lon="-2.37868">
        <ele>4.1999998092651</ele>
        <time>2020-08-27T09:29:20.000Z</time>
      </trkpt>
      <trkpt lat="47.27977" lon="-2.3786">
        <ele>4.1999998092651</ele>
        <time>2020-08-27T09:29:21.000Z</time>
      </trkpt>
      <trkpt lat="47.27973" lon="-2.3783">
        <ele>4.1999998092651</ele>
        <time>2020-08-27T09:29:25.000Z</time>
      </trkpt>
      <trkpt lat="47.27969" lon="-2.37816">
        <ele>4.1999998092651</ele>
        <time>2020-08-27T09:29:27.000Z</time>
      </trkpt>
      <trkpt lat="47.27967" lon="-2.37809">
        <ele>4.1999998092651</ele>
        <time>2020-08-27T09:29:28.000Z</time>
      </trkpt>
      <trkpt lat="47.27964" lon="-2.37786">
        <ele>4.1999998092651</ele>
        <time>2020-08-27T09:29:31.000Z</time>
      </trkpt>
      <trkpt lat="47.27958" lon="-2.37764">
        <ele>4.1999998092651</ele>
        <time>2020-08-27T09:29:34.000Z</time>
      </trkpt>
      <trkpt lat="47.27956" lon="-2.37757">
        <ele>4.1999998092651</ele>
        <time>2020-08-27T09:29:35.000Z</time>
      </trkpt>
      <trkpt lat="47.27945" lon="-2.37712">
        <ele>4.1999998092651</ele>
        <time>2020-08-27T09:29:41.000Z</time>
      </trkpt>
      <trkpt lat="47.27933" lon="-2.37656">
        <ele>4.1999998092651</ele>
        <time>2020-08-27T09:29:48.000Z</time>
      </trkpt>
      <trkpt lat="47.27929" lon="-2.37638">
        <ele>4.8000001907349</ele>
        <time>2020-08-27T09:29:50.000Z</time>
      </trkpt>
      <trkpt lat="47.27927" lon="-2.3763">
        <ele>5.1999998092651</ele>
        <time>2020-08-27T09:29:51.000Z</time>
      </trkpt>
      <trkpt lat="47.27925" lon="-2.37621">
        <ele>5.5999999046326</ele>
        <time>2020-08-27T09:29:52.000Z</time>
      </trkpt>
      <trkpt lat="47.27923" lon="-2.37612">
        <ele>6</ele>
        <time>2020-08-27T09:29:53.000Z</time>
      </trkpt>
      <trkpt lat="47.27921" lon="-2.37604">
        <ele>6.4000000953674</ele>
        <time>2020-08-27T09:29:54.000Z</time>
      </trkpt>
      <trkpt lat="47.27916" lon="-2.37577">
        <ele>6.4000000953674</ele>
        <time>2020-08-27T09:29:57.000Z</time>
      </trkpt>
      <trkpt lat="47.27899" lon="-2.37512">
        <ele>6.4000000953674</ele>
        <time>2020-08-27T09:30:05.000Z</time>
      </trkpt>
      <trkpt lat="47.27882" lon="-2.37446">
        <ele>6.4000000953674</ele>
        <time>2020-08-27T09:30:14.000Z</time>
      </trkpt>
      <trkpt lat="47.27864" lon="-2.37375">
        <ele>6.4000000953674</ele>
        <time>2020-08-27T09:30:23.000Z</time>
      </trkpt>
      <trkpt lat="47.27846" lon="-2.37297">
        <ele>6.4000000953674</ele>
        <time>2020-08-27T09:30:32.000Z</time>
      </trkpt>
      <trkpt lat="47.27829" lon="-2.37236">
        <ele>6.4000000953674</ele>
        <time>2020-08-27T09:30:40.000Z</time>
      </trkpt>
      <trkpt lat="47.27828" lon="-2.37228">
        <ele>6.4000000953674</ele>
        <time>2020-08-27T09:30:41.000Z</time>
      </trkpt>
      <trkpt lat="47.27822" lon="-2.37206">
        <ele>6.4000000953674</ele>
        <time>2020-08-27T09:30:44.000Z</time>
      </trkpt>
      <trkpt lat="47.2782" lon="-2.37198">
        <ele>6.4000000953674</ele>
        <time>2020-08-27T09:30:45.000Z</time>
      </trkpt>
      <trkpt lat="47.27818" lon="-2.37188">
        <ele>6.4000000953674</ele>
        <time>2020-08-27T09:30:47.000Z</time>
      </trkpt>
      <trkpt lat="47.27816" lon="-2.37171">
        <ele>6.4000000953674</ele>
        <time>2020-08-27T09:30:52.000Z</time>
      </trkpt>
      <trkpt lat="47.27809" lon="-2.3715">
        <ele>6.4000000953674</ele>
        <time>2020-08-27T09:30:56.000Z</time>
      </trkpt>
      <trkpt lat="47.27796" lon="-2.37106">
        <ele>6.4000000953674</ele>
        <time>2020-08-27T09:31:02.000Z</time>
      </trkpt>
      <trkpt lat="47.27789" lon="-2.37084">
        <ele>6.4000000953674</ele>
        <time>2020-08-27T09:31:05.000Z</time>
      </trkpt>
      <trkpt lat="47.27781" lon="-2.37053">
        <ele>6.4000000953674</ele>
        <time>2020-08-27T09:31:09.000Z</time>
      </trkpt>
      <trkpt lat="47.27764" lon="-2.36989">
        <ele>6.4000000953674</ele>
        <time>2020-08-27T09:31:17.000Z</time>
      </trkpt>
      <trkpt lat="47.27748" lon="-2.36934">
        <ele>6.4000000953674</ele>
        <time>2020-08-27T09:31:24.000Z</time>
      </trkpt>
      <trkpt lat="47.27731" lon="-2.36878">
        <ele>6.4000000953674</ele>
        <time>2020-08-27T09:31:31.000Z</time>
      </trkpt>
      <trkpt lat="47.27707" lon="-2.36798">
        <ele>6.4000000953674</ele>
        <time>2020-08-27T09:31:41.000Z</time>
      </trkpt>
      <trkpt lat="47.27686" lon="-2.36734">
        <ele>6.4000000953674</ele>
        <time>2020-08-27T09:31:49.000Z</time>
      </trkpt>
      <trkpt lat="47.27666" lon="-2.36678">
        <ele>6.4000000953674</ele>
        <time>2020-08-27T09:31:56.000Z</time>
      </trkpt>
      <trkpt lat="47.27644" lon="-2.36616">
        <ele>6.4000000953674</ele>
        <time>2020-08-27T09:32:04.000Z</time>
      </trkpt>
      <trkpt lat="47.27619" lon="-2.36542">
        <ele>6.4000000953674</ele>
        <time>2020-08-27T09:32:13.000Z</time>
      </trkpt>
      <trkpt lat="47.276" lon="-2.36485">
        <ele>6.4000000953674</ele>
        <time>2020-08-27T09:32:20.000Z</time>
      </trkpt>
      <trkpt lat="47.27597" lon="-2.36477">
        <ele>6.4000000953674</ele>
        <time>2020-08-27T09:32:21.000Z</time>
      </trkpt>
      <trkpt lat="47.27581" lon="-2.36437">
        <ele>6.4000000953674</ele>
        <time>2020-08-27T09:32:26.000Z</time>
      </trkpt>
      <trkpt lat="47.27557" lon="-2.36372">
        <ele>6.4000000953674</ele>
        <time>2020-08-27T09:32:34.000Z</time>
      </trkpt>
      <trkpt lat="47.27529" lon="-2.36299">
        <ele>6.4000000953674</ele>
        <time>2020-08-27T09:32:43.000Z</time>
      </trkpt>
      <trkpt lat="47.27505" lon="-2.36234">
        <ele>6.4000000953674</ele>
        <time>2020-08-27T09:32:51.000Z</time>
      </trkpt>
      <trkpt lat="47.27478" lon="-2.36163">
        <ele>6.4000000953674</ele>
        <time>2020-08-27T09:33:00.000Z</time>
      </trkpt>
      <trkpt lat="47.27474" lon="-2.36155">
        <ele>6.4000000953674</ele>
        <time>2020-08-27T09:33:01.000Z</time>
      </trkpt>
      <trkpt lat="47.27463" lon="-2.36115">
        <ele>6.4000000953674</ele>
        <time>2020-08-27T09:33:06.000Z</time>
      </trkpt>
      <trkpt lat="47.2746" lon="-2.36108">
        <ele>6.4000000953674</ele>
        <time>2020-08-27T09:33:07.000Z</time>
      </trkpt>
      <trkpt lat="47.27449" lon="-2.36086">
        <ele>6.4000000953674</ele>
        <time>2020-08-27T09:33:10.000Z</time>
      </trkpt>
      <trkpt lat="47.27443" lon="-2.3607">
        <ele>6.4000000953674</ele>
        <time>2020-08-27T09:33:12.000Z</time>
      </trkpt>
      <trkpt lat="47.27435" lon="-2.36048">
        <ele>6.4000000953674</ele>
        <time>2020-08-27T09:33:15.000Z</time>
      </trkpt>
      <trkpt lat="47.27428" lon="-2.36033">
        <ele>6.4000000953674</ele>
        <time>2020-08-27T09:33:17.000Z</time>
      </trkpt>
      <trkpt lat="47.27405" lon="-2.3598">
        <ele>6.4000000953674</ele>
        <time>2020-08-27T09:33:24.000Z</time>
      </trkpt>
      <trkpt lat="47.27377" lon="-2.35907">
        <ele>6.4000000953674</ele>
        <time>2020-08-27T09:33:33.000Z</time>
      </trkpt>
      <trkpt lat="47.27349" lon="-2.35836">
        <ele>6</ele>
        <time>2020-08-27T09:33:42.000Z</time>
      </trkpt>
      <trkpt lat="47.27346" lon="-2.35829">
        <ele>5.5999999046326</ele>
        <time>2020-08-27T09:33:43.000Z</time>
      </trkpt>
      <trkpt lat="47.27343" lon="-2.35821">
        <ele>5.1999998092651</ele>
        <time>2020-08-27T09:33:44.000Z</time>
      </trkpt>
      <trkpt lat="47.2734" lon="-2.35813">
        <ele>4.5999999046326</ele>
        <time>2020-08-27T09:33:45.000Z</time>
      </trkpt>
      <trkpt lat="47.27337" lon="-2.35806">
        <ele>4.1999998092651</ele>
        <time>2020-08-27T09:33:46.000Z</time>
      </trkpt>
      <trkpt lat="47.27327" lon="-2.35776">
        <ele>4.1999998092651</ele>
        <time>2020-08-27T09:33:50.000Z</time>
      </trkpt>
      <trkpt lat="47.27323" lon="-2.35763">
        <ele>4.1999998092651</ele>
        <time>2020-08-27T09:33:52.000Z</time>
      </trkpt>
      <trkpt lat="47.27313" lon="-2.35745">
        <ele>4.1999998092651</ele>
        <time>2020-08-27T09:33:55.000Z</time>
      </trkpt>
      <trkpt lat="47.2731" lon="-2.35739">
        <ele>4.1999998092651</ele>
        <time>2020-08-27T09:33:56.000Z</time>
      </trkpt>
      <trkpt lat="47.27301" lon="-2.35709">
        <ele>4.1999998092651</ele>
        <time>2020-08-27T09:34:00.000Z</time>
      </trkpt>
      <trkpt lat="47.27298" lon="-2.35702">
        <ele>4.1999998092651</ele>
        <time>2020-08-27T09:34:01.000Z</time>
      </trkpt>
      <trkpt lat="47.27291" lon="-2.35689">
        <ele>4.1999998092651</ele>
        <time>2020-08-27T09:34:03.000Z</time>
      </trkpt>
      <trkpt lat="47.27288" lon="-2.35682">
        <ele>4.1999998092651</ele>
        <time>2020-08-27T09:34:04.000Z</time>
      </trkpt>
      <trkpt lat="47.27267" lon="-2.35635">
        <ele>4.1999998092651</ele>
        <time>2020-08-27T09:34:10.000Z</time>
      </trkpt>
      <trkpt lat="47.27237" lon="-2.35571">
        <ele>4.1999998092651</ele>
        <time>2020-08-27T09:34:18.000Z</time>
      </trkpt>
      <trkpt lat="47.27233" lon="-2.35563">
        <ele>4.5999999046326</ele>
        <time>2020-08-27T09:34:19.000Z</time>
      </trkpt>
      <trkpt lat="47.27229" lon="-2.35555">
        <ele>5</ele>
        <time>2020-08-27T09:34:20.000Z</time>
      </trkpt>
      <trkpt lat="47.27225" lon="-2.35546">
        <ele>5.5999999046326</ele>
        <time>2020-08-27T09:34:21.000Z</time>
      </trkpt>
      <trkpt lat="47.27221" lon="-2.35538">
        <ele>6</ele>
        <time>2020-08-27T09:34:22.000Z</time>
      </trkpt>
      <trkpt lat="47.27217" lon="-2.3553">
        <ele>6.4000000953674</ele>
        <time>2020-08-27T09:34:23.000Z</time>
      </trkpt>
      <trkpt lat="47.27205" lon="-2.35504">
        <ele>6.4000000953674</ele>
        <time>2020-08-27T09:34:26.000Z</time>
      </trkpt>
      <trkpt lat="47.27174" lon="-2.35442">
        <ele>6.4000000953674</ele>
        <time>2020-08-27T09:34:33.000Z</time>
      </trkpt>
      <trkpt lat="47.27138" lon="-2.35376">
        <ele>6.4000000953674</ele>
        <time>2020-08-27T09:34:41.000Z</time>
      </trkpt>
      <trkpt lat="47.27106" lon="-2.35324">
        <ele>6.4000000953674</ele>
        <time>2020-08-27T09:34:48.000Z</time>
      </trkpt>
      <trkpt lat="47.27072" lon="-2.3527">
        <ele>6.4000000953674</ele>
        <time>2020-08-27T09:34:56.000Z</time>
      </trkpt>
      <trkpt lat="47.27042" lon="-2.35222">
        <ele>6.4000000953674</ele>
        <time>2020-08-27T09:35:04.000Z</time>
      </trkpt>
      <trkpt lat="47.27015" lon="-2.35181">
        <ele>6.4000000953674</ele>
        <time>2020-08-27T09:35:11.000Z</time>
      </trkpt>
      <trkpt lat="47.26988" lon="-2.35138">
        <ele>6.4000000953674</ele>
        <time>2020-08-27T09:35:18.000Z</time>
      </trkpt>
      <trkpt lat="47.26969" lon="-2.35109">
        <ele>6</ele>
        <time>2020-08-27T09:35:23.000Z</time>
      </trkpt>
      <trkpt lat="47.26966" lon="-2.35103">
        <ele>5.5999999046326</ele>
        <time>2020-08-27T09:35:24.000Z</time>
      </trkpt>
      <trkpt lat="47.26963" lon="-2.35097">
        <ele>5.1999998092651</ele>
        <time>2020-08-27T09:35:25.000Z</time>
      </trkpt>
      <trkpt lat="47.26959" lon="-2.3509">
        <ele>4.8000001907349</ele>
        <time>2020-08-27T09:35:26.000Z</time>
      </trkpt>
      <trkpt lat="47.26956" lon="-2.35085">
        <ele>4.1999998092651</ele>
        <time>2020-08-27T09:35:27.000Z</time>
      </trkpt>
      <trkpt lat="47.26945" lon="-2.35068">
        <ele>4.1999998092651</ele>
        <time>2020-08-27T09:35:30.000Z</time>
      </trkpt>
      <trkpt lat="47.26936" lon="-2.35059">
        <ele>4.1999998092651</ele>
        <time>2020-08-27T09:35:32.000Z</time>
      </trkpt>
      <trkpt lat="47.26928" lon="-2.35048">
        <ele>4.1999998092651</ele>
        <time>2020-08-27T09:35:34.000Z</time>
      </trkpt>
      <trkpt lat="47.2691" lon="-2.35019">
        <ele>4.1999998092651</ele>
        <time>2020-08-27T09:35:39.000Z</time>
      </trkpt>
      <trkpt lat="47.26892" lon="-2.34991">
        <ele>4.1999998092651</ele>
        <time>2020-08-27T09:35:44.000Z</time>
      </trkpt>
      <trkpt lat="47.26884" lon="-2.3498">
        <ele>4.1999998092651</ele>
        <time>2020-08-27T09:35:46.000Z</time>
      </trkpt>
      <trkpt lat="47.26851" lon="-2.34932">
        <ele>4.1999998092651</ele>
        <time>2020-08-27T09:35:55.000Z</time>
      </trkpt>
      <trkpt lat="47.26824" lon="-2.34891">
        <ele>4.1999998092651</ele>
        <time>2020-08-27T09:36:02.000Z</time>
      </trkpt>
      <trkpt lat="47.26794" lon="-2.34846">
        <ele>4.1999998092651</ele>
        <time>2020-08-27T09:36:09.000Z</time>
      </trkpt>
      <trkpt lat="47.26774" lon="-2.34818">
        <ele>4.1999998092651</ele>
        <time>2020-08-27T09:36:14.000Z</time>
      </trkpt>
      <trkpt lat="47.2677" lon="-2.34814">
        <ele>4.1999998092651</ele>
        <time>2020-08-27T09:36:15.000Z</time>
      </trkpt>
      <trkpt lat="47.26754" lon="-2.34793">
        <ele>4.1999998092651</ele>
        <time>2020-08-27T09:36:19.000Z</time>
      </trkpt>
      <trkpt lat="47.2675" lon="-2.34787">
        <ele>4.1999998092651</ele>
        <time>2020-08-27T09:36:20.000Z</time>
      </trkpt>
      <trkpt lat="47.2671" lon="-2.34738">
        <ele>4.1999998092651</ele>
        <time>2020-08-27T09:36:28.000Z</time>
      </trkpt>
      <trkpt lat="47.26668" lon="-2.34687">
        <ele>4.1999998092651</ele>
        <time>2020-08-27T09:36:36.000Z</time>
      </trkpt>
      <trkpt lat="47.26663" lon="-2.34681">
        <ele>4.1999998092651</ele>
        <time>2020-08-27T09:36:37.000Z</time>
      </trkpt>
      <trkpt lat="47.26623" lon="-2.34631">
        <ele>4.1999998092651</ele>
        <time>2020-08-27T09:36:45.000Z</time>
      </trkpt>
      <trkpt lat="47.26586" lon="-2.34587">
        <ele>4.1999998092651</ele>
        <time>2020-08-27T09:36:53.000Z</time>
      </trkpt>
      <trkpt lat="47.26562" lon="-2.34563">
        <ele>4.1999998092651</ele>
        <time>2020-08-27T09:36:59.000Z</time>
      </trkpt>
      <trkpt lat="47.26537" lon="-2.34538">
        <ele>4.1999998092651</ele>
        <time>2020-08-27T09:37:06.000Z</time>
      </trkpt>
      <trkpt lat="47.26519" lon="-2.34524">
        <ele>4.1999998092651</ele>
        <time>2020-08-27T09:37:11.000Z</time>
      </trkpt>
      <trkpt lat="47.26498" lon="-2.34509">
        <ele>4.1999998092651</ele>
        <time>2020-08-27T09:37:19.000Z</time>
      </trkpt>
      <trkpt lat="47.26471" lon="-2.34489">
        <ele>4.1999998092651</ele>
        <time>2020-08-27T09:37:28.000Z</time>
      </trkpt>
      <trkpt lat="47.26442" lon="-2.34468">
        <ele>4.1999998092651</ele>
        <time>2020-08-27T09:37:35.000Z</time>
      </trkpt>
      <trkpt lat="47.26413" lon="-2.34447">
        <ele>4.1999998092651</ele>
        <time>2020-08-27T09:37:42.000Z</time>
      </trkpt>
      <trkpt lat="47.26375" lon="-2.34414">
        <ele>4.1999998092651</ele>
        <time>2020-08-27T09:37:51.000Z</time>
      </trkpt>
      <trkpt lat="47.2634" lon="-2.34383">
        <ele>4.1999998092651</ele>
        <time>2020-08-27T09:38:00.000Z</time>
      </trkpt>
      <trkpt lat="47.26328" lon="-2.3438">
        <ele>4.1999998092651</ele>
        <time>2020-08-27T09:38:03.000Z</time>
      </trkpt>
      <trkpt lat="47.26324" lon="-2.34378">
        <ele>4.1999998092651</ele>
        <time>2020-08-27T09:38:04.000Z</time>
      </trkpt>
      <trkpt lat="47.26315" lon="-2.34362">
        <ele>4.1999998092651</ele>
        <time>2020-08-27T09:38:07.000Z</time>
      </trkpt>
      <trkpt lat="47.26313" lon="-2.34357">
        <ele>4.1999998092651</ele>
        <time>2020-08-27T09:38:08.000Z</time>
      </trkpt>
      <trkpt lat="47.26293" lon="-2.34336">
        <ele>4.1999998092651</ele>
        <time>2020-08-27T09:38:13.000Z</time>
      </trkpt>
      <trkpt lat="47.26264" lon="-2.34307">
        <ele>4.1999998092651</ele>
        <time>2020-08-27T09:38:20.000Z</time>
      </trkpt>
      <trkpt lat="47.26232" lon="-2.34273">
        <ele>4.1999998092651</ele>
        <time>2020-08-27T09:38:28.000Z</time>
      </trkpt>
      <trkpt lat="47.26203" lon="-2.34242">
        <ele>4.1999998092651</ele>
        <time>2020-08-27T09:38:35.000Z</time>
      </trkpt>
      <trkpt lat="47.26164" lon="-2.34202">
        <ele>4.1999998092651</ele>
        <time>2020-08-27T09:38:43.000Z</time>
      </trkpt>
      <trkpt lat="47.26149" lon="-2.3419">
        <ele>4.1999998092651</ele>
        <time>2020-08-27T09:38:46.000Z</time>
      </trkpt>
      <trkpt lat="47.26139" lon="-2.34185">
        <ele>4.1999998092651</ele>
        <time>2020-08-27T09:38:48.000Z</time>
      </trkpt>
      <trkpt lat="47.26134" lon="-2.34182">
        <ele>4.1999998092651</ele>
        <time>2020-08-27T09:38:49.000Z</time>
      </trkpt>
      <trkpt lat="47.2612" lon="-2.34168">
        <ele>4.1999998092651</ele>
        <time>2020-08-27T09:38:52.000Z</time>
      </trkpt>
      <trkpt lat="47.26115" lon="-2.34164">
        <ele>4.1999998092651</ele>
        <time>2020-08-27T09:38:53.000Z</time>
      </trkpt>
      <trkpt lat="47.26092" lon="-2.34151">
        <ele>4.1999998092651</ele>
        <time>2020-08-27T09:38:57.000Z</time>
      </trkpt>
      <trkpt lat="47.26048" lon="-2.34129">
        <ele>4.1999998092651</ele>
        <time>2020-08-27T09:39:05.000Z</time>
      </trkpt>
      <trkpt lat="47.26036" lon="-2.34123">
        <ele>3.7999999523163</ele>
        <time>2020-08-27T09:39:07.000Z</time>
      </trkpt>
      <trkpt lat="47.2603" lon="-2.3412">
        <ele>3.4000000953674</ele>
        <time>2020-08-27T09:39:08.000Z</time>
      </trkpt>
      <trkpt lat="47.26024" lon="-2.34117">
        <ele>3</ele>
        <time>2020-08-27T09:39:09.000Z</time>
      </trkpt>
      <trkpt lat="47.26018" lon="-2.34114">
        <ele>2.5999999046326</ele>
        <time>2020-08-27T09:39:10.000Z</time>
      </trkpt>
      <trkpt lat="47.26011" lon="-2.34111">
        <ele>2.2000000476837</ele>
        <time>2020-08-27T09:39:11.000Z</time>
      </trkpt>
      <trkpt lat="47.25967" lon="-2.34089">
        <ele>2.2000000476837</ele>
        <time>2020-08-27T09:39:19.000Z</time>
      </trkpt>
      <trkpt lat="47.25956" lon="-2.34084">
        <ele>2.2000000476837</ele>
        <time>2020-08-27T09:39:23.000Z</time>
      </trkpt>
      <trkpt lat="47.25934" lon="-2.34076">
        <ele>2.2000000476837</ele>
        <time>2020-08-27T09:39:30.000Z</time>
      </trkpt>
      <trkpt lat="47.25929" lon="-2.34075">
        <ele>2.2000000476837</ele>
        <time>2020-08-27T09:39:31.000Z</time>
      </trkpt>
      <trkpt lat="47.25917" lon="-2.34078">
        <ele>2.2000000476837</ele>
        <time>2020-08-27T09:39:34.000Z</time>
      </trkpt>
      <trkpt lat="47.25914" lon="-2.34081">
        <ele>2.2000000476837</ele>
        <time>2020-08-27T09:39:35.000Z</time>
      </trkpt>
      <trkpt lat="47.25906" lon="-2.34092">
        <ele>2.2000000476837</ele>
        <time>2020-08-27T09:39:38.000Z</time>
      </trkpt>
      <trkpt lat="47.25901" lon="-2.341">
        <ele>2.2000000476837</ele>
        <time>2020-08-27T09:39:40.000Z</time>
      </trkpt>
      <trkpt lat="47.25889" lon="-2.34129">
        <ele>2.2000000476837</ele>
        <time>2020-08-27T09:39:46.000Z</time>
      </trkpt>
      <trkpt lat="47.25873" lon="-2.34166">
        <ele>2.2000000476837</ele>
        <time>2020-08-27T09:39:54.000Z</time>
      </trkpt>
      <trkpt lat="47.25869" lon="-2.34167">
        <ele>2.2000000476837</ele>
        <time>2020-08-27T09:39:55.000Z</time>
      </trkpt>
      <trkpt lat="47.25863" lon="-2.34164">
        <ele>2.2000000476837</ele>
        <time>2020-08-27T09:39:57.000Z</time>
      </trkpt>
      <trkpt lat="47.25847" lon="-2.34159">
        <ele>2.2000000476837</ele>
        <time>2020-08-27T09:40:03.000Z</time>
      </trkpt>
      <trkpt lat="47.25837" lon="-2.3416">
        <ele>2.2000000476837</ele>
        <time>2020-08-27T09:40:07.000Z</time>
      </trkpt>
      <trkpt lat="47.25835" lon="-2.34163">
        <ele>2.2000000476837</ele>
        <time>2020-08-27T09:40:08.000Z</time>
      </trkpt>
      <trkpt lat="47.25829" lon="-2.34181">
        <ele>2.2000000476837</ele>
        <time>2020-08-27T09:40:12.000Z</time>
      </trkpt>
      <trkpt lat="47.25817" lon="-2.34178">
        <ele>2.2000000476837</ele>
        <time>2020-08-27T09:40:15.000Z</time>
      </trkpt>
      <trkpt lat="47.25789" lon="-2.34173">
        <ele>2.2000000476837</ele>
        <time>2020-08-27T09:40:21.000Z</time>
      </trkpt>
      <trkpt lat="47.25784" lon="-2.34174">
        <ele>2.2000000476837</ele>
        <time>2020-08-27T09:40:22.000Z</time>
      </trkpt>
      <trkpt lat="47.25768" lon="-2.3418">
        <ele>2.2000000476837</ele>
        <time>2020-08-27T09:40:25.000Z</time>
      </trkpt>
      <trkpt lat="47.25757" lon="-2.34182">
        <ele>2.2000000476837</ele>
        <time>2020-08-27T09:40:27.000Z</time>
      </trkpt>
      <trkpt lat="47.25723" lon="-2.34187">
        <ele>2.2000000476837</ele>
        <time>2020-08-27T09:40:34.000Z</time>
      </trkpt>
      <trkpt lat="47.25698" lon="-2.3419">
        <ele>2.7999999523163</ele>
        <time>2020-08-27T09:40:39.000Z</time>
      </trkpt>
      <trkpt lat="47.25693" lon="-2.34191">
        <ele>3.2000000476837</ele>
        <time>2020-08-27T09:40:40.000Z</time>
      </trkpt>
      <trkpt lat="47.25688" lon="-2.34191">
        <ele>3.5999999046326</ele>
        <time>2020-08-27T09:40:41.000Z</time>
      </trkpt>
      <trkpt lat="47.25682" lon="-2.34191">
        <ele>4</ele>
        <time>2020-08-27T09:40:42.000Z</time>
      </trkpt>
      <trkpt lat="47.25678" lon="-2.34191">
        <ele>4.5999999046326</ele>
        <time>2020-08-27T09:40:43.000Z</time>
      </trkpt>
      <trkpt lat="47.25669" lon="-2.34185">
        <ele>4.5999999046326</ele>
        <time>2020-08-27T09:40:45.000Z</time>
      </trkpt>
      <trkpt lat="47.25659" lon="-2.34167">
        <ele>4.5999999046326</ele>
        <time>2020-08-27T09:40:48.000Z</time>
      </trkpt>
      <trkpt lat="47.25656" lon="-2.34161">
        <ele>4.5999999046326</ele>
        <time>2020-08-27T09:40:49.000Z</time>
      </trkpt>
      <trkpt lat="47.25647" lon="-2.34141">
        <ele>4.5999999046326</ele>
        <time>2020-08-27T09:40:52.000Z</time>
      </trkpt>
      <trkpt lat="47.25643" lon="-2.34126">
        <ele>4.5999999046326</ele>
        <time>2020-08-27T09:40:54.000Z</time>
      </trkpt>
      <trkpt lat="47.25642" lon="-2.34119">
        <ele>4.5999999046326</ele>
        <time>2020-08-27T09:40:55.000Z</time>
      </trkpt>
      <trkpt lat="47.25639" lon="-2.34088">
        <ele>4.5999999046326</ele>
        <time>2020-08-27T09:40:59.000Z</time>
      </trkpt>
      <trkpt lat="47.2564" lon="-2.34073">
        <ele>4.5999999046326</ele>
        <time>2020-08-27T09:41:01.000Z</time>
      </trkpt>
      <trkpt lat="47.25643" lon="-2.34052">
        <ele>4.5999999046326</ele>
        <time>2020-08-27T09:41:04.000Z</time>
      </trkpt>
      <trkpt lat="47.25652" lon="-2.34007">
        <ele>4.5999999046326</ele>
        <time>2020-08-27T09:41:11.000Z</time>
      </trkpt>
      <trkpt lat="47.25656" lon="-2.33987">
        <ele>4.5999999046326</ele>
        <time>2020-08-27T09:41:14.000Z</time>
      </trkpt>
      <trkpt lat="47.2566" lon="-2.33967">
        <ele>4.5999999046326</ele>
        <time>2020-08-27T09:41:17.000Z</time>
      </trkpt>
      <trkpt lat="47.25661" lon="-2.3396">
        <ele>4.5999999046326</ele>
        <time>2020-08-27T09:41:18.000Z</time>
      </trkpt>
      <trkpt lat="47.25661" lon="-2.3394">
        <ele>4.5999999046326</ele>
        <time>2020-08-27T09:41:21.000Z</time>
      </trkpt>
      <trkpt lat="47.2566" lon="-2.33933">
        <ele>4.5999999046326</ele>
        <time>2020-08-27T09:41:22.000Z</time>
      </trkpt>
      <trkpt lat="47.25655" lon="-2.33899">
        <ele>4.5999999046326</ele>
        <time>2020-08-27T09:41:27.000Z</time>
      </trkpt>
      <trkpt lat="47.25654" lon="-2.33895">
        <ele>4.5999999046326</ele>
        <time>2020-08-27T09:41:28.000Z</time>
      </trkpt>
      <trkpt lat="47.2565" lon="-2.33876">
        <ele>4.5999999046326</ele>
        <time>2020-08-27T09:41:33.000Z</time>
      </trkpt>
      <trkpt lat="47.25644" lon="-2.33843">
        <ele>4.5999999046326</ele>
        <time>2020-08-27T09:41:39.000Z</time>
      </trkpt>
      <trkpt lat="47.25638" lon="-2.33805">
        <ele>4.5999999046326</ele>
        <time>2020-08-27T09:41:45.000Z</time>
      </trkpt>
      <trkpt lat="47.25631" lon="-2.33784">
        <ele>4.5999999046326</ele>
        <time>2020-08-27T09:41:50.000Z</time>
      </trkpt>
      <trkpt lat="47.25621" lon="-2.33774">
        <ele>4.5999999046326</ele>
        <time>2020-08-27T09:41:55.000Z</time>
      </trkpt>
      <trkpt lat="47.25602" lon="-2.3377">
        <ele>4.5999999046326</ele>
        <time>2020-08-27T09:42:00.000Z</time>
      </trkpt>
      <trkpt lat="47.25585" lon="-2.33766">
        <ele>4.5999999046326</ele>
        <time>2020-08-27T09:42:04.000Z</time>
      </trkpt>
      <trkpt lat="47.25579" lon="-2.33764">
        <ele>4.5999999046326</ele>
        <time>2020-08-27T09:42:05.000Z</time>
      </trkpt>
      <trkpt lat="47.25546" lon="-2.33764">
        <ele>4.5999999046326</ele>
        <time>2020-08-27T09:42:11.000Z</time>
      </trkpt>
      <trkpt lat="47.25507" lon="-2.33761">
        <ele>4.5999999046326</ele>
        <time>2020-08-27T09:42:18.000Z</time>
      </trkpt>
      <trkpt lat="47.25478" lon="-2.33756">
        <ele>4.5999999046326</ele>
        <time>2020-08-27T09:42:23.000Z</time>
      </trkpt>
      <trkpt lat="47.25459" lon="-2.33743">
        <ele>4.5999999046326</ele>
        <time>2020-08-27T09:42:27.000Z</time>
      </trkpt>
      <trkpt lat="47.25453" lon="-2.33724">
        <ele>4.5999999046326</ele>
        <time>2020-08-27T09:42:30.000Z</time>
      </trkpt>
      <trkpt lat="47.25452" lon="-2.33716">
        <ele>4.5999999046326</ele>
        <time>2020-08-27T09:42:31.000Z</time>
      </trkpt>
      <trkpt lat="47.25448" lon="-2.33686">
        <ele>4.5999999046326</ele>
        <time>2020-08-27T09:42:35.000Z</time>
      </trkpt>
      <trkpt lat="47.25444" lon="-2.33656">
        <ele>4.5999999046326</ele>
        <time>2020-08-27T09:42:40.000Z</time>
      </trkpt>
      <trkpt lat="47.25442" lon="-2.33637">
        <ele>4.5999999046326</ele>
        <time>2020-08-27T09:42:43.000Z</time>
      </trkpt>
      <trkpt lat="47.25441" lon="-2.33611">
        <ele>4.5999999046326</ele>
        <time>2020-08-27T09:42:48.000Z</time>
      </trkpt>
      <trkpt lat="47.2544" lon="-2.33587">
        <ele>4.5999999046326</ele>
        <time>2020-08-27T09:42:54.000Z</time>
      </trkpt>
      <trkpt lat="47.25442" lon="-2.33584">
        <ele>4.5999999046326</ele>
        <time>2020-08-27T09:42:55.000Z</time>
      </trkpt>
      <trkpt lat="47.25451" lon="-2.33581">
        <ele>4.5999999046326</ele>
        <time>2020-08-27T09:42:58.000Z</time>
      </trkpt>
      <trkpt lat="47.25457" lon="-2.33572">
        <ele>4.5999999046326</ele>
        <time>2020-08-27T09:43:01.000Z</time>
      </trkpt>
      <trkpt lat="47.25453" lon="-2.33551">
        <ele>4.5999999046326</ele>
        <time>2020-08-27T09:43:05.000Z</time>
      </trkpt>
      <trkpt lat="47.25452" lon="-2.33546">
        <ele>4.5999999046326</ele>
        <time>2020-08-27T09:43:06.000Z</time>
      </trkpt>
      <trkpt lat="47.25447" lon="-2.33512">
        <ele>4.5999999046326</ele>
        <time>2020-08-27T09:43:12.000Z</time>
      </trkpt>
      <trkpt lat="47.25439" lon="-2.33479">
        <ele>4.5999999046326</ele>
        <time>2020-08-27T09:43:17.000Z</time>
      </trkpt>
      <trkpt lat="47.25434" lon="-2.33458">
        <ele>4.5999999046326</ele>
        <time>2020-08-27T09:43:20.000Z</time>
      </trkpt>
      <trkpt lat="47.25433" lon="-2.33435">
        <ele>4.5999999046326</ele>
        <time>2020-08-27T09:43:23.000Z</time>
      </trkpt>
      <trkpt lat="47.25431" lon="-2.3337">
        <ele>4.5999999046326</ele>
        <time>2020-08-27T09:43:32.000Z</time>
      </trkpt>
      <trkpt lat="47.25432" lon="-2.33351">
        <ele>4.5999999046326</ele>
        <time>2020-08-27T09:43:35.000Z</time>
      </trkpt>
      <trkpt lat="47.25435" lon="-2.33338">
        <ele>4.5999999046326</ele>
        <time>2020-08-27T09:43:37.000Z</time>
      </trkpt>
      <trkpt lat="47.25447" lon="-2.33311">
        <ele>4.5999999046326</ele>
        <time>2020-08-27T09:43:42.000Z</time>
      </trkpt>
      <trkpt lat="47.25449" lon="-2.33283">
        <ele>4.5999999046326</ele>
        <time>2020-08-27T09:43:47.000Z</time>
      </trkpt>
      <trkpt lat="47.25435" lon="-2.33248">
        <ele>4.5999999046326</ele>
        <time>2020-08-27T09:43:53.000Z</time>
      </trkpt>
      <trkpt lat="47.25414" lon="-2.332">
        <ele>4.5999999046326</ele>
        <time>2020-08-27T09:44:01.000Z</time>
      </trkpt>
      <trkpt lat="47.25404" lon="-2.33171">
        <ele>4.5999999046326</ele>
        <time>2020-08-27T09:44:06.000Z</time>
      </trkpt>
      <trkpt lat="47.254" lon="-2.33161">
        <ele>4.5999999046326</ele>
        <time>2020-08-27T09:44:08.000Z</time>
      </trkpt>
      <trkpt lat="47.25389" lon="-2.33148">
        <ele>4.5999999046326</ele>
        <time>2020-08-27T09:44:13.000Z</time>
      </trkpt>
      <trkpt lat="47.25383" lon="-2.33134">
        <ele>4.5999999046326</ele>
        <time>2020-08-27T09:44:17.000Z</time>
      </trkpt>
      <trkpt lat="47.25372" lon="-2.33106">
        <ele>4.5999999046326</ele>
        <time>2020-08-27T09:44:23.000Z</time>
      </trkpt>
      <trkpt lat="47.25354" lon="-2.33064">
        <ele>4.5999999046326</ele>
        <time>2020-08-27T09:44:31.000Z</time>
      </trkpt>
      <trkpt lat="47.25336" lon="-2.33017">
        <ele>4.5999999046326</ele>
        <time>2020-08-27T09:44:40.000Z</time>
      </trkpt>
      <trkpt lat="47.25334" lon="-2.33012">
        <ele>4.5999999046326</ele>
        <time>2020-08-27T09:44:41.000Z</time>
      </trkpt>
      <trkpt lat="47.25324" lon="-2.32985">
        <ele>4.5999999046326</ele>
        <time>2020-08-27T09:44:46.000Z</time>
      </trkpt>
      <trkpt lat="47.25306" lon="-2.32932">
        <ele>4.5999999046326</ele>
        <time>2020-08-27T09:44:56.000Z</time>
      </trkpt>
      <trkpt lat="47.25307" lon="-2.32927">
        <ele>4.5999999046326</ele>
        <time>2020-08-27T09:44:57.000Z</time>
      </trkpt>
      <trkpt lat="47.25312" lon="-2.32917">
        <ele>4.5999999046326</ele>
        <time>2020-08-27T09:44:59.000Z</time>
      </trkpt>
      <trkpt lat="47.25326" lon="-2.32903">
        <ele>4.5999999046326</ele>
        <time>2020-08-27T09:45:03.000Z</time>
      </trkpt>
      <trkpt lat="47.25329" lon="-2.329">
        <ele>4.5999999046326</ele>
        <time>2020-08-27T09:45:04.000Z</time>
      </trkpt>
      <trkpt lat="47.25354" lon="-2.32876">
        <ele>4.5999999046326</ele>
        <time>2020-08-27T09:45:11.000Z</time>
      </trkpt>
      <trkpt lat="47.2537" lon="-2.3286">
        <ele>4.5999999046326</ele>
        <time>2020-08-27T09:45:15.000Z</time>
      </trkpt>
      <trkpt lat="47.2538" lon="-2.32849">
        <ele>4.5999999046326</ele>
        <time>2020-08-27T09:45:18.000Z</time>
      </trkpt>
      <trkpt lat="47.2541" lon="-2.32811">
        <ele>5</ele>
        <time>2020-08-27T09:45:27.000Z</time>
      </trkpt>
      <trkpt lat="47.25413" lon="-2.32807">
        <ele>5.4000000953674</ele>
        <time>2020-08-27T09:45:28.000Z</time>
      </trkpt>
      <trkpt lat="47.25415" lon="-2.32804">
        <ele>5.8000001907349</ele>
        <time>2020-08-27T09:45:29.000Z</time>
      </trkpt>
      <trkpt lat="47.25418" lon="-2.32799">
        <ele>6.1999998092651</ele>
        <time>2020-08-27T09:45:30.000Z</time>
      </trkpt>
      <trkpt lat="47.2542" lon="-2.32796">
        <ele>6.5999999046326</ele>
        <time>2020-08-27T09:45:31.000Z</time>
      </trkpt>
      <trkpt lat="47.25424" lon="-2.32788">
        <ele>6.5999999046326</ele>
        <time>2020-08-27T09:45:33.000Z</time>
      </trkpt>
      <trkpt lat="47.25433" lon="-2.32767">
        <ele>6.5999999046326</ele>
        <time>2020-08-27T09:45:38.000Z</time>
      </trkpt>
      <trkpt lat="47.25439" lon="-2.32759">
        <ele>6.5999999046326</ele>
        <time>2020-08-27T09:45:40.000Z</time>
      </trkpt>
      <trkpt lat="47.2545" lon="-2.32744">
        <ele>6.5999999046326</ele>
        <time>2020-08-27T09:45:43.000Z</time>
      </trkpt>
      <trkpt lat="47.25476" lon="-2.3271">
        <ele>6.5999999046326</ele>
        <time>2020-08-27T09:45:50.000Z</time>
      </trkpt>
      <trkpt lat="47.25486" lon="-2.32692">
        <ele>6.5999999046326</ele>
        <time>2020-08-27T09:45:53.000Z</time>
      </trkpt>
      <trkpt lat="47.25488" lon="-2.32676">
        <ele>6.5999999046326</ele>
        <time>2020-08-27T09:45:55.000Z</time>
      </trkpt>
      <trkpt lat="47.25488" lon="-2.32668">
        <ele>7</ele>
        <time>2020-08-27T09:45:56.000Z</time>
      </trkpt>
      <trkpt lat="47.25488" lon="-2.32661">
        <ele>7.4000000953674</ele>
        <time>2020-08-27T09:45:57.000Z</time>
      </trkpt>
      <trkpt lat="47.25487" lon="-2.32653">
        <ele>7.8000001907349</ele>
        <time>2020-08-27T09:45:58.000Z</time>
      </trkpt>
      <trkpt lat="47.25486" lon="-2.32646">
        <ele>8.3999996185303</ele>
        <time>2020-08-27T09:45:59.000Z</time>
      </trkpt>
      <trkpt lat="47.25484" lon="-2.32639">
        <ele>8.8000001907349</ele>
        <time>2020-08-27T09:46:00.000Z</time>
      </trkpt>
      <trkpt lat="47.25476" lon="-2.32598">
        <ele>8.8000001907349</ele>
        <time>2020-08-27T09:46:06.000Z</time>
      </trkpt>
      <trkpt lat="47.25474" lon="-2.32591">
        <ele>8.8000001907349</ele>
        <time>2020-08-27T09:46:07.000Z</time>
      </trkpt>
      <trkpt lat="47.2546" lon="-2.32544">
        <ele>8.8000001907349</ele>
        <time>2020-08-27T09:46:14.000Z</time>
      </trkpt>
      <trkpt lat="47.25445" lon="-2.32486">
        <ele>8.8000001907349</ele>
        <time>2020-08-27T09:46:22.000Z</time>
      </trkpt>
      <trkpt lat="47.25432" lon="-2.32427">
        <ele>8.8000001907349</ele>
        <time>2020-08-27T09:46:30.000Z</time>
      </trkpt>
      <trkpt lat="47.25418" lon="-2.32368">
        <ele>8.8000001907349</ele>
        <time>2020-08-27T09:46:39.000Z</time>
      </trkpt>
      <trkpt lat="47.25405" lon="-2.32324">
        <ele>8.8000001907349</ele>
        <time>2020-08-27T09:46:45.000Z</time>
      </trkpt>
      <trkpt lat="47.25388" lon="-2.32277">
        <ele>8.8000001907349</ele>
        <time>2020-08-27T09:46:52.000Z</time>
      </trkpt>
      <trkpt lat="47.25371" lon="-2.3223">
        <ele>9.1999998092651</ele>
        <time>2020-08-27T09:46:59.000Z</time>
      </trkpt>
      <trkpt lat="47.25369" lon="-2.32223">
        <ele>9.6000003814697</ele>
        <time>2020-08-27T09:47:00.000Z</time>
      </trkpt>
      <trkpt lat="47.25366" lon="-2.32216">
        <ele>10</ele>
        <time>2020-08-27T09:47:01.000Z</time>
      </trkpt>
      <trkpt lat="47.25364" lon="-2.32209">
        <ele>10.39999961853</ele>
        <time>2020-08-27T09:47:02.000Z</time>
      </trkpt>
      <trkpt lat="47.25361" lon="-2.32202">
        <ele>10.800000190735</ele>
        <time>2020-08-27T09:47:03.000Z</time>
      </trkpt>
      <trkpt lat="47.25355" lon="-2.32182">
        <ele>10.800000190735</ele>
        <time>2020-08-27T09:47:06.000Z</time>
      </trkpt>
      <trkpt lat="47.25345" lon="-2.32151">
        <ele>10.800000190735</ele>
        <time>2020-08-27T09:47:11.000Z</time>
      </trkpt>
      <trkpt lat="47.25343" lon="-2.32144">
        <ele>11.199999809265</ele>
        <time>2020-08-27T09:47:12.000Z</time>
      </trkpt>
      <trkpt lat="47.25341" lon="-2.32138">
        <ele>11.60000038147</ele>
        <time>2020-08-27T09:47:13.000Z</time>
      </trkpt>
      <trkpt lat="47.2534" lon="-2.32132">
        <ele>12</ele>
        <time>2020-08-27T09:47:14.000Z</time>
      </trkpt>
      <trkpt lat="47.25338" lon="-2.32126">
        <ele>12.39999961853</ele>
        <time>2020-08-27T09:47:15.000Z</time>
      </trkpt>
      <trkpt lat="47.25337" lon="-2.3212">
        <ele>13</ele>
        <time>2020-08-27T09:47:16.000Z</time>
      </trkpt>
      <trkpt lat="47.25337" lon="-2.32114">
        <ele>13</ele>
        <time>2020-08-27T09:47:17.000Z</time>
      </trkpt>
      <trkpt lat="47.25338" lon="-2.32108">
        <ele>13</ele>
        <time>2020-08-27T09:47:18.000Z</time>
      </trkpt>
      <trkpt lat="47.25347" lon="-2.32087">
        <ele>13</ele>
        <time>2020-08-27T09:47:22.000Z</time>
      </trkpt>
      <trkpt lat="47.25351" lon="-2.32077">
        <ele>13</ele>
        <time>2020-08-27T09:47:24.000Z</time>
      </trkpt>
      <trkpt lat="47.25353" lon="-2.3207">
        <ele>13</ele>
        <time>2020-08-27T09:47:26.000Z</time>
      </trkpt>
      <trkpt lat="47.25358" lon="-2.32057">
        <ele>13</ele>
        <time>2020-08-27T09:47:30.000Z</time>
      </trkpt>
      <trkpt lat="47.25364" lon="-2.32049">
        <ele>13</ele>
        <time>2020-08-27T09:47:32.000Z</time>
      </trkpt>
      <trkpt lat="47.25374" lon="-2.32035">
        <ele>13</ele>
        <time>2020-08-27T09:47:35.000Z</time>
      </trkpt>
      <trkpt lat="47.25398" lon="-2.32007">
        <ele>13</ele>
        <time>2020-08-27T09:47:42.000Z</time>
      </trkpt>
      <trkpt lat="47.25417" lon="-2.31982">
        <ele>13</ele>
        <time>2020-08-27T09:47:48.000Z</time>
      </trkpt>
      <trkpt lat="47.25431" lon="-2.31963">
        <ele>13.39999961853</ele>
        <time>2020-08-27T09:47:52.000Z</time>
      </trkpt>
      <trkpt lat="47.25434" lon="-2.31958">
        <ele>13.800000190735</ele>
        <time>2020-08-27T09:47:53.000Z</time>
      </trkpt>
      <trkpt lat="47.25437" lon="-2.31953">
        <ele>14.199999809265</ele>
        <time>2020-08-27T09:47:54.000Z</time>
      </trkpt>
      <trkpt lat="47.25441" lon="-2.31948">
        <ele>15</ele>
        <time>2020-08-27T09:47:55.000Z</time>
      </trkpt>
      <trkpt lat="47.25449" lon="-2.31929">
        <ele>15</ele>
        <time>2020-08-27T09:47:58.000Z</time>
      </trkpt>
      <trkpt lat="47.25453" lon="-2.31916">
        <ele>15</ele>
        <time>2020-08-27T09:48:00.000Z</time>
      </trkpt>
      <trkpt lat="47.25454" lon="-2.31909">
        <ele>15</ele>
        <time>2020-08-27T09:48:01.000Z</time>
      </trkpt>
      <trkpt lat="47.25458" lon="-2.31873">
        <ele>15</ele>
        <time>2020-08-27T09:48:06.000Z</time>
      </trkpt>
      <trkpt lat="47.25459" lon="-2.31837">
        <ele>15</ele>
        <time>2020-08-27T09:48:11.000Z</time>
      </trkpt>
      <trkpt lat="47.25461" lon="-2.31831">
        <ele>15</ele>
        <time>2020-08-27T09:48:12.000Z</time>
      </trkpt>
      <trkpt lat="47.25473" lon="-2.31827">
        <ele>15</ele>
        <time>2020-08-27T09:48:15.000Z</time>
      </trkpt>
      <trkpt lat="47.25478" lon="-2.31827">
        <ele>15</ele>
        <time>2020-08-27T09:48:16.000Z</time>
      </trkpt>
      <trkpt lat="47.25482" lon="-2.31826">
        <ele>15</ele>
        <time>2020-08-27T09:48:17.000Z</time>
      </trkpt>
      <trkpt lat="47.2549" lon="-2.31824">
        <ele>15</ele>
        <time>2020-08-27T09:48:19.000Z</time>
      </trkpt>
      <trkpt lat="47.25494" lon="-2.31822">
        <ele>15</ele>
        <time>2020-08-27T09:48:20.000Z</time>
      </trkpt>
      <trkpt lat="47.25508" lon="-2.31822">
        <ele>15</ele>
        <time>2020-08-27T09:48:24.000Z</time>
      </trkpt>
      <trkpt lat="47.25511" lon="-2.31825">
        <ele>15</ele>
        <time>2020-08-27T09:48:25.000Z</time>
      </trkpt>
      <trkpt lat="47.25518" lon="-2.31827">
        <ele>15</ele>
        <time>2020-08-27T09:48:28.000Z</time>
      </trkpt>
      <trkpt lat="47.25519" lon="-2.31827">
        <ele>15</ele>
        <time>2020-08-27T09:48:30.000Z</time>
      </trkpt>
      <trkpt lat="47.25522" lon="-2.31824">
        <ele>17</ele>
        <time>2020-08-27T10:04:26.000Z</time>
      </trkpt>
      <trkpt lat="47.25525" lon="-2.31823">
        <ele>13.60000038147</ele>
        <time>2020-08-27T10:04:29.000Z</time>
      </trkpt>
      <trkpt lat="47.25525" lon="-2.31823">
        <ele>12.39999961853</ele>
        <time>2020-08-27T10:04:30.000Z</time>
      </trkpt>
      <trkpt lat="47.25525" lon="-2.31823">
        <ele>12.199999809265</ele>
        <time>2020-08-27T10:04:31.000Z</time>
      </trkpt>
      <trkpt lat="47.25525" lon="-2.31821">
        <ele>15.60000038147</ele>
        <time>2020-08-27T10:04:32.000Z</time>
      </trkpt>
      <trkpt lat="47.25526" lon="-2.31819">
        <ele>16.799999237061</ele>
        <time>2020-08-27T10:04:33.000Z</time>
      </trkpt>
      <trkpt lat="47.25526" lon="-2.31817">
        <ele>17.200000762939</ele>
        <time>2020-08-27T10:04:34.000Z</time>
      </trkpt>
      <trkpt lat="47.25528" lon="-2.31815">
        <ele>17.39999961853</ele>
        <time>2020-08-27T10:04:35.000Z</time>
      </trkpt>
      <trkpt lat="47.2553" lon="-2.31814">
        <ele>17.799999237061</ele>
        <time>2020-08-27T10:04:36.000Z</time>
      </trkpt>
      <trkpt lat="47.25532" lon="-2.31813">
        <ele>18.200000762939</ele>
        <time>2020-08-27T10:04:37.000Z</time>
      </trkpt>
      <trkpt lat="47.25534" lon="-2.31812">
        <ele>18.39999961853</ele>
        <time>2020-08-27T10:04:38.000Z</time>
      </trkpt>
      <trkpt lat="47.25548" lon="-2.31808">
        <ele>18.39999961853</ele>
        <time>2020-08-27T10:04:43.000Z</time>
      </trkpt>
      <trkpt lat="47.25553" lon="-2.31808">
        <ele>18.39999961853</ele>
        <time>2020-08-27T10:04:46.000Z</time>
      </trkpt>
      <trkpt lat="47.25554" lon="-2.31805">
        <ele>18.39999961853</ele>
        <time>2020-08-27T10:04:51.000Z</time>
      </trkpt>
      <trkpt lat="47.2556" lon="-2.31798">
        <ele>18</ele>
        <time>2020-08-27T10:04:55.000Z</time>
      </trkpt>
      <trkpt lat="47.25563" lon="-2.31795">
        <ele>17.60000038147</ele>
        <time>2020-08-27T10:04:56.000Z</time>
      </trkpt>
      <trkpt lat="47.25565" lon="-2.31792">
        <ele>17.200000762939</ele>
        <time>2020-08-27T10:04:57.000Z</time>
      </trkpt>
      <trkpt lat="47.25566" lon="-2.31788">
        <ele>16.60000038147</ele>
        <time>2020-08-27T10:04:58.000Z</time>
      </trkpt>
      <trkpt lat="47.25568" lon="-2.31783">
        <ele>16.200000762939</ele>
        <time>2020-08-27T10:04:59.000Z</time>
      </trkpt>
      <trkpt lat="47.2557" lon="-2.31778">
        <ele>16.200000762939</ele>
        <time>2020-08-27T10:05:00.000Z</time>
      </trkpt>
      <trkpt lat="47.25581" lon="-2.31763">
        <ele>16.200000762939</ele>
        <time>2020-08-27T10:05:03.000Z</time>
      </trkpt>
      <trkpt lat="47.25584" lon="-2.31757">
        <ele>16.200000762939</ele>
        <time>2020-08-27T10:05:04.000Z</time>
      </trkpt>
      <trkpt lat="47.25587" lon="-2.3175">
        <ele>16.200000762939</ele>
        <time>2020-08-27T10:05:05.000Z</time>
      </trkpt>
      <trkpt lat="47.25594" lon="-2.31729">
        <ele>16.200000762939</ele>
        <time>2020-08-27T10:05:08.000Z</time>
      </trkpt>
      <trkpt lat="47.25604" lon="-2.31715">
        <ele>16.200000762939</ele>
        <time>2020-08-27T10:05:11.000Z</time>
      </trkpt>
      <trkpt lat="47.25626" lon="-2.31707">
        <ele>16.200000762939</ele>
        <time>2020-08-27T10:05:15.000Z</time>
      </trkpt>
      <trkpt lat="47.25631" lon="-2.31705">
        <ele>16.200000762939</ele>
        <time>2020-08-27T10:05:16.000Z</time>
      </trkpt>
      <trkpt lat="47.25637" lon="-2.31702">
        <ele>15.800000190735</ele>
        <time>2020-08-27T10:05:17.000Z</time>
      </trkpt>
      <trkpt lat="47.25643" lon="-2.31697">
        <ele>15.39999961853</ele>
        <time>2020-08-27T10:05:18.000Z</time>
      </trkpt>
      <trkpt lat="47.25648" lon="-2.31691">
        <ele>14.800000190735</ele>
        <time>2020-08-27T10:05:19.000Z</time>
      </trkpt>
      <trkpt lat="47.25651" lon="-2.31684">
        <ele>14.39999961853</ele>
        <time>2020-08-27T10:05:20.000Z</time>
      </trkpt>
      <trkpt lat="47.25654" lon="-2.31677">
        <ele>14</ele>
        <time>2020-08-27T10:05:21.000Z</time>
      </trkpt>
      <trkpt lat="47.25656" lon="-2.31671">
        <ele>14</ele>
        <time>2020-08-27T10:05:22.000Z</time>
      </trkpt>
      <trkpt lat="47.25659" lon="-2.31666">
        <ele>13.39999961853</ele>
        <time>2020-08-27T10:05:23.000Z</time>
      </trkpt>
      <trkpt lat="47.25662" lon="-2.31662">
        <ele>13</ele>
        <time>2020-08-27T10:05:24.000Z</time>
      </trkpt>
      <trkpt lat="47.25665" lon="-2.31661">
        <ele>12.60000038147</ele>
        <time>2020-08-27T10:05:25.000Z</time>
      </trkpt>
      <trkpt lat="47.2567" lon="-2.31662">
        <ele>12.199999809265</ele>
        <time>2020-08-27T10:05:26.000Z</time>
      </trkpt>
      <trkpt lat="47.25674" lon="-2.31665">
        <ele>11.60000038147</ele>
        <time>2020-08-27T10:05:27.000Z</time>
      </trkpt>
      <trkpt lat="47.25678" lon="-2.31669">
        <ele>11.60000038147</ele>
        <time>2020-08-27T10:05:28.000Z</time>
      </trkpt>
      <trkpt lat="47.25688" lon="-2.31673">
        <ele>11.60000038147</ele>
        <time>2020-08-27T10:05:30.000Z</time>
      </trkpt>
      <trkpt lat="47.257" lon="-2.31679">
        <ele>11.60000038147</ele>
        <time>2020-08-27T10:05:32.000Z</time>
      </trkpt>
      <trkpt lat="47.25725" lon="-2.31694">
        <ele>11.60000038147</ele>
        <time>2020-08-27T10:05:36.000Z</time>
      </trkpt>
      <trkpt lat="47.25732" lon="-2.31695">
        <ele>11.60000038147</ele>
        <time>2020-08-27T10:05:37.000Z</time>
      </trkpt>
      <trkpt lat="47.2575" lon="-2.31683">
        <ele>11.60000038147</ele>
        <time>2020-08-27T10:05:40.000Z</time>
      </trkpt>
      <trkpt lat="47.25793" lon="-2.31652">
        <ele>11.60000038147</ele>
        <time>2020-08-27T10:05:48.000Z</time>
      </trkpt>
      <trkpt lat="47.25829" lon="-2.31622">
        <ele>11.60000038147</ele>
        <time>2020-08-27T10:05:55.000Z</time>
      </trkpt>
      <trkpt lat="47.25859" lon="-2.31594">
        <ele>11.60000038147</ele>
        <time>2020-08-27T10:06:01.000Z</time>
      </trkpt>
      <trkpt lat="47.25882" lon="-2.3157">
        <ele>11.60000038147</ele>
        <time>2020-08-27T10:06:05.000Z</time>
      </trkpt>
      <trkpt lat="47.25887" lon="-2.31561">
        <ele>11.60000038147</ele>
        <time>2020-08-27T10:06:06.000Z</time>
      </trkpt>
      <trkpt lat="47.259" lon="-2.31528">
        <ele>11.60000038147</ele>
        <time>2020-08-27T10:06:10.000Z</time>
      </trkpt>
      <trkpt lat="47.25903" lon="-2.31523">
        <ele>11.199999809265</ele>
        <time>2020-08-27T10:06:11.000Z</time>
      </trkpt>
      <trkpt lat="47.25906" lon="-2.31519">
        <ele>10.800000190735</ele>
        <time>2020-08-27T10:06:12.000Z</time>
      </trkpt>
      <trkpt lat="47.25909" lon="-2.31517">
        <ele>10.39999961853</ele>
        <time>2020-08-27T10:06:13.000Z</time>
      </trkpt>
      <trkpt lat="47.25912" lon="-2.31514">
        <ele>9.8000001907349</ele>
        <time>2020-08-27T10:06:14.000Z</time>
      </trkpt>
      <trkpt lat="47.25913" lon="-2.31511">
        <ele>9.3999996185303</ele>
        <time>2020-08-27T10:06:15.000Z</time>
      </trkpt>
      <trkpt lat="47.25913" lon="-2.31508">
        <ele>9.3999996185303</ele>
        <time>2020-08-27T10:06:16.000Z</time>
      </trkpt>
      <trkpt lat="47.25912" lon="-2.31504">
        <ele>9.3999996185303</ele>
        <time>2020-08-27T10:06:20.000Z</time>
      </trkpt>
      <trkpt lat="47.25915" lon="-2.31491">
        <ele>9.3999996185303</ele>
        <time>2020-08-27T10:06:23.000Z</time>
      </trkpt>
      <trkpt lat="47.25919" lon="-2.31479">
        <ele>9.3999996185303</ele>
        <time>2020-08-27T10:06:25.000Z</time>
      </trkpt>
      <trkpt lat="47.25923" lon="-2.31466">
        <ele>9</ele>
        <time>2020-08-27T10:06:27.000Z</time>
      </trkpt>
      <trkpt lat="47.25925" lon="-2.31462">
        <ele>8.6000003814697</ele>
        <time>2020-08-27T10:06:28.000Z</time>
      </trkpt>
      <trkpt lat="47.25928" lon="-2.31459">
        <ele>8.1999998092651</ele>
        <time>2020-08-27T10:06:29.000Z</time>
      </trkpt>
      <trkpt lat="47.25932" lon="-2.31458">
        <ele>7.8000001907349</ele>
        <time>2020-08-27T10:06:30.000Z</time>
      </trkpt>
      <trkpt lat="47.25936" lon="-2.31458">
        <ele>7.4000000953674</ele>
        <time>2020-08-27T10:06:31.000Z</time>
      </trkpt>
      <trkpt lat="47.25953" lon="-2.31458">
        <ele>7.4000000953674</ele>
        <time>2020-08-27T10:06:35.000Z</time>
      </trkpt>
      <trkpt lat="47.25961" lon="-2.31443">
        <ele>7.4000000953674</ele>
        <time>2020-08-27T10:06:38.000Z</time>
      </trkpt>
      <trkpt lat="47.25964" lon="-2.31438">
        <ele>7.4000000953674</ele>
        <time>2020-08-27T10:06:39.000Z</time>
      </trkpt>
      <trkpt lat="47.25967" lon="-2.31433">
        <ele>7.4000000953674</ele>
        <time>2020-08-27T10:06:40.000Z</time>
      </trkpt>
      <trkpt lat="47.2598" lon="-2.31426">
        <ele>7.4000000953674</ele>
        <time>2020-08-27T10:06:43.000Z</time>
      </trkpt>
      <trkpt lat="47.25994" lon="-2.31433">
        <ele>7.4000000953674</ele>
        <time>2020-08-27T10:06:46.000Z</time>
      </trkpt>
      <trkpt lat="47.25999" lon="-2.31436">
        <ele>7.4000000953674</ele>
        <time>2020-08-27T10:06:47.000Z</time>
      </trkpt>
      <trkpt lat="47.2603" lon="-2.31458">
        <ele>7.4000000953674</ele>
        <time>2020-08-27T10:06:54.000Z</time>
      </trkpt>
      <trkpt lat="47.26056" lon="-2.31474">
        <ele>7.4000000953674</ele>
        <time>2020-08-27T10:07:00.000Z</time>
      </trkpt>
      <trkpt lat="47.26059" lon="-2.31478">
        <ele>7.4000000953674</ele>
        <time>2020-08-27T10:07:01.000Z</time>
      </trkpt>
      <trkpt lat="47.26061" lon="-2.31489">
        <ele>7.4000000953674</ele>
        <time>2020-08-27T10:07:03.000Z</time>
      </trkpt>
      <trkpt lat="47.2605" lon="-2.31498">
        <ele>7.4000000953674</ele>
        <time>2020-08-27T10:07:06.000Z</time>
      </trkpt>
      <trkpt lat="47.26043" lon="-2.31516">
        <ele>7.4000000953674</ele>
        <time>2020-08-27T10:07:10.000Z</time>
      </trkpt>
      <trkpt lat="47.26053" lon="-2.31534">
        <ele>7.4000000953674</ele>
        <time>2020-08-27T10:07:13.000Z</time>
      </trkpt>
      <trkpt lat="47.26064" lon="-2.31552">
        <ele>7.4000000953674</ele>
        <time>2020-08-27T10:07:16.000Z</time>
      </trkpt>
      <trkpt lat="47.26067" lon="-2.31559">
        <ele>7</ele>
        <time>2020-08-27T10:07:17.000Z</time>
      </trkpt>
      <trkpt lat="47.26069" lon="-2.31565">
        <ele>6.5999999046326</ele>
        <time>2020-08-27T10:07:18.000Z</time>
      </trkpt>
      <trkpt lat="47.26072" lon="-2.31571">
        <ele>6.1999998092651</ele>
        <time>2020-08-27T10:07:19.000Z</time>
      </trkpt>
      <trkpt lat="47.26074" lon="-2.31575">
        <ele>5.8000001907349</ele>
        <time>2020-08-27T10:07:20.000Z</time>
      </trkpt>
      <trkpt lat="47.26076" lon="-2.31578">
        <ele>5.4000000953674</ele>
        <time>2020-08-27T10:07:21.000Z</time>
      </trkpt>
      <trkpt lat="47.26078" lon="-2.31579">
        <ele>5.4000000953674</ele>
        <time>2020-08-27T10:07:22.000Z</time>
      </trkpt>
      <trkpt lat="47.26088" lon="-2.31588">
        <ele>5.4000000953674</ele>
        <time>2020-08-27T10:07:26.000Z</time>
      </trkpt>
      <trkpt lat="47.26091" lon="-2.31591">
        <ele>5.4000000953674</ele>
        <time>2020-08-27T10:07:27.000Z</time>
      </trkpt>
      <trkpt lat="47.26098" lon="-2.31599">
        <ele>5.4000000953674</ele>
        <time>2020-08-27T10:07:29.000Z</time>
      </trkpt>
      <trkpt lat="47.26105" lon="-2.31609">
        <ele>5.4000000953674</ele>
        <time>2020-08-27T10:07:31.000Z</time>
      </trkpt>
      <trkpt lat="47.26119" lon="-2.31613">
        <ele>5.4000000953674</ele>
        <time>2020-08-27T10:07:34.000Z</time>
      </trkpt>
      <trkpt lat="47.26128" lon="-2.31612">
        <ele>5.4000000953674</ele>
        <time>2020-08-27T10:07:36.000Z</time>
      </trkpt>
      <trkpt lat="47.26147" lon="-2.31608">
        <ele>5.4000000953674</ele>
        <time>2020-08-27T10:07:40.000Z</time>
      </trkpt>
      <trkpt lat="47.2618" lon="-2.31595">
        <ele>5.4000000953674</ele>
        <time>2020-08-27T10:07:47.000Z</time>
      </trkpt>
      <trkpt lat="47.26185" lon="-2.31593">
        <ele>5.4000000953674</ele>
        <time>2020-08-27T10:07:48.000Z</time>
      </trkpt>
      <trkpt lat="47.26205" lon="-2.31589">
        <ele>5.4000000953674</ele>
        <time>2020-08-27T10:07:52.000Z</time>
      </trkpt>
      <trkpt lat="47.2621" lon="-2.31589">
        <ele>5.4000000953674</ele>
        <time>2020-08-27T10:07:53.000Z</time>
      </trkpt>
      <trkpt lat="47.26229" lon="-2.31597">
        <ele>5.4000000953674</ele>
        <time>2020-08-27T10:07:57.000Z</time>
      </trkpt>
      <trkpt lat="47.26233" lon="-2.316">
        <ele>5.4000000953674</ele>
        <time>2020-08-27T10:07:58.000Z</time>
      </trkpt>
      <trkpt lat="47.26237" lon="-2.31604">
        <ele>5.4000000953674</ele>
        <time>2020-08-27T10:07:59.000Z</time>
      </trkpt>
      <trkpt lat="47.26248" lon="-2.3162">
        <ele>5.4000000953674</ele>
        <time>2020-08-27T10:08:02.000Z</time>
      </trkpt>
      <trkpt lat="47.26272" lon="-2.31661">
        <ele>5.4000000953674</ele>
        <time>2020-08-27T10:08:09.000Z</time>
      </trkpt>
      <trkpt lat="47.26289" lon="-2.31697">
        <ele>5.4000000953674</ele>
        <time>2020-08-27T10:08:15.000Z</time>
      </trkpt>
      <trkpt lat="47.26292" lon="-2.31702">
        <ele>5.4000000953674</ele>
        <time>2020-08-27T10:08:16.000Z</time>
      </trkpt>
      <trkpt lat="47.26306" lon="-2.3171">
        <ele>5.4000000953674</ele>
        <time>2020-08-27T10:08:19.000Z</time>
      </trkpt>
      <trkpt lat="47.26323" lon="-2.31704">
        <ele>5.4000000953674</ele>
        <time>2020-08-27T10:08:23.000Z</time>
      </trkpt>
      <trkpt lat="47.26332" lon="-2.31695">
        <ele>5.4000000953674</ele>
        <time>2020-08-27T10:08:26.000Z</time>
      </trkpt>
      <trkpt lat="47.26341" lon="-2.31684">
        <ele>5.4000000953674</ele>
        <time>2020-08-27T10:08:30.000Z</time>
      </trkpt>
      <trkpt lat="47.26367" lon="-2.31671">
        <ele>5.4000000953674</ele>
        <time>2020-08-27T10:08:37.000Z</time>
      </trkpt>
      <trkpt lat="47.26371" lon="-2.3167">
        <ele>5.8000001907349</ele>
        <time>2020-08-27T10:08:38.000Z</time>
      </trkpt>
      <trkpt lat="47.26374" lon="-2.31669">
        <ele>6.1999998092651</ele>
        <time>2020-08-27T10:08:39.000Z</time>
      </trkpt>
      <trkpt lat="47.26379" lon="-2.31667">
        <ele>6.5999999046326</ele>
        <time>2020-08-27T10:08:40.000Z</time>
      </trkpt>
      <trkpt lat="47.26382" lon="-2.31664">
        <ele>7</ele>
        <time>2020-08-27T10:08:41.000Z</time>
      </trkpt>
      <trkpt lat="47.26386" lon="-2.31662">
        <ele>7.4000000953674</ele>
        <time>2020-08-27T10:08:42.000Z</time>
      </trkpt>
      <trkpt lat="47.26409" lon="-2.3165">
        <ele>7.4000000953674</ele>
        <time>2020-08-27T10:08:49.000Z</time>
      </trkpt>
      <trkpt lat="47.2641" lon="-2.31646">
        <ele>7.4000000953674</ele>
        <time>2020-08-27T10:08:50.000Z</time>
      </trkpt>
      <trkpt lat="47.26411" lon="-2.31637">
        <ele>7.4000000953674</ele>
        <time>2020-08-27T10:08:52.000Z</time>
      </trkpt>
      <trkpt lat="47.2641" lon="-2.31628">
        <ele>7.4000000953674</ele>
        <time>2020-08-27T10:08:54.000Z</time>
      </trkpt>
      <trkpt lat="47.2641" lon="-2.31603">
        <ele>7.4000000953674</ele>
        <time>2020-08-27T10:08:59.000Z</time>
      </trkpt>
      <trkpt lat="47.2641" lon="-2.31572">
        <ele>7.4000000953674</ele>
        <time>2020-08-27T10:09:05.000Z</time>
      </trkpt>
      <trkpt lat="47.26411" lon="-2.31556">
        <ele>7.4000000953674</ele>
        <time>2020-08-27T10:09:09.000Z</time>
      </trkpt>
      <trkpt lat="47.26413" lon="-2.31554">
        <ele>7.4000000953674</ele>
        <time>2020-08-27T10:09:10.000Z</time>
      </trkpt>
      <trkpt lat="47.26416" lon="-2.31554">
        <ele>7.8000001907349</ele>
        <time>2020-08-27T10:09:12.000Z</time>
      </trkpt>
      <trkpt lat="47.26416" lon="-2.31554">
        <ele>8.1999998092651</ele>
        <time>2020-08-27T10:09:13.000Z</time>
      </trkpt>
      <trkpt lat="47.26416" lon="-2.31555">
        <ele>8.8000001907349</ele>
        <time>2020-08-27T10:09:14.000Z</time>
      </trkpt>
    </trkseg>
  </trk>
</gpx>